<?xml version="1.0" encoding="UTF-8" standalone="no" ?>
<gpx xmlns="http://www.topografix.com/GPX/1/1" xmlns:xsi="http://www.w3.org/2001/XMLSchema-instance" xsi:schemaLocation="http://www.topografix.com/GPX/1/1 http://www.topografix.com/GPX/1/1/gpx.xsd" version="1.1" creator="VisuGPX - https://www.visugpx.com">
  <metadata>
    <name>RANDO GOURNERIE</name>
    <desc><![CDATA[Rando 24 avec digression vers le lac de Beaulieu]]></desc>
  </metadata>
  <trk>
    <name><![CDATA[2013-10-13-01]]></name>
    <trkseg>
      <trkpt lat="47.23083" lon="-1.60673">
        <ele>24.779258</ele>
        <time>2013-10-13T07:13:31Z</time>
      </trkpt>
      <trkpt lat="47.23083" lon="-1.60673">
        <ele>36.003387</ele>
        <time>2013-10-13T07:13:32Z</time>
      </trkpt>
      <trkpt lat="47.23083" lon="-1.60673">
        <ele>36</ele>
        <time>2013-10-13T07:13:32Z</time>
      </trkpt>
      <trkpt lat="47.23074" lon="-1.60687">
        <ele>39.5</ele>
        <time>2013-10-13T07:13:38Z</time>
      </trkpt>
      <trkpt lat="47.23072" lon="-1.607">
        <ele>38.8</ele>
        <time>2013-10-13T07:13:43Z</time>
      </trkpt>
      <trkpt lat="47.23073" lon="-1.60716">
        <ele>40.8</ele>
        <time>2013-10-13T07:13:48Z</time>
      </trkpt>
      <trkpt lat="47.23075" lon="-1.60733">
        <ele>37.3</ele>
        <time>2013-10-13T07:13:53Z</time>
      </trkpt>
      <trkpt lat="47.2308" lon="-1.60745">
        <ele>35.1</ele>
        <time>2013-10-13T07:13:56Z</time>
      </trkpt>
      <trkpt lat="47.2309" lon="-1.60744">
        <ele>37</ele>
        <time>2013-10-13T07:14:00Z</time>
      </trkpt>
      <trkpt lat="47.23099" lon="-1.60739">
        <ele>36.9</ele>
        <time>2013-10-13T07:14:03Z</time>
      </trkpt>
      <trkpt lat="47.23109" lon="-1.60733">
        <ele>37.1</ele>
        <time>2013-10-13T07:14:06Z</time>
      </trkpt>
      <trkpt lat="47.23122" lon="-1.60724">
        <ele>37.1</ele>
        <time>2013-10-13T07:14:09Z</time>
      </trkpt>
      <trkpt lat="47.2313" lon="-1.60717">
        <ele>37.1</ele>
        <time>2013-10-13T07:14:11Z</time>
      </trkpt>
      <trkpt lat="47.23141" lon="-1.60709">
        <ele>36.9</ele>
        <time>2013-10-13T07:14:14Z</time>
      </trkpt>
      <trkpt lat="47.23152" lon="-1.60713">
        <ele>35.2</ele>
        <time>2013-10-13T07:14:17Z</time>
      </trkpt>
      <trkpt lat="47.23162" lon="-1.60724">
        <ele>34.9</ele>
        <time>2013-10-13T07:14:20Z</time>
      </trkpt>
      <trkpt lat="47.23171" lon="-1.6074">
        <ele>34.6</ele>
        <time>2013-10-13T07:14:23Z</time>
      </trkpt>
      <trkpt lat="47.23175" lon="-1.60753">
        <ele>34.4</ele>
        <time>2013-10-13T07:14:25Z</time>
      </trkpt>
      <trkpt lat="47.23184" lon="-1.6076">
        <ele>34</ele>
        <time>2013-10-13T07:14:29Z</time>
      </trkpt>
      <trkpt lat="47.23193" lon="-1.60765">
        <ele>31.4</ele>
        <time>2013-10-13T07:14:31Z</time>
      </trkpt>
      <trkpt lat="47.23202" lon="-1.60775">
        <ele>29.1</ele>
        <time>2013-10-13T07:14:33Z</time>
      </trkpt>
      <trkpt lat="47.23202" lon="-1.60775">
        <ele>29.1</ele>
        <time>2013-10-13T07:14:33Z</time>
      </trkpt>
      <trkpt lat="47.23213" lon="-1.60786">
        <ele>27.8</ele>
        <time>2013-10-13T07:14:35Z</time>
      </trkpt>
      <trkpt lat="47.23222" lon="-1.60795">
        <ele>27.7</ele>
        <time>2013-10-13T07:14:37Z</time>
      </trkpt>
      <trkpt lat="47.2323" lon="-1.60804">
        <ele>28.3</ele>
        <time>2013-10-13T07:14:39Z</time>
      </trkpt>
      <trkpt lat="47.23238" lon="-1.60811">
        <ele>29.9</ele>
        <time>2013-10-13T07:14:41Z</time>
      </trkpt>
      <trkpt lat="47.23246" lon="-1.6082">
        <ele>30.6</ele>
        <time>2013-10-13T07:14:44Z</time>
      </trkpt>
      <trkpt lat="47.23257" lon="-1.60823">
        <ele>30.7</ele>
        <time>2013-10-13T07:14:47Z</time>
      </trkpt>
      <trkpt lat="47.23266" lon="-1.60817">
        <ele>30.1</ele>
        <time>2013-10-13T07:14:49Z</time>
      </trkpt>
      <trkpt lat="47.23276" lon="-1.60808">
        <ele>30.6</ele>
        <time>2013-10-13T07:14:51Z</time>
      </trkpt>
      <trkpt lat="47.23285" lon="-1.60798">
        <ele>30.7</ele>
        <time>2013-10-13T07:14:53Z</time>
      </trkpt>
      <trkpt lat="47.23294" lon="-1.60788">
        <ele>30.9</ele>
        <time>2013-10-13T07:14:55Z</time>
      </trkpt>
      <trkpt lat="47.23304" lon="-1.6078">
        <ele>30.9</ele>
        <time>2013-10-13T07:14:57Z</time>
      </trkpt>
      <trkpt lat="47.23316" lon="-1.60771">
        <ele>30.9</ele>
        <time>2013-10-13T07:14:59Z</time>
      </trkpt>
      <trkpt lat="47.23327" lon="-1.60762">
        <ele>30.7</ele>
        <time>2013-10-13T07:15:01Z</time>
      </trkpt>
      <trkpt lat="47.23337" lon="-1.60753">
        <ele>30.3</ele>
        <time>2013-10-13T07:15:03Z</time>
      </trkpt>
      <trkpt lat="47.23348" lon="-1.60743">
        <ele>29.6</ele>
        <time>2013-10-13T07:15:05Z</time>
      </trkpt>
      <trkpt lat="47.2336" lon="-1.60733">
        <ele>29.7</ele>
        <time>2013-10-13T07:15:07Z</time>
      </trkpt>
      <trkpt lat="47.2337" lon="-1.60724">
        <ele>28.8</ele>
        <time>2013-10-13T07:15:09Z</time>
      </trkpt>
      <trkpt lat="47.23378" lon="-1.60718">
        <ele>27.8</ele>
        <time>2013-10-13T07:15:11Z</time>
      </trkpt>
      <trkpt lat="47.23391" lon="-1.60716">
        <ele>24.9</ele>
        <time>2013-10-13T07:15:14Z</time>
      </trkpt>
      <trkpt lat="47.23403" lon="-1.60716">
        <ele>24.7</ele>
        <time>2013-10-13T07:15:17Z</time>
      </trkpt>
      <trkpt lat="47.23413" lon="-1.6071">
        <ele>24.5</ele>
        <time>2013-10-13T07:15:20Z</time>
      </trkpt>
      <trkpt lat="47.23419" lon="-1.607">
        <ele>22.6</ele>
        <time>2013-10-13T07:15:22Z</time>
      </trkpt>
      <trkpt lat="47.23427" lon="-1.60689">
        <ele>20.2</ele>
        <time>2013-10-13T07:15:24Z</time>
      </trkpt>
      <trkpt lat="47.23436" lon="-1.60679">
        <ele>18.9</ele>
        <time>2013-10-13T07:15:26Z</time>
      </trkpt>
      <trkpt lat="47.23444" lon="-1.6067">
        <ele>18.6</ele>
        <time>2013-10-13T07:15:28Z</time>
      </trkpt>
      <trkpt lat="47.23454" lon="-1.60661">
        <ele>17.9</ele>
        <time>2013-10-13T07:15:30Z</time>
      </trkpt>
      <trkpt lat="47.23467" lon="-1.60651">
        <ele>16.8</ele>
        <time>2013-10-13T07:15:32Z</time>
      </trkpt>
      <trkpt lat="47.23479" lon="-1.60639">
        <ele>15.5</ele>
        <time>2013-10-13T07:15:34Z</time>
      </trkpt>
      <trkpt lat="47.2349" lon="-1.60628">
        <ele>15.7</ele>
        <time>2013-10-13T07:15:36Z</time>
      </trkpt>
      <trkpt lat="47.235" lon="-1.6062">
        <ele>15.7</ele>
        <time>2013-10-13T07:15:39Z</time>
      </trkpt>
      <trkpt lat="47.23509" lon="-1.6062">
        <ele>15.1</ele>
        <time>2013-10-13T07:15:43Z</time>
      </trkpt>
      <trkpt lat="47.2352" lon="-1.6062">
        <ele>14.7</ele>
        <time>2013-10-13T07:15:46Z</time>
      </trkpt>
      <trkpt lat="47.23528" lon="-1.60615">
        <ele>14.4</ele>
        <time>2013-10-13T07:15:48Z</time>
      </trkpt>
      <trkpt lat="47.23536" lon="-1.60607">
        <ele>13.9</ele>
        <time>2013-10-13T07:15:51Z</time>
      </trkpt>
      <trkpt lat="47.23543" lon="-1.60599">
        <ele>13</ele>
        <time>2013-10-13T07:15:54Z</time>
      </trkpt>
      <trkpt lat="47.23555" lon="-1.60595">
        <ele>11.9</ele>
        <time>2013-10-13T07:15:57Z</time>
      </trkpt>
      <trkpt lat="47.23567" lon="-1.60599">
        <ele>11.2</ele>
        <time>2013-10-13T07:16:00Z</time>
      </trkpt>
      <trkpt lat="47.23577" lon="-1.60604">
        <ele>10.8</ele>
        <time>2013-10-13T07:16:03Z</time>
      </trkpt>
      <trkpt lat="47.23589" lon="-1.60611">
        <ele>10.6</ele>
        <time>2013-10-13T07:16:06Z</time>
      </trkpt>
      <trkpt lat="47.23598" lon="-1.6062">
        <ele>10.5</ele>
        <time>2013-10-13T07:16:08Z</time>
      </trkpt>
      <trkpt lat="47.23604" lon="-1.60633">
        <ele>10.1</ele>
        <time>2013-10-13T07:16:11Z</time>
      </trkpt>
      <trkpt lat="47.23611" lon="-1.60646">
        <ele>9.7</ele>
        <time>2013-10-13T07:16:14Z</time>
      </trkpt>
      <trkpt lat="47.2362" lon="-1.60656">
        <ele>9.1</ele>
        <time>2013-10-13T07:16:17Z</time>
      </trkpt>
      <trkpt lat="47.23628" lon="-1.60664">
        <ele>8.5</ele>
        <time>2013-10-13T07:16:19Z</time>
      </trkpt>
      <trkpt lat="47.23639" lon="-1.60675">
        <ele>7.8</ele>
        <time>2013-10-13T07:16:22Z</time>
      </trkpt>
      <trkpt lat="47.23648" lon="-1.60681">
        <ele>7.4</ele>
        <time>2013-10-13T07:16:24Z</time>
      </trkpt>
      <trkpt lat="47.23657" lon="-1.60688">
        <ele>5</ele>
        <time>2013-10-13T07:16:26Z</time>
      </trkpt>
      <trkpt lat="47.23666" lon="-1.60695">
        <ele>-0.2</ele>
        <time>2013-10-13T07:16:28Z</time>
      </trkpt>
      <trkpt lat="47.23678" lon="-1.60705">
        <ele>-3.1</ele>
        <time>2013-10-13T07:16:31Z</time>
      </trkpt>
      <trkpt lat="47.23688" lon="-1.60716">
        <ele>-3.9</ele>
        <time>2013-10-13T07:16:34Z</time>
      </trkpt>
      <trkpt lat="47.23693" lon="-1.60727">
        <ele>-4</ele>
        <time>2013-10-13T07:16:36Z</time>
      </trkpt>
      <trkpt lat="47.23698" lon="-1.60744">
        <ele>-3.7</ele>
        <time>2013-10-13T07:16:38Z</time>
      </trkpt>
      <trkpt lat="47.23703" lon="-1.60761">
        <ele>-3.2</ele>
        <time>2013-10-13T07:16:40Z</time>
      </trkpt>
      <trkpt lat="47.23704" lon="-1.60776">
        <ele>-2.7</ele>
        <time>2013-10-13T07:16:42Z</time>
      </trkpt>
      <trkpt lat="47.23704" lon="-1.60792">
        <ele>-2.5</ele>
        <time>2013-10-13T07:16:43Z</time>
      </trkpt>
      <trkpt lat="47.23701" lon="-1.60807">
        <ele>-2.2</ele>
        <time>2013-10-13T07:16:45Z</time>
      </trkpt>
      <trkpt lat="47.23692" lon="-1.60819">
        <ele>-1.8</ele>
        <time>2013-10-13T07:16:47Z</time>
      </trkpt>
      <trkpt lat="47.23686" lon="-1.60829">
        <ele>-1.4</ele>
        <time>2013-10-13T07:16:49Z</time>
      </trkpt>
      <trkpt lat="47.23679" lon="-1.60842">
        <ele>-0.8</ele>
        <time>2013-10-13T07:16:52Z</time>
      </trkpt>
      <trkpt lat="47.23675" lon="-1.60857">
        <ele>16.6</ele>
        <time>2013-10-13T07:16:55Z</time>
      </trkpt>
      <trkpt lat="47.23672" lon="-1.60871">
        <ele>0.9</ele>
        <time>2013-10-13T07:16:59Z</time>
      </trkpt>
      <trkpt lat="47.23662" lon="-1.60884">
        <ele>1.3</ele>
        <time>2013-10-13T07:17:02Z</time>
      </trkpt>
      <trkpt lat="47.23657" lon="-1.60895">
        <ele>1.4</ele>
        <time>2013-10-13T07:17:04Z</time>
      </trkpt>
      <trkpt lat="47.23652" lon="-1.60913">
        <ele>2</ele>
        <time>2013-10-13T07:17:07Z</time>
      </trkpt>
      <trkpt lat="47.23653" lon="-1.60928">
        <ele>2.4</ele>
        <time>2013-10-13T07:17:09Z</time>
      </trkpt>
      <trkpt lat="47.23656" lon="-1.60944">
        <ele>2.9</ele>
        <time>2013-10-13T07:17:12Z</time>
      </trkpt>
      <trkpt lat="47.23656" lon="-1.60958">
        <ele>3.2</ele>
        <time>2013-10-13T07:17:15Z</time>
      </trkpt>
      <trkpt lat="47.23657" lon="-1.60974">
        <ele>3.7</ele>
        <time>2013-10-13T07:17:18Z</time>
      </trkpt>
      <trkpt lat="47.23659" lon="-1.60989">
        <ele>4.4</ele>
        <time>2013-10-13T07:17:21Z</time>
      </trkpt>
      <trkpt lat="47.23664" lon="-1.61002">
        <ele>5.8</ele>
        <time>2013-10-13T07:17:25Z</time>
      </trkpt>
      <trkpt lat="47.23667" lon="-1.6102">
        <ele>7.1</ele>
        <time>2013-10-13T07:17:31Z</time>
      </trkpt>
      <trkpt lat="47.23666" lon="-1.61035">
        <ele>7.9</ele>
        <time>2013-10-13T07:17:35Z</time>
      </trkpt>
      <trkpt lat="47.23665" lon="-1.61052">
        <ele>8.7</ele>
        <time>2013-10-13T07:17:39Z</time>
      </trkpt>
      <trkpt lat="47.23662" lon="-1.61065">
        <ele>9.2</ele>
        <time>2013-10-13T07:17:43Z</time>
      </trkpt>
      <trkpt lat="47.23658" lon="-1.61078">
        <ele>9.6</ele>
        <time>2013-10-13T07:17:47Z</time>
      </trkpt>
      <trkpt lat="47.23652" lon="-1.61093">
        <ele>9.5</ele>
        <time>2013-10-13T07:17:51Z</time>
      </trkpt>
      <trkpt lat="47.23647" lon="-1.6111">
        <ele>9.2</ele>
        <time>2013-10-13T07:17:54Z</time>
      </trkpt>
      <trkpt lat="47.23648" lon="-1.61128">
        <ele>8.8</ele>
        <time>2013-10-13T07:17:57Z</time>
      </trkpt>
      <trkpt lat="47.23655" lon="-1.61143">
        <ele>8.5</ele>
        <time>2013-10-13T07:17:59Z</time>
      </trkpt>
      <trkpt lat="47.23663" lon="-1.61154">
        <ele>8.1</ele>
        <time>2013-10-13T07:18:01Z</time>
      </trkpt>
      <trkpt lat="47.2367" lon="-1.61163">
        <ele>7.7</ele>
        <time>2013-10-13T07:18:03Z</time>
      </trkpt>
      <trkpt lat="47.23678" lon="-1.61174">
        <ele>7.1</ele>
        <time>2013-10-13T07:18:06Z</time>
      </trkpt>
      <trkpt lat="47.23684" lon="-1.61187">
        <ele>6.2</ele>
        <time>2013-10-13T07:18:09Z</time>
      </trkpt>
      <trkpt lat="47.23689" lon="-1.612">
        <ele>5.2</ele>
        <time>2013-10-13T07:18:12Z</time>
      </trkpt>
      <trkpt lat="47.23693" lon="-1.61217">
        <ele>4.1</ele>
        <time>2013-10-13T07:18:15Z</time>
      </trkpt>
      <trkpt lat="47.23697" lon="-1.61234">
        <ele>-1</ele>
        <time>2013-10-13T07:18:18Z</time>
      </trkpt>
      <trkpt lat="47.23705" lon="-1.61253">
        <ele>-6</ele>
        <time>2013-10-13T07:18:21Z</time>
      </trkpt>
      <trkpt lat="47.23714" lon="-1.61267">
        <ele>-7.1</ele>
        <time>2013-10-13T07:18:24Z</time>
      </trkpt>
      <trkpt lat="47.23721" lon="-1.61284">
        <ele>-7.5</ele>
        <time>2013-10-13T07:18:27Z</time>
      </trkpt>
      <trkpt lat="47.23725" lon="-1.61296">
        <ele>-6.8</ele>
        <time>2013-10-13T07:18:29Z</time>
      </trkpt>
      <trkpt lat="47.23734" lon="-1.61301">
        <ele>-5.5</ele>
        <time>2013-10-13T07:18:32Z</time>
      </trkpt>
      <trkpt lat="47.23745" lon="-1.61307">
        <ele>-4.3</ele>
        <time>2013-10-13T07:18:35Z</time>
      </trkpt>
      <trkpt lat="47.23755" lon="-1.61315">
        <ele>-3.1</ele>
        <time>2013-10-13T07:18:38Z</time>
      </trkpt>
      <trkpt lat="47.23763" lon="-1.61324">
        <ele>-2.3</ele>
        <time>2013-10-13T07:18:40Z</time>
      </trkpt>
      <trkpt lat="47.2377" lon="-1.61334">
        <ele>-1.5</ele>
        <time>2013-10-13T07:18:42Z</time>
      </trkpt>
      <trkpt lat="47.23775" lon="-1.61346">
        <ele>-0.9</ele>
        <time>2013-10-13T07:18:44Z</time>
      </trkpt>
      <trkpt lat="47.23782" lon="-1.61362">
        <ele>17.3</ele>
        <time>2013-10-13T07:18:47Z</time>
      </trkpt>
      <trkpt lat="47.23786" lon="-1.61376">
        <ele>0.7</ele>
        <time>2013-10-13T07:18:50Z</time>
      </trkpt>
      <trkpt lat="47.23786" lon="-1.61392">
        <ele>1.4</ele>
        <time>2013-10-13T07:18:53Z</time>
      </trkpt>
      <trkpt lat="47.23781" lon="-1.61411">
        <ele>2.2</ele>
        <time>2013-10-13T07:18:56Z</time>
      </trkpt>
      <trkpt lat="47.23778" lon="-1.61429">
        <ele>2.6</ele>
        <time>2013-10-13T07:18:59Z</time>
      </trkpt>
      <trkpt lat="47.23779" lon="-1.61447">
        <ele>2.7</ele>
        <time>2013-10-13T07:19:02Z</time>
      </trkpt>
      <trkpt lat="47.23782" lon="-1.61461">
        <ele>2.6</ele>
        <time>2013-10-13T07:19:04Z</time>
      </trkpt>
      <trkpt lat="47.23786" lon="-1.6148">
        <ele>2.6</ele>
        <time>2013-10-13T07:19:06Z</time>
      </trkpt>
      <trkpt lat="47.23792" lon="-1.61496">
        <ele>3.1</ele>
        <time>2013-10-13T07:19:09Z</time>
      </trkpt>
      <trkpt lat="47.23799" lon="-1.6151">
        <ele>3.6</ele>
        <time>2013-10-13T07:19:12Z</time>
      </trkpt>
      <trkpt lat="47.23802" lon="-1.61523">
        <ele>4.5</ele>
        <time>2013-10-13T07:19:16Z</time>
      </trkpt>
      <trkpt lat="47.23796" lon="-1.61537">
        <ele>5.6</ele>
        <time>2013-10-13T07:19:20Z</time>
      </trkpt>
      <trkpt lat="47.2379" lon="-1.61547">
        <ele>6.3</ele>
        <time>2013-10-13T07:19:23Z</time>
      </trkpt>
      <trkpt lat="47.23786" lon="-1.61561">
        <ele>8.3</ele>
        <time>2013-10-13T07:19:26Z</time>
      </trkpt>
      <trkpt lat="47.23785" lon="-1.61575">
        <ele>8.8</ele>
        <time>2013-10-13T07:19:29Z</time>
      </trkpt>
      <trkpt lat="47.23781" lon="-1.61588">
        <ele>9.3</ele>
        <time>2013-10-13T07:19:32Z</time>
      </trkpt>
      <trkpt lat="47.23778" lon="-1.61602">
        <ele>9.9</ele>
        <time>2013-10-13T07:19:36Z</time>
      </trkpt>
      <trkpt lat="47.23773" lon="-1.61618">
        <ele>10.1</ele>
        <time>2013-10-13T07:19:40Z</time>
      </trkpt>
      <trkpt lat="47.23769" lon="-1.61631">
        <ele>10.2</ele>
        <time>2013-10-13T07:19:43Z</time>
      </trkpt>
      <trkpt lat="47.23765" lon="-1.61646">
        <ele>10.1</ele>
        <time>2013-10-13T07:19:46Z</time>
      </trkpt>
      <trkpt lat="47.2376" lon="-1.61659">
        <ele>9.8</ele>
        <time>2013-10-13T07:19:49Z</time>
      </trkpt>
      <trkpt lat="47.23757" lon="-1.61671">
        <ele>9.2</ele>
        <time>2013-10-13T07:19:52Z</time>
      </trkpt>
      <trkpt lat="47.23755" lon="-1.61685">
        <ele>8.6</ele>
        <time>2013-10-13T07:19:55Z</time>
      </trkpt>
      <trkpt lat="47.23755" lon="-1.61698">
        <ele>7.6</ele>
        <time>2013-10-13T07:19:58Z</time>
      </trkpt>
      <trkpt lat="47.23757" lon="-1.61714">
        <ele>6.6</ele>
        <time>2013-10-13T07:20:01Z</time>
      </trkpt>
      <trkpt lat="47.2376" lon="-1.61729">
        <ele>5.7</ele>
        <time>2013-10-13T07:20:04Z</time>
      </trkpt>
      <trkpt lat="47.23765" lon="-1.61745">
        <ele>4.4</ele>
        <time>2013-10-13T07:20:08Z</time>
      </trkpt>
      <trkpt lat="47.23769" lon="-1.6176">
        <ele>3.3</ele>
        <time>2013-10-13T07:20:12Z</time>
      </trkpt>
      <trkpt lat="47.23775" lon="-1.61771">
        <ele>2.4</ele>
        <time>2013-10-13T07:20:15Z</time>
      </trkpt>
      <trkpt lat="47.23782" lon="-1.61784">
        <ele>1.6</ele>
        <time>2013-10-13T07:20:18Z</time>
      </trkpt>
      <trkpt lat="47.23788" lon="-1.61799">
        <ele>0.7</ele>
        <time>2013-10-13T07:20:21Z</time>
      </trkpt>
      <trkpt lat="47.23793" lon="-1.6181">
        <ele>0.2</ele>
        <time>2013-10-13T07:20:23Z</time>
      </trkpt>
      <trkpt lat="47.238" lon="-1.61826">
        <ele>-0.1</ele>
        <time>2013-10-13T07:20:26Z</time>
      </trkpt>
      <trkpt lat="47.23805" lon="-1.61837">
        <ele>-0.4</ele>
        <time>2013-10-13T07:20:28Z</time>
      </trkpt>
      <trkpt lat="47.23811" lon="-1.61851">
        <ele>-0.6</ele>
        <time>2013-10-13T07:20:30Z</time>
      </trkpt>
      <trkpt lat="47.23816" lon="-1.61862">
        <ele>-0.7</ele>
        <time>2013-10-13T07:20:32Z</time>
      </trkpt>
      <trkpt lat="47.23822" lon="-1.61876">
        <ele>-0.4</ele>
        <time>2013-10-13T07:20:34Z</time>
      </trkpt>
      <trkpt lat="47.23828" lon="-1.6189">
        <ele>0.1</ele>
        <time>2013-10-13T07:20:36Z</time>
      </trkpt>
      <trkpt lat="47.23836" lon="-1.61904">
        <ele>3.1</ele>
        <time>2013-10-13T07:20:38Z</time>
      </trkpt>
      <trkpt lat="47.23844" lon="-1.61915">
        <ele>5.2</ele>
        <time>2013-10-13T07:20:40Z</time>
      </trkpt>
      <trkpt lat="47.2385" lon="-1.61929">
        <ele>5.7</ele>
        <time>2013-10-13T07:20:43Z</time>
      </trkpt>
      <trkpt lat="47.23856" lon="-1.61941">
        <ele>6.6</ele>
        <time>2013-10-13T07:20:47Z</time>
      </trkpt>
      <trkpt lat="47.23866" lon="-1.61948">
        <ele>7.4</ele>
        <time>2013-10-13T07:20:50Z</time>
      </trkpt>
      <trkpt lat="47.23876" lon="-1.61954">
        <ele>8</ele>
        <time>2013-10-13T07:20:53Z</time>
      </trkpt>
      <trkpt lat="47.23886" lon="-1.61959">
        <ele>8.8</ele>
        <time>2013-10-13T07:20:56Z</time>
      </trkpt>
      <trkpt lat="47.23897" lon="-1.61961">
        <ele>9.9</ele>
        <time>2013-10-13T07:21:00Z</time>
      </trkpt>
      <trkpt lat="47.23907" lon="-1.61963">
        <ele>10.3</ele>
        <time>2013-10-13T07:21:03Z</time>
      </trkpt>
      <trkpt lat="47.23919" lon="-1.61969">
        <ele>10.6</ele>
        <time>2013-10-13T07:21:05Z</time>
      </trkpt>
      <trkpt lat="47.23931" lon="-1.61973">
        <ele>10.8</ele>
        <time>2013-10-13T07:21:08Z</time>
      </trkpt>
      <trkpt lat="47.23942" lon="-1.61977">
        <ele>10.9</ele>
        <time>2013-10-13T07:21:11Z</time>
      </trkpt>
      <trkpt lat="47.23952" lon="-1.61982">
        <ele>10.8</ele>
        <time>2013-10-13T07:21:14Z</time>
      </trkpt>
      <trkpt lat="47.23962" lon="-1.61989">
        <ele>10.4</ele>
        <time>2013-10-13T07:21:17Z</time>
      </trkpt>
      <trkpt lat="47.23972" lon="-1.61997">
        <ele>10.4</ele>
        <time>2013-10-13T07:21:19Z</time>
      </trkpt>
      <trkpt lat="47.2398" lon="-1.62004">
        <ele>10.8</ele>
        <time>2013-10-13T07:21:21Z</time>
      </trkpt>
      <trkpt lat="47.23988" lon="-1.62013">
        <ele>11.1</ele>
        <time>2013-10-13T07:21:23Z</time>
      </trkpt>
      <trkpt lat="47.23994" lon="-1.62025">
        <ele>11.4</ele>
        <time>2013-10-13T07:21:25Z</time>
      </trkpt>
      <trkpt lat="47.23999" lon="-1.62038">
        <ele>11.9</ele>
        <time>2013-10-13T07:21:27Z</time>
      </trkpt>
      <trkpt lat="47.24003" lon="-1.62053">
        <ele>12.3</ele>
        <time>2013-10-13T07:21:29Z</time>
      </trkpt>
      <trkpt lat="47.24005" lon="-1.62066">
        <ele>12.5</ele>
        <time>2013-10-13T07:21:31Z</time>
      </trkpt>
      <trkpt lat="47.24007" lon="-1.62083">
        <ele>13.9</ele>
        <time>2013-10-13T07:21:33Z</time>
      </trkpt>
      <trkpt lat="47.24008" lon="-1.62104">
        <ele>12.5</ele>
        <time>2013-10-13T07:21:36Z</time>
      </trkpt>
      <trkpt lat="47.24008" lon="-1.62119">
        <ele>12</ele>
        <time>2013-10-13T07:21:38Z</time>
      </trkpt>
      <trkpt lat="47.24011" lon="-1.62133">
        <ele>11.9</ele>
        <time>2013-10-13T07:21:40Z</time>
      </trkpt>
      <trkpt lat="47.24014" lon="-1.62152">
        <ele>11.7</ele>
        <time>2013-10-13T07:21:43Z</time>
      </trkpt>
      <trkpt lat="47.24015" lon="-1.62169">
        <ele>11.2</ele>
        <time>2013-10-13T07:21:47Z</time>
      </trkpt>
      <trkpt lat="47.24015" lon="-1.62185">
        <ele>10.7</ele>
        <time>2013-10-13T07:21:50Z</time>
      </trkpt>
      <trkpt lat="47.24018" lon="-1.62202">
        <ele>10</ele>
        <time>2013-10-13T07:21:53Z</time>
      </trkpt>
      <trkpt lat="47.24018" lon="-1.62217">
        <ele>9.2</ele>
        <time>2013-10-13T07:21:56Z</time>
      </trkpt>
      <trkpt lat="47.24019" lon="-1.62235">
        <ele>8.4</ele>
        <time>2013-10-13T07:21:59Z</time>
      </trkpt>
      <trkpt lat="47.2402" lon="-1.62252">
        <ele>7.7</ele>
        <time>2013-10-13T07:22:02Z</time>
      </trkpt>
      <trkpt lat="47.24022" lon="-1.62273">
        <ele>7.3</ele>
        <time>2013-10-13T07:22:05Z</time>
      </trkpt>
      <trkpt lat="47.2402" lon="-1.62292">
        <ele>7.6</ele>
        <time>2013-10-13T07:22:07Z</time>
      </trkpt>
      <trkpt lat="47.24019" lon="-1.62307">
        <ele>8.6</ele>
        <time>2013-10-13T07:22:09Z</time>
      </trkpt>
      <trkpt lat="47.24015" lon="-1.62324">
        <ele>9.9</ele>
        <time>2013-10-13T07:22:11Z</time>
      </trkpt>
      <trkpt lat="47.24013" lon="-1.6234">
        <ele>7.5</ele>
        <time>2013-10-13T07:22:13Z</time>
      </trkpt>
      <trkpt lat="47.24012" lon="-1.6236">
        <ele>2.7</ele>
        <time>2013-10-13T07:22:15Z</time>
      </trkpt>
      <trkpt lat="47.24013" lon="-1.62373">
        <ele>2.6</ele>
        <time>2013-10-13T07:22:17Z</time>
      </trkpt>
      <trkpt lat="47.24014" lon="-1.62387">
        <ele>2.8</ele>
        <time>2013-10-13T07:22:19Z</time>
      </trkpt>
      <trkpt lat="47.24014" lon="-1.62401">
        <ele>3.2</ele>
        <time>2013-10-13T07:22:21Z</time>
      </trkpt>
      <trkpt lat="47.24016" lon="-1.62415">
        <ele>3.5</ele>
        <time>2013-10-13T07:22:23Z</time>
      </trkpt>
      <trkpt lat="47.24011" lon="-1.62427">
        <ele>7.2</ele>
        <time>2013-10-13T07:22:25Z</time>
      </trkpt>
      <trkpt lat="47.2401" lon="-1.62445">
        <ele>7.6</ele>
        <time>2013-10-13T07:22:28Z</time>
      </trkpt>
      <trkpt lat="47.24017" lon="-1.62455">
        <ele>8.6</ele>
        <time>2013-10-13T07:22:31Z</time>
      </trkpt>
      <trkpt lat="47.24027" lon="-1.62464">
        <ele>7.9</ele>
        <time>2013-10-13T07:22:35Z</time>
      </trkpt>
      <trkpt lat="47.24036" lon="-1.62473">
        <ele>7.5</ele>
        <time>2013-10-13T07:22:38Z</time>
      </trkpt>
      <trkpt lat="47.24045" lon="-1.62483">
        <ele>6.7</ele>
        <time>2013-10-13T07:22:41Z</time>
      </trkpt>
      <trkpt lat="47.24054" lon="-1.62493">
        <ele>5.9</ele>
        <time>2013-10-13T07:22:44Z</time>
      </trkpt>
      <trkpt lat="47.24063" lon="-1.62505">
        <ele>4.9</ele>
        <time>2013-10-13T07:22:47Z</time>
      </trkpt>
      <trkpt lat="47.24071" lon="-1.6252">
        <ele>4.1</ele>
        <time>2013-10-13T07:22:50Z</time>
      </trkpt>
      <trkpt lat="47.24081" lon="-1.62527">
        <ele>3.7</ele>
        <time>2013-10-13T07:22:53Z</time>
      </trkpt>
      <trkpt lat="47.24093" lon="-1.62533">
        <ele>3.6</ele>
        <time>2013-10-13T07:22:56Z</time>
      </trkpt>
      <trkpt lat="47.241" lon="-1.62545">
        <ele>3.4</ele>
        <time>2013-10-13T07:22:59Z</time>
      </trkpt>
      <trkpt lat="47.24101" lon="-1.62561">
        <ele>3.1</ele>
        <time>2013-10-13T07:23:02Z</time>
      </trkpt>
      <trkpt lat="47.24099" lon="-1.62574">
        <ele>3.1</ele>
        <time>2013-10-13T07:23:04Z</time>
      </trkpt>
      <trkpt lat="47.24095" lon="-1.6259">
        <ele>4.7</ele>
        <time>2013-10-13T07:23:06Z</time>
      </trkpt>
      <trkpt lat="47.24086" lon="-1.62608">
        <ele>8</ele>
        <time>2013-10-13T07:23:08Z</time>
      </trkpt>
      <trkpt lat="47.24079" lon="-1.62621">
        <ele>8.3</ele>
        <time>2013-10-13T07:23:10Z</time>
      </trkpt>
      <trkpt lat="47.24073" lon="-1.62632">
        <ele>12.4</ele>
        <time>2013-10-13T07:23:12Z</time>
      </trkpt>
      <trkpt lat="47.24067" lon="-1.62647">
        <ele>13.6</ele>
        <time>2013-10-13T07:23:15Z</time>
      </trkpt>
      <trkpt lat="47.24062" lon="-1.62658">
        <ele>13.8</ele>
        <time>2013-10-13T07:23:18Z</time>
      </trkpt>
      <trkpt lat="47.24059" lon="-1.62672">
        <ele>14</ele>
        <time>2013-10-13T07:23:22Z</time>
      </trkpt>
      <trkpt lat="47.24056" lon="-1.62685">
        <ele>14.1</ele>
        <time>2013-10-13T07:23:33Z</time>
      </trkpt>
      <trkpt lat="47.24065" lon="-1.62695">
        <ele>14.8</ele>
        <time>2013-10-13T07:23:41Z</time>
      </trkpt>
      <trkpt lat="47.24072" lon="-1.62704">
        <ele>15.2</ele>
        <time>2013-10-13T07:23:44Z</time>
      </trkpt>
      <trkpt lat="47.24081" lon="-1.62709">
        <ele>15.7</ele>
        <time>2013-10-13T07:23:48Z</time>
      </trkpt>
      <trkpt lat="47.24089" lon="-1.62717">
        <ele>16.3</ele>
        <time>2013-10-13T07:23:52Z</time>
      </trkpt>
      <trkpt lat="47.24096" lon="-1.62726">
        <ele>16.4</ele>
        <time>2013-10-13T07:23:57Z</time>
      </trkpt>
      <trkpt lat="47.241" lon="-1.6274">
        <ele>16</ele>
        <time>2013-10-13T07:24:03Z</time>
      </trkpt>
      <trkpt lat="47.24104" lon="-1.62754">
        <ele>15.6</ele>
        <time>2013-10-13T07:24:10Z</time>
      </trkpt>
      <trkpt lat="47.24111" lon="-1.62766">
        <ele>15.4</ele>
        <time>2013-10-13T07:24:15Z</time>
      </trkpt>
      <trkpt lat="47.24116" lon="-1.62777">
        <ele>16</ele>
        <time>2013-10-13T07:24:21Z</time>
      </trkpt>
      <trkpt lat="47.2412" lon="-1.6279">
        <ele>16.8</ele>
        <time>2013-10-13T07:24:28Z</time>
      </trkpt>
      <trkpt lat="47.24125" lon="-1.62804">
        <ele>17.2</ele>
        <time>2013-10-13T07:24:35Z</time>
      </trkpt>
      <trkpt lat="47.24132" lon="-1.62817">
        <ele>17</ele>
        <time>2013-10-13T07:24:40Z</time>
      </trkpt>
      <trkpt lat="47.24139" lon="-1.62828">
        <ele>16.9</ele>
        <time>2013-10-13T07:24:44Z</time>
      </trkpt>
      <trkpt lat="47.24145" lon="-1.62838">
        <ele>16.6</ele>
        <time>2013-10-13T07:24:51Z</time>
      </trkpt>
      <trkpt lat="47.24149" lon="-1.62852">
        <ele>16.1</ele>
        <time>2013-10-13T07:24:55Z</time>
      </trkpt>
      <trkpt lat="47.24155" lon="-1.62869">
        <ele>16</ele>
        <time>2013-10-13T07:24:58Z</time>
      </trkpt>
      <trkpt lat="47.2416" lon="-1.62885">
        <ele>16.1</ele>
        <time>2013-10-13T07:25:01Z</time>
      </trkpt>
      <trkpt lat="47.24166" lon="-1.62899">
        <ele>16.1</ele>
        <time>2013-10-13T07:25:05Z</time>
      </trkpt>
      <trkpt lat="47.24173" lon="-1.62911">
        <ele>16.2</ele>
        <time>2013-10-13T07:25:09Z</time>
      </trkpt>
      <trkpt lat="47.24178" lon="-1.62924">
        <ele>16.5</ele>
        <time>2013-10-13T07:25:14Z</time>
      </trkpt>
      <trkpt lat="47.24181" lon="-1.62938">
        <ele>16.9</ele>
        <time>2013-10-13T07:25:17Z</time>
      </trkpt>
      <trkpt lat="47.24185" lon="-1.62953">
        <ele>17.7</ele>
        <time>2013-10-13T07:25:20Z</time>
      </trkpt>
      <trkpt lat="47.24187" lon="-1.62966">
        <ele>18.5</ele>
        <time>2013-10-13T07:25:23Z</time>
      </trkpt>
      <trkpt lat="47.2419" lon="-1.62979">
        <ele>19.3</ele>
        <time>2013-10-13T07:25:26Z</time>
      </trkpt>
      <trkpt lat="47.24193" lon="-1.62993">
        <ele>20.2</ele>
        <time>2013-10-13T07:25:29Z</time>
      </trkpt>
      <trkpt lat="47.24197" lon="-1.63007">
        <ele>20.8</ele>
        <time>2013-10-13T07:25:31Z</time>
      </trkpt>
      <trkpt lat="47.24199" lon="-1.63023">
        <ele>21.8</ele>
        <time>2013-10-13T07:25:35Z</time>
      </trkpt>
      <trkpt lat="47.24199" lon="-1.63043">
        <ele>22.2</ele>
        <time>2013-10-13T07:25:38Z</time>
      </trkpt>
      <trkpt lat="47.242" lon="-1.63062">
        <ele>22.3</ele>
        <time>2013-10-13T07:25:41Z</time>
      </trkpt>
      <trkpt lat="47.24202" lon="-1.63076">
        <ele>22.5</ele>
        <time>2013-10-13T07:25:44Z</time>
      </trkpt>
      <trkpt lat="47.24206" lon="-1.63091">
        <ele>22.7</ele>
        <time>2013-10-13T07:25:47Z</time>
      </trkpt>
      <trkpt lat="47.24212" lon="-1.63111">
        <ele>23.3</ele>
        <time>2013-10-13T07:25:50Z</time>
      </trkpt>
      <trkpt lat="47.24219" lon="-1.63124">
        <ele>23.3</ele>
        <time>2013-10-13T07:25:52Z</time>
      </trkpt>
      <trkpt lat="47.24227" lon="-1.63136">
        <ele>23.8</ele>
        <time>2013-10-13T07:25:54Z</time>
      </trkpt>
      <trkpt lat="47.24234" lon="-1.63148">
        <ele>23.7</ele>
        <time>2013-10-13T07:25:56Z</time>
      </trkpt>
      <trkpt lat="47.24242" lon="-1.63164">
        <ele>23.6</ele>
        <time>2013-10-13T07:25:58Z</time>
      </trkpt>
      <trkpt lat="47.24249" lon="-1.63176">
        <ele>23.3</ele>
        <time>2013-10-13T07:26:00Z</time>
      </trkpt>
      <trkpt lat="47.24257" lon="-1.63189">
        <ele>22.8</ele>
        <time>2013-10-13T07:26:03Z</time>
      </trkpt>
      <trkpt lat="47.24266" lon="-1.63196">
        <ele>22.6</ele>
        <time>2013-10-13T07:26:05Z</time>
      </trkpt>
      <trkpt lat="47.24273" lon="-1.63203">
        <ele>22.4</ele>
        <time>2013-10-13T07:26:07Z</time>
      </trkpt>
      <trkpt lat="47.24282" lon="-1.63207">
        <ele>21.5</ele>
        <time>2013-10-13T07:26:09Z</time>
      </trkpt>
      <trkpt lat="47.24291" lon="-1.63216">
        <ele>20.8</ele>
        <time>2013-10-13T07:26:12Z</time>
      </trkpt>
      <trkpt lat="47.243" lon="-1.63228">
        <ele>20.4</ele>
        <time>2013-10-13T07:26:15Z</time>
      </trkpt>
      <trkpt lat="47.24309" lon="-1.6324">
        <ele>19.9</ele>
        <time>2013-10-13T07:26:18Z</time>
      </trkpt>
      <trkpt lat="47.24318" lon="-1.63249">
        <ele>19.3</ele>
        <time>2013-10-13T07:26:21Z</time>
      </trkpt>
      <trkpt lat="47.24327" lon="-1.6326">
        <ele>18.4</ele>
        <time>2013-10-13T07:26:25Z</time>
      </trkpt>
      <trkpt lat="47.24337" lon="-1.63271">
        <ele>18</ele>
        <time>2013-10-13T07:26:28Z</time>
      </trkpt>
      <trkpt lat="47.24348" lon="-1.6328">
        <ele>17.8</ele>
        <time>2013-10-13T07:26:31Z</time>
      </trkpt>
      <trkpt lat="47.24357" lon="-1.63288">
        <ele>17.4</ele>
        <time>2013-10-13T07:26:34Z</time>
      </trkpt>
      <trkpt lat="47.24367" lon="-1.633">
        <ele>17.2</ele>
        <time>2013-10-13T07:26:37Z</time>
      </trkpt>
      <trkpt lat="47.24371" lon="-1.63312">
        <ele>17.2</ele>
        <time>2013-10-13T07:26:39Z</time>
      </trkpt>
      <trkpt lat="47.24376" lon="-1.6333">
        <ele>17.4</ele>
        <time>2013-10-13T07:26:42Z</time>
      </trkpt>
      <trkpt lat="47.2438" lon="-1.63347">
        <ele>17.6</ele>
        <time>2013-10-13T07:26:45Z</time>
      </trkpt>
      <trkpt lat="47.24379" lon="-1.63361">
        <ele>17.8</ele>
        <time>2013-10-13T07:26:47Z</time>
      </trkpt>
      <trkpt lat="47.24377" lon="-1.63378">
        <ele>18.1</ele>
        <time>2013-10-13T07:26:50Z</time>
      </trkpt>
      <trkpt lat="47.24371" lon="-1.63392">
        <ele>18.2</ele>
        <time>2013-10-13T07:26:53Z</time>
      </trkpt>
      <trkpt lat="47.24365" lon="-1.63405">
        <ele>18.2</ele>
        <time>2013-10-13T07:26:56Z</time>
      </trkpt>
      <trkpt lat="47.24374" lon="-1.63417">
        <ele>18.3</ele>
        <time>2013-10-13T07:27:02Z</time>
      </trkpt>
      <trkpt lat="47.2438" lon="-1.63426">
        <ele>18.4</ele>
        <time>2013-10-13T07:27:05Z</time>
      </trkpt>
      <trkpt lat="47.24386" lon="-1.63439">
        <ele>18.6</ele>
        <time>2013-10-13T07:27:11Z</time>
      </trkpt>
      <trkpt lat="47.24391" lon="-1.63452">
        <ele>18.9</ele>
        <time>2013-10-13T07:27:15Z</time>
      </trkpt>
      <trkpt lat="47.24395" lon="-1.63466">
        <ele>19.5</ele>
        <time>2013-10-13T07:27:20Z</time>
      </trkpt>
      <trkpt lat="47.24398" lon="-1.63481">
        <ele>20</ele>
        <time>2013-10-13T07:27:23Z</time>
      </trkpt>
      <trkpt lat="47.24399" lon="-1.63498">
        <ele>20.4</ele>
        <time>2013-10-13T07:27:26Z</time>
      </trkpt>
      <trkpt lat="47.24397" lon="-1.63514">
        <ele>20.8</ele>
        <time>2013-10-13T07:27:29Z</time>
      </trkpt>
      <trkpt lat="47.2439" lon="-1.63529">
        <ele>20.3</ele>
        <time>2013-10-13T07:27:32Z</time>
      </trkpt>
      <trkpt lat="47.24388" lon="-1.63544">
        <ele>19.1</ele>
        <time>2013-10-13T07:27:34Z</time>
      </trkpt>
      <trkpt lat="47.24385" lon="-1.6356">
        <ele>17.5</ele>
        <time>2013-10-13T07:27:36Z</time>
      </trkpt>
      <trkpt lat="47.24384" lon="-1.63577">
        <ele>16.8</ele>
        <time>2013-10-13T07:27:39Z</time>
      </trkpt>
      <trkpt lat="47.24384" lon="-1.63595">
        <ele>16.2</ele>
        <time>2013-10-13T07:27:42Z</time>
      </trkpt>
      <trkpt lat="47.24385" lon="-1.6361">
        <ele>15.2</ele>
        <time>2013-10-13T07:27:45Z</time>
      </trkpt>
      <trkpt lat="47.24388" lon="-1.63628">
        <ele>14.6</ele>
        <time>2013-10-13T07:27:48Z</time>
      </trkpt>
      <trkpt lat="47.24397" lon="-1.63635">
        <ele>15.2</ele>
        <time>2013-10-13T07:27:52Z</time>
      </trkpt>
      <trkpt lat="47.24399" lon="-1.63648">
        <ele>15.9</ele>
        <time>2013-10-13T07:27:56Z</time>
      </trkpt>
      <trkpt lat="47.24399" lon="-1.63665">
        <ele>16.9</ele>
        <time>2013-10-13T07:28:00Z</time>
      </trkpt>
      <trkpt lat="47.24399" lon="-1.63683">
        <ele>17.6</ele>
        <time>2013-10-13T07:28:04Z</time>
      </trkpt>
      <trkpt lat="47.24399" lon="-1.63697">
        <ele>18.2</ele>
        <time>2013-10-13T07:28:07Z</time>
      </trkpt>
      <trkpt lat="47.24397" lon="-1.63711">
        <ele>18.5</ele>
        <time>2013-10-13T07:28:10Z</time>
      </trkpt>
      <trkpt lat="47.24394" lon="-1.63726">
        <ele>18.8</ele>
        <time>2013-10-13T07:28:13Z</time>
      </trkpt>
      <trkpt lat="47.24391" lon="-1.63742">
        <ele>19</ele>
        <time>2013-10-13T07:28:16Z</time>
      </trkpt>
      <trkpt lat="47.24398" lon="-1.63754">
        <ele>19.2</ele>
        <time>2013-10-13T07:28:20Z</time>
      </trkpt>
      <trkpt lat="47.24408" lon="-1.63748">
        <ele>19.5</ele>
        <time>2013-10-13T07:28:25Z</time>
      </trkpt>
      <trkpt lat="47.24417" lon="-1.63742">
        <ele>20.1</ele>
        <time>2013-10-13T07:28:31Z</time>
      </trkpt>
      <trkpt lat="47.24428" lon="-1.63745">
        <ele>20.7</ele>
        <time>2013-10-13T07:28:35Z</time>
      </trkpt>
      <trkpt lat="47.24438" lon="-1.6375">
        <ele>20.9</ele>
        <time>2013-10-13T07:28:38Z</time>
      </trkpt>
      <trkpt lat="47.24448" lon="-1.63756">
        <ele>21.2</ele>
        <time>2013-10-13T07:28:42Z</time>
      </trkpt>
      <trkpt lat="47.24458" lon="-1.63763">
        <ele>21.5</ele>
        <time>2013-10-13T07:28:46Z</time>
      </trkpt>
      <trkpt lat="47.24467" lon="-1.6377">
        <ele>21.9</ele>
        <time>2013-10-13T07:28:50Z</time>
      </trkpt>
      <trkpt lat="47.24477" lon="-1.63777">
        <ele>22.2</ele>
        <time>2013-10-13T07:28:54Z</time>
      </trkpt>
      <trkpt lat="47.24487" lon="-1.63782">
        <ele>22.5</ele>
        <time>2013-10-13T07:28:58Z</time>
      </trkpt>
      <trkpt lat="47.24498" lon="-1.63789">
        <ele>22.5</ele>
        <time>2013-10-13T07:29:02Z</time>
      </trkpt>
      <trkpt lat="47.24506" lon="-1.63796">
        <ele>22.2</ele>
        <time>2013-10-13T07:29:05Z</time>
      </trkpt>
      <trkpt lat="47.24516" lon="-1.63804">
        <ele>21.8</ele>
        <time>2013-10-13T07:29:09Z</time>
      </trkpt>
      <trkpt lat="47.24526" lon="-1.63808">
        <ele>21.7</ele>
        <time>2013-10-13T07:29:13Z</time>
      </trkpt>
      <trkpt lat="47.24537" lon="-1.63809">
        <ele>21.4</ele>
        <time>2013-10-13T07:29:18Z</time>
      </trkpt>
      <trkpt lat="47.24546" lon="-1.63809">
        <ele>21.8</ele>
        <time>2013-10-13T07:29:22Z</time>
      </trkpt>
      <trkpt lat="47.24558" lon="-1.63804">
        <ele>22.4</ele>
        <time>2013-10-13T07:29:26Z</time>
      </trkpt>
      <trkpt lat="47.24567" lon="-1.63798">
        <ele>22.9</ele>
        <time>2013-10-13T07:29:30Z</time>
      </trkpt>
      <trkpt lat="47.24577" lon="-1.63789">
        <ele>23.6</ele>
        <time>2013-10-13T07:29:35Z</time>
      </trkpt>
      <trkpt lat="47.24586" lon="-1.63782">
        <ele>24.2</ele>
        <time>2013-10-13T07:29:39Z</time>
      </trkpt>
      <trkpt lat="47.24595" lon="-1.63776">
        <ele>24.9</ele>
        <time>2013-10-13T07:29:43Z</time>
      </trkpt>
      <trkpt lat="47.24603" lon="-1.6377">
        <ele>25.3</ele>
        <time>2013-10-13T07:29:47Z</time>
      </trkpt>
      <trkpt lat="47.24614" lon="-1.63767">
        <ele>26.3</ele>
        <time>2013-10-13T07:29:52Z</time>
      </trkpt>
      <trkpt lat="47.24624" lon="-1.63765">
        <ele>26.8</ele>
        <time>2013-10-13T07:29:56Z</time>
      </trkpt>
      <trkpt lat="47.24633" lon="-1.63768">
        <ele>27</ele>
        <time>2013-10-13T07:29:59Z</time>
      </trkpt>
      <trkpt lat="47.24641" lon="-1.63775">
        <ele>27.2</ele>
        <time>2013-10-13T07:30:02Z</time>
      </trkpt>
      <trkpt lat="47.24652" lon="-1.63784">
        <ele>27.5</ele>
        <time>2013-10-13T07:30:06Z</time>
      </trkpt>
      <trkpt lat="47.24661" lon="-1.63793">
        <ele>27.9</ele>
        <time>2013-10-13T07:30:10Z</time>
      </trkpt>
      <trkpt lat="47.24671" lon="-1.638">
        <ele>28.4</ele>
        <time>2013-10-13T07:30:14Z</time>
      </trkpt>
      <trkpt lat="47.24682" lon="-1.638">
        <ele>28.8</ele>
        <time>2013-10-13T07:30:17Z</time>
      </trkpt>
      <trkpt lat="47.24692" lon="-1.63792">
        <ele>29.4</ele>
        <time>2013-10-13T07:30:21Z</time>
      </trkpt>
      <trkpt lat="47.24701" lon="-1.63784">
        <ele>29.9</ele>
        <time>2013-10-13T07:30:25Z</time>
      </trkpt>
      <trkpt lat="47.24708" lon="-1.63771">
        <ele>30.7</ele>
        <time>2013-10-13T07:30:30Z</time>
      </trkpt>
      <trkpt lat="47.24714" lon="-1.63759">
        <ele>31.6</ele>
        <time>2013-10-13T07:30:35Z</time>
      </trkpt>
      <trkpt lat="47.24721" lon="-1.63749">
        <ele>32.1</ele>
        <time>2013-10-13T07:30:41Z</time>
      </trkpt>
      <trkpt lat="47.24728" lon="-1.63736">
        <ele>32.9</ele>
        <time>2013-10-13T07:30:46Z</time>
      </trkpt>
      <trkpt lat="47.24738" lon="-1.63738">
        <ele>34.3</ele>
        <time>2013-10-13T07:30:53Z</time>
      </trkpt>
      <trkpt lat="47.24745" lon="-1.63749">
        <ele>35.7</ele>
        <time>2013-10-13T07:30:58Z</time>
      </trkpt>
      <trkpt lat="47.24753" lon="-1.6376">
        <ele>37.3</ele>
        <time>2013-10-13T07:31:03Z</time>
      </trkpt>
      <trkpt lat="47.2476" lon="-1.6377">
        <ele>38.7</ele>
        <time>2013-10-13T07:31:07Z</time>
      </trkpt>
      <trkpt lat="47.24768" lon="-1.63782">
        <ele>39.9</ele>
        <time>2013-10-13T07:31:11Z</time>
      </trkpt>
      <trkpt lat="47.24774" lon="-1.63792">
        <ele>40.6</ele>
        <time>2013-10-13T07:31:14Z</time>
      </trkpt>
      <trkpt lat="47.24782" lon="-1.638">
        <ele>40.7</ele>
        <time>2013-10-13T07:31:17Z</time>
      </trkpt>
      <trkpt lat="47.2479" lon="-1.63811">
        <ele>40.9</ele>
        <time>2013-10-13T07:31:20Z</time>
      </trkpt>
      <trkpt lat="47.24796" lon="-1.63821">
        <ele>41.1</ele>
        <time>2013-10-13T07:31:24Z</time>
      </trkpt>
      <trkpt lat="47.24802" lon="-1.63832">
        <ele>41</ele>
        <time>2013-10-13T07:31:28Z</time>
      </trkpt>
      <trkpt lat="47.24808" lon="-1.63842">
        <ele>41.1</ele>
        <time>2013-10-13T07:31:32Z</time>
      </trkpt>
      <trkpt lat="47.24814" lon="-1.63853">
        <ele>41.2</ele>
        <time>2013-10-13T07:31:36Z</time>
      </trkpt>
      <trkpt lat="47.24822" lon="-1.63862">
        <ele>41.5</ele>
        <time>2013-10-13T07:31:42Z</time>
      </trkpt>
      <trkpt lat="47.24826" lon="-1.6388">
        <ele>41.4</ele>
        <time>2013-10-13T07:31:45Z</time>
      </trkpt>
      <trkpt lat="47.2483" lon="-1.63893">
        <ele>41.5</ele>
        <time>2013-10-13T07:31:47Z</time>
      </trkpt>
      <trkpt lat="47.24837" lon="-1.6391">
        <ele>41.3</ele>
        <time>2013-10-13T07:31:50Z</time>
      </trkpt>
      <trkpt lat="47.24842" lon="-1.63924">
        <ele>41.4</ele>
        <time>2013-10-13T07:31:52Z</time>
      </trkpt>
      <trkpt lat="47.24846" lon="-1.63939">
        <ele>41.4</ele>
        <time>2013-10-13T07:31:54Z</time>
      </trkpt>
      <trkpt lat="47.24855" lon="-1.63955">
        <ele>41.4</ele>
        <time>2013-10-13T07:31:56Z</time>
      </trkpt>
      <trkpt lat="47.24861" lon="-1.63968">
        <ele>41.2</ele>
        <time>2013-10-13T07:31:59Z</time>
      </trkpt>
      <trkpt lat="47.24867" lon="-1.6398">
        <ele>41.2</ele>
        <time>2013-10-13T07:32:03Z</time>
      </trkpt>
      <trkpt lat="47.24875" lon="-1.63994">
        <ele>41.5</ele>
        <time>2013-10-13T07:32:06Z</time>
      </trkpt>
      <trkpt lat="47.24879" lon="-1.64007">
        <ele>41.6</ele>
        <time>2013-10-13T07:32:08Z</time>
      </trkpt>
      <trkpt lat="47.24876" lon="-1.64021">
        <ele>41.6</ele>
        <time>2013-10-13T07:32:10Z</time>
      </trkpt>
      <trkpt lat="47.24871" lon="-1.64033">
        <ele>41.6</ele>
        <time>2013-10-13T07:32:13Z</time>
      </trkpt>
      <trkpt lat="47.24879" lon="-1.64042">
        <ele>43.2</ele>
        <time>2013-10-13T07:32:49Z</time>
      </trkpt>
      <trkpt lat="47.2487" lon="-1.64047">
        <ele>43.7</ele>
        <time>2013-10-13T07:35:59Z</time>
      </trkpt>
      <trkpt lat="47.24879" lon="-1.64043">
        <ele>43.3</ele>
        <time>2013-10-13T07:37:36Z</time>
      </trkpt>
      <trkpt lat="47.2487" lon="-1.64043">
        <ele>44.2</ele>
        <time>2013-10-13T07:39:01Z</time>
      </trkpt>
      <trkpt lat="47.24878" lon="-1.6405">
        <ele>41.4</ele>
        <time>2013-10-13T07:42:58Z</time>
      </trkpt>
      <trkpt lat="47.24885" lon="-1.6406">
        <ele>45.7</ele>
        <time>2013-10-13T07:45:32Z</time>
      </trkpt>
      <trkpt lat="47.24878" lon="-1.64049">
        <ele>47.9</ele>
        <time>2013-10-13T07:46:44Z</time>
      </trkpt>
      <trkpt lat="47.2487" lon="-1.64043">
        <ele>47.6</ele>
        <time>2013-10-13T07:46:57Z</time>
      </trkpt>
      <trkpt lat="47.24879" lon="-1.64047">
        <ele>47.3</ele>
        <time>2013-10-13T07:47:24Z</time>
      </trkpt>
      <trkpt lat="47.24873" lon="-1.64037">
        <ele>46.8</ele>
        <time>2013-10-13T07:47:43Z</time>
      </trkpt>
      <trkpt lat="47.24865" lon="-1.64031">
        <ele>46.3</ele>
        <time>2013-10-13T07:48:28Z</time>
      </trkpt>
      <trkpt lat="47.24874" lon="-1.64036">
        <ele>46.3</ele>
        <time>2013-10-13T07:48:59Z</time>
      </trkpt>
      <trkpt lat="47.24875" lon="-1.64049">
        <ele>44.8</ele>
        <time>2013-10-13T07:50:57Z</time>
      </trkpt>
      <trkpt lat="47.24883" lon="-1.64058">
        <ele>44.2</ele>
        <time>2013-10-13T07:51:03Z</time>
      </trkpt>
      <trkpt lat="47.24892" lon="-1.64053">
        <ele>44.2</ele>
        <time>2013-10-13T07:51:09Z</time>
      </trkpt>
      <trkpt lat="47.24893" lon="-1.64039">
        <ele>44.1</ele>
        <time>2013-10-13T07:51:15Z</time>
      </trkpt>
      <trkpt lat="47.24894" lon="-1.64025">
        <ele>43.9</ele>
        <time>2013-10-13T07:51:22Z</time>
      </trkpt>
      <trkpt lat="47.24901" lon="-1.64017">
        <ele>44</ele>
        <time>2013-10-13T07:51:27Z</time>
      </trkpt>
      <trkpt lat="47.2491" lon="-1.64007">
        <ele>43.9</ele>
        <time>2013-10-13T07:51:31Z</time>
      </trkpt>
      <trkpt lat="47.24919" lon="-1.63995">
        <ele>43.9</ele>
        <time>2013-10-13T07:51:35Z</time>
      </trkpt>
      <trkpt lat="47.24927" lon="-1.63987">
        <ele>43.7</ele>
        <time>2013-10-13T07:51:38Z</time>
      </trkpt>
      <trkpt lat="47.24936" lon="-1.63979">
        <ele>43.2</ele>
        <time>2013-10-13T07:51:42Z</time>
      </trkpt>
      <trkpt lat="47.24946" lon="-1.63971">
        <ele>42.7</ele>
        <time>2013-10-13T07:51:46Z</time>
      </trkpt>
      <trkpt lat="47.24956" lon="-1.63963">
        <ele>42.5</ele>
        <time>2013-10-13T07:51:50Z</time>
      </trkpt>
      <trkpt lat="47.24966" lon="-1.63956">
        <ele>42.2</ele>
        <time>2013-10-13T07:51:54Z</time>
      </trkpt>
      <trkpt lat="47.24976" lon="-1.6395">
        <ele>42</ele>
        <time>2013-10-13T07:51:58Z</time>
      </trkpt>
      <trkpt lat="47.24986" lon="-1.63949">
        <ele>41.7</ele>
        <time>2013-10-13T07:52:01Z</time>
      </trkpt>
      <trkpt lat="47.24995" lon="-1.63955">
        <ele>41.5</ele>
        <time>2013-10-13T07:52:05Z</time>
      </trkpt>
      <trkpt lat="47.25001" lon="-1.63968">
        <ele>41.4</ele>
        <time>2013-10-13T07:52:09Z</time>
      </trkpt>
      <trkpt lat="47.25006" lon="-1.63981">
        <ele>41.4</ele>
        <time>2013-10-13T07:52:13Z</time>
      </trkpt>
      <trkpt lat="47.2501" lon="-1.63995">
        <ele>41.6</ele>
        <time>2013-10-13T07:52:16Z</time>
      </trkpt>
      <trkpt lat="47.25012" lon="-1.6401">
        <ele>41.8</ele>
        <time>2013-10-13T07:52:19Z</time>
      </trkpt>
      <trkpt lat="47.25015" lon="-1.64027">
        <ele>42</ele>
        <time>2013-10-13T07:52:22Z</time>
      </trkpt>
      <trkpt lat="47.25016" lon="-1.64044">
        <ele>42.2</ele>
        <time>2013-10-13T07:52:25Z</time>
      </trkpt>
      <trkpt lat="47.2502" lon="-1.64059">
        <ele>42.3</ele>
        <time>2013-10-13T07:52:28Z</time>
      </trkpt>
      <trkpt lat="47.25024" lon="-1.64075">
        <ele>42.4</ele>
        <time>2013-10-13T07:52:31Z</time>
      </trkpt>
      <trkpt lat="47.25028" lon="-1.64089">
        <ele>42.6</ele>
        <time>2013-10-13T07:52:33Z</time>
      </trkpt>
      <trkpt lat="47.2503" lon="-1.64102">
        <ele>42.8</ele>
        <time>2013-10-13T07:52:36Z</time>
      </trkpt>
      <trkpt lat="47.25033" lon="-1.64117">
        <ele>43</ele>
        <time>2013-10-13T07:52:39Z</time>
      </trkpt>
      <trkpt lat="47.25038" lon="-1.64132">
        <ele>43.4</ele>
        <time>2013-10-13T07:52:42Z</time>
      </trkpt>
      <trkpt lat="47.25042" lon="-1.64149">
        <ele>43.4</ele>
        <time>2013-10-13T07:52:45Z</time>
      </trkpt>
      <trkpt lat="47.25047" lon="-1.64165">
        <ele>43.4</ele>
        <time>2013-10-13T07:52:48Z</time>
      </trkpt>
      <trkpt lat="47.25053" lon="-1.6418">
        <ele>43.4</ele>
        <time>2013-10-13T07:52:51Z</time>
      </trkpt>
      <trkpt lat="47.25059" lon="-1.64194">
        <ele>43.3</ele>
        <time>2013-10-13T07:52:56Z</time>
      </trkpt>
      <trkpt lat="47.25059" lon="-1.64209">
        <ele>43.5</ele>
        <time>2013-10-13T07:53:01Z</time>
      </trkpt>
      <trkpt lat="47.25063" lon="-1.64226">
        <ele>43.6</ele>
        <time>2013-10-13T07:53:05Z</time>
      </trkpt>
      <trkpt lat="47.25066" lon="-1.64241">
        <ele>43.6</ele>
        <time>2013-10-13T07:53:08Z</time>
      </trkpt>
      <trkpt lat="47.25071" lon="-1.64258">
        <ele>43.7</ele>
        <time>2013-10-13T07:53:11Z</time>
      </trkpt>
      <trkpt lat="47.25079" lon="-1.64272">
        <ele>43.6</ele>
        <time>2013-10-13T07:53:14Z</time>
      </trkpt>
      <trkpt lat="47.25087" lon="-1.64282">
        <ele>43.4</ele>
        <time>2013-10-13T07:53:17Z</time>
      </trkpt>
      <trkpt lat="47.25094" lon="-1.64295">
        <ele>43.3</ele>
        <time>2013-10-13T07:53:20Z</time>
      </trkpt>
      <trkpt lat="47.25101" lon="-1.64306">
        <ele>43.3</ele>
        <time>2013-10-13T07:53:22Z</time>
      </trkpt>
      <trkpt lat="47.25108" lon="-1.64318">
        <ele>43.4</ele>
        <time>2013-10-13T07:53:25Z</time>
      </trkpt>
      <trkpt lat="47.25116" lon="-1.6433">
        <ele>44.2</ele>
        <time>2013-10-13T07:53:28Z</time>
      </trkpt>
      <trkpt lat="47.25123" lon="-1.64344">
        <ele>45.2</ele>
        <time>2013-10-13T07:53:31Z</time>
      </trkpt>
      <trkpt lat="47.2513" lon="-1.64357">
        <ele>45.7</ele>
        <time>2013-10-13T07:53:34Z</time>
      </trkpt>
      <trkpt lat="47.25134" lon="-1.64371">
        <ele>45.6</ele>
        <time>2013-10-13T07:53:37Z</time>
      </trkpt>
      <trkpt lat="47.25132" lon="-1.64385">
        <ele>45.6</ele>
        <time>2013-10-13T07:53:40Z</time>
      </trkpt>
      <trkpt lat="47.25127" lon="-1.64399">
        <ele>46.5</ele>
        <time>2013-10-13T07:53:43Z</time>
      </trkpt>
      <trkpt lat="47.2512" lon="-1.64411">
        <ele>47.6</ele>
        <time>2013-10-13T07:53:45Z</time>
      </trkpt>
      <trkpt lat="47.25113" lon="-1.64421">
        <ele>48.2</ele>
        <time>2013-10-13T07:53:47Z</time>
      </trkpt>
      <trkpt lat="47.25104" lon="-1.64434">
        <ele>47.9</ele>
        <time>2013-10-13T07:53:50Z</time>
      </trkpt>
      <trkpt lat="47.25096" lon="-1.64443">
        <ele>48.6</ele>
        <time>2013-10-13T07:53:52Z</time>
      </trkpt>
      <trkpt lat="47.25089" lon="-1.64452">
        <ele>48.9</ele>
        <time>2013-10-13T07:53:54Z</time>
      </trkpt>
      <trkpt lat="47.25084" lon="-1.6447">
        <ele>48.5</ele>
        <time>2013-10-13T07:53:57Z</time>
      </trkpt>
      <trkpt lat="47.25093" lon="-1.64484">
        <ele>48.5</ele>
        <time>2013-10-13T07:54:00Z</time>
      </trkpt>
      <trkpt lat="47.25099" lon="-1.64495">
        <ele>48.4</ele>
        <time>2013-10-13T07:54:03Z</time>
      </trkpt>
      <trkpt lat="47.25103" lon="-1.64509">
        <ele>48.2</ele>
        <time>2013-10-13T07:54:07Z</time>
      </trkpt>
      <trkpt lat="47.25099" lon="-1.64527">
        <ele>47.2</ele>
        <time>2013-10-13T07:54:11Z</time>
      </trkpt>
      <trkpt lat="47.25096" lon="-1.64542">
        <ele>46.4</ele>
        <time>2013-10-13T07:54:13Z</time>
      </trkpt>
      <trkpt lat="47.25097" lon="-1.64557">
        <ele>46.4</ele>
        <time>2013-10-13T07:54:15Z</time>
      </trkpt>
      <trkpt lat="47.25098" lon="-1.64575">
        <ele>45.6</ele>
        <time>2013-10-13T07:54:17Z</time>
      </trkpt>
      <trkpt lat="47.251" lon="-1.64594">
        <ele>44.9</ele>
        <time>2013-10-13T07:54:19Z</time>
      </trkpt>
      <trkpt lat="47.25102" lon="-1.64617">
        <ele>44.6</ele>
        <time>2013-10-13T07:54:21Z</time>
      </trkpt>
      <trkpt lat="47.25103" lon="-1.6464">
        <ele>45.5</ele>
        <time>2013-10-13T07:54:23Z</time>
      </trkpt>
      <trkpt lat="47.25103" lon="-1.6466">
        <ele>44.5</ele>
        <time>2013-10-13T07:54:25Z</time>
      </trkpt>
      <trkpt lat="47.25102" lon="-1.6468">
        <ele>43.7</ele>
        <time>2013-10-13T07:54:27Z</time>
      </trkpt>
      <trkpt lat="47.251" lon="-1.64703">
        <ele>44</ele>
        <time>2013-10-13T07:54:29Z</time>
      </trkpt>
      <trkpt lat="47.25097" lon="-1.64725">
        <ele>43.7</ele>
        <time>2013-10-13T07:54:31Z</time>
      </trkpt>
      <trkpt lat="47.25093" lon="-1.64747">
        <ele>43.5</ele>
        <time>2013-10-13T07:54:33Z</time>
      </trkpt>
      <trkpt lat="47.2509" lon="-1.64767">
        <ele>42.9</ele>
        <time>2013-10-13T07:54:35Z</time>
      </trkpt>
      <trkpt lat="47.25087" lon="-1.64789">
        <ele>42</ele>
        <time>2013-10-13T07:54:37Z</time>
      </trkpt>
      <trkpt lat="47.25084" lon="-1.64808">
        <ele>40.8</ele>
        <time>2013-10-13T07:54:39Z</time>
      </trkpt>
      <trkpt lat="47.25089" lon="-1.6482">
        <ele>39.3</ele>
        <time>2013-10-13T07:54:41Z</time>
      </trkpt>
      <trkpt lat="47.25099" lon="-1.64828">
        <ele>37.4</ele>
        <time>2013-10-13T07:54:43Z</time>
      </trkpt>
      <trkpt lat="47.25108" lon="-1.64833">
        <ele>35.6</ele>
        <time>2013-10-13T07:54:45Z</time>
      </trkpt>
      <trkpt lat="47.25119" lon="-1.64839">
        <ele>35.7</ele>
        <time>2013-10-13T07:54:48Z</time>
      </trkpt>
      <trkpt lat="47.25128" lon="-1.64844">
        <ele>35.8</ele>
        <time>2013-10-13T07:54:51Z</time>
      </trkpt>
      <trkpt lat="47.25139" lon="-1.6485">
        <ele>35.5</ele>
        <time>2013-10-13T07:54:54Z</time>
      </trkpt>
      <trkpt lat="47.25149" lon="-1.64856">
        <ele>35.5</ele>
        <time>2013-10-13T07:54:57Z</time>
      </trkpt>
      <trkpt lat="47.25158" lon="-1.64862">
        <ele>35.8</ele>
        <time>2013-10-13T07:55:01Z</time>
      </trkpt>
      <trkpt lat="47.25165" lon="-1.64875">
        <ele>35.9</ele>
        <time>2013-10-13T07:55:04Z</time>
      </trkpt>
      <trkpt lat="47.25171" lon="-1.6489">
        <ele>35.9</ele>
        <time>2013-10-13T07:55:07Z</time>
      </trkpt>
      <trkpt lat="47.25174" lon="-1.64903">
        <ele>36</ele>
        <time>2013-10-13T07:55:10Z</time>
      </trkpt>
      <trkpt lat="47.25176" lon="-1.64921">
        <ele>36.1</ele>
        <time>2013-10-13T07:55:14Z</time>
      </trkpt>
      <trkpt lat="47.25179" lon="-1.64934">
        <ele>36.1</ele>
        <time>2013-10-13T07:55:17Z</time>
      </trkpt>
      <trkpt lat="47.25182" lon="-1.64947">
        <ele>36.9</ele>
        <time>2013-10-13T07:55:22Z</time>
      </trkpt>
      <trkpt lat="47.25183" lon="-1.64962">
        <ele>37.3</ele>
        <time>2013-10-13T07:55:26Z</time>
      </trkpt>
      <trkpt lat="47.25182" lon="-1.64977">
        <ele>37.4</ele>
        <time>2013-10-13T07:55:29Z</time>
      </trkpt>
      <trkpt lat="47.25181" lon="-1.64992">
        <ele>37.4</ele>
        <time>2013-10-13T07:55:32Z</time>
      </trkpt>
      <trkpt lat="47.25179" lon="-1.6501">
        <ele>37.5</ele>
        <time>2013-10-13T07:55:36Z</time>
      </trkpt>
      <trkpt lat="47.25178" lon="-1.65025">
        <ele>37.6</ele>
        <time>2013-10-13T07:55:39Z</time>
      </trkpt>
      <trkpt lat="47.25177" lon="-1.65045">
        <ele>37.7</ele>
        <time>2013-10-13T07:55:42Z</time>
      </trkpt>
      <trkpt lat="47.25176" lon="-1.6506">
        <ele>38</ele>
        <time>2013-10-13T07:55:44Z</time>
      </trkpt>
      <trkpt lat="47.25176" lon="-1.65074">
        <ele>38.1</ele>
        <time>2013-10-13T07:55:46Z</time>
      </trkpt>
      <trkpt lat="47.25175" lon="-1.65092">
        <ele>38</ele>
        <time>2013-10-13T07:55:49Z</time>
      </trkpt>
      <trkpt lat="47.25176" lon="-1.65108">
        <ele>38.3</ele>
        <time>2013-10-13T07:55:52Z</time>
      </trkpt>
      <trkpt lat="47.25174" lon="-1.65122">
        <ele>44.1</ele>
        <time>2013-10-13T07:59:45Z</time>
      </trkpt>
      <trkpt lat="47.2517" lon="-1.65138">
        <ele>44.4</ele>
        <time>2013-10-13T07:59:49Z</time>
      </trkpt>
      <trkpt lat="47.25165" lon="-1.65154">
        <ele>44.4</ele>
        <time>2013-10-13T07:59:52Z</time>
      </trkpt>
      <trkpt lat="47.25162" lon="-1.6517">
        <ele>44.4</ele>
        <time>2013-10-13T07:59:55Z</time>
      </trkpt>
      <trkpt lat="47.25158" lon="-1.65185">
        <ele>44.3</ele>
        <time>2013-10-13T07:59:58Z</time>
      </trkpt>
      <trkpt lat="47.25155" lon="-1.65201">
        <ele>44.3</ele>
        <time>2013-10-13T08:00:01Z</time>
      </trkpt>
      <trkpt lat="47.25152" lon="-1.65219">
        <ele>44.2</ele>
        <time>2013-10-13T08:00:04Z</time>
      </trkpt>
      <trkpt lat="47.25155" lon="-1.65238">
        <ele>42.1</ele>
        <time>2013-10-13T08:00:07Z</time>
      </trkpt>
      <trkpt lat="47.2516" lon="-1.65253">
        <ele>41.1</ele>
        <time>2013-10-13T08:00:09Z</time>
      </trkpt>
      <trkpt lat="47.25164" lon="-1.65268">
        <ele>40.6</ele>
        <time>2013-10-13T08:00:11Z</time>
      </trkpt>
      <trkpt lat="47.25164" lon="-1.65282">
        <ele>40.1</ele>
        <time>2013-10-13T08:00:13Z</time>
      </trkpt>
      <trkpt lat="47.25162" lon="-1.65301">
        <ele>39.6</ele>
        <time>2013-10-13T08:00:16Z</time>
      </trkpt>
      <trkpt lat="47.25158" lon="-1.65318">
        <ele>38.4</ele>
        <time>2013-10-13T08:00:18Z</time>
      </trkpt>
      <trkpt lat="47.25154" lon="-1.65336">
        <ele>36.8</ele>
        <time>2013-10-13T08:00:20Z</time>
      </trkpt>
      <trkpt lat="47.25149" lon="-1.65356">
        <ele>35.6</ele>
        <time>2013-10-13T08:00:22Z</time>
      </trkpt>
      <trkpt lat="47.25144" lon="-1.65374">
        <ele>35</ele>
        <time>2013-10-13T08:00:24Z</time>
      </trkpt>
      <trkpt lat="47.25137" lon="-1.65394">
        <ele>34.1</ele>
        <time>2013-10-13T08:00:26Z</time>
      </trkpt>
      <trkpt lat="47.25127" lon="-1.6541">
        <ele>34.2</ele>
        <time>2013-10-13T08:00:28Z</time>
      </trkpt>
      <trkpt lat="47.25118" lon="-1.65423">
        <ele>34.8</ele>
        <time>2013-10-13T08:00:30Z</time>
      </trkpt>
      <trkpt lat="47.25113" lon="-1.65437">
        <ele>35.7</ele>
        <time>2013-10-13T08:00:32Z</time>
      </trkpt>
      <trkpt lat="47.25109" lon="-1.65452">
        <ele>36.1</ele>
        <time>2013-10-13T08:00:34Z</time>
      </trkpt>
      <trkpt lat="47.25106" lon="-1.65467">
        <ele>36.1</ele>
        <time>2013-10-13T08:00:36Z</time>
      </trkpt>
      <trkpt lat="47.25104" lon="-1.65483">
        <ele>36</ele>
        <time>2013-10-13T08:00:38Z</time>
      </trkpt>
      <trkpt lat="47.25102" lon="-1.65499">
        <ele>34.9</ele>
        <time>2013-10-13T08:00:40Z</time>
      </trkpt>
      <trkpt lat="47.251" lon="-1.65516">
        <ele>32.5</ele>
        <time>2013-10-13T08:00:42Z</time>
      </trkpt>
      <trkpt lat="47.25098" lon="-1.65534">
        <ele>30.7</ele>
        <time>2013-10-13T08:00:44Z</time>
      </trkpt>
      <trkpt lat="47.25092" lon="-1.65553">
        <ele>29.1</ele>
        <time>2013-10-13T08:00:46Z</time>
      </trkpt>
      <trkpt lat="47.25088" lon="-1.65566">
        <ele>28.7</ele>
        <time>2013-10-13T08:00:47Z</time>
      </trkpt>
      <trkpt lat="47.25082" lon="-1.65589">
        <ele>27.2</ele>
        <time>2013-10-13T08:00:49Z</time>
      </trkpt>
      <trkpt lat="47.25076" lon="-1.6561">
        <ele>27.1</ele>
        <time>2013-10-13T08:00:51Z</time>
      </trkpt>
      <trkpt lat="47.25073" lon="-1.65625">
        <ele>27.6</ele>
        <time>2013-10-13T08:00:53Z</time>
      </trkpt>
      <trkpt lat="47.25071" lon="-1.65639">
        <ele>27.8</ele>
        <time>2013-10-13T08:00:55Z</time>
      </trkpt>
      <trkpt lat="47.25074" lon="-1.65653">
        <ele>28.2</ele>
        <time>2013-10-13T08:00:57Z</time>
      </trkpt>
      <trkpt lat="47.2508" lon="-1.65667">
        <ele>28.3</ele>
        <time>2013-10-13T08:00:59Z</time>
      </trkpt>
      <trkpt lat="47.2509" lon="-1.65673">
        <ele>28.6</ele>
        <time>2013-10-13T08:01:01Z</time>
      </trkpt>
      <trkpt lat="47.251" lon="-1.65679">
        <ele>28.7</ele>
        <time>2013-10-13T08:01:03Z</time>
      </trkpt>
      <trkpt lat="47.25112" lon="-1.65684">
        <ele>28.4</ele>
        <time>2013-10-13T08:01:05Z</time>
      </trkpt>
      <trkpt lat="47.25125" lon="-1.65687">
        <ele>28.6</ele>
        <time>2013-10-13T08:01:07Z</time>
      </trkpt>
      <trkpt lat="47.25138" lon="-1.6569">
        <ele>28.9</ele>
        <time>2013-10-13T08:01:09Z</time>
      </trkpt>
      <trkpt lat="47.2515" lon="-1.65692">
        <ele>29.2</ele>
        <time>2013-10-13T08:01:11Z</time>
      </trkpt>
      <trkpt lat="47.25161" lon="-1.65694">
        <ele>29.7</ele>
        <time>2013-10-13T08:01:13Z</time>
      </trkpt>
      <trkpt lat="47.25172" lon="-1.65696">
        <ele>30.3</ele>
        <time>2013-10-13T08:01:15Z</time>
      </trkpt>
      <trkpt lat="47.25182" lon="-1.65704">
        <ele>30.7</ele>
        <time>2013-10-13T08:01:17Z</time>
      </trkpt>
      <trkpt lat="47.25188" lon="-1.65716">
        <ele>30</ele>
        <time>2013-10-13T08:01:19Z</time>
      </trkpt>
      <trkpt lat="47.25192" lon="-1.65728">
        <ele>29.4</ele>
        <time>2013-10-13T08:01:21Z</time>
      </trkpt>
      <trkpt lat="47.25197" lon="-1.65739">
        <ele>29.6</ele>
        <time>2013-10-13T08:01:23Z</time>
      </trkpt>
      <trkpt lat="47.25203" lon="-1.65756">
        <ele>30.3</ele>
        <time>2013-10-13T08:01:26Z</time>
      </trkpt>
      <trkpt lat="47.25209" lon="-1.65772">
        <ele>29.1</ele>
        <time>2013-10-13T08:01:29Z</time>
      </trkpt>
      <trkpt lat="47.25213" lon="-1.65788">
        <ele>30</ele>
        <time>2013-10-13T08:01:32Z</time>
      </trkpt>
      <trkpt lat="47.25217" lon="-1.65806">
        <ele>32</ele>
        <time>2013-10-13T08:01:35Z</time>
      </trkpt>
      <trkpt lat="47.25221" lon="-1.65824">
        <ele>32.3</ele>
        <time>2013-10-13T08:01:38Z</time>
      </trkpt>
      <trkpt lat="47.25224" lon="-1.65843">
        <ele>32.5</ele>
        <time>2013-10-13T08:01:41Z</time>
      </trkpt>
      <trkpt lat="47.25226" lon="-1.65858">
        <ele>32.9</ele>
        <time>2013-10-13T08:01:44Z</time>
      </trkpt>
      <trkpt lat="47.25229" lon="-1.65873">
        <ele>33.3</ele>
        <time>2013-10-13T08:01:47Z</time>
      </trkpt>
      <trkpt lat="47.25233" lon="-1.65887">
        <ele>33.6</ele>
        <time>2013-10-13T08:01:50Z</time>
      </trkpt>
      <trkpt lat="47.25237" lon="-1.65903">
        <ele>33.9</ele>
        <time>2013-10-13T08:01:53Z</time>
      </trkpt>
      <trkpt lat="47.25242" lon="-1.65918">
        <ele>34</ele>
        <time>2013-10-13T08:01:57Z</time>
      </trkpt>
      <trkpt lat="47.25245" lon="-1.65931">
        <ele>34.3</ele>
        <time>2013-10-13T08:02:00Z</time>
      </trkpt>
      <trkpt lat="47.25249" lon="-1.65943">
        <ele>34.7</ele>
        <time>2013-10-13T08:02:03Z</time>
      </trkpt>
      <trkpt lat="47.25252" lon="-1.65957">
        <ele>35.2</ele>
        <time>2013-10-13T08:02:06Z</time>
      </trkpt>
      <trkpt lat="47.25257" lon="-1.65972">
        <ele>35.7</ele>
        <time>2013-10-13T08:02:09Z</time>
      </trkpt>
      <trkpt lat="47.25261" lon="-1.65984">
        <ele>36.1</ele>
        <time>2013-10-13T08:02:12Z</time>
      </trkpt>
      <trkpt lat="47.25267" lon="-1.65997">
        <ele>36.6</ele>
        <time>2013-10-13T08:02:15Z</time>
      </trkpt>
      <trkpt lat="47.25275" lon="-1.66008">
        <ele>37.1</ele>
        <time>2013-10-13T08:02:18Z</time>
      </trkpt>
      <trkpt lat="47.25281" lon="-1.66018">
        <ele>37.5</ele>
        <time>2013-10-13T08:02:21Z</time>
      </trkpt>
      <trkpt lat="47.25288" lon="-1.66032">
        <ele>37.8</ele>
        <time>2013-10-13T08:02:24Z</time>
      </trkpt>
      <trkpt lat="47.25296" lon="-1.66045">
        <ele>38.1</ele>
        <time>2013-10-13T08:02:27Z</time>
      </trkpt>
      <trkpt lat="47.25303" lon="-1.66057">
        <ele>39.7</ele>
        <time>2013-10-13T08:02:29Z</time>
      </trkpt>
      <trkpt lat="47.2531" lon="-1.66069">
        <ele>40.3</ele>
        <time>2013-10-13T08:02:31Z</time>
      </trkpt>
      <trkpt lat="47.25316" lon="-1.66081">
        <ele>40.1</ele>
        <time>2013-10-13T08:02:33Z</time>
      </trkpt>
      <trkpt lat="47.25321" lon="-1.66095">
        <ele>40.2</ele>
        <time>2013-10-13T08:02:36Z</time>
      </trkpt>
      <trkpt lat="47.25324" lon="-1.66115">
        <ele>41</ele>
        <time>2013-10-13T08:02:39Z</time>
      </trkpt>
      <trkpt lat="47.25325" lon="-1.66131">
        <ele>41.7</ele>
        <time>2013-10-13T08:02:41Z</time>
      </trkpt>
      <trkpt lat="47.25325" lon="-1.66145">
        <ele>42.1</ele>
        <time>2013-10-13T08:02:43Z</time>
      </trkpt>
      <trkpt lat="47.25323" lon="-1.66165">
        <ele>41.9</ele>
        <time>2013-10-13T08:02:46Z</time>
      </trkpt>
      <trkpt lat="47.25322" lon="-1.66179">
        <ele>40.9</ele>
        <time>2013-10-13T08:02:48Z</time>
      </trkpt>
      <trkpt lat="47.25322" lon="-1.66193">
        <ele>40.4</ele>
        <time>2013-10-13T08:02:50Z</time>
      </trkpt>
      <trkpt lat="47.25322" lon="-1.66207">
        <ele>40</ele>
        <time>2013-10-13T08:02:52Z</time>
      </trkpt>
      <trkpt lat="47.25322" lon="-1.66221">
        <ele>39.7</ele>
        <time>2013-10-13T08:02:54Z</time>
      </trkpt>
      <trkpt lat="47.25322" lon="-1.66237">
        <ele>39.1</ele>
        <time>2013-10-13T08:02:56Z</time>
      </trkpt>
      <trkpt lat="47.25323" lon="-1.6625">
        <ele>39.1</ele>
        <time>2013-10-13T08:02:58Z</time>
      </trkpt>
      <trkpt lat="47.25323" lon="-1.66269">
        <ele>38.7</ele>
        <time>2013-10-13T08:03:01Z</time>
      </trkpt>
      <trkpt lat="47.25325" lon="-1.66287">
        <ele>38.2</ele>
        <time>2013-10-13T08:03:04Z</time>
      </trkpt>
      <trkpt lat="47.25325" lon="-1.66306">
        <ele>37.9</ele>
        <time>2013-10-13T08:03:07Z</time>
      </trkpt>
      <trkpt lat="47.25326" lon="-1.66326">
        <ele>37.9</ele>
        <time>2013-10-13T08:03:10Z</time>
      </trkpt>
      <trkpt lat="47.25327" lon="-1.6634">
        <ele>37.6</ele>
        <time>2013-10-13T08:03:12Z</time>
      </trkpt>
      <trkpt lat="47.25327" lon="-1.66358">
        <ele>37.4</ele>
        <time>2013-10-13T08:03:15Z</time>
      </trkpt>
      <trkpt lat="47.25327" lon="-1.66377">
        <ele>37.2</ele>
        <time>2013-10-13T08:03:18Z</time>
      </trkpt>
      <trkpt lat="47.25327" lon="-1.66396">
        <ele>36.7</ele>
        <time>2013-10-13T08:03:21Z</time>
      </trkpt>
      <trkpt lat="47.25327" lon="-1.66414">
        <ele>35.7</ele>
        <time>2013-10-13T08:03:23Z</time>
      </trkpt>
      <trkpt lat="47.25326" lon="-1.66429">
        <ele>35.3</ele>
        <time>2013-10-13T08:03:25Z</time>
      </trkpt>
      <trkpt lat="47.25326" lon="-1.66445">
        <ele>34.9</ele>
        <time>2013-10-13T08:03:27Z</time>
      </trkpt>
      <trkpt lat="47.25327" lon="-1.6646">
        <ele>34.5</ele>
        <time>2013-10-13T08:03:29Z</time>
      </trkpt>
      <trkpt lat="47.25326" lon="-1.66479">
        <ele>33.6</ele>
        <time>2013-10-13T08:03:32Z</time>
      </trkpt>
      <trkpt lat="47.25326" lon="-1.66493">
        <ele>33</ele>
        <time>2013-10-13T08:03:34Z</time>
      </trkpt>
      <trkpt lat="47.25326" lon="-1.66507">
        <ele>32.1</ele>
        <time>2013-10-13T08:03:36Z</time>
      </trkpt>
      <trkpt lat="47.25327" lon="-1.6652">
        <ele>31.8</ele>
        <time>2013-10-13T08:03:38Z</time>
      </trkpt>
      <trkpt lat="47.25328" lon="-1.66539">
        <ele>31.6</ele>
        <time>2013-10-13T08:03:41Z</time>
      </trkpt>
      <trkpt lat="47.25331" lon="-1.66553">
        <ele>31.6</ele>
        <time>2013-10-13T08:03:44Z</time>
      </trkpt>
      <trkpt lat="47.25333" lon="-1.66568">
        <ele>32</ele>
        <time>2013-10-13T08:03:47Z</time>
      </trkpt>
      <trkpt lat="47.25335" lon="-1.66584">
        <ele>32.5</ele>
        <time>2013-10-13T08:03:50Z</time>
      </trkpt>
      <trkpt lat="47.25337" lon="-1.66603">
        <ele>32.9</ele>
        <time>2013-10-13T08:03:53Z</time>
      </trkpt>
      <trkpt lat="47.25337" lon="-1.6662">
        <ele>33.3</ele>
        <time>2013-10-13T08:03:56Z</time>
      </trkpt>
      <trkpt lat="47.25337" lon="-1.66636">
        <ele>34.9</ele>
        <time>2013-10-13T08:03:59Z</time>
      </trkpt>
      <trkpt lat="47.25336" lon="-1.66654">
        <ele>35.8</ele>
        <time>2013-10-13T08:04:02Z</time>
      </trkpt>
      <trkpt lat="47.25335" lon="-1.66671">
        <ele>36.2</ele>
        <time>2013-10-13T08:04:05Z</time>
      </trkpt>
      <trkpt lat="47.25334" lon="-1.66687">
        <ele>36.4</ele>
        <time>2013-10-13T08:04:08Z</time>
      </trkpt>
      <trkpt lat="47.25334" lon="-1.66702">
        <ele>36.5</ele>
        <time>2013-10-13T08:04:11Z</time>
      </trkpt>
      <trkpt lat="47.25334" lon="-1.66719">
        <ele>37.2</ele>
        <time>2013-10-13T08:04:14Z</time>
      </trkpt>
      <trkpt lat="47.25335" lon="-1.66736">
        <ele>38.6</ele>
        <time>2013-10-13T08:04:17Z</time>
      </trkpt>
      <trkpt lat="47.25335" lon="-1.66753">
        <ele>38.7</ele>
        <time>2013-10-13T08:04:20Z</time>
      </trkpt>
      <trkpt lat="47.25334" lon="-1.66771">
        <ele>38.6</ele>
        <time>2013-10-13T08:04:23Z</time>
      </trkpt>
      <trkpt lat="47.25335" lon="-1.66786">
        <ele>38.6</ele>
        <time>2013-10-13T08:04:26Z</time>
      </trkpt>
      <trkpt lat="47.25335" lon="-1.66803">
        <ele>38.6</ele>
        <time>2013-10-13T08:04:29Z</time>
      </trkpt>
      <trkpt lat="47.25336" lon="-1.66818">
        <ele>38.7</ele>
        <time>2013-10-13T08:04:32Z</time>
      </trkpt>
      <trkpt lat="47.25337" lon="-1.66833">
        <ele>38.9</ele>
        <time>2013-10-13T08:04:35Z</time>
      </trkpt>
      <trkpt lat="47.25336" lon="-1.66849">
        <ele>38.9</ele>
        <time>2013-10-13T08:04:38Z</time>
      </trkpt>
      <trkpt lat="47.25336" lon="-1.66866">
        <ele>38.9</ele>
        <time>2013-10-13T08:04:58Z</time>
      </trkpt>
      <trkpt lat="47.25338" lon="-1.66883">
        <ele>39.1</ele>
        <time>2013-10-13T08:05:01Z</time>
      </trkpt>
      <trkpt lat="47.2534" lon="-1.66896">
        <ele>40</ele>
        <time>2013-10-13T08:05:03Z</time>
      </trkpt>
      <trkpt lat="47.25342" lon="-1.66911">
        <ele>40.8</ele>
        <time>2013-10-13T08:05:05Z</time>
      </trkpt>
      <trkpt lat="47.25344" lon="-1.66928">
        <ele>41.3</ele>
        <time>2013-10-13T08:05:07Z</time>
      </trkpt>
      <trkpt lat="47.25344" lon="-1.66943">
        <ele>41.9</ele>
        <time>2013-10-13T08:05:09Z</time>
      </trkpt>
      <trkpt lat="47.25345" lon="-1.66959">
        <ele>42.9</ele>
        <time>2013-10-13T08:05:11Z</time>
      </trkpt>
      <trkpt lat="47.25345" lon="-1.66979">
        <ele>44</ele>
        <time>2013-10-13T08:05:13Z</time>
      </trkpt>
      <trkpt lat="47.25345" lon="-1.66996">
        <ele>44.3</ele>
        <time>2013-10-13T08:05:15Z</time>
      </trkpt>
      <trkpt lat="47.25346" lon="-1.67014">
        <ele>44.4</ele>
        <time>2013-10-13T08:05:17Z</time>
      </trkpt>
      <trkpt lat="47.25346" lon="-1.67029">
        <ele>44.1</ele>
        <time>2013-10-13T08:05:19Z</time>
      </trkpt>
      <trkpt lat="47.25346" lon="-1.67045">
        <ele>43.8</ele>
        <time>2013-10-13T08:05:21Z</time>
      </trkpt>
      <trkpt lat="47.25347" lon="-1.67062">
        <ele>43.6</ele>
        <time>2013-10-13T08:05:23Z</time>
      </trkpt>
      <trkpt lat="47.25348" lon="-1.67078">
        <ele>43.7</ele>
        <time>2013-10-13T08:05:25Z</time>
      </trkpt>
      <trkpt lat="47.25351" lon="-1.67094">
        <ele>43.5</ele>
        <time>2013-10-13T08:05:27Z</time>
      </trkpt>
      <trkpt lat="47.25354" lon="-1.67107">
        <ele>43.8</ele>
        <time>2013-10-13T08:05:29Z</time>
      </trkpt>
      <trkpt lat="47.25358" lon="-1.67127">
        <ele>42.9</ele>
        <time>2013-10-13T08:05:32Z</time>
      </trkpt>
      <trkpt lat="47.25361" lon="-1.67143">
        <ele>42.2</ele>
        <time>2013-10-13T08:05:34Z</time>
      </trkpt>
      <trkpt lat="47.25363" lon="-1.6716">
        <ele>40.8</ele>
        <time>2013-10-13T08:05:36Z</time>
      </trkpt>
      <trkpt lat="47.25365" lon="-1.67173">
        <ele>40.1</ele>
        <time>2013-10-13T08:05:38Z</time>
      </trkpt>
      <trkpt lat="47.25366" lon="-1.67188">
        <ele>39.8</ele>
        <time>2013-10-13T08:05:40Z</time>
      </trkpt>
      <trkpt lat="47.25367" lon="-1.67202">
        <ele>40.6</ele>
        <time>2013-10-13T08:05:42Z</time>
      </trkpt>
      <trkpt lat="47.25368" lon="-1.67215">
        <ele>41.5</ele>
        <time>2013-10-13T08:05:44Z</time>
      </trkpt>
      <trkpt lat="47.25369" lon="-1.6723">
        <ele>41.5</ele>
        <time>2013-10-13T08:05:46Z</time>
      </trkpt>
      <trkpt lat="47.25369" lon="-1.67244">
        <ele>40.1</ele>
        <time>2013-10-13T08:05:48Z</time>
      </trkpt>
      <trkpt lat="47.2537" lon="-1.67261">
        <ele>40.1</ele>
        <time>2013-10-13T08:05:50Z</time>
      </trkpt>
      <trkpt lat="47.25371" lon="-1.67279">
        <ele>39.4</ele>
        <time>2013-10-13T08:05:52Z</time>
      </trkpt>
      <trkpt lat="47.25372" lon="-1.67295">
        <ele>39.3</ele>
        <time>2013-10-13T08:05:54Z</time>
      </trkpt>
      <trkpt lat="47.25372" lon="-1.67309">
        <ele>40</ele>
        <time>2013-10-13T08:05:56Z</time>
      </trkpt>
      <trkpt lat="47.25375" lon="-1.67324">
        <ele>40.8</ele>
        <time>2013-10-13T08:05:58Z</time>
      </trkpt>
      <trkpt lat="47.25379" lon="-1.67339">
        <ele>40.6</ele>
        <time>2013-10-13T08:06:00Z</time>
      </trkpt>
      <trkpt lat="47.25382" lon="-1.67357">
        <ele>39.8</ele>
        <time>2013-10-13T08:06:02Z</time>
      </trkpt>
      <trkpt lat="47.25384" lon="-1.67376">
        <ele>38.3</ele>
        <time>2013-10-13T08:06:04Z</time>
      </trkpt>
      <trkpt lat="47.25385" lon="-1.67395">
        <ele>37.3</ele>
        <time>2013-10-13T08:06:06Z</time>
      </trkpt>
      <trkpt lat="47.25382" lon="-1.67408">
        <ele>37.2</ele>
        <time>2013-10-13T08:06:08Z</time>
      </trkpt>
      <trkpt lat="47.25376" lon="-1.67418">
        <ele>37.1</ele>
        <time>2013-10-13T08:06:10Z</time>
      </trkpt>
      <trkpt lat="47.25369" lon="-1.67429">
        <ele>35.3</ele>
        <time>2013-10-13T08:06:12Z</time>
      </trkpt>
      <trkpt lat="47.25361" lon="-1.6744">
        <ele>33.4</ele>
        <time>2013-10-13T08:06:14Z</time>
      </trkpt>
      <trkpt lat="47.25355" lon="-1.67452">
        <ele>32.9</ele>
        <time>2013-10-13T08:06:16Z</time>
      </trkpt>
      <trkpt lat="47.2535" lon="-1.67465">
        <ele>32.8</ele>
        <time>2013-10-13T08:06:18Z</time>
      </trkpt>
      <trkpt lat="47.25345" lon="-1.67477">
        <ele>32.9</ele>
        <time>2013-10-13T08:06:20Z</time>
      </trkpt>
      <trkpt lat="47.25343" lon="-1.67493">
        <ele>32.8</ele>
        <time>2013-10-13T08:06:23Z</time>
      </trkpt>
      <trkpt lat="47.25344" lon="-1.67508">
        <ele>32.7</ele>
        <time>2013-10-13T08:06:26Z</time>
      </trkpt>
      <trkpt lat="47.25341" lon="-1.67521">
        <ele>32.6</ele>
        <time>2013-10-13T08:06:30Z</time>
      </trkpt>
      <trkpt lat="47.25333" lon="-1.67532">
        <ele>32.4</ele>
        <time>2013-10-13T08:06:34Z</time>
      </trkpt>
      <trkpt lat="47.25322" lon="-1.67544">
        <ele>32</ele>
        <time>2013-10-13T08:06:37Z</time>
      </trkpt>
      <trkpt lat="47.25313" lon="-1.67555">
        <ele>31.7</ele>
        <time>2013-10-13T08:06:39Z</time>
      </trkpt>
      <trkpt lat="47.25306" lon="-1.67566">
        <ele>31.4</ele>
        <time>2013-10-13T08:06:41Z</time>
      </trkpt>
      <trkpt lat="47.25299" lon="-1.67577">
        <ele>31</ele>
        <time>2013-10-13T08:06:44Z</time>
      </trkpt>
      <trkpt lat="47.25299" lon="-1.67591">
        <ele>30.6</ele>
        <time>2013-10-13T08:06:47Z</time>
      </trkpt>
      <trkpt lat="47.25298" lon="-1.67605">
        <ele>30.9</ele>
        <time>2013-10-13T08:06:51Z</time>
      </trkpt>
      <trkpt lat="47.25301" lon="-1.67621">
        <ele>31.6</ele>
        <time>2013-10-13T08:06:55Z</time>
      </trkpt>
      <trkpt lat="47.25305" lon="-1.67633">
        <ele>32.5</ele>
        <time>2013-10-13T08:06:59Z</time>
      </trkpt>
      <trkpt lat="47.2531" lon="-1.67649">
        <ele>33.1</ele>
        <time>2013-10-13T08:07:03Z</time>
      </trkpt>
      <trkpt lat="47.25313" lon="-1.67665">
        <ele>33.7</ele>
        <time>2013-10-13T08:07:07Z</time>
      </trkpt>
      <trkpt lat="47.25317" lon="-1.67681">
        <ele>34.3</ele>
        <time>2013-10-13T08:07:11Z</time>
      </trkpt>
      <trkpt lat="47.25321" lon="-1.67694">
        <ele>35</ele>
        <time>2013-10-13T08:07:14Z</time>
      </trkpt>
      <trkpt lat="47.25324" lon="-1.67708">
        <ele>35.4</ele>
        <time>2013-10-13T08:07:16Z</time>
      </trkpt>
      <trkpt lat="47.25323" lon="-1.67726">
        <ele>36</ele>
        <time>2013-10-13T08:07:19Z</time>
      </trkpt>
      <trkpt lat="47.25318" lon="-1.67744">
        <ele>36.6</ele>
        <time>2013-10-13T08:07:22Z</time>
      </trkpt>
      <trkpt lat="47.25311" lon="-1.67757">
        <ele>37.2</ele>
        <time>2013-10-13T08:07:25Z</time>
      </trkpt>
      <trkpt lat="47.25301" lon="-1.67765">
        <ele>37.7</ele>
        <time>2013-10-13T08:07:28Z</time>
      </trkpt>
      <trkpt lat="47.25291" lon="-1.67773">
        <ele>38.3</ele>
        <time>2013-10-13T08:07:31Z</time>
      </trkpt>
      <trkpt lat="47.25282" lon="-1.67781">
        <ele>38.7</ele>
        <time>2013-10-13T08:07:34Z</time>
      </trkpt>
      <trkpt lat="47.25272" lon="-1.67789">
        <ele>39.2</ele>
        <time>2013-10-13T08:07:37Z</time>
      </trkpt>
      <trkpt lat="47.25263" lon="-1.67798">
        <ele>39.7</ele>
        <time>2013-10-13T08:07:40Z</time>
      </trkpt>
      <trkpt lat="47.25255" lon="-1.67805">
        <ele>40.1</ele>
        <time>2013-10-13T08:07:43Z</time>
      </trkpt>
      <trkpt lat="47.25247" lon="-1.67814">
        <ele>40.7</ele>
        <time>2013-10-13T08:07:46Z</time>
      </trkpt>
      <trkpt lat="47.25239" lon="-1.67821">
        <ele>41.3</ele>
        <time>2013-10-13T08:07:49Z</time>
      </trkpt>
      <trkpt lat="47.25231" lon="-1.67829">
        <ele>41.8</ele>
        <time>2013-10-13T08:07:52Z</time>
      </trkpt>
      <trkpt lat="47.25223" lon="-1.67839">
        <ele>42.2</ele>
        <time>2013-10-13T08:07:55Z</time>
      </trkpt>
      <trkpt lat="47.25217" lon="-1.67851">
        <ele>42.5</ele>
        <time>2013-10-13T08:07:58Z</time>
      </trkpt>
      <trkpt lat="47.25212" lon="-1.67864">
        <ele>42.7</ele>
        <time>2013-10-13T08:08:01Z</time>
      </trkpt>
      <trkpt lat="47.25209" lon="-1.67879">
        <ele>43.1</ele>
        <time>2013-10-13T08:08:04Z</time>
      </trkpt>
      <trkpt lat="47.25207" lon="-1.67898">
        <ele>44.6</ele>
        <time>2013-10-13T08:08:07Z</time>
      </trkpt>
      <trkpt lat="47.25204" lon="-1.67914">
        <ele>44.9</ele>
        <time>2013-10-13T08:08:10Z</time>
      </trkpt>
      <trkpt lat="47.25202" lon="-1.67933">
        <ele>45.2</ele>
        <time>2013-10-13T08:08:13Z</time>
      </trkpt>
      <trkpt lat="47.25193" lon="-1.67944">
        <ele>45.4</ele>
        <time>2013-10-13T08:08:16Z</time>
      </trkpt>
      <trkpt lat="47.25181" lon="-1.67943">
        <ele>45.5</ele>
        <time>2013-10-13T08:08:19Z</time>
      </trkpt>
      <trkpt lat="47.25172" lon="-1.67938">
        <ele>45.9</ele>
        <time>2013-10-13T08:08:22Z</time>
      </trkpt>
      <trkpt lat="47.25162" lon="-1.67931">
        <ele>46.2</ele>
        <time>2013-10-13T08:08:25Z</time>
      </trkpt>
      <trkpt lat="47.25151" lon="-1.67922">
        <ele>46.6</ele>
        <time>2013-10-13T08:08:28Z</time>
      </trkpt>
      <trkpt lat="47.25143" lon="-1.67915">
        <ele>46.9</ele>
        <time>2013-10-13T08:08:31Z</time>
      </trkpt>
      <trkpt lat="47.25134" lon="-1.67909">
        <ele>47.2</ele>
        <time>2013-10-13T08:08:35Z</time>
      </trkpt>
      <trkpt lat="47.25125" lon="-1.67901">
        <ele>47.4</ele>
        <time>2013-10-13T08:08:38Z</time>
      </trkpt>
      <trkpt lat="47.25117" lon="-1.67892">
        <ele>47.7</ele>
        <time>2013-10-13T08:08:41Z</time>
      </trkpt>
      <trkpt lat="47.25109" lon="-1.67884">
        <ele>48.1</ele>
        <time>2013-10-13T08:08:44Z</time>
      </trkpt>
      <trkpt lat="47.251" lon="-1.67875">
        <ele>48.6</ele>
        <time>2013-10-13T08:08:48Z</time>
      </trkpt>
      <trkpt lat="47.2509" lon="-1.67865">
        <ele>49.4</ele>
        <time>2013-10-13T08:08:52Z</time>
      </trkpt>
      <trkpt lat="47.25082" lon="-1.67857">
        <ele>50</ele>
        <time>2013-10-13T08:08:55Z</time>
      </trkpt>
      <trkpt lat="47.25073" lon="-1.67849">
        <ele>50.6</ele>
        <time>2013-10-13T08:08:59Z</time>
      </trkpt>
      <trkpt lat="47.25063" lon="-1.6784">
        <ele>51.2</ele>
        <time>2013-10-13T08:09:03Z</time>
      </trkpt>
      <trkpt lat="47.25053" lon="-1.67832">
        <ele>51.9</ele>
        <time>2013-10-13T08:09:07Z</time>
      </trkpt>
      <trkpt lat="47.25045" lon="-1.67827">
        <ele>52.4</ele>
        <time>2013-10-13T08:09:10Z</time>
      </trkpt>
      <trkpt lat="47.25035" lon="-1.67821">
        <ele>52.9</ele>
        <time>2013-10-13T08:09:13Z</time>
      </trkpt>
      <trkpt lat="47.25024" lon="-1.67813">
        <ele>53.5</ele>
        <time>2013-10-13T08:09:16Z</time>
      </trkpt>
      <trkpt lat="47.25014" lon="-1.67804">
        <ele>53.9</ele>
        <time>2013-10-13T08:09:19Z</time>
      </trkpt>
      <trkpt lat="47.25004" lon="-1.67794">
        <ele>56</ele>
        <time>2013-10-13T08:09:22Z</time>
      </trkpt>
      <trkpt lat="47.24994" lon="-1.67786">
        <ele>59</ele>
        <time>2013-10-13T08:09:25Z</time>
      </trkpt>
      <trkpt lat="47.24982" lon="-1.67777">
        <ele>61.3</ele>
        <time>2013-10-13T08:09:28Z</time>
      </trkpt>
      <trkpt lat="47.24971" lon="-1.67768">
        <ele>61.8</ele>
        <time>2013-10-13T08:09:31Z</time>
      </trkpt>
      <trkpt lat="47.2496" lon="-1.6776">
        <ele>62.3</ele>
        <time>2013-10-13T08:09:34Z</time>
      </trkpt>
      <trkpt lat="47.24951" lon="-1.67752">
        <ele>62.6</ele>
        <time>2013-10-13T08:09:37Z</time>
      </trkpt>
      <trkpt lat="47.24941" lon="-1.67743">
        <ele>63.2</ele>
        <time>2013-10-13T08:09:40Z</time>
      </trkpt>
      <trkpt lat="47.24929" lon="-1.67734">
        <ele>63.5</ele>
        <time>2013-10-13T08:09:43Z</time>
      </trkpt>
      <trkpt lat="47.24919" lon="-1.67726">
        <ele>64</ele>
        <time>2013-10-13T08:09:46Z</time>
      </trkpt>
      <trkpt lat="47.24908" lon="-1.67719">
        <ele>64</ele>
        <time>2013-10-13T08:09:49Z</time>
      </trkpt>
      <trkpt lat="47.24899" lon="-1.67711">
        <ele>64.1</ele>
        <time>2013-10-13T08:09:52Z</time>
      </trkpt>
      <trkpt lat="47.24888" lon="-1.67701">
        <ele>64</ele>
        <time>2013-10-13T08:09:55Z</time>
      </trkpt>
      <trkpt lat="47.24878" lon="-1.67693">
        <ele>64</ele>
        <time>2013-10-13T08:09:58Z</time>
      </trkpt>
      <trkpt lat="47.24871" lon="-1.67685">
        <ele>63.9</ele>
        <time>2013-10-13T08:10:00Z</time>
      </trkpt>
      <trkpt lat="47.24862" lon="-1.67676">
        <ele>63.7</ele>
        <time>2013-10-13T08:10:02Z</time>
      </trkpt>
      <trkpt lat="47.24853" lon="-1.67668">
        <ele>64.1</ele>
        <time>2013-10-13T08:10:04Z</time>
      </trkpt>
      <trkpt lat="47.24844" lon="-1.67659">
        <ele>64.2</ele>
        <time>2013-10-13T08:10:06Z</time>
      </trkpt>
      <trkpt lat="47.24834" lon="-1.67649">
        <ele>62.9</ele>
        <time>2013-10-13T08:10:09Z</time>
      </trkpt>
      <trkpt lat="47.24823" lon="-1.67637">
        <ele>62.6</ele>
        <time>2013-10-13T08:10:12Z</time>
      </trkpt>
      <trkpt lat="47.2481" lon="-1.67638">
        <ele>62.9</ele>
        <time>2013-10-13T08:10:15Z</time>
      </trkpt>
      <trkpt lat="47.24812" lon="-1.67657">
        <ele>62.7</ele>
        <time>2013-10-13T08:10:19Z</time>
      </trkpt>
      <trkpt lat="47.24818" lon="-1.67671">
        <ele>62.7</ele>
        <time>2013-10-13T08:10:22Z</time>
      </trkpt>
      <trkpt lat="47.24823" lon="-1.67686">
        <ele>62.7</ele>
        <time>2013-10-13T08:10:25Z</time>
      </trkpt>
      <trkpt lat="47.24826" lon="-1.677">
        <ele>62.7</ele>
        <time>2013-10-13T08:10:28Z</time>
      </trkpt>
      <trkpt lat="47.2483" lon="-1.67714">
        <ele>62.7</ele>
        <time>2013-10-13T08:10:31Z</time>
      </trkpt>
      <trkpt lat="47.24833" lon="-1.67728">
        <ele>62.7</ele>
        <time>2013-10-13T08:10:35Z</time>
      </trkpt>
      <trkpt lat="47.24835" lon="-1.67743">
        <ele>62.6</ele>
        <time>2013-10-13T08:10:39Z</time>
      </trkpt>
      <trkpt lat="47.24836" lon="-1.67758">
        <ele>62.5</ele>
        <time>2013-10-13T08:10:43Z</time>
      </trkpt>
      <trkpt lat="47.24836" lon="-1.67773">
        <ele>62.3</ele>
        <time>2013-10-13T08:10:47Z</time>
      </trkpt>
      <trkpt lat="47.24836" lon="-1.67788">
        <ele>62.1</ele>
        <time>2013-10-13T08:10:50Z</time>
      </trkpt>
      <trkpt lat="47.24835" lon="-1.67802">
        <ele>62</ele>
        <time>2013-10-13T08:10:53Z</time>
      </trkpt>
      <trkpt lat="47.24836" lon="-1.67816">
        <ele>61.7</ele>
        <time>2013-10-13T08:10:56Z</time>
      </trkpt>
      <trkpt lat="47.24837" lon="-1.67834">
        <ele>61.3</ele>
        <time>2013-10-13T08:11:00Z</time>
      </trkpt>
      <trkpt lat="47.24832" lon="-1.67846">
        <ele>61.3</ele>
        <time>2013-10-13T08:11:04Z</time>
      </trkpt>
      <trkpt lat="47.2482" lon="-1.67848">
        <ele>61.2</ele>
        <time>2013-10-13T08:11:07Z</time>
      </trkpt>
      <trkpt lat="47.24811" lon="-1.67849">
        <ele>60.5</ele>
        <time>2013-10-13T08:11:09Z</time>
      </trkpt>
      <trkpt lat="47.24802" lon="-1.67851">
        <ele>59.7</ele>
        <time>2013-10-13T08:11:11Z</time>
      </trkpt>
      <trkpt lat="47.2479" lon="-1.67855">
        <ele>58.9</ele>
        <time>2013-10-13T08:11:14Z</time>
      </trkpt>
      <trkpt lat="47.24781" lon="-1.67861">
        <ele>59</ele>
        <time>2013-10-13T08:11:16Z</time>
      </trkpt>
      <trkpt lat="47.24771" lon="-1.67867">
        <ele>59.4</ele>
        <time>2013-10-13T08:11:18Z</time>
      </trkpt>
      <trkpt lat="47.24762" lon="-1.67875">
        <ele>59.4</ele>
        <time>2013-10-13T08:11:20Z</time>
      </trkpt>
      <trkpt lat="47.24754" lon="-1.67883">
        <ele>59</ele>
        <time>2013-10-13T08:11:22Z</time>
      </trkpt>
      <trkpt lat="47.24744" lon="-1.67892">
        <ele>58.8</ele>
        <time>2013-10-13T08:11:25Z</time>
      </trkpt>
      <trkpt lat="47.24734" lon="-1.679">
        <ele>58.7</ele>
        <time>2013-10-13T08:11:28Z</time>
      </trkpt>
      <trkpt lat="47.24725" lon="-1.67912">
        <ele>58.5</ele>
        <time>2013-10-13T08:11:31Z</time>
      </trkpt>
      <trkpt lat="47.24715" lon="-1.67925">
        <ele>58.2</ele>
        <time>2013-10-13T08:11:34Z</time>
      </trkpt>
      <trkpt lat="47.24706" lon="-1.67935">
        <ele>58</ele>
        <time>2013-10-13T08:11:36Z</time>
      </trkpt>
      <trkpt lat="47.24696" lon="-1.67943">
        <ele>56.8</ele>
        <time>2013-10-13T08:11:38Z</time>
      </trkpt>
      <trkpt lat="47.24687" lon="-1.6795">
        <ele>56.8</ele>
        <time>2013-10-13T08:11:40Z</time>
      </trkpt>
      <trkpt lat="47.24679" lon="-1.67959">
        <ele>56.6</ele>
        <time>2013-10-13T08:11:42Z</time>
      </trkpt>
      <trkpt lat="47.2467" lon="-1.67967">
        <ele>55.7</ele>
        <time>2013-10-13T08:11:44Z</time>
      </trkpt>
      <trkpt lat="47.24659" lon="-1.67972">
        <ele>54.7</ele>
        <time>2013-10-13T08:11:46Z</time>
      </trkpt>
      <trkpt lat="47.2465" lon="-1.67977">
        <ele>54.3</ele>
        <time>2013-10-13T08:11:48Z</time>
      </trkpt>
      <trkpt lat="47.24643" lon="-1.67985">
        <ele>54.3</ele>
        <time>2013-10-13T08:11:50Z</time>
      </trkpt>
      <trkpt lat="47.24633" lon="-1.67994">
        <ele>54.5</ele>
        <time>2013-10-13T08:11:53Z</time>
      </trkpt>
      <trkpt lat="47.24624" lon="-1.68">
        <ele>54.4</ele>
        <time>2013-10-13T08:11:56Z</time>
      </trkpt>
      <trkpt lat="47.24614" lon="-1.68007">
        <ele>54.2</ele>
        <time>2013-10-13T08:11:59Z</time>
      </trkpt>
      <trkpt lat="47.24605" lon="-1.68013">
        <ele>54</ele>
        <time>2013-10-13T08:12:02Z</time>
      </trkpt>
      <trkpt lat="47.24593" lon="-1.68018">
        <ele>53.6</ele>
        <time>2013-10-13T08:12:05Z</time>
      </trkpt>
      <trkpt lat="47.24584" lon="-1.68026">
        <ele>53.4</ele>
        <time>2013-10-13T08:12:08Z</time>
      </trkpt>
      <trkpt lat="47.24576" lon="-1.68033">
        <ele>53.3</ele>
        <time>2013-10-13T08:12:11Z</time>
      </trkpt>
      <trkpt lat="47.24565" lon="-1.6803">
        <ele>53.2</ele>
        <time>2013-10-13T08:12:14Z</time>
      </trkpt>
      <trkpt lat="47.24554" lon="-1.68022">
        <ele>53.1</ele>
        <time>2013-10-13T08:12:17Z</time>
      </trkpt>
      <trkpt lat="47.24545" lon="-1.68015">
        <ele>53</ele>
        <time>2013-10-13T08:12:19Z</time>
      </trkpt>
      <trkpt lat="47.24537" lon="-1.68006">
        <ele>52.7</ele>
        <time>2013-10-13T08:12:21Z</time>
      </trkpt>
      <trkpt lat="47.24525" lon="-1.67996">
        <ele>52.5</ele>
        <time>2013-10-13T08:12:24Z</time>
      </trkpt>
      <trkpt lat="47.24513" lon="-1.67989">
        <ele>52.4</ele>
        <time>2013-10-13T08:12:27Z</time>
      </trkpt>
      <trkpt lat="47.24505" lon="-1.67982">
        <ele>52.9</ele>
        <time>2013-10-13T08:12:29Z</time>
      </trkpt>
      <trkpt lat="47.24493" lon="-1.67975">
        <ele>52.8</ele>
        <time>2013-10-13T08:12:32Z</time>
      </trkpt>
      <trkpt lat="47.24481" lon="-1.67968">
        <ele>51.9</ele>
        <time>2013-10-13T08:12:35Z</time>
      </trkpt>
      <trkpt lat="47.24469" lon="-1.67962">
        <ele>51.5</ele>
        <time>2013-10-13T08:12:38Z</time>
      </trkpt>
      <trkpt lat="47.2446" lon="-1.67957">
        <ele>51.5</ele>
        <time>2013-10-13T08:12:40Z</time>
      </trkpt>
      <trkpt lat="47.24451" lon="-1.67952">
        <ele>53.3</ele>
        <time>2013-10-13T08:12:42Z</time>
      </trkpt>
      <trkpt lat="47.24442" lon="-1.67945">
        <ele>53.6</ele>
        <time>2013-10-13T08:12:44Z</time>
      </trkpt>
      <trkpt lat="47.24431" lon="-1.67936">
        <ele>53.9</ele>
        <time>2013-10-13T08:12:47Z</time>
      </trkpt>
      <trkpt lat="47.24422" lon="-1.67927">
        <ele>54.2</ele>
        <time>2013-10-13T08:12:50Z</time>
      </trkpt>
      <trkpt lat="47.24412" lon="-1.67916">
        <ele>54.6</ele>
        <time>2013-10-13T08:12:53Z</time>
      </trkpt>
      <trkpt lat="47.24405" lon="-1.67908">
        <ele>54.9</ele>
        <time>2013-10-13T08:12:55Z</time>
      </trkpt>
      <trkpt lat="47.24397" lon="-1.67896">
        <ele>55.3</ele>
        <time>2013-10-13T08:12:58Z</time>
      </trkpt>
      <trkpt lat="47.24388" lon="-1.67887">
        <ele>56.1</ele>
        <time>2013-10-13T08:13:03Z</time>
      </trkpt>
      <trkpt lat="47.24386" lon="-1.67872">
        <ele>57.3</ele>
        <time>2013-10-13T08:13:16Z</time>
      </trkpt>
      <trkpt lat="47.24381" lon="-1.67861">
        <ele>57.9</ele>
        <time>2013-10-13T08:13:21Z</time>
      </trkpt>
      <trkpt lat="47.24372" lon="-1.67855">
        <ele>58.1</ele>
        <time>2013-10-13T08:13:24Z</time>
      </trkpt>
      <trkpt lat="47.24361" lon="-1.67852">
        <ele>58.3</ele>
        <time>2013-10-13T08:13:27Z</time>
      </trkpt>
      <trkpt lat="47.24349" lon="-1.67849">
        <ele>58.5</ele>
        <time>2013-10-13T08:13:30Z</time>
      </trkpt>
      <trkpt lat="47.24338" lon="-1.67844">
        <ele>59.6</ele>
        <time>2013-10-13T08:13:33Z</time>
      </trkpt>
      <trkpt lat="47.24327" lon="-1.67841">
        <ele>61.6</ele>
        <time>2013-10-13T08:13:36Z</time>
      </trkpt>
      <trkpt lat="47.24315" lon="-1.67841">
        <ele>62.5</ele>
        <time>2013-10-13T08:13:39Z</time>
      </trkpt>
      <trkpt lat="47.24303" lon="-1.67845">
        <ele>62.5</ele>
        <time>2013-10-13T08:13:42Z</time>
      </trkpt>
      <trkpt lat="47.24293" lon="-1.67849">
        <ele>62.6</ele>
        <time>2013-10-13T08:13:45Z</time>
      </trkpt>
      <trkpt lat="47.24284" lon="-1.67853">
        <ele>62.7</ele>
        <time>2013-10-13T08:13:48Z</time>
      </trkpt>
      <trkpt lat="47.24275" lon="-1.67859">
        <ele>62.7</ele>
        <time>2013-10-13T08:13:51Z</time>
      </trkpt>
      <trkpt lat="47.24265" lon="-1.67864">
        <ele>62.9</ele>
        <time>2013-10-13T08:13:54Z</time>
      </trkpt>
      <trkpt lat="47.24255" lon="-1.67868">
        <ele>63.2</ele>
        <time>2013-10-13T08:13:57Z</time>
      </trkpt>
      <trkpt lat="47.24245" lon="-1.67872">
        <ele>63.3</ele>
        <time>2013-10-13T08:14:00Z</time>
      </trkpt>
      <trkpt lat="47.24233" lon="-1.67877">
        <ele>63.5</ele>
        <time>2013-10-13T08:14:03Z</time>
      </trkpt>
      <trkpt lat="47.24224" lon="-1.6788">
        <ele>63.5</ele>
        <time>2013-10-13T08:14:05Z</time>
      </trkpt>
      <trkpt lat="47.24215" lon="-1.67884">
        <ele>63.9</ele>
        <time>2013-10-13T08:14:07Z</time>
      </trkpt>
      <trkpt lat="47.24203" lon="-1.67891">
        <ele>64</ele>
        <time>2013-10-13T08:14:10Z</time>
      </trkpt>
      <trkpt lat="47.24195" lon="-1.67896">
        <ele>63.9</ele>
        <time>2013-10-13T08:14:12Z</time>
      </trkpt>
      <trkpt lat="47.24182" lon="-1.67903">
        <ele>63.2</ele>
        <time>2013-10-13T08:14:15Z</time>
      </trkpt>
      <trkpt lat="47.2417" lon="-1.6791">
        <ele>63.6</ele>
        <time>2013-10-13T08:14:18Z</time>
      </trkpt>
      <trkpt lat="47.2416" lon="-1.67916">
        <ele>62.2</ele>
        <time>2013-10-13T08:14:20Z</time>
      </trkpt>
      <trkpt lat="47.24151" lon="-1.67921">
        <ele>61</ele>
        <time>2013-10-13T08:14:22Z</time>
      </trkpt>
      <trkpt lat="47.24138" lon="-1.67926">
        <ele>60.8</ele>
        <time>2013-10-13T08:14:25Z</time>
      </trkpt>
      <trkpt lat="47.24129" lon="-1.67929">
        <ele>60.9</ele>
        <time>2013-10-13T08:14:27Z</time>
      </trkpt>
      <trkpt lat="47.24117" lon="-1.6793">
        <ele>61</ele>
        <time>2013-10-13T08:14:29Z</time>
      </trkpt>
      <trkpt lat="47.24105" lon="-1.6793">
        <ele>60.3</ele>
        <time>2013-10-13T08:14:31Z</time>
      </trkpt>
      <trkpt lat="47.24093" lon="-1.67931">
        <ele>60.2</ele>
        <time>2013-10-13T08:14:33Z</time>
      </trkpt>
      <trkpt lat="47.24082" lon="-1.6793">
        <ele>60.2</ele>
        <time>2013-10-13T08:14:35Z</time>
      </trkpt>
      <trkpt lat="47.2407" lon="-1.67929">
        <ele>59.4</ele>
        <time>2013-10-13T08:14:37Z</time>
      </trkpt>
      <trkpt lat="47.2406" lon="-1.67926">
        <ele>59.5</ele>
        <time>2013-10-13T08:14:39Z</time>
      </trkpt>
      <trkpt lat="47.24049" lon="-1.67922">
        <ele>59.7</ele>
        <time>2013-10-13T08:14:41Z</time>
      </trkpt>
      <trkpt lat="47.24037" lon="-1.67916">
        <ele>60.5</ele>
        <time>2013-10-13T08:14:43Z</time>
      </trkpt>
      <trkpt lat="47.24025" lon="-1.67911">
        <ele>61.1</ele>
        <time>2013-10-13T08:14:45Z</time>
      </trkpt>
      <trkpt lat="47.24014" lon="-1.67905">
        <ele>61.6</ele>
        <time>2013-10-13T08:14:47Z</time>
      </trkpt>
      <trkpt lat="47.24003" lon="-1.679">
        <ele>61.7</ele>
        <time>2013-10-13T08:14:49Z</time>
      </trkpt>
      <trkpt lat="47.23993" lon="-1.67896">
        <ele>60.9</ele>
        <time>2013-10-13T08:14:51Z</time>
      </trkpt>
      <trkpt lat="47.23982" lon="-1.67891">
        <ele>60.7</ele>
        <time>2013-10-13T08:14:53Z</time>
      </trkpt>
      <trkpt lat="47.23973" lon="-1.67886">
        <ele>61.4</ele>
        <time>2013-10-13T08:14:55Z</time>
      </trkpt>
      <trkpt lat="47.23962" lon="-1.6788">
        <ele>61.8</ele>
        <time>2013-10-13T08:14:57Z</time>
      </trkpt>
      <trkpt lat="47.23952" lon="-1.67875">
        <ele>62.5</ele>
        <time>2013-10-13T08:14:59Z</time>
      </trkpt>
      <trkpt lat="47.23941" lon="-1.67872">
        <ele>62.7</ele>
        <time>2013-10-13T08:15:01Z</time>
      </trkpt>
      <trkpt lat="47.23932" lon="-1.67869">
        <ele>62.9</ele>
        <time>2013-10-13T08:15:03Z</time>
      </trkpt>
      <trkpt lat="47.23922" lon="-1.67869">
        <ele>62.5</ele>
        <time>2013-10-13T08:15:05Z</time>
      </trkpt>
      <trkpt lat="47.23913" lon="-1.6787">
        <ele>62.2</ele>
        <time>2013-10-13T08:15:07Z</time>
      </trkpt>
      <trkpt lat="47.23902" lon="-1.67871">
        <ele>61.1</ele>
        <time>2013-10-13T08:15:09Z</time>
      </trkpt>
      <trkpt lat="47.23891" lon="-1.67871">
        <ele>60.1</ele>
        <time>2013-10-13T08:15:11Z</time>
      </trkpt>
      <trkpt lat="47.23879" lon="-1.67873">
        <ele>58.9</ele>
        <time>2013-10-13T08:15:13Z</time>
      </trkpt>
      <trkpt lat="47.23868" lon="-1.67874">
        <ele>58.3</ele>
        <time>2013-10-13T08:15:15Z</time>
      </trkpt>
      <trkpt lat="47.23855" lon="-1.67876">
        <ele>57.7</ele>
        <time>2013-10-13T08:15:17Z</time>
      </trkpt>
      <trkpt lat="47.23843" lon="-1.67878">
        <ele>57.8</ele>
        <time>2013-10-13T08:15:19Z</time>
      </trkpt>
      <trkpt lat="47.23832" lon="-1.67879">
        <ele>58.6</ele>
        <time>2013-10-13T08:15:21Z</time>
      </trkpt>
      <trkpt lat="47.23822" lon="-1.6788">
        <ele>58.9</ele>
        <time>2013-10-13T08:15:23Z</time>
      </trkpt>
      <trkpt lat="47.23812" lon="-1.67882">
        <ele>58.7</ele>
        <time>2013-10-13T08:15:25Z</time>
      </trkpt>
      <trkpt lat="47.23803" lon="-1.67884">
        <ele>58.4</ele>
        <time>2013-10-13T08:15:27Z</time>
      </trkpt>
      <trkpt lat="47.23793" lon="-1.67886">
        <ele>58.7</ele>
        <time>2013-10-13T08:15:29Z</time>
      </trkpt>
      <trkpt lat="47.23783" lon="-1.67888">
        <ele>59.4</ele>
        <time>2013-10-13T08:15:31Z</time>
      </trkpt>
      <trkpt lat="47.23773" lon="-1.6789">
        <ele>59</ele>
        <time>2013-10-13T08:15:33Z</time>
      </trkpt>
      <trkpt lat="47.2376" lon="-1.67894">
        <ele>58.5</ele>
        <time>2013-10-13T08:15:36Z</time>
      </trkpt>
      <trkpt lat="47.23748" lon="-1.67898">
        <ele>58.4</ele>
        <time>2013-10-13T08:15:39Z</time>
      </trkpt>
      <trkpt lat="47.23739" lon="-1.67905">
        <ele>58.5</ele>
        <time>2013-10-13T08:15:42Z</time>
      </trkpt>
      <trkpt lat="47.23734" lon="-1.67916">
        <ele>57.5</ele>
        <time>2013-10-13T08:16:03Z</time>
      </trkpt>
      <trkpt lat="47.23731" lon="-1.67931">
        <ele>57.2</ele>
        <time>2013-10-13T08:16:08Z</time>
      </trkpt>
      <trkpt lat="47.23723" lon="-1.67938">
        <ele>57</ele>
        <time>2013-10-13T08:16:12Z</time>
      </trkpt>
      <trkpt lat="47.23714" lon="-1.67944">
        <ele>56.9</ele>
        <time>2013-10-13T08:16:15Z</time>
      </trkpt>
      <trkpt lat="47.23704" lon="-1.67951">
        <ele>57</ele>
        <time>2013-10-13T08:16:19Z</time>
      </trkpt>
      <trkpt lat="47.23695" lon="-1.67956">
        <ele>57.2</ele>
        <time>2013-10-13T08:16:22Z</time>
      </trkpt>
      <trkpt lat="47.23684" lon="-1.67962">
        <ele>57.2</ele>
        <time>2013-10-13T08:16:25Z</time>
      </trkpt>
      <trkpt lat="47.23675" lon="-1.67967">
        <ele>57.3</ele>
        <time>2013-10-13T08:16:28Z</time>
      </trkpt>
      <trkpt lat="47.23666" lon="-1.67972">
        <ele>57.3</ele>
        <time>2013-10-13T08:16:31Z</time>
      </trkpt>
      <trkpt lat="47.23657" lon="-1.67969">
        <ele>57.3</ele>
        <time>2013-10-13T08:16:34Z</time>
      </trkpt>
      <trkpt lat="47.2365" lon="-1.67958">
        <ele>57.3</ele>
        <time>2013-10-13T08:16:37Z</time>
      </trkpt>
      <trkpt lat="47.23644" lon="-1.67942">
        <ele>55.8</ele>
        <time>2013-10-13T08:16:40Z</time>
      </trkpt>
      <trkpt lat="47.23638" lon="-1.67925">
        <ele>52.4</ele>
        <time>2013-10-13T08:16:43Z</time>
      </trkpt>
      <trkpt lat="47.23632" lon="-1.6791">
        <ele>49.6</ele>
        <time>2013-10-13T08:16:46Z</time>
      </trkpt>
      <trkpt lat="47.23626" lon="-1.67896">
        <ele>49.4</ele>
        <time>2013-10-13T08:16:49Z</time>
      </trkpt>
      <trkpt lat="47.23619" lon="-1.6788">
        <ele>48.4</ele>
        <time>2013-10-13T08:16:52Z</time>
      </trkpt>
      <trkpt lat="47.23613" lon="-1.67866">
        <ele>47.6</ele>
        <time>2013-10-13T08:16:55Z</time>
      </trkpt>
      <trkpt lat="47.23606" lon="-1.6785">
        <ele>47.7</ele>
        <time>2013-10-13T08:16:58Z</time>
      </trkpt>
      <trkpt lat="47.23602" lon="-1.67839">
        <ele>47.8</ele>
        <time>2013-10-13T08:17:00Z</time>
      </trkpt>
      <trkpt lat="47.23597" lon="-1.67827">
        <ele>47.5</ele>
        <time>2013-10-13T08:17:02Z</time>
      </trkpt>
      <trkpt lat="47.23592" lon="-1.67816">
        <ele>46.9</ele>
        <time>2013-10-13T08:17:04Z</time>
      </trkpt>
      <trkpt lat="47.23586" lon="-1.67801">
        <ele>46.6</ele>
        <time>2013-10-13T08:17:07Z</time>
      </trkpt>
      <trkpt lat="47.23579" lon="-1.67785">
        <ele>46.8</ele>
        <time>2013-10-13T08:17:10Z</time>
      </trkpt>
      <trkpt lat="47.23571" lon="-1.67769">
        <ele>47</ele>
        <time>2013-10-13T08:17:13Z</time>
      </trkpt>
      <trkpt lat="47.23566" lon="-1.67758">
        <ele>46.5</ele>
        <time>2013-10-13T08:17:15Z</time>
      </trkpt>
      <trkpt lat="47.23562" lon="-1.67745">
        <ele>46.1</ele>
        <time>2013-10-13T08:17:17Z</time>
      </trkpt>
      <trkpt lat="47.23556" lon="-1.67727">
        <ele>46.1</ele>
        <time>2013-10-13T08:17:20Z</time>
      </trkpt>
      <trkpt lat="47.23547" lon="-1.67729">
        <ele>47.1</ele>
        <time>2013-10-13T08:17:27Z</time>
      </trkpt>
      <trkpt lat="47.23545" lon="-1.67746">
        <ele>47.7</ele>
        <time>2013-10-13T08:17:31Z</time>
      </trkpt>
      <trkpt lat="47.23544" lon="-1.67763">
        <ele>48.3</ele>
        <time>2013-10-13T08:17:34Z</time>
      </trkpt>
      <trkpt lat="47.23541" lon="-1.6778">
        <ele>48.8</ele>
        <time>2013-10-13T08:17:37Z</time>
      </trkpt>
      <trkpt lat="47.23536" lon="-1.67791">
        <ele>49.3</ele>
        <time>2013-10-13T08:17:40Z</time>
      </trkpt>
      <trkpt lat="47.23531" lon="-1.67804">
        <ele>49.6</ele>
        <time>2013-10-13T08:17:44Z</time>
      </trkpt>
      <trkpt lat="47.23525" lon="-1.67815">
        <ele>49.6</ele>
        <time>2013-10-13T08:17:48Z</time>
      </trkpt>
      <trkpt lat="47.23518" lon="-1.67827">
        <ele>49.7</ele>
        <time>2013-10-13T08:17:52Z</time>
      </trkpt>
      <trkpt lat="47.23509" lon="-1.6784">
        <ele>49.6</ele>
        <time>2013-10-13T08:17:56Z</time>
      </trkpt>
      <trkpt lat="47.23503" lon="-1.6785">
        <ele>49.8</ele>
        <time>2013-10-13T08:18:02Z</time>
      </trkpt>
      <trkpt lat="47.23499" lon="-1.67863">
        <ele>49.8</ele>
        <time>2013-10-13T08:18:13Z</time>
      </trkpt>
      <trkpt lat="47.23493" lon="-1.67873">
        <ele>49.5</ele>
        <time>2013-10-13T08:18:21Z</time>
      </trkpt>
      <trkpt lat="47.23486" lon="-1.67885">
        <ele>48.7</ele>
        <time>2013-10-13T08:18:31Z</time>
      </trkpt>
      <trkpt lat="47.23483" lon="-1.67899">
        <ele>47.1</ele>
        <time>2013-10-13T08:18:43Z</time>
      </trkpt>
      <trkpt lat="47.23475" lon="-1.67908">
        <ele>46.7</ele>
        <time>2013-10-13T08:18:49Z</time>
      </trkpt>
      <trkpt lat="47.2347" lon="-1.67921">
        <ele>46.1</ele>
        <time>2013-10-13T08:18:56Z</time>
      </trkpt>
      <trkpt lat="47.23464" lon="-1.67931">
        <ele>45</ele>
        <time>2013-10-13T08:19:00Z</time>
      </trkpt>
      <trkpt lat="47.23457" lon="-1.67943">
        <ele>43.8</ele>
        <time>2013-10-13T08:19:04Z</time>
      </trkpt>
      <trkpt lat="47.23452" lon="-1.67957">
        <ele>41.9</ele>
        <time>2013-10-13T08:19:10Z</time>
      </trkpt>
      <trkpt lat="47.23447" lon="-1.67969">
        <ele>41.2</ele>
        <time>2013-10-13T08:19:13Z</time>
      </trkpt>
      <trkpt lat="47.2344" lon="-1.67981">
        <ele>40.1</ele>
        <time>2013-10-13T08:19:17Z</time>
      </trkpt>
      <trkpt lat="47.23433" lon="-1.67993">
        <ele>38.9</ele>
        <time>2013-10-13T08:19:21Z</time>
      </trkpt>
      <trkpt lat="47.23422" lon="-1.68003">
        <ele>37.7</ele>
        <time>2013-10-13T08:19:25Z</time>
      </trkpt>
      <trkpt lat="47.23412" lon="-1.68009">
        <ele>36.7</ele>
        <time>2013-10-13T08:19:29Z</time>
      </trkpt>
      <trkpt lat="47.23404" lon="-1.68021">
        <ele>36</ele>
        <time>2013-10-13T08:19:33Z</time>
      </trkpt>
      <trkpt lat="47.23398" lon="-1.68034">
        <ele>35.2</ele>
        <time>2013-10-13T08:19:38Z</time>
      </trkpt>
      <trkpt lat="47.2339" lon="-1.68046">
        <ele>34.8</ele>
        <time>2013-10-13T08:19:43Z</time>
      </trkpt>
      <trkpt lat="47.23381" lon="-1.68053">
        <ele>34.4</ele>
        <time>2013-10-13T08:19:46Z</time>
      </trkpt>
      <trkpt lat="47.23374" lon="-1.68066">
        <ele>33.8</ele>
        <time>2013-10-13T08:19:50Z</time>
      </trkpt>
      <trkpt lat="47.23364" lon="-1.68071">
        <ele>33.3</ele>
        <time>2013-10-13T08:19:53Z</time>
      </trkpt>
      <trkpt lat="47.23355" lon="-1.68081">
        <ele>32.8</ele>
        <time>2013-10-13T08:19:56Z</time>
      </trkpt>
      <trkpt lat="47.23348" lon="-1.68093">
        <ele>32.5</ele>
        <time>2013-10-13T08:20:00Z</time>
      </trkpt>
      <trkpt lat="47.23342" lon="-1.68107">
        <ele>32.5</ele>
        <time>2013-10-13T08:20:04Z</time>
      </trkpt>
      <trkpt lat="47.23337" lon="-1.68121">
        <ele>32.5</ele>
        <time>2013-10-13T08:20:07Z</time>
      </trkpt>
      <trkpt lat="47.2333" lon="-1.68132">
        <ele>32.6</ele>
        <time>2013-10-13T08:20:11Z</time>
      </trkpt>
      <trkpt lat="47.23321" lon="-1.68143">
        <ele>33.1</ele>
        <time>2013-10-13T08:20:15Z</time>
      </trkpt>
      <trkpt lat="47.23313" lon="-1.68155">
        <ele>33.4</ele>
        <time>2013-10-13T08:20:19Z</time>
      </trkpt>
      <trkpt lat="47.23305" lon="-1.68166">
        <ele>33.9</ele>
        <time>2013-10-13T08:20:22Z</time>
      </trkpt>
      <trkpt lat="47.23299" lon="-1.68175">
        <ele>34.6</ele>
        <time>2013-10-13T08:20:26Z</time>
      </trkpt>
      <trkpt lat="47.23291" lon="-1.68187">
        <ele>36</ele>
        <time>2013-10-13T08:20:40Z</time>
      </trkpt>
      <trkpt lat="47.23295" lon="-1.682">
        <ele>36.4</ele>
        <time>2013-10-13T08:20:44Z</time>
      </trkpt>
      <trkpt lat="47.23299" lon="-1.68213">
        <ele>36.5</ele>
        <time>2013-10-13T08:20:47Z</time>
      </trkpt>
      <trkpt lat="47.23301" lon="-1.68228">
        <ele>37.1</ele>
        <time>2013-10-13T08:20:51Z</time>
      </trkpt>
      <trkpt lat="47.23305" lon="-1.68241">
        <ele>37.6</ele>
        <time>2013-10-13T08:20:55Z</time>
      </trkpt>
      <trkpt lat="47.23308" lon="-1.68258">
        <ele>37.8</ele>
        <time>2013-10-13T08:20:59Z</time>
      </trkpt>
      <trkpt lat="47.2331" lon="-1.68273">
        <ele>38</ele>
        <time>2013-10-13T08:21:02Z</time>
      </trkpt>
      <trkpt lat="47.23315" lon="-1.68289">
        <ele>38.2</ele>
        <time>2013-10-13T08:21:05Z</time>
      </trkpt>
      <trkpt lat="47.23321" lon="-1.68305">
        <ele>38.2</ele>
        <time>2013-10-13T08:21:08Z</time>
      </trkpt>
      <trkpt lat="47.23326" lon="-1.68316">
        <ele>37.9</ele>
        <time>2013-10-13T08:21:13Z</time>
      </trkpt>
      <trkpt lat="47.23329" lon="-1.6833">
        <ele>38</ele>
        <time>2013-10-13T08:21:17Z</time>
      </trkpt>
      <trkpt lat="47.23332" lon="-1.68346">
        <ele>37.8</ele>
        <time>2013-10-13T08:21:21Z</time>
      </trkpt>
      <trkpt lat="47.23334" lon="-1.68363">
        <ele>37.7</ele>
        <time>2013-10-13T08:21:25Z</time>
      </trkpt>
      <trkpt lat="47.23338" lon="-1.68376">
        <ele>37.5</ele>
        <time>2013-10-13T08:21:30Z</time>
      </trkpt>
      <trkpt lat="47.23344" lon="-1.68389">
        <ele>37.4</ele>
        <time>2013-10-13T08:21:34Z</time>
      </trkpt>
      <trkpt lat="47.23347" lon="-1.68402">
        <ele>37.3</ele>
        <time>2013-10-13T08:21:39Z</time>
      </trkpt>
      <trkpt lat="47.23352" lon="-1.68415">
        <ele>37.2</ele>
        <time>2013-10-13T08:21:43Z</time>
      </trkpt>
      <trkpt lat="47.23359" lon="-1.6843">
        <ele>37.1</ele>
        <time>2013-10-13T08:21:46Z</time>
      </trkpt>
      <trkpt lat="47.23365" lon="-1.68443">
        <ele>36.8</ele>
        <time>2013-10-13T08:21:48Z</time>
      </trkpt>
      <trkpt lat="47.23372" lon="-1.68459">
        <ele>36.7</ele>
        <time>2013-10-13T08:21:50Z</time>
      </trkpt>
      <trkpt lat="47.23376" lon="-1.68473">
        <ele>36.8</ele>
        <time>2013-10-13T08:21:52Z</time>
      </trkpt>
      <trkpt lat="47.23379" lon="-1.68486">
        <ele>37</ele>
        <time>2013-10-13T08:21:54Z</time>
      </trkpt>
      <trkpt lat="47.23381" lon="-1.68503">
        <ele>37.4</ele>
        <time>2013-10-13T08:21:57Z</time>
      </trkpt>
      <trkpt lat="47.23383" lon="-1.68519">
        <ele>37.8</ele>
        <time>2013-10-13T08:22:01Z</time>
      </trkpt>
      <trkpt lat="47.23386" lon="-1.68535">
        <ele>38</ele>
        <time>2013-10-13T08:22:06Z</time>
      </trkpt>
      <trkpt lat="47.23388" lon="-1.68549">
        <ele>37.9</ele>
        <time>2013-10-13T08:22:10Z</time>
      </trkpt>
      <trkpt lat="47.23392" lon="-1.68565">
        <ele>38</ele>
        <time>2013-10-13T08:22:15Z</time>
      </trkpt>
      <trkpt lat="47.23397" lon="-1.6858">
        <ele>38</ele>
        <time>2013-10-13T08:22:18Z</time>
      </trkpt>
      <trkpt lat="47.23403" lon="-1.68592">
        <ele>38.7</ele>
        <time>2013-10-13T08:22:20Z</time>
      </trkpt>
      <trkpt lat="47.23408" lon="-1.68606">
        <ele>38.8</ele>
        <time>2013-10-13T08:22:22Z</time>
      </trkpt>
      <trkpt lat="47.23413" lon="-1.68619">
        <ele>38.7</ele>
        <time>2013-10-13T08:22:24Z</time>
      </trkpt>
      <trkpt lat="47.23417" lon="-1.68631">
        <ele>38.5</ele>
        <time>2013-10-13T08:22:26Z</time>
      </trkpt>
      <trkpt lat="47.23424" lon="-1.68648">
        <ele>38.3</ele>
        <time>2013-10-13T08:22:29Z</time>
      </trkpt>
      <trkpt lat="47.23431" lon="-1.68665">
        <ele>38.3</ele>
        <time>2013-10-13T08:22:32Z</time>
      </trkpt>
      <trkpt lat="47.23436" lon="-1.6868">
        <ele>38.4</ele>
        <time>2013-10-13T08:22:35Z</time>
      </trkpt>
      <trkpt lat="47.23442" lon="-1.68694">
        <ele>38.3</ele>
        <time>2013-10-13T08:22:39Z</time>
      </trkpt>
      <trkpt lat="47.23448" lon="-1.68713">
        <ele>38.3</ele>
        <time>2013-10-13T08:22:42Z</time>
      </trkpt>
      <trkpt lat="47.23454" lon="-1.68727">
        <ele>38</ele>
        <time>2013-10-13T08:22:44Z</time>
      </trkpt>
      <trkpt lat="47.23458" lon="-1.6874">
        <ele>37.5</ele>
        <time>2013-10-13T08:22:46Z</time>
      </trkpt>
      <trkpt lat="47.23463" lon="-1.68757">
        <ele>35.1</ele>
        <time>2013-10-13T08:22:49Z</time>
      </trkpt>
      <trkpt lat="47.23467" lon="-1.68772">
        <ele>34.8</ele>
        <time>2013-10-13T08:22:52Z</time>
      </trkpt>
      <trkpt lat="47.23471" lon="-1.68787">
        <ele>34.7</ele>
        <time>2013-10-13T08:22:56Z</time>
      </trkpt>
      <trkpt lat="47.23475" lon="-1.68801">
        <ele>34.6</ele>
        <time>2013-10-13T08:23:00Z</time>
      </trkpt>
      <trkpt lat="47.23481" lon="-1.68814">
        <ele>34.4</ele>
        <time>2013-10-13T08:23:04Z</time>
      </trkpt>
      <trkpt lat="47.23486" lon="-1.68826">
        <ele>34</ele>
        <time>2013-10-13T08:23:09Z</time>
      </trkpt>
      <trkpt lat="47.23493" lon="-1.68836">
        <ele>33.5</ele>
        <time>2013-10-13T08:23:13Z</time>
      </trkpt>
      <trkpt lat="47.235" lon="-1.68847">
        <ele>33.2</ele>
        <time>2013-10-13T08:23:17Z</time>
      </trkpt>
      <trkpt lat="47.23509" lon="-1.68861">
        <ele>32.9</ele>
        <time>2013-10-13T08:23:20Z</time>
      </trkpt>
      <trkpt lat="47.23514" lon="-1.68874">
        <ele>32.3</ele>
        <time>2013-10-13T08:23:23Z</time>
      </trkpt>
      <trkpt lat="47.2352" lon="-1.68888">
        <ele>31.5</ele>
        <time>2013-10-13T08:23:27Z</time>
      </trkpt>
      <trkpt lat="47.23525" lon="-1.689">
        <ele>31.2</ele>
        <time>2013-10-13T08:23:30Z</time>
      </trkpt>
      <trkpt lat="47.2353" lon="-1.68915">
        <ele>31.1</ele>
        <time>2013-10-13T08:23:34Z</time>
      </trkpt>
      <trkpt lat="47.23535" lon="-1.68932">
        <ele>30.9</ele>
        <time>2013-10-13T08:23:38Z</time>
      </trkpt>
      <trkpt lat="47.23541" lon="-1.68945">
        <ele>30.9</ele>
        <time>2013-10-13T08:23:41Z</time>
      </trkpt>
      <trkpt lat="47.23547" lon="-1.68956">
        <ele>30.6</ele>
        <time>2013-10-13T08:23:44Z</time>
      </trkpt>
      <trkpt lat="47.23553" lon="-1.68969">
        <ele>30.4</ele>
        <time>2013-10-13T08:23:48Z</time>
      </trkpt>
      <trkpt lat="47.23558" lon="-1.68984">
        <ele>30.3</ele>
        <time>2013-10-13T08:23:51Z</time>
      </trkpt>
      <trkpt lat="47.23562" lon="-1.69001">
        <ele>30.3</ele>
        <time>2013-10-13T08:23:54Z</time>
      </trkpt>
      <trkpt lat="47.23564" lon="-1.69017">
        <ele>30.2</ele>
        <time>2013-10-13T08:23:57Z</time>
      </trkpt>
      <trkpt lat="47.23568" lon="-1.69031">
        <ele>30.1</ele>
        <time>2013-10-13T08:24:01Z</time>
      </trkpt>
      <trkpt lat="47.2356" lon="-1.69038">
        <ele>29.8</ele>
        <time>2013-10-13T08:24:07Z</time>
      </trkpt>
      <trkpt lat="47.2355" lon="-1.69041">
        <ele>29.6</ele>
        <time>2013-10-13T08:24:10Z</time>
      </trkpt>
      <trkpt lat="47.2354" lon="-1.69045">
        <ele>29.3</ele>
        <time>2013-10-13T08:24:13Z</time>
      </trkpt>
      <trkpt lat="47.23531" lon="-1.69051">
        <ele>28.9</ele>
        <time>2013-10-13T08:24:15Z</time>
      </trkpt>
      <trkpt lat="47.2352" lon="-1.69059">
        <ele>28.6</ele>
        <time>2013-10-13T08:24:18Z</time>
      </trkpt>
      <trkpt lat="47.23508" lon="-1.69063">
        <ele>28.3</ele>
        <time>2013-10-13T08:24:21Z</time>
      </trkpt>
      <trkpt lat="47.23495" lon="-1.69062">
        <ele>28.5</ele>
        <time>2013-10-13T08:24:24Z</time>
      </trkpt>
      <trkpt lat="47.23482" lon="-1.6906">
        <ele>29.8</ele>
        <time>2013-10-13T08:24:27Z</time>
      </trkpt>
      <trkpt lat="47.23469" lon="-1.69057">
        <ele>31.8</ele>
        <time>2013-10-13T08:24:30Z</time>
      </trkpt>
      <trkpt lat="47.23458" lon="-1.69056">
        <ele>32.2</ele>
        <time>2013-10-13T08:24:33Z</time>
      </trkpt>
      <trkpt lat="47.23446" lon="-1.69056">
        <ele>32.3</ele>
        <time>2013-10-13T08:24:36Z</time>
      </trkpt>
      <trkpt lat="47.23433" lon="-1.69056">
        <ele>33</ele>
        <time>2013-10-13T08:24:39Z</time>
      </trkpt>
      <trkpt lat="47.23422" lon="-1.69054">
        <ele>32.7</ele>
        <time>2013-10-13T08:24:42Z</time>
      </trkpt>
      <trkpt lat="47.2341" lon="-1.69053">
        <ele>32.9</ele>
        <time>2013-10-13T08:24:45Z</time>
      </trkpt>
      <trkpt lat="47.23399" lon="-1.69052">
        <ele>33.5</ele>
        <time>2013-10-13T08:24:48Z</time>
      </trkpt>
      <trkpt lat="47.23386" lon="-1.69049">
        <ele>33.7</ele>
        <time>2013-10-13T08:24:51Z</time>
      </trkpt>
      <trkpt lat="47.23375" lon="-1.69047">
        <ele>34.6</ele>
        <time>2013-10-13T08:24:54Z</time>
      </trkpt>
      <trkpt lat="47.23363" lon="-1.69046">
        <ele>35.8</ele>
        <time>2013-10-13T08:24:57Z</time>
      </trkpt>
      <trkpt lat="47.23352" lon="-1.69046">
        <ele>35.9</ele>
        <time>2013-10-13T08:25:00Z</time>
      </trkpt>
      <trkpt lat="47.23341" lon="-1.69044">
        <ele>36.3</ele>
        <time>2013-10-13T08:25:03Z</time>
      </trkpt>
      <trkpt lat="47.2333" lon="-1.69043">
        <ele>36.5</ele>
        <time>2013-10-13T08:25:06Z</time>
      </trkpt>
      <trkpt lat="47.23319" lon="-1.69042">
        <ele>36.7</ele>
        <time>2013-10-13T08:25:09Z</time>
      </trkpt>
      <trkpt lat="47.23307" lon="-1.69039">
        <ele>37.6</ele>
        <time>2013-10-13T08:25:12Z</time>
      </trkpt>
      <trkpt lat="47.23295" lon="-1.69039">
        <ele>38.7</ele>
        <time>2013-10-13T08:25:15Z</time>
      </trkpt>
      <trkpt lat="47.23284" lon="-1.69039">
        <ele>39.4</ele>
        <time>2013-10-13T08:25:18Z</time>
      </trkpt>
      <trkpt lat="47.23272" lon="-1.69038">
        <ele>39.6</ele>
        <time>2013-10-13T08:25:21Z</time>
      </trkpt>
      <trkpt lat="47.23261" lon="-1.69037">
        <ele>39.6</ele>
        <time>2013-10-13T08:25:24Z</time>
      </trkpt>
      <trkpt lat="47.23251" lon="-1.69037">
        <ele>39.6</ele>
        <time>2013-10-13T08:25:27Z</time>
      </trkpt>
      <trkpt lat="47.2324" lon="-1.69037">
        <ele>39.5</ele>
        <time>2013-10-13T08:25:30Z</time>
      </trkpt>
      <trkpt lat="47.23228" lon="-1.69036">
        <ele>39.3</ele>
        <time>2013-10-13T08:25:33Z</time>
      </trkpt>
      <trkpt lat="47.23215" lon="-1.69035">
        <ele>38.3</ele>
        <time>2013-10-13T08:25:36Z</time>
      </trkpt>
      <trkpt lat="47.23206" lon="-1.69034">
        <ele>37.8</ele>
        <time>2013-10-13T08:25:38Z</time>
      </trkpt>
      <trkpt lat="47.23196" lon="-1.69034">
        <ele>37.3</ele>
        <time>2013-10-13T08:25:40Z</time>
      </trkpt>
      <trkpt lat="47.23185" lon="-1.69033">
        <ele>37.1</ele>
        <time>2013-10-13T08:25:43Z</time>
      </trkpt>
      <trkpt lat="47.23173" lon="-1.69032">
        <ele>37.5</ele>
        <time>2013-10-13T08:25:46Z</time>
      </trkpt>
      <trkpt lat="47.23164" lon="-1.69031">
        <ele>37.8</ele>
        <time>2013-10-13T08:25:48Z</time>
      </trkpt>
      <trkpt lat="47.23154" lon="-1.6903">
        <ele>37.8</ele>
        <time>2013-10-13T08:25:50Z</time>
      </trkpt>
      <trkpt lat="47.23145" lon="-1.69029">
        <ele>37.7</ele>
        <time>2013-10-13T08:25:52Z</time>
      </trkpt>
      <trkpt lat="47.23135" lon="-1.69029">
        <ele>37.5</ele>
        <time>2013-10-13T08:25:54Z</time>
      </trkpt>
      <trkpt lat="47.23126" lon="-1.69029">
        <ele>37</ele>
        <time>2013-10-13T08:25:56Z</time>
      </trkpt>
      <trkpt lat="47.23115" lon="-1.69029">
        <ele>38</ele>
        <time>2013-10-13T08:25:59Z</time>
      </trkpt>
      <trkpt lat="47.23103" lon="-1.69028">
        <ele>38.4</ele>
        <time>2013-10-13T08:26:02Z</time>
      </trkpt>
      <trkpt lat="47.23097" lon="-1.6904">
        <ele>38.7</ele>
        <time>2013-10-13T08:26:06Z</time>
      </trkpt>
      <trkpt lat="47.23099" lon="-1.69053">
        <ele>38.9</ele>
        <time>2013-10-13T08:26:09Z</time>
      </trkpt>
      <trkpt lat="47.23106" lon="-1.69067">
        <ele>39</ele>
        <time>2013-10-13T08:26:12Z</time>
      </trkpt>
      <trkpt lat="47.23114" lon="-1.6908">
        <ele>39.2</ele>
        <time>2013-10-13T08:26:15Z</time>
      </trkpt>
      <trkpt lat="47.23123" lon="-1.69093">
        <ele>39.6</ele>
        <time>2013-10-13T08:26:18Z</time>
      </trkpt>
      <trkpt lat="47.23131" lon="-1.69105">
        <ele>39.6</ele>
        <time>2013-10-13T08:26:21Z</time>
      </trkpt>
      <trkpt lat="47.23126" lon="-1.69121">
        <ele>39.9</ele>
        <time>2013-10-13T08:26:25Z</time>
      </trkpt>
      <trkpt lat="47.23119" lon="-1.69132">
        <ele>39.2</ele>
        <time>2013-10-13T08:26:27Z</time>
      </trkpt>
      <trkpt lat="47.2311" lon="-1.69143">
        <ele>38.7</ele>
        <time>2013-10-13T08:26:29Z</time>
      </trkpt>
      <trkpt lat="47.23102" lon="-1.69153">
        <ele>38.5</ele>
        <time>2013-10-13T08:26:31Z</time>
      </trkpt>
      <trkpt lat="47.23094" lon="-1.69164">
        <ele>38.5</ele>
        <time>2013-10-13T08:26:33Z</time>
      </trkpt>
      <trkpt lat="47.23085" lon="-1.69174">
        <ele>38.1</ele>
        <time>2013-10-13T08:26:35Z</time>
      </trkpt>
      <trkpt lat="47.23077" lon="-1.69183">
        <ele>38.3</ele>
        <time>2013-10-13T08:26:37Z</time>
      </trkpt>
      <trkpt lat="47.23069" lon="-1.69194">
        <ele>37.9</ele>
        <time>2013-10-13T08:26:39Z</time>
      </trkpt>
      <trkpt lat="47.23061" lon="-1.69205">
        <ele>36.7</ele>
        <time>2013-10-13T08:26:41Z</time>
      </trkpt>
      <trkpt lat="47.23055" lon="-1.69215">
        <ele>35.7</ele>
        <time>2013-10-13T08:26:43Z</time>
      </trkpt>
      <trkpt lat="47.23049" lon="-1.69226">
        <ele>35.4</ele>
        <time>2013-10-13T08:26:45Z</time>
      </trkpt>
      <trkpt lat="47.23042" lon="-1.69238">
        <ele>35.5</ele>
        <time>2013-10-13T08:26:47Z</time>
      </trkpt>
      <trkpt lat="47.23036" lon="-1.69251">
        <ele>35.4</ele>
        <time>2013-10-13T08:26:49Z</time>
      </trkpt>
      <trkpt lat="47.2303" lon="-1.69265">
        <ele>34.6</ele>
        <time>2013-10-13T08:26:51Z</time>
      </trkpt>
      <trkpt lat="47.23025" lon="-1.69278">
        <ele>34.3</ele>
        <time>2013-10-13T08:26:53Z</time>
      </trkpt>
      <trkpt lat="47.23021" lon="-1.69293">
        <ele>34.1</ele>
        <time>2013-10-13T08:26:55Z</time>
      </trkpt>
      <trkpt lat="47.23018" lon="-1.6931">
        <ele>34.1</ele>
        <time>2013-10-13T08:26:57Z</time>
      </trkpt>
      <trkpt lat="47.23018" lon="-1.69325">
        <ele>33.8</ele>
        <time>2013-10-13T08:26:59Z</time>
      </trkpt>
      <trkpt lat="47.23016" lon="-1.6934">
        <ele>34</ele>
        <time>2013-10-13T08:27:01Z</time>
      </trkpt>
      <trkpt lat="47.23013" lon="-1.69358">
        <ele>33.2</ele>
        <time>2013-10-13T08:27:03Z</time>
      </trkpt>
      <trkpt lat="47.23007" lon="-1.69375">
        <ele>32.6</ele>
        <time>2013-10-13T08:27:05Z</time>
      </trkpt>
      <trkpt lat="47.23001" lon="-1.69389">
        <ele>32.2</ele>
        <time>2013-10-13T08:27:07Z</time>
      </trkpt>
      <trkpt lat="47.22995" lon="-1.69404">
        <ele>32.7</ele>
        <time>2013-10-13T08:27:09Z</time>
      </trkpt>
      <trkpt lat="47.2299" lon="-1.69417">
        <ele>32.8</ele>
        <time>2013-10-13T08:27:11Z</time>
      </trkpt>
      <trkpt lat="47.22984" lon="-1.69428">
        <ele>31.8</ele>
        <time>2013-10-13T08:27:13Z</time>
      </trkpt>
      <trkpt lat="47.22975" lon="-1.69439">
        <ele>30.4</ele>
        <time>2013-10-13T08:27:15Z</time>
      </trkpt>
      <trkpt lat="47.22966" lon="-1.69449">
        <ele>28.5</ele>
        <time>2013-10-13T08:27:17Z</time>
      </trkpt>
      <trkpt lat="47.22952" lon="-1.69465">
        <ele>25.7</ele>
        <time>2013-10-13T08:27:19Z</time>
      </trkpt>
      <trkpt lat="47.2294" lon="-1.69479">
        <ele>23.1</ele>
        <time>2013-10-13T08:27:21Z</time>
      </trkpt>
      <trkpt lat="47.22928" lon="-1.69493">
        <ele>20.1</ele>
        <time>2013-10-13T08:27:23Z</time>
      </trkpt>
      <trkpt lat="47.2292" lon="-1.69504">
        <ele>19.7</ele>
        <time>2013-10-13T08:27:25Z</time>
      </trkpt>
      <trkpt lat="47.2291" lon="-1.69517">
        <ele>19.4</ele>
        <time>2013-10-13T08:27:28Z</time>
      </trkpt>
      <trkpt lat="47.22902" lon="-1.69527">
        <ele>17.1</ele>
        <time>2013-10-13T08:27:30Z</time>
      </trkpt>
      <trkpt lat="47.22894" lon="-1.69537">
        <ele>16.6</ele>
        <time>2013-10-13T08:27:32Z</time>
      </trkpt>
      <trkpt lat="47.22885" lon="-1.69548">
        <ele>16</ele>
        <time>2013-10-13T08:27:34Z</time>
      </trkpt>
      <trkpt lat="47.22874" lon="-1.69558">
        <ele>15.2</ele>
        <time>2013-10-13T08:27:36Z</time>
      </trkpt>
      <trkpt lat="47.22863" lon="-1.6957">
        <ele>13.6</ele>
        <time>2013-10-13T08:27:38Z</time>
      </trkpt>
      <trkpt lat="47.22854" lon="-1.6958">
        <ele>13.1</ele>
        <time>2013-10-13T08:27:40Z</time>
      </trkpt>
      <trkpt lat="47.22845" lon="-1.69589">
        <ele>12.7</ele>
        <time>2013-10-13T08:27:42Z</time>
      </trkpt>
      <trkpt lat="47.22835" lon="-1.69598">
        <ele>13</ele>
        <time>2013-10-13T08:27:44Z</time>
      </trkpt>
      <trkpt lat="47.22827" lon="-1.69608">
        <ele>13.1</ele>
        <time>2013-10-13T08:27:46Z</time>
      </trkpt>
      <trkpt lat="47.22819" lon="-1.69617">
        <ele>12.9</ele>
        <time>2013-10-13T08:27:48Z</time>
      </trkpt>
      <trkpt lat="47.22809" lon="-1.69623">
        <ele>13.2</ele>
        <time>2013-10-13T08:27:50Z</time>
      </trkpt>
      <trkpt lat="47.228" lon="-1.69634">
        <ele>13.3</ele>
        <time>2013-10-13T08:27:53Z</time>
      </trkpt>
      <trkpt lat="47.22804" lon="-1.69646">
        <ele>13.3</ele>
        <time>2013-10-13T08:27:56Z</time>
      </trkpt>
      <trkpt lat="47.22809" lon="-1.69661">
        <ele>13.1</ele>
        <time>2013-10-13T08:27:59Z</time>
      </trkpt>
      <trkpt lat="47.22816" lon="-1.69673">
        <ele>12.9</ele>
        <time>2013-10-13T08:28:02Z</time>
      </trkpt>
      <trkpt lat="47.22824" lon="-1.69686">
        <ele>9.9</ele>
        <time>2013-10-13T08:28:04Z</time>
      </trkpt>
      <trkpt lat="47.22831" lon="-1.69702">
        <ele>8.2</ele>
        <time>2013-10-13T08:28:06Z</time>
      </trkpt>
      <trkpt lat="47.22838" lon="-1.69717">
        <ele>6.6</ele>
        <time>2013-10-13T08:28:08Z</time>
      </trkpt>
      <trkpt lat="47.22843" lon="-1.69729">
        <ele>6.5</ele>
        <time>2013-10-13T08:28:10Z</time>
      </trkpt>
      <trkpt lat="47.22843" lon="-1.69743">
        <ele>6.2</ele>
        <time>2013-10-13T08:28:19Z</time>
      </trkpt>
      <trkpt lat="47.22851" lon="-1.69751">
        <ele>6.1</ele>
        <time>2013-10-13T08:28:29Z</time>
      </trkpt>
      <trkpt lat="47.22859" lon="-1.6976">
        <ele>6.9</ele>
        <time>2013-10-13T08:28:40Z</time>
      </trkpt>
      <trkpt lat="47.22868" lon="-1.69765">
        <ele>7.3</ele>
        <time>2013-10-13T08:28:45Z</time>
      </trkpt>
      <trkpt lat="47.22875" lon="-1.69774">
        <ele>7.7</ele>
        <time>2013-10-13T08:28:49Z</time>
      </trkpt>
      <trkpt lat="47.22872" lon="-1.69787">
        <ele>9</ele>
        <time>2013-10-13T08:29:09Z</time>
      </trkpt>
      <trkpt lat="47.22864" lon="-1.69792">
        <ele>10.2</ele>
        <time>2013-10-13T08:29:20Z</time>
      </trkpt>
      <trkpt lat="47.22855" lon="-1.69797">
        <ele>11.2</ele>
        <time>2013-10-13T08:29:30Z</time>
      </trkpt>
      <trkpt lat="47.22843" lon="-1.69801">
        <ele>11.5</ele>
        <time>2013-10-13T08:29:34Z</time>
      </trkpt>
      <trkpt lat="47.22833" lon="-1.69809">
        <ele>11.6</ele>
        <time>2013-10-13T08:29:37Z</time>
      </trkpt>
      <trkpt lat="47.22824" lon="-1.69814">
        <ele>11.6</ele>
        <time>2013-10-13T08:29:39Z</time>
      </trkpt>
      <trkpt lat="47.22814" lon="-1.69817">
        <ele>12</ele>
        <time>2013-10-13T08:29:41Z</time>
      </trkpt>
      <trkpt lat="47.22803" lon="-1.69826">
        <ele>12.9</ele>
        <time>2013-10-13T08:29:43Z</time>
      </trkpt>
      <trkpt lat="47.22791" lon="-1.69835">
        <ele>13.8</ele>
        <time>2013-10-13T08:29:45Z</time>
      </trkpt>
      <trkpt lat="47.22783" lon="-1.69842">
        <ele>13.6</ele>
        <time>2013-10-13T08:29:46Z</time>
      </trkpt>
      <trkpt lat="47.2277" lon="-1.69858">
        <ele>13.1</ele>
        <time>2013-10-13T08:29:48Z</time>
      </trkpt>
      <trkpt lat="47.22763" lon="-1.6987">
        <ele>11.7</ele>
        <time>2013-10-13T08:29:50Z</time>
      </trkpt>
      <trkpt lat="47.22756" lon="-1.69883">
        <ele>11.3</ele>
        <time>2013-10-13T08:29:52Z</time>
      </trkpt>
      <trkpt lat="47.22749" lon="-1.69893">
        <ele>11.6</ele>
        <time>2013-10-13T08:29:54Z</time>
      </trkpt>
      <trkpt lat="47.22737" lon="-1.69903">
        <ele>12.6</ele>
        <time>2013-10-13T08:29:57Z</time>
      </trkpt>
      <trkpt lat="47.22728" lon="-1.69908">
        <ele>13.5</ele>
        <time>2013-10-13T08:29:59Z</time>
      </trkpt>
      <trkpt lat="47.22719" lon="-1.69913">
        <ele>13.7</ele>
        <time>2013-10-13T08:30:01Z</time>
      </trkpt>
      <trkpt lat="47.22708" lon="-1.69917">
        <ele>13.3</ele>
        <time>2013-10-13T08:30:03Z</time>
      </trkpt>
      <trkpt lat="47.22697" lon="-1.69921">
        <ele>12.7</ele>
        <time>2013-10-13T08:30:05Z</time>
      </trkpt>
      <trkpt lat="47.22687" lon="-1.69924">
        <ele>12</ele>
        <time>2013-10-13T08:30:07Z</time>
      </trkpt>
      <trkpt lat="47.22677" lon="-1.69934">
        <ele>11.7</ele>
        <time>2013-10-13T08:30:10Z</time>
      </trkpt>
      <trkpt lat="47.22675" lon="-1.69954">
        <ele>7.9</ele>
        <time>2013-10-13T08:30:13Z</time>
      </trkpt>
      <trkpt lat="47.22676" lon="-1.69968">
        <ele>6.4</ele>
        <time>2013-10-13T08:30:15Z</time>
      </trkpt>
      <trkpt lat="47.22677" lon="-1.69984">
        <ele>5.8</ele>
        <time>2013-10-13T08:30:17Z</time>
      </trkpt>
      <trkpt lat="47.22677" lon="-1.7">
        <ele>5.2</ele>
        <time>2013-10-13T08:30:19Z</time>
      </trkpt>
      <trkpt lat="47.22677" lon="-1.70018">
        <ele>5</ele>
        <time>2013-10-13T08:30:21Z</time>
      </trkpt>
      <trkpt lat="47.22678" lon="-1.70036">
        <ele>5</ele>
        <time>2013-10-13T08:30:23Z</time>
      </trkpt>
      <trkpt lat="47.22679" lon="-1.70054">
        <ele>5</ele>
        <time>2013-10-13T08:30:25Z</time>
      </trkpt>
      <trkpt lat="47.22681" lon="-1.70072">
        <ele>4.8</ele>
        <time>2013-10-13T08:30:27Z</time>
      </trkpt>
      <trkpt lat="47.22683" lon="-1.70089">
        <ele>5</ele>
        <time>2013-10-13T08:30:29Z</time>
      </trkpt>
      <trkpt lat="47.22685" lon="-1.70106">
        <ele>5.2</ele>
        <time>2013-10-13T08:30:31Z</time>
      </trkpt>
      <trkpt lat="47.22688" lon="-1.70122">
        <ele>5.6</ele>
        <time>2013-10-13T08:30:33Z</time>
      </trkpt>
      <trkpt lat="47.2269" lon="-1.7014">
        <ele>5.6</ele>
        <time>2013-10-13T08:30:35Z</time>
      </trkpt>
      <trkpt lat="47.22692" lon="-1.70157">
        <ele>4.9</ele>
        <time>2013-10-13T08:30:37Z</time>
      </trkpt>
      <trkpt lat="47.22695" lon="-1.70176">
        <ele>4</ele>
        <time>2013-10-13T08:30:39Z</time>
      </trkpt>
      <trkpt lat="47.22698" lon="-1.70194">
        <ele>4.8</ele>
        <time>2013-10-13T08:30:41Z</time>
      </trkpt>
      <trkpt lat="47.22701" lon="-1.70215">
        <ele>5.7</ele>
        <time>2013-10-13T08:30:43Z</time>
      </trkpt>
      <trkpt lat="47.22704" lon="-1.70236">
        <ele>6.2</ele>
        <time>2013-10-13T08:30:45Z</time>
      </trkpt>
      <trkpt lat="47.22706" lon="-1.70256">
        <ele>6.6</ele>
        <time>2013-10-13T08:30:47Z</time>
      </trkpt>
      <trkpt lat="47.22709" lon="-1.70274">
        <ele>7.4</ele>
        <time>2013-10-13T08:30:49Z</time>
      </trkpt>
      <trkpt lat="47.22711" lon="-1.70291">
        <ele>8.1</ele>
        <time>2013-10-13T08:30:51Z</time>
      </trkpt>
      <trkpt lat="47.22715" lon="-1.70308">
        <ele>8.7</ele>
        <time>2013-10-13T08:30:53Z</time>
      </trkpt>
      <trkpt lat="47.22718" lon="-1.70325">
        <ele>9.4</ele>
        <time>2013-10-13T08:30:55Z</time>
      </trkpt>
      <trkpt lat="47.22722" lon="-1.70342">
        <ele>9.1</ele>
        <time>2013-10-13T08:30:57Z</time>
      </trkpt>
      <trkpt lat="47.22727" lon="-1.70357">
        <ele>7.9</ele>
        <time>2013-10-13T08:30:59Z</time>
      </trkpt>
      <trkpt lat="47.22732" lon="-1.70372">
        <ele>6.8</ele>
        <time>2013-10-13T08:31:01Z</time>
      </trkpt>
      <trkpt lat="47.22737" lon="-1.70388">
        <ele>5.7</ele>
        <time>2013-10-13T08:31:03Z</time>
      </trkpt>
      <trkpt lat="47.22741" lon="-1.70402">
        <ele>4.8</ele>
        <time>2013-10-13T08:31:05Z</time>
      </trkpt>
      <trkpt lat="47.22744" lon="-1.70417">
        <ele>4.3</ele>
        <time>2013-10-13T08:31:07Z</time>
      </trkpt>
      <trkpt lat="47.22746" lon="-1.70431">
        <ele>4.3</ele>
        <time>2013-10-13T08:31:09Z</time>
      </trkpt>
      <trkpt lat="47.22753" lon="-1.7044">
        <ele>4.5</ele>
        <time>2013-10-13T08:31:12Z</time>
      </trkpt>
      <trkpt lat="47.22762" lon="-1.70445">
        <ele>4.4</ele>
        <time>2013-10-13T08:31:15Z</time>
      </trkpt>
      <trkpt lat="47.22772" lon="-1.70447">
        <ele>5.1</ele>
        <time>2013-10-13T08:31:17Z</time>
      </trkpt>
      <trkpt lat="47.22784" lon="-1.70448">
        <ele>5.2</ele>
        <time>2013-10-13T08:31:19Z</time>
      </trkpt>
      <trkpt lat="47.22793" lon="-1.70451">
        <ele>5.4</ele>
        <time>2013-10-13T08:31:21Z</time>
      </trkpt>
      <trkpt lat="47.22802" lon="-1.70457">
        <ele>5.6</ele>
        <time>2013-10-13T08:31:24Z</time>
      </trkpt>
      <trkpt lat="47.22813" lon="-1.70464">
        <ele>6</ele>
        <time>2013-10-13T08:31:28Z</time>
      </trkpt>
      <trkpt lat="47.22823" lon="-1.70466">
        <ele>6.2</ele>
        <time>2013-10-13T08:31:31Z</time>
      </trkpt>
      <trkpt lat="47.22834" lon="-1.70469">
        <ele>6.4</ele>
        <time>2013-10-13T08:31:34Z</time>
      </trkpt>
      <trkpt lat="47.22844" lon="-1.7047">
        <ele>6.6</ele>
        <time>2013-10-13T08:31:37Z</time>
      </trkpt>
      <trkpt lat="47.22854" lon="-1.70469">
        <ele>6.8</ele>
        <time>2013-10-13T08:31:40Z</time>
      </trkpt>
      <trkpt lat="47.22866" lon="-1.70471">
        <ele>6.8</ele>
        <time>2013-10-13T08:31:44Z</time>
      </trkpt>
      <trkpt lat="47.22877" lon="-1.70474">
        <ele>7.2</ele>
        <time>2013-10-13T08:31:48Z</time>
      </trkpt>
      <trkpt lat="47.22887" lon="-1.70475">
        <ele>7.8</ele>
        <time>2013-10-13T08:31:54Z</time>
      </trkpt>
      <trkpt lat="47.22898" lon="-1.70478">
        <ele>8.1</ele>
        <time>2013-10-13T08:31:59Z</time>
      </trkpt>
      <trkpt lat="47.22907" lon="-1.70481">
        <ele>8.3</ele>
        <time>2013-10-13T08:32:03Z</time>
      </trkpt>
      <trkpt lat="47.22916" lon="-1.70486">
        <ele>8.7</ele>
        <time>2013-10-13T08:32:07Z</time>
      </trkpt>
      <trkpt lat="47.22927" lon="-1.70487">
        <ele>9.8</ele>
        <time>2013-10-13T08:32:15Z</time>
      </trkpt>
      <trkpt lat="47.22937" lon="-1.7049">
        <ele>10.4</ele>
        <time>2013-10-13T08:32:21Z</time>
      </trkpt>
      <trkpt lat="47.22948" lon="-1.70491">
        <ele>11.2</ele>
        <time>2013-10-13T08:32:26Z</time>
      </trkpt>
      <trkpt lat="47.22958" lon="-1.70493">
        <ele>12.1</ele>
        <time>2013-10-13T08:32:32Z</time>
      </trkpt>
      <trkpt lat="47.22967" lon="-1.70497">
        <ele>12.9</ele>
        <time>2013-10-13T08:32:37Z</time>
      </trkpt>
      <trkpt lat="47.22978" lon="-1.70498">
        <ele>13.6</ele>
        <time>2013-10-13T08:32:43Z</time>
      </trkpt>
      <trkpt lat="47.22988" lon="-1.70497">
        <ele>15.9</ele>
        <time>2013-10-13T08:35:57Z</time>
      </trkpt>
      <trkpt lat="47.22995" lon="-1.70489">
        <ele>16.5</ele>
        <time>2013-10-13T08:36:53Z</time>
      </trkpt>
      <trkpt lat="47.22998" lon="-1.70474">
        <ele>16.2</ele>
        <time>2013-10-13T08:36:59Z</time>
      </trkpt>
      <trkpt lat="47.23" lon="-1.70459">
        <ele>15.7</ele>
        <time>2013-10-13T08:37:03Z</time>
      </trkpt>
      <trkpt lat="47.23001" lon="-1.70445">
        <ele>15.1</ele>
        <time>2013-10-13T08:37:06Z</time>
      </trkpt>
      <trkpt lat="47.23003" lon="-1.70429">
        <ele>14.5</ele>
        <time>2013-10-13T08:37:09Z</time>
      </trkpt>
      <trkpt lat="47.23005" lon="-1.70414">
        <ele>13.8</ele>
        <time>2013-10-13T08:37:12Z</time>
      </trkpt>
      <trkpt lat="47.23009" lon="-1.70397">
        <ele>13.2</ele>
        <time>2013-10-13T08:37:15Z</time>
      </trkpt>
      <trkpt lat="47.23012" lon="-1.70381">
        <ele>12.5</ele>
        <time>2013-10-13T08:37:18Z</time>
      </trkpt>
      <trkpt lat="47.23016" lon="-1.70364">
        <ele>11.8</ele>
        <time>2013-10-13T08:37:21Z</time>
      </trkpt>
      <trkpt lat="47.23024" lon="-1.70356">
        <ele>11.5</ele>
        <time>2013-10-13T08:37:23Z</time>
      </trkpt>
      <trkpt lat="47.23033" lon="-1.70352">
        <ele>9.9</ele>
        <time>2013-10-13T08:37:25Z</time>
      </trkpt>
      <trkpt lat="47.23043" lon="-1.70348">
        <ele>8.6</ele>
        <time>2013-10-13T08:37:27Z</time>
      </trkpt>
      <trkpt lat="47.23053" lon="-1.70345">
        <ele>8.1</ele>
        <time>2013-10-13T08:37:29Z</time>
      </trkpt>
      <trkpt lat="47.23063" lon="-1.70342">
        <ele>6.8</ele>
        <time>2013-10-13T08:37:31Z</time>
      </trkpt>
      <trkpt lat="47.23075" lon="-1.70341">
        <ele>6.5</ele>
        <time>2013-10-13T08:37:34Z</time>
      </trkpt>
      <trkpt lat="47.23086" lon="-1.70339">
        <ele>7</ele>
        <time>2013-10-13T08:37:37Z</time>
      </trkpt>
      <trkpt lat="47.23093" lon="-1.70331">
        <ele>7.5</ele>
        <time>2013-10-13T08:37:40Z</time>
      </trkpt>
      <trkpt lat="47.23102" lon="-1.70321">
        <ele>7.9</ele>
        <time>2013-10-13T08:37:43Z</time>
      </trkpt>
      <trkpt lat="47.2311" lon="-1.70313">
        <ele>8.2</ele>
        <time>2013-10-13T08:37:45Z</time>
      </trkpt>
      <trkpt lat="47.23119" lon="-1.70302">
        <ele>9</ele>
        <time>2013-10-13T08:37:48Z</time>
      </trkpt>
      <trkpt lat="47.23129" lon="-1.70293">
        <ele>10.2</ele>
        <time>2013-10-13T08:37:51Z</time>
      </trkpt>
      <trkpt lat="47.23139" lon="-1.70286">
        <ele>11.6</ele>
        <time>2013-10-13T08:37:54Z</time>
      </trkpt>
      <trkpt lat="47.2315" lon="-1.70279">
        <ele>12.9</ele>
        <time>2013-10-13T08:37:57Z</time>
      </trkpt>
      <trkpt lat="47.23161" lon="-1.70271">
        <ele>14.1</ele>
        <time>2013-10-13T08:38:00Z</time>
      </trkpt>
      <trkpt lat="47.2317" lon="-1.70264">
        <ele>15.2</ele>
        <time>2013-10-13T08:38:03Z</time>
      </trkpt>
      <trkpt lat="47.23179" lon="-1.70257">
        <ele>16.1</ele>
        <time>2013-10-13T08:38:06Z</time>
      </trkpt>
      <trkpt lat="47.2319" lon="-1.70254">
        <ele>16.9</ele>
        <time>2013-10-13T08:38:09Z</time>
      </trkpt>
      <trkpt lat="47.23201" lon="-1.70251">
        <ele>17.7</ele>
        <time>2013-10-13T08:38:12Z</time>
      </trkpt>
      <trkpt lat="47.23211" lon="-1.70249">
        <ele>18.6</ele>
        <time>2013-10-13T08:38:15Z</time>
      </trkpt>
      <trkpt lat="47.23222" lon="-1.70247">
        <ele>19.4</ele>
        <time>2013-10-13T08:38:18Z</time>
      </trkpt>
      <trkpt lat="47.23233" lon="-1.70244">
        <ele>20.1</ele>
        <time>2013-10-13T08:38:21Z</time>
      </trkpt>
      <trkpt lat="47.23241" lon="-1.7024">
        <ele>20.9</ele>
        <time>2013-10-13T08:38:24Z</time>
      </trkpt>
      <trkpt lat="47.23251" lon="-1.70234">
        <ele>21.6</ele>
        <time>2013-10-13T08:38:27Z</time>
      </trkpt>
      <trkpt lat="47.23261" lon="-1.7023">
        <ele>22.3</ele>
        <time>2013-10-13T08:38:30Z</time>
      </trkpt>
      <trkpt lat="47.2327" lon="-1.70225">
        <ele>23</ele>
        <time>2013-10-13T08:38:33Z</time>
      </trkpt>
      <trkpt lat="47.2328" lon="-1.70221">
        <ele>23.8</ele>
        <time>2013-10-13T08:38:36Z</time>
      </trkpt>
      <trkpt lat="47.23289" lon="-1.70217">
        <ele>24.5</ele>
        <time>2013-10-13T08:38:39Z</time>
      </trkpt>
      <trkpt lat="47.23299" lon="-1.70212">
        <ele>25.2</ele>
        <time>2013-10-13T08:38:42Z</time>
      </trkpt>
      <trkpt lat="47.23308" lon="-1.70206">
        <ele>25.9</ele>
        <time>2013-10-13T08:38:45Z</time>
      </trkpt>
      <trkpt lat="47.23317" lon="-1.70199">
        <ele>26.5</ele>
        <time>2013-10-13T08:38:48Z</time>
      </trkpt>
      <trkpt lat="47.23327" lon="-1.70194">
        <ele>27.1</ele>
        <time>2013-10-13T08:38:51Z</time>
      </trkpt>
      <trkpt lat="47.23336" lon="-1.70188">
        <ele>27.7</ele>
        <time>2013-10-13T08:38:54Z</time>
      </trkpt>
      <trkpt lat="47.23348" lon="-1.70181">
        <ele>31.2</ele>
        <time>2013-10-13T08:38:57Z</time>
      </trkpt>
      <trkpt lat="47.23359" lon="-1.70174">
        <ele>33.6</ele>
        <time>2013-10-13T08:39:00Z</time>
      </trkpt>
      <trkpt lat="47.2337" lon="-1.70167">
        <ele>35</ele>
        <time>2013-10-13T08:39:03Z</time>
      </trkpt>
      <trkpt lat="47.23384" lon="-1.70159">
        <ele>35.7</ele>
        <time>2013-10-13T08:39:06Z</time>
      </trkpt>
      <trkpt lat="47.23393" lon="-1.70152">
        <ele>35.9</ele>
        <time>2013-10-13T08:39:08Z</time>
      </trkpt>
      <trkpt lat="47.23402" lon="-1.70146">
        <ele>35.8</ele>
        <time>2013-10-13T08:39:10Z</time>
      </trkpt>
      <trkpt lat="47.23413" lon="-1.70139">
        <ele>34.9</ele>
        <time>2013-10-13T08:39:12Z</time>
      </trkpt>
      <trkpt lat="47.23423" lon="-1.70133">
        <ele>33.8</ele>
        <time>2013-10-13T08:39:14Z</time>
      </trkpt>
      <trkpt lat="47.23433" lon="-1.70129">
        <ele>32.8</ele>
        <time>2013-10-13T08:39:16Z</time>
      </trkpt>
      <trkpt lat="47.23443" lon="-1.70123">
        <ele>31.2</ele>
        <time>2013-10-13T08:39:18Z</time>
      </trkpt>
      <trkpt lat="47.23454" lon="-1.70114">
        <ele>30.2</ele>
        <time>2013-10-13T08:39:20Z</time>
      </trkpt>
      <trkpt lat="47.23464" lon="-1.70112">
        <ele>29.4</ele>
        <time>2013-10-13T08:39:22Z</time>
      </trkpt>
      <trkpt lat="47.23471" lon="-1.70103">
        <ele>29.1</ele>
        <time>2013-10-13T08:39:25Z</time>
      </trkpt>
      <trkpt lat="47.23471" lon="-1.7009">
        <ele>28.9</ele>
        <time>2013-10-13T08:39:28Z</time>
      </trkpt>
      <trkpt lat="47.23469" lon="-1.70072">
        <ele>28.6</ele>
        <time>2013-10-13T08:39:31Z</time>
      </trkpt>
      <trkpt lat="47.23468" lon="-1.70056">
        <ele>28.3</ele>
        <time>2013-10-13T08:39:35Z</time>
      </trkpt>
      <trkpt lat="47.23471" lon="-1.70043">
        <ele>27.9</ele>
        <time>2013-10-13T08:39:39Z</time>
      </trkpt>
      <trkpt lat="47.2347" lon="-1.70029">
        <ele>27.7</ele>
        <time>2013-10-13T08:39:49Z</time>
      </trkpt>
      <trkpt lat="47.23471" lon="-1.70014">
        <ele>27.4</ele>
        <time>2013-10-13T08:39:58Z</time>
      </trkpt>
      <trkpt lat="47.23473" lon="-1.69999">
        <ele>27.3</ele>
        <time>2013-10-13T08:40:03Z</time>
      </trkpt>
      <trkpt lat="47.23475" lon="-1.69984">
        <ele>27.2</ele>
        <time>2013-10-13T08:40:07Z</time>
      </trkpt>
      <trkpt lat="47.23478" lon="-1.69971">
        <ele>27.2</ele>
        <time>2013-10-13T08:40:10Z</time>
      </trkpt>
      <trkpt lat="47.2348" lon="-1.69956">
        <ele>27.1</ele>
        <time>2013-10-13T08:40:13Z</time>
      </trkpt>
      <trkpt lat="47.23486" lon="-1.69942">
        <ele>27.1</ele>
        <time>2013-10-13T08:40:16Z</time>
      </trkpt>
      <trkpt lat="47.23492" lon="-1.69926">
        <ele>27.1</ele>
        <time>2013-10-13T08:40:19Z</time>
      </trkpt>
      <trkpt lat="47.23499" lon="-1.69914">
        <ele>25.9</ele>
        <time>2013-10-13T08:40:21Z</time>
      </trkpt>
      <trkpt lat="47.23506" lon="-1.69904">
        <ele>25.2</ele>
        <time>2013-10-13T08:40:23Z</time>
      </trkpt>
      <trkpt lat="47.23513" lon="-1.69891">
        <ele>25.2</ele>
        <time>2013-10-13T08:40:26Z</time>
      </trkpt>
      <trkpt lat="47.23519" lon="-1.6988">
        <ele>25.2</ele>
        <time>2013-10-13T08:40:30Z</time>
      </trkpt>
      <trkpt lat="47.23526" lon="-1.69871">
        <ele>25.6</ele>
        <time>2013-10-13T08:40:43Z</time>
      </trkpt>
      <trkpt lat="47.23529" lon="-1.69858">
        <ele>25.9</ele>
        <time>2013-10-13T08:40:53Z</time>
      </trkpt>
      <trkpt lat="47.23532" lon="-1.69845">
        <ele>25.5</ele>
        <time>2013-10-13T08:41:10Z</time>
      </trkpt>
      <trkpt lat="47.23539" lon="-1.69836">
        <ele>25.5</ele>
        <time>2013-10-13T08:41:17Z</time>
      </trkpt>
      <trkpt lat="47.23548" lon="-1.6983">
        <ele>28.8</ele>
        <time>2013-10-13T08:42:42Z</time>
      </trkpt>
      <trkpt lat="47.23553" lon="-1.69816">
        <ele>27.8</ele>
        <time>2013-10-13T08:43:42Z</time>
      </trkpt>
      <trkpt lat="47.23557" lon="-1.69804">
        <ele>27.8</ele>
        <time>2013-10-13T08:43:46Z</time>
      </trkpt>
      <trkpt lat="47.23563" lon="-1.6979">
        <ele>28.1</ele>
        <time>2013-10-13T08:43:52Z</time>
      </trkpt>
      <trkpt lat="47.23569" lon="-1.6978">
        <ele>28.2</ele>
        <time>2013-10-13T08:43:57Z</time>
      </trkpt>
      <trkpt lat="47.23577" lon="-1.6977">
        <ele>28.5</ele>
        <time>2013-10-13T08:44:03Z</time>
      </trkpt>
      <trkpt lat="47.23581" lon="-1.69756">
        <ele>28.8</ele>
        <time>2013-10-13T08:44:09Z</time>
      </trkpt>
      <trkpt lat="47.23584" lon="-1.69743">
        <ele>28.7</ele>
        <time>2013-10-13T08:45:02Z</time>
      </trkpt>
      <trkpt lat="47.23592" lon="-1.69736">
        <ele>25.9</ele>
        <time>2013-10-13T08:47:14Z</time>
      </trkpt>
      <trkpt lat="47.23597" lon="-1.69723">
        <ele>26</ele>
        <time>2013-10-13T08:47:19Z</time>
      </trkpt>
      <trkpt lat="47.23602" lon="-1.69711">
        <ele>26.1</ele>
        <time>2013-10-13T08:47:21Z</time>
      </trkpt>
      <trkpt lat="47.23608" lon="-1.69698">
        <ele>26.5</ele>
        <time>2013-10-13T08:47:24Z</time>
      </trkpt>
      <trkpt lat="47.23615" lon="-1.69685">
        <ele>26.8</ele>
        <time>2013-10-13T08:47:27Z</time>
      </trkpt>
      <trkpt lat="47.23622" lon="-1.69675">
        <ele>27.2</ele>
        <time>2013-10-13T08:47:30Z</time>
      </trkpt>
      <trkpt lat="47.23627" lon="-1.69664">
        <ele>27.8</ele>
        <time>2013-10-13T08:47:33Z</time>
      </trkpt>
      <trkpt lat="47.23634" lon="-1.69653">
        <ele>28</ele>
        <time>2013-10-13T08:47:36Z</time>
      </trkpt>
      <trkpt lat="47.23643" lon="-1.6964">
        <ele>28.4</ele>
        <time>2013-10-13T08:47:40Z</time>
      </trkpt>
      <trkpt lat="47.23649" lon="-1.69629">
        <ele>29</ele>
        <time>2013-10-13T08:47:43Z</time>
      </trkpt>
      <trkpt lat="47.23657" lon="-1.69619">
        <ele>29.5</ele>
        <time>2013-10-13T08:47:46Z</time>
      </trkpt>
      <trkpt lat="47.23664" lon="-1.69609">
        <ele>30</ele>
        <time>2013-10-13T08:47:49Z</time>
      </trkpt>
      <trkpt lat="47.23672" lon="-1.69601">
        <ele>30.3</ele>
        <time>2013-10-13T08:47:52Z</time>
      </trkpt>
      <trkpt lat="47.2368" lon="-1.69594">
        <ele>30.5</ele>
        <time>2013-10-13T08:47:55Z</time>
      </trkpt>
      <trkpt lat="47.2369" lon="-1.69585">
        <ele>30.7</ele>
        <time>2013-10-13T08:47:58Z</time>
      </trkpt>
      <trkpt lat="47.23701" lon="-1.69575">
        <ele>31</ele>
        <time>2013-10-13T08:48:01Z</time>
      </trkpt>
      <trkpt lat="47.23712" lon="-1.69568">
        <ele>34.1</ele>
        <time>2013-10-13T08:48:04Z</time>
      </trkpt>
      <trkpt lat="47.23723" lon="-1.6956">
        <ele>34.8</ele>
        <time>2013-10-13T08:48:07Z</time>
      </trkpt>
      <trkpt lat="47.23734" lon="-1.69553">
        <ele>35</ele>
        <time>2013-10-13T08:48:10Z</time>
      </trkpt>
      <trkpt lat="47.23744" lon="-1.69546">
        <ele>35.2</ele>
        <time>2013-10-13T08:48:13Z</time>
      </trkpt>
      <trkpt lat="47.23754" lon="-1.69539">
        <ele>35.5</ele>
        <time>2013-10-13T08:48:16Z</time>
      </trkpt>
      <trkpt lat="47.23766" lon="-1.69532">
        <ele>35.6</ele>
        <time>2013-10-13T08:48:19Z</time>
      </trkpt>
      <trkpt lat="47.23777" lon="-1.69524">
        <ele>35.6</ele>
        <time>2013-10-13T08:48:22Z</time>
      </trkpt>
      <trkpt lat="47.23786" lon="-1.69519">
        <ele>35.8</ele>
        <time>2013-10-13T08:48:24Z</time>
      </trkpt>
      <trkpt lat="47.23796" lon="-1.69513">
        <ele>35.9</ele>
        <time>2013-10-13T08:48:26Z</time>
      </trkpt>
      <trkpt lat="47.23805" lon="-1.69508">
        <ele>36.7</ele>
        <time>2013-10-13T08:48:28Z</time>
      </trkpt>
      <trkpt lat="47.23816" lon="-1.695">
        <ele>36.2</ele>
        <time>2013-10-13T08:48:31Z</time>
      </trkpt>
      <trkpt lat="47.23826" lon="-1.69495">
        <ele>35.5</ele>
        <time>2013-10-13T08:48:33Z</time>
      </trkpt>
      <trkpt lat="47.23836" lon="-1.69489">
        <ele>34.1</ele>
        <time>2013-10-13T08:48:35Z</time>
      </trkpt>
      <trkpt lat="47.23845" lon="-1.69485">
        <ele>34.1</ele>
        <time>2013-10-13T08:48:37Z</time>
      </trkpt>
      <trkpt lat="47.23854" lon="-1.69479">
        <ele>34.1</ele>
        <time>2013-10-13T08:48:39Z</time>
      </trkpt>
      <trkpt lat="47.23863" lon="-1.69472">
        <ele>33.6</ele>
        <time>2013-10-13T08:48:41Z</time>
      </trkpt>
      <trkpt lat="47.23875" lon="-1.69465">
        <ele>33.5</ele>
        <time>2013-10-13T08:48:44Z</time>
      </trkpt>
      <trkpt lat="47.23885" lon="-1.69468">
        <ele>33.4</ele>
        <time>2013-10-13T08:48:48Z</time>
      </trkpt>
      <trkpt lat="47.23893" lon="-1.69476">
        <ele>33.5</ele>
        <time>2013-10-13T08:48:51Z</time>
      </trkpt>
      <trkpt lat="47.23901" lon="-1.69482">
        <ele>33.6</ele>
        <time>2013-10-13T08:48:59Z</time>
      </trkpt>
      <trkpt lat="47.23908" lon="-1.69491">
        <ele>34.8</ele>
        <time>2013-10-13T08:49:04Z</time>
      </trkpt>
      <trkpt lat="47.23916" lon="-1.69504">
        <ele>35.3</ele>
        <time>2013-10-13T08:49:08Z</time>
      </trkpt>
      <trkpt lat="47.23923" lon="-1.69518">
        <ele>35.6</ele>
        <time>2013-10-13T08:49:12Z</time>
      </trkpt>
      <trkpt lat="47.23929" lon="-1.69531">
        <ele>35.8</ele>
        <time>2013-10-13T08:49:15Z</time>
      </trkpt>
      <trkpt lat="47.23938" lon="-1.69546">
        <ele>36.1</ele>
        <time>2013-10-13T08:49:18Z</time>
      </trkpt>
      <trkpt lat="47.23947" lon="-1.6956">
        <ele>36.3</ele>
        <time>2013-10-13T08:49:21Z</time>
      </trkpt>
      <trkpt lat="47.23954" lon="-1.69573">
        <ele>36.4</ele>
        <time>2013-10-13T08:49:24Z</time>
      </trkpt>
      <trkpt lat="47.23961" lon="-1.69585">
        <ele>36.9</ele>
        <time>2013-10-13T08:49:28Z</time>
      </trkpt>
      <trkpt lat="47.23967" lon="-1.69596">
        <ele>37.6</ele>
        <time>2013-10-13T08:49:33Z</time>
      </trkpt>
      <trkpt lat="47.23973" lon="-1.69609">
        <ele>37.8</ele>
        <time>2013-10-13T08:49:36Z</time>
      </trkpt>
      <trkpt lat="47.23977" lon="-1.69625">
        <ele>38.6</ele>
        <time>2013-10-13T08:49:39Z</time>
      </trkpt>
      <trkpt lat="47.23983" lon="-1.69643">
        <ele>38.2</ele>
        <time>2013-10-13T08:49:42Z</time>
      </trkpt>
      <trkpt lat="47.2399" lon="-1.69659">
        <ele>37.7</ele>
        <time>2013-10-13T08:49:44Z</time>
      </trkpt>
      <trkpt lat="47.23996" lon="-1.69673">
        <ele>37</ele>
        <time>2013-10-13T08:49:46Z</time>
      </trkpt>
      <trkpt lat="47.24003" lon="-1.69691">
        <ele>35.4</ele>
        <time>2013-10-13T08:49:48Z</time>
      </trkpt>
      <trkpt lat="47.24007" lon="-1.69709">
        <ele>33.6</ele>
        <time>2013-10-13T08:49:50Z</time>
      </trkpt>
      <trkpt lat="47.24012" lon="-1.69728">
        <ele>31.8</ele>
        <time>2013-10-13T08:49:52Z</time>
      </trkpt>
      <trkpt lat="47.24018" lon="-1.69746">
        <ele>32.3</ele>
        <time>2013-10-13T08:49:54Z</time>
      </trkpt>
      <trkpt lat="47.24025" lon="-1.69764">
        <ele>32.6</ele>
        <time>2013-10-13T08:49:56Z</time>
      </trkpt>
      <trkpt lat="47.2403" lon="-1.69782">
        <ele>32.9</ele>
        <time>2013-10-13T08:49:58Z</time>
      </trkpt>
      <trkpt lat="47.24035" lon="-1.69801">
        <ele>34.2</ele>
        <time>2013-10-13T08:50:01Z</time>
      </trkpt>
      <trkpt lat="47.24038" lon="-1.69815">
        <ele>35.2</ele>
        <time>2013-10-13T08:50:03Z</time>
      </trkpt>
      <trkpt lat="47.2404" lon="-1.69828">
        <ele>36.8</ele>
        <time>2013-10-13T08:50:05Z</time>
      </trkpt>
      <trkpt lat="47.24042" lon="-1.69842">
        <ele>37.7</ele>
        <time>2013-10-13T08:50:07Z</time>
      </trkpt>
      <trkpt lat="47.24045" lon="-1.69855">
        <ele>37.9</ele>
        <time>2013-10-13T08:50:09Z</time>
      </trkpt>
      <trkpt lat="47.24048" lon="-1.69868">
        <ele>38.2</ele>
        <time>2013-10-13T08:50:11Z</time>
      </trkpt>
      <trkpt lat="47.24053" lon="-1.69887">
        <ele>40.7</ele>
        <time>2013-10-13T08:50:14Z</time>
      </trkpt>
      <trkpt lat="47.24054" lon="-1.699">
        <ele>40.7</ele>
        <time>2013-10-13T08:50:16Z</time>
      </trkpt>
      <trkpt lat="47.24053" lon="-1.69921">
        <ele>40.9</ele>
        <time>2013-10-13T08:50:19Z</time>
      </trkpt>
      <trkpt lat="47.24056" lon="-1.69934">
        <ele>41.1</ele>
        <time>2013-10-13T08:50:21Z</time>
      </trkpt>
      <trkpt lat="47.2406" lon="-1.69951">
        <ele>42</ele>
        <time>2013-10-13T08:50:23Z</time>
      </trkpt>
      <trkpt lat="47.24064" lon="-1.69965">
        <ele>42.5</ele>
        <time>2013-10-13T08:50:25Z</time>
      </trkpt>
      <trkpt lat="47.2407" lon="-1.69981">
        <ele>44.6</ele>
        <time>2013-10-13T08:50:28Z</time>
      </trkpt>
      <trkpt lat="47.24074" lon="-1.69995">
        <ele>44.6</ele>
        <time>2013-10-13T08:50:30Z</time>
      </trkpt>
      <trkpt lat="47.24078" lon="-1.7001">
        <ele>44</ele>
        <time>2013-10-13T08:50:32Z</time>
      </trkpt>
      <trkpt lat="47.24082" lon="-1.70024">
        <ele>43.6</ele>
        <time>2013-10-13T08:50:34Z</time>
      </trkpt>
      <trkpt lat="47.24086" lon="-1.70037">
        <ele>42.7</ele>
        <time>2013-10-13T08:50:36Z</time>
      </trkpt>
      <trkpt lat="47.2409" lon="-1.7005">
        <ele>42.4</ele>
        <time>2013-10-13T08:50:38Z</time>
      </trkpt>
      <trkpt lat="47.24093" lon="-1.70063">
        <ele>41.9</ele>
        <time>2013-10-13T08:50:40Z</time>
      </trkpt>
      <trkpt lat="47.24094" lon="-1.70079">
        <ele>41.9</ele>
        <time>2013-10-13T08:50:42Z</time>
      </trkpt>
      <trkpt lat="47.24095" lon="-1.70093">
        <ele>41.7</ele>
        <time>2013-10-13T08:50:44Z</time>
      </trkpt>
      <trkpt lat="47.24097" lon="-1.70107">
        <ele>41.7</ele>
        <time>2013-10-13T08:50:46Z</time>
      </trkpt>
      <trkpt lat="47.24098" lon="-1.70122">
        <ele>41.1</ele>
        <time>2013-10-13T08:50:48Z</time>
      </trkpt>
      <trkpt lat="47.24102" lon="-1.70138">
        <ele>40.5</ele>
        <time>2013-10-13T08:50:51Z</time>
      </trkpt>
      <trkpt lat="47.24109" lon="-1.70153">
        <ele>40.6</ele>
        <time>2013-10-13T08:50:54Z</time>
      </trkpt>
      <trkpt lat="47.24116" lon="-1.70171">
        <ele>40.9</ele>
        <time>2013-10-13T08:50:57Z</time>
      </trkpt>
      <trkpt lat="47.2412" lon="-1.70186">
        <ele>40.9</ele>
        <time>2013-10-13T08:50:59Z</time>
      </trkpt>
      <trkpt lat="47.24122" lon="-1.702">
        <ele>40.2</ele>
        <time>2013-10-13T08:51:01Z</time>
      </trkpt>
      <trkpt lat="47.24125" lon="-1.70214">
        <ele>40.1</ele>
        <time>2013-10-13T08:51:03Z</time>
      </trkpt>
      <trkpt lat="47.24128" lon="-1.70234">
        <ele>40.6</ele>
        <time>2013-10-13T08:51:06Z</time>
      </trkpt>
      <trkpt lat="47.2413" lon="-1.70247">
        <ele>40.8</ele>
        <time>2013-10-13T08:51:08Z</time>
      </trkpt>
      <trkpt lat="47.24132" lon="-1.70263">
        <ele>40.9</ele>
        <time>2013-10-13T08:51:10Z</time>
      </trkpt>
      <trkpt lat="47.24133" lon="-1.7028">
        <ele>41.1</ele>
        <time>2013-10-13T08:51:12Z</time>
      </trkpt>
      <trkpt lat="47.24137" lon="-1.70296">
        <ele>42.1</ele>
        <time>2013-10-13T08:51:14Z</time>
      </trkpt>
      <trkpt lat="47.24144" lon="-1.70307">
        <ele>42.8</ele>
        <time>2013-10-13T08:51:16Z</time>
      </trkpt>
      <trkpt lat="47.24152" lon="-1.70301">
        <ele>42.6</ele>
        <time>2013-10-13T08:51:19Z</time>
      </trkpt>
      <trkpt lat="47.24161" lon="-1.70293">
        <ele>42.5</ele>
        <time>2013-10-13T08:51:22Z</time>
      </trkpt>
      <trkpt lat="47.24171" lon="-1.70283">
        <ele>42.5</ele>
        <time>2013-10-13T08:51:25Z</time>
      </trkpt>
      <trkpt lat="47.2418" lon="-1.70274">
        <ele>42.5</ele>
        <time>2013-10-13T08:51:28Z</time>
      </trkpt>
      <trkpt lat="47.24189" lon="-1.70265">
        <ele>42.6</ele>
        <time>2013-10-13T08:51:31Z</time>
      </trkpt>
      <trkpt lat="47.24199" lon="-1.70258">
        <ele>42.8</ele>
        <time>2013-10-13T08:51:34Z</time>
      </trkpt>
      <trkpt lat="47.24209" lon="-1.70249">
        <ele>43.1</ele>
        <time>2013-10-13T08:51:37Z</time>
      </trkpt>
      <trkpt lat="47.24218" lon="-1.7024">
        <ele>43.2</ele>
        <time>2013-10-13T08:51:40Z</time>
      </trkpt>
      <trkpt lat="47.24226" lon="-1.70232">
        <ele>43.4</ele>
        <time>2013-10-13T08:51:43Z</time>
      </trkpt>
      <trkpt lat="47.24235" lon="-1.70224">
        <ele>43.7</ele>
        <time>2013-10-13T08:51:46Z</time>
      </trkpt>
      <trkpt lat="47.24244" lon="-1.70216">
        <ele>44</ele>
        <time>2013-10-13T08:51:49Z</time>
      </trkpt>
      <trkpt lat="47.24253" lon="-1.70206">
        <ele>44.2</ele>
        <time>2013-10-13T08:51:52Z</time>
      </trkpt>
      <trkpt lat="47.24264" lon="-1.702">
        <ele>44.4</ele>
        <time>2013-10-13T08:51:56Z</time>
      </trkpt>
      <trkpt lat="47.24272" lon="-1.70192">
        <ele>44.5</ele>
        <time>2013-10-13T08:52:01Z</time>
      </trkpt>
      <trkpt lat="47.24283" lon="-1.70192">
        <ele>44.8</ele>
        <time>2013-10-13T08:52:07Z</time>
      </trkpt>
      <trkpt lat="47.24291" lon="-1.70187">
        <ele>45</ele>
        <time>2013-10-13T08:52:12Z</time>
      </trkpt>
      <trkpt lat="47.243" lon="-1.70176">
        <ele>45.2</ele>
        <time>2013-10-13T08:52:16Z</time>
      </trkpt>
      <trkpt lat="47.24308" lon="-1.70164">
        <ele>45.4</ele>
        <time>2013-10-13T08:52:19Z</time>
      </trkpt>
      <trkpt lat="47.24315" lon="-1.70152">
        <ele>47.4</ele>
        <time>2013-10-13T08:52:21Z</time>
      </trkpt>
      <trkpt lat="47.24325" lon="-1.70139">
        <ele>47.8</ele>
        <time>2013-10-13T08:52:23Z</time>
      </trkpt>
      <trkpt lat="47.24335" lon="-1.70126">
        <ele>47.4</ele>
        <time>2013-10-13T08:52:25Z</time>
      </trkpt>
      <trkpt lat="47.24343" lon="-1.70115">
        <ele>46.1</ele>
        <time>2013-10-13T08:52:27Z</time>
      </trkpt>
      <trkpt lat="47.24351" lon="-1.70107">
        <ele>45.7</ele>
        <time>2013-10-13T08:52:29Z</time>
      </trkpt>
      <trkpt lat="47.2436" lon="-1.70097">
        <ele>45.5</ele>
        <time>2013-10-13T08:52:31Z</time>
      </trkpt>
      <trkpt lat="47.24369" lon="-1.70089">
        <ele>45.3</ele>
        <time>2013-10-13T08:52:33Z</time>
      </trkpt>
      <trkpt lat="47.24377" lon="-1.7008">
        <ele>43.9</ele>
        <time>2013-10-13T08:52:35Z</time>
      </trkpt>
      <trkpt lat="47.24386" lon="-1.70069">
        <ele>42.8</ele>
        <time>2013-10-13T08:52:37Z</time>
      </trkpt>
      <trkpt lat="47.24393" lon="-1.70057">
        <ele>43</ele>
        <time>2013-10-13T08:52:39Z</time>
      </trkpt>
      <trkpt lat="47.244" lon="-1.70045">
        <ele>43.3</ele>
        <time>2013-10-13T08:52:41Z</time>
      </trkpt>
      <trkpt lat="47.24409" lon="-1.70033">
        <ele>44.1</ele>
        <time>2013-10-13T08:52:43Z</time>
      </trkpt>
      <trkpt lat="47.24416" lon="-1.70022">
        <ele>44.2</ele>
        <time>2013-10-13T08:52:45Z</time>
      </trkpt>
      <trkpt lat="47.24424" lon="-1.70012">
        <ele>43.5</ele>
        <time>2013-10-13T08:52:47Z</time>
      </trkpt>
      <trkpt lat="47.24431" lon="-1.70001">
        <ele>43.6</ele>
        <time>2013-10-13T08:52:49Z</time>
      </trkpt>
      <trkpt lat="47.24441" lon="-1.69987">
        <ele>44.8</ele>
        <time>2013-10-13T08:52:52Z</time>
      </trkpt>
      <trkpt lat="47.24451" lon="-1.69973">
        <ele>45.6</ele>
        <time>2013-10-13T08:52:55Z</time>
      </trkpt>
      <trkpt lat="47.24458" lon="-1.69964">
        <ele>45.7</ele>
        <time>2013-10-13T08:52:57Z</time>
      </trkpt>
      <trkpt lat="47.24466" lon="-1.69951">
        <ele>45.9</ele>
        <time>2013-10-13T08:53:00Z</time>
      </trkpt>
      <trkpt lat="47.24472" lon="-1.69937">
        <ele>46.1</ele>
        <time>2013-10-13T08:53:04Z</time>
      </trkpt>
      <trkpt lat="47.2448" lon="-1.69928">
        <ele>46.4</ele>
        <time>2013-10-13T08:53:09Z</time>
      </trkpt>
      <trkpt lat="47.24487" lon="-1.69916">
        <ele>47.9</ele>
        <time>2013-10-13T08:54:00Z</time>
      </trkpt>
      <trkpt lat="47.2449" lon="-1.69902">
        <ele>48.1</ele>
        <time>2013-10-13T08:54:05Z</time>
      </trkpt>
      <trkpt lat="47.24492" lon="-1.69889">
        <ele>48</ele>
        <time>2013-10-13T08:54:09Z</time>
      </trkpt>
      <trkpt lat="47.24502" lon="-1.69882">
        <ele>47.8</ele>
        <time>2013-10-13T08:54:15Z</time>
      </trkpt>
      <trkpt lat="47.24511" lon="-1.69877">
        <ele>48.1</ele>
        <time>2013-10-13T08:54:19Z</time>
      </trkpt>
      <trkpt lat="47.24521" lon="-1.69871">
        <ele>48.2</ele>
        <time>2013-10-13T08:54:22Z</time>
      </trkpt>
      <trkpt lat="47.24533" lon="-1.69866">
        <ele>48.2</ele>
        <time>2013-10-13T08:54:25Z</time>
      </trkpt>
      <trkpt lat="47.24545" lon="-1.69861">
        <ele>48.2</ele>
        <time>2013-10-13T08:54:28Z</time>
      </trkpt>
      <trkpt lat="47.24557" lon="-1.69858">
        <ele>48.2</ele>
        <time>2013-10-13T08:54:31Z</time>
      </trkpt>
      <trkpt lat="47.24568" lon="-1.69858">
        <ele>48.4</ele>
        <time>2013-10-13T08:54:35Z</time>
      </trkpt>
      <trkpt lat="47.24579" lon="-1.6986">
        <ele>48.7</ele>
        <time>2013-10-13T08:54:39Z</time>
      </trkpt>
      <trkpt lat="47.24589" lon="-1.69858">
        <ele>48.8</ele>
        <time>2013-10-13T08:54:43Z</time>
      </trkpt>
      <trkpt lat="47.24599" lon="-1.69855">
        <ele>49</ele>
        <time>2013-10-13T08:54:46Z</time>
      </trkpt>
      <trkpt lat="47.24608" lon="-1.69854">
        <ele>48.9</ele>
        <time>2013-10-13T08:54:49Z</time>
      </trkpt>
      <trkpt lat="47.24618" lon="-1.69854">
        <ele>48.7</ele>
        <time>2013-10-13T08:54:52Z</time>
      </trkpt>
      <trkpt lat="47.2463" lon="-1.69855">
        <ele>48.4</ele>
        <time>2013-10-13T08:54:56Z</time>
      </trkpt>
      <trkpt lat="47.24639" lon="-1.69856">
        <ele>48.2</ele>
        <time>2013-10-13T08:54:59Z</time>
      </trkpt>
      <trkpt lat="47.2465" lon="-1.69855">
        <ele>48.5</ele>
        <time>2013-10-13T08:55:03Z</time>
      </trkpt>
      <trkpt lat="47.24661" lon="-1.69847">
        <ele>49.2</ele>
        <time>2013-10-13T08:55:06Z</time>
      </trkpt>
      <trkpt lat="47.24671" lon="-1.69841">
        <ele>50.1</ele>
        <time>2013-10-13T08:55:10Z</time>
      </trkpt>
      <trkpt lat="47.24678" lon="-1.69831">
        <ele>50.4</ele>
        <time>2013-10-13T08:55:13Z</time>
      </trkpt>
      <trkpt lat="47.24689" lon="-1.69822">
        <ele>51.2</ele>
        <time>2013-10-13T08:55:17Z</time>
      </trkpt>
      <trkpt lat="47.247" lon="-1.69815">
        <ele>51.6</ele>
        <time>2013-10-13T08:55:20Z</time>
      </trkpt>
      <trkpt lat="47.24709" lon="-1.69809">
        <ele>51.8</ele>
        <time>2013-10-13T08:55:23Z</time>
      </trkpt>
      <trkpt lat="47.24718" lon="-1.69801">
        <ele>51.6</ele>
        <time>2013-10-13T08:55:28Z</time>
      </trkpt>
      <trkpt lat="47.24728" lon="-1.69793">
        <ele>51.5</ele>
        <time>2013-10-13T08:55:33Z</time>
      </trkpt>
      <trkpt lat="47.24737" lon="-1.69787">
        <ele>51.7</ele>
        <time>2013-10-13T08:55:43Z</time>
      </trkpt>
      <trkpt lat="47.24743" lon="-1.69775">
        <ele>52.5</ele>
        <time>2013-10-13T08:55:53Z</time>
      </trkpt>
      <trkpt lat="47.24753" lon="-1.69768">
        <ele>53.1</ele>
        <time>2013-10-13T08:55:57Z</time>
      </trkpt>
      <trkpt lat="47.24762" lon="-1.69763">
        <ele>53.3</ele>
        <time>2013-10-13T08:56:00Z</time>
      </trkpt>
      <trkpt lat="47.24772" lon="-1.69754">
        <ele>53.4</ele>
        <time>2013-10-13T08:56:04Z</time>
      </trkpt>
      <trkpt lat="47.24782" lon="-1.69749">
        <ele>53.5</ele>
        <time>2013-10-13T08:56:07Z</time>
      </trkpt>
      <trkpt lat="47.24791" lon="-1.69742">
        <ele>53.8</ele>
        <time>2013-10-13T08:56:10Z</time>
      </trkpt>
      <trkpt lat="47.24801" lon="-1.69734">
        <ele>53.9</ele>
        <time>2013-10-13T08:56:13Z</time>
      </trkpt>
      <trkpt lat="47.24809" lon="-1.69729">
        <ele>54</ele>
        <time>2013-10-13T08:56:15Z</time>
      </trkpt>
      <trkpt lat="47.24821" lon="-1.69721">
        <ele>54</ele>
        <time>2013-10-13T08:56:18Z</time>
      </trkpt>
      <trkpt lat="47.24831" lon="-1.69713">
        <ele>54.1</ele>
        <time>2013-10-13T08:56:21Z</time>
      </trkpt>
      <trkpt lat="47.24841" lon="-1.69706">
        <ele>54.2</ele>
        <time>2013-10-13T08:56:24Z</time>
      </trkpt>
      <trkpt lat="47.24849" lon="-1.69699">
        <ele>54.3</ele>
        <time>2013-10-13T08:56:26Z</time>
      </trkpt>
      <trkpt lat="47.24858" lon="-1.69692">
        <ele>54.5</ele>
        <time>2013-10-13T08:56:29Z</time>
      </trkpt>
      <trkpt lat="47.24866" lon="-1.69685">
        <ele>54.9</ele>
        <time>2013-10-13T08:56:32Z</time>
      </trkpt>
      <trkpt lat="47.24876" lon="-1.69677">
        <ele>55.5</ele>
        <time>2013-10-13T08:56:36Z</time>
      </trkpt>
      <trkpt lat="47.24878" lon="-1.69663">
        <ele>55.8</ele>
        <time>2013-10-13T08:56:41Z</time>
      </trkpt>
      <trkpt lat="47.24876" lon="-1.69648">
        <ele>56.1</ele>
        <time>2013-10-13T08:56:46Z</time>
      </trkpt>
      <trkpt lat="47.2488" lon="-1.69635">
        <ele>56.3</ele>
        <time>2013-10-13T08:56:50Z</time>
      </trkpt>
      <trkpt lat="47.24885" lon="-1.69619">
        <ele>56.6</ele>
        <time>2013-10-13T08:56:54Z</time>
      </trkpt>
      <trkpt lat="47.2489" lon="-1.69607">
        <ele>56.9</ele>
        <time>2013-10-13T08:56:57Z</time>
      </trkpt>
      <trkpt lat="47.24897" lon="-1.69596">
        <ele>57.2</ele>
        <time>2013-10-13T08:57:00Z</time>
      </trkpt>
      <trkpt lat="47.24904" lon="-1.69585">
        <ele>57.3</ele>
        <time>2013-10-13T08:57:02Z</time>
      </trkpt>
      <trkpt lat="47.24913" lon="-1.69573">
        <ele>57.2</ele>
        <time>2013-10-13T08:57:04Z</time>
      </trkpt>
      <trkpt lat="47.24921" lon="-1.69563">
        <ele>57.2</ele>
        <time>2013-10-13T08:57:06Z</time>
      </trkpt>
      <trkpt lat="47.24929" lon="-1.69555">
        <ele>57.2</ele>
        <time>2013-10-13T08:57:08Z</time>
      </trkpt>
      <trkpt lat="47.24938" lon="-1.69546">
        <ele>57.1</ele>
        <time>2013-10-13T08:57:10Z</time>
      </trkpt>
      <trkpt lat="47.24947" lon="-1.69538">
        <ele>56.9</ele>
        <time>2013-10-13T08:57:12Z</time>
      </trkpt>
      <trkpt lat="47.24956" lon="-1.69532">
        <ele>57</ele>
        <time>2013-10-13T08:57:14Z</time>
      </trkpt>
      <trkpt lat="47.24968" lon="-1.69527">
        <ele>56.1</ele>
        <time>2013-10-13T08:57:16Z</time>
      </trkpt>
      <trkpt lat="47.24981" lon="-1.69521">
        <ele>54.5</ele>
        <time>2013-10-13T08:57:18Z</time>
      </trkpt>
      <trkpt lat="47.24992" lon="-1.69517">
        <ele>54.3</ele>
        <time>2013-10-13T08:57:20Z</time>
      </trkpt>
      <trkpt lat="47.25001" lon="-1.69513">
        <ele>54</ele>
        <time>2013-10-13T08:57:22Z</time>
      </trkpt>
      <trkpt lat="47.25012" lon="-1.69509">
        <ele>54.3</ele>
        <time>2013-10-13T08:57:24Z</time>
      </trkpt>
      <trkpt lat="47.25023" lon="-1.69506">
        <ele>53.6</ele>
        <time>2013-10-13T08:57:26Z</time>
      </trkpt>
      <trkpt lat="47.25034" lon="-1.69503">
        <ele>52.6</ele>
        <time>2013-10-13T08:57:28Z</time>
      </trkpt>
      <trkpt lat="47.25045" lon="-1.69501">
        <ele>51.9</ele>
        <time>2013-10-13T08:57:30Z</time>
      </trkpt>
      <trkpt lat="47.25057" lon="-1.69496">
        <ele>51</ele>
        <time>2013-10-13T08:57:32Z</time>
      </trkpt>
      <trkpt lat="47.25069" lon="-1.69485">
        <ele>51.6</ele>
        <time>2013-10-13T08:57:34Z</time>
      </trkpt>
      <trkpt lat="47.2508" lon="-1.69479">
        <ele>51.7</ele>
        <time>2013-10-13T08:57:36Z</time>
      </trkpt>
      <trkpt lat="47.25089" lon="-1.69475">
        <ele>51.8</ele>
        <time>2013-10-13T08:57:38Z</time>
      </trkpt>
      <trkpt lat="47.25101" lon="-1.6947">
        <ele>52</ele>
        <time>2013-10-13T08:57:41Z</time>
      </trkpt>
      <trkpt lat="47.2511" lon="-1.69463">
        <ele>51.9</ele>
        <time>2013-10-13T08:57:44Z</time>
      </trkpt>
      <trkpt lat="47.25121" lon="-1.69463">
        <ele>51.7</ele>
        <time>2013-10-13T08:57:48Z</time>
      </trkpt>
      <trkpt lat="47.2513" lon="-1.69465">
        <ele>51.5</ele>
        <time>2013-10-13T08:57:51Z</time>
      </trkpt>
      <trkpt lat="47.25139" lon="-1.69468">
        <ele>51.5</ele>
        <time>2013-10-13T08:57:57Z</time>
      </trkpt>
      <trkpt lat="47.25151" lon="-1.6947">
        <ele>51.5</ele>
        <time>2013-10-13T08:58:02Z</time>
      </trkpt>
      <trkpt lat="47.2516" lon="-1.69471">
        <ele>51.4</ele>
        <time>2013-10-13T08:58:07Z</time>
      </trkpt>
      <trkpt lat="47.25171" lon="-1.69473">
        <ele>51.5</ele>
        <time>2013-10-13T08:58:11Z</time>
      </trkpt>
      <trkpt lat="47.25182" lon="-1.69473">
        <ele>51.2</ele>
        <time>2013-10-13T08:58:14Z</time>
      </trkpt>
      <trkpt lat="47.25192" lon="-1.69473">
        <ele>50.8</ele>
        <time>2013-10-13T08:58:16Z</time>
      </trkpt>
      <trkpt lat="47.25201" lon="-1.69474">
        <ele>50.4</ele>
        <time>2013-10-13T08:58:18Z</time>
      </trkpt>
      <trkpt lat="47.25211" lon="-1.69476">
        <ele>50</ele>
        <time>2013-10-13T08:58:20Z</time>
      </trkpt>
      <trkpt lat="47.25223" lon="-1.69478">
        <ele>49.8</ele>
        <time>2013-10-13T08:58:22Z</time>
      </trkpt>
      <trkpt lat="47.25237" lon="-1.69483">
        <ele>49.7</ele>
        <time>2013-10-13T08:58:24Z</time>
      </trkpt>
      <trkpt lat="47.2525" lon="-1.69487">
        <ele>49.1</ele>
        <time>2013-10-13T08:58:26Z</time>
      </trkpt>
      <trkpt lat="47.25263" lon="-1.69494">
        <ele>50.3</ele>
        <time>2013-10-13T08:58:28Z</time>
      </trkpt>
      <trkpt lat="47.25274" lon="-1.695">
        <ele>50.5</ele>
        <time>2013-10-13T08:58:30Z</time>
      </trkpt>
      <trkpt lat="47.25283" lon="-1.69506">
        <ele>50.9</ele>
        <time>2013-10-13T08:58:32Z</time>
      </trkpt>
      <trkpt lat="47.25293" lon="-1.69513">
        <ele>52.7</ele>
        <time>2013-10-13T08:58:34Z</time>
      </trkpt>
      <trkpt lat="47.25302" lon="-1.69522">
        <ele>55.4</ele>
        <time>2013-10-13T08:58:36Z</time>
      </trkpt>
      <trkpt lat="47.25311" lon="-1.69531">
        <ele>56.6</ele>
        <time>2013-10-13T08:58:38Z</time>
      </trkpt>
      <trkpt lat="47.25318" lon="-1.6954">
        <ele>56.8</ele>
        <time>2013-10-13T08:58:40Z</time>
      </trkpt>
      <trkpt lat="47.25325" lon="-1.69549">
        <ele>57.5</ele>
        <time>2013-10-13T08:58:42Z</time>
      </trkpt>
      <trkpt lat="47.25336" lon="-1.69558">
        <ele>57.4</ele>
        <time>2013-10-13T08:58:45Z</time>
      </trkpt>
      <trkpt lat="47.25348" lon="-1.69564">
        <ele>56.5</ele>
        <time>2013-10-13T08:58:48Z</time>
      </trkpt>
      <trkpt lat="47.25356" lon="-1.69566">
        <ele>55.6</ele>
        <time>2013-10-13T08:58:50Z</time>
      </trkpt>
      <trkpt lat="47.25367" lon="-1.69569">
        <ele>53.3</ele>
        <time>2013-10-13T08:58:52Z</time>
      </trkpt>
      <trkpt lat="47.25377" lon="-1.69574">
        <ele>51.8</ele>
        <time>2013-10-13T08:58:54Z</time>
      </trkpt>
      <trkpt lat="47.25387" lon="-1.69579">
        <ele>50.4</ele>
        <time>2013-10-13T08:58:56Z</time>
      </trkpt>
      <trkpt lat="47.254" lon="-1.69584">
        <ele>49.3</ele>
        <time>2013-10-13T08:58:58Z</time>
      </trkpt>
      <trkpt lat="47.25416" lon="-1.6959">
        <ele>49</ele>
        <time>2013-10-13T08:59:00Z</time>
      </trkpt>
      <trkpt lat="47.2543" lon="-1.69599">
        <ele>49.3</ele>
        <time>2013-10-13T08:59:02Z</time>
      </trkpt>
      <trkpt lat="47.25441" lon="-1.69606">
        <ele>50.1</ele>
        <time>2013-10-13T08:59:04Z</time>
      </trkpt>
      <trkpt lat="47.25452" lon="-1.69613">
        <ele>50.3</ele>
        <time>2013-10-13T08:59:06Z</time>
      </trkpt>
      <trkpt lat="47.25462" lon="-1.6962">
        <ele>50.5</ele>
        <time>2013-10-13T08:59:08Z</time>
      </trkpt>
      <trkpt lat="47.25471" lon="-1.69627">
        <ele>51.7</ele>
        <time>2013-10-13T08:59:10Z</time>
      </trkpt>
      <trkpt lat="47.2548" lon="-1.69634">
        <ele>52.4</ele>
        <time>2013-10-13T08:59:12Z</time>
      </trkpt>
      <trkpt lat="47.25491" lon="-1.6964">
        <ele>52.4</ele>
        <time>2013-10-13T08:59:15Z</time>
      </trkpt>
      <trkpt lat="47.25502" lon="-1.69648">
        <ele>52.5</ele>
        <time>2013-10-13T08:59:18Z</time>
      </trkpt>
      <trkpt lat="47.25511" lon="-1.69653">
        <ele>52.8</ele>
        <time>2013-10-13T08:59:21Z</time>
      </trkpt>
      <trkpt lat="47.2552" lon="-1.69658">
        <ele>53.4</ele>
        <time>2013-10-13T08:59:26Z</time>
      </trkpt>
      <trkpt lat="47.25531" lon="-1.69659">
        <ele>53.1</ele>
        <time>2013-10-13T08:59:31Z</time>
      </trkpt>
      <trkpt lat="47.25541" lon="-1.6966">
        <ele>53</ele>
        <time>2013-10-13T08:59:35Z</time>
      </trkpt>
      <trkpt lat="47.25551" lon="-1.69662">
        <ele>52.8</ele>
        <time>2013-10-13T08:59:40Z</time>
      </trkpt>
      <trkpt lat="47.25562" lon="-1.69661">
        <ele>52.9</ele>
        <time>2013-10-13T08:59:44Z</time>
      </trkpt>
      <trkpt lat="47.25573" lon="-1.69661">
        <ele>52.9</ele>
        <time>2013-10-13T08:59:48Z</time>
      </trkpt>
      <trkpt lat="47.25582" lon="-1.69662">
        <ele>52.8</ele>
        <time>2013-10-13T08:59:51Z</time>
      </trkpt>
      <trkpt lat="47.25592" lon="-1.69666">
        <ele>52.6</ele>
        <time>2013-10-13T08:59:55Z</time>
      </trkpt>
      <trkpt lat="47.25593" lon="-1.69683">
        <ele>52.9</ele>
        <time>2013-10-13T08:59:59Z</time>
      </trkpt>
      <trkpt lat="47.25588" lon="-1.69697">
        <ele>53.3</ele>
        <time>2013-10-13T09:00:02Z</time>
      </trkpt>
      <trkpt lat="47.25584" lon="-1.6971">
        <ele>53.8</ele>
        <time>2013-10-13T09:00:05Z</time>
      </trkpt>
      <trkpt lat="47.25578" lon="-1.69723">
        <ele>54.2</ele>
        <time>2013-10-13T09:00:08Z</time>
      </trkpt>
      <trkpt lat="47.25571" lon="-1.69737">
        <ele>54.6</ele>
        <time>2013-10-13T09:00:11Z</time>
      </trkpt>
      <trkpt lat="47.25564" lon="-1.6975">
        <ele>54.8</ele>
        <time>2013-10-13T09:00:14Z</time>
      </trkpt>
      <trkpt lat="47.25556" lon="-1.69761">
        <ele>55.1</ele>
        <time>2013-10-13T09:00:17Z</time>
      </trkpt>
      <trkpt lat="47.25548" lon="-1.6977">
        <ele>55.5</ele>
        <time>2013-10-13T09:00:20Z</time>
      </trkpt>
      <trkpt lat="47.25539" lon="-1.69779">
        <ele>55.8</ele>
        <time>2013-10-13T09:00:23Z</time>
      </trkpt>
      <trkpt lat="47.25526" lon="-1.69784">
        <ele>55.9</ele>
        <time>2013-10-13T09:00:26Z</time>
      </trkpt>
      <trkpt lat="47.25516" lon="-1.69786">
        <ele>55.8</ele>
        <time>2013-10-13T09:00:28Z</time>
      </trkpt>
      <trkpt lat="47.25503" lon="-1.69793">
        <ele>55.9</ele>
        <time>2013-10-13T09:00:31Z</time>
      </trkpt>
      <trkpt lat="47.25493" lon="-1.69797">
        <ele>56</ele>
        <time>2013-10-13T09:00:33Z</time>
      </trkpt>
      <trkpt lat="47.25485" lon="-1.69803">
        <ele>55.9</ele>
        <time>2013-10-13T09:00:35Z</time>
      </trkpt>
      <trkpt lat="47.25475" lon="-1.69806">
        <ele>55.8</ele>
        <time>2013-10-13T09:00:37Z</time>
      </trkpt>
      <trkpt lat="47.25464" lon="-1.6981">
        <ele>55.6</ele>
        <time>2013-10-13T09:00:39Z</time>
      </trkpt>
      <trkpt lat="47.25453" lon="-1.69813">
        <ele>55.6</ele>
        <time>2013-10-13T09:00:41Z</time>
      </trkpt>
      <trkpt lat="47.25441" lon="-1.6982">
        <ele>54.3</ele>
        <time>2013-10-13T09:00:44Z</time>
      </trkpt>
      <trkpt lat="47.25433" lon="-1.69831">
        <ele>54.1</ele>
        <time>2013-10-13T09:00:47Z</time>
      </trkpt>
      <trkpt lat="47.25426" lon="-1.69845">
        <ele>55.5</ele>
        <time>2013-10-13T09:00:50Z</time>
      </trkpt>
      <trkpt lat="47.2542" lon="-1.69856">
        <ele>55.6</ele>
        <time>2013-10-13T09:00:52Z</time>
      </trkpt>
      <trkpt lat="47.25413" lon="-1.69871">
        <ele>56.1</ele>
        <time>2013-10-13T09:00:55Z</time>
      </trkpt>
      <trkpt lat="47.25405" lon="-1.69884">
        <ele>56.4</ele>
        <time>2013-10-13T09:00:58Z</time>
      </trkpt>
      <trkpt lat="47.25396" lon="-1.69895">
        <ele>56.7</ele>
        <time>2013-10-13T09:01:01Z</time>
      </trkpt>
      <trkpt lat="47.25386" lon="-1.69906">
        <ele>57.5</ele>
        <time>2013-10-13T09:01:04Z</time>
      </trkpt>
      <trkpt lat="47.25379" lon="-1.69918">
        <ele>57.8</ele>
        <time>2013-10-13T09:01:07Z</time>
      </trkpt>
      <trkpt lat="47.25373" lon="-1.69929">
        <ele>60</ele>
        <time>2013-10-13T09:01:10Z</time>
      </trkpt>
      <trkpt lat="47.25371" lon="-1.69946">
        <ele>60.3</ele>
        <time>2013-10-13T09:01:14Z</time>
      </trkpt>
      <trkpt lat="47.25372" lon="-1.69962">
        <ele>60.6</ele>
        <time>2013-10-13T09:01:17Z</time>
      </trkpt>
      <trkpt lat="47.25372" lon="-1.69976">
        <ele>61</ele>
        <time>2013-10-13T09:01:20Z</time>
      </trkpt>
      <trkpt lat="47.25371" lon="-1.6999">
        <ele>61.3</ele>
        <time>2013-10-13T09:01:24Z</time>
      </trkpt>
      <trkpt lat="47.2537" lon="-1.70004">
        <ele>61.4</ele>
        <time>2013-10-13T09:01:28Z</time>
      </trkpt>
      <trkpt lat="47.25373" lon="-1.70017">
        <ele>61.2</ele>
        <time>2013-10-13T09:01:32Z</time>
      </trkpt>
      <trkpt lat="47.25377" lon="-1.7003">
        <ele>61.1</ele>
        <time>2013-10-13T09:01:36Z</time>
      </trkpt>
      <trkpt lat="47.2538" lon="-1.70044">
        <ele>60.8</ele>
        <time>2013-10-13T09:01:40Z</time>
      </trkpt>
      <trkpt lat="47.25387" lon="-1.70056">
        <ele>60</ele>
        <time>2013-10-13T09:01:45Z</time>
      </trkpt>
      <trkpt lat="47.25396" lon="-1.70065">
        <ele>59.2</ele>
        <time>2013-10-13T09:01:49Z</time>
      </trkpt>
      <trkpt lat="47.25405" lon="-1.70072">
        <ele>58.3</ele>
        <time>2013-10-13T09:01:53Z</time>
      </trkpt>
      <trkpt lat="47.25415" lon="-1.70079">
        <ele>57.3</ele>
        <time>2013-10-13T09:01:57Z</time>
      </trkpt>
      <trkpt lat="47.25423" lon="-1.70084">
        <ele>56.6</ele>
        <time>2013-10-13T09:02:00Z</time>
      </trkpt>
      <trkpt lat="47.25434" lon="-1.70089">
        <ele>55.6</ele>
        <time>2013-10-13T09:02:04Z</time>
      </trkpt>
      <trkpt lat="47.25446" lon="-1.70089">
        <ele>54.7</ele>
        <time>2013-10-13T09:02:08Z</time>
      </trkpt>
      <trkpt lat="47.25456" lon="-1.70086">
        <ele>54</ele>
        <time>2013-10-13T09:02:11Z</time>
      </trkpt>
      <trkpt lat="47.25466" lon="-1.70081">
        <ele>52.7</ele>
        <time>2013-10-13T09:02:16Z</time>
      </trkpt>
      <trkpt lat="47.25478" lon="-1.70077">
        <ele>52</ele>
        <time>2013-10-13T09:02:21Z</time>
      </trkpt>
      <trkpt lat="47.25488" lon="-1.70072">
        <ele>51.9</ele>
        <time>2013-10-13T09:02:24Z</time>
      </trkpt>
      <trkpt lat="47.25497" lon="-1.70067">
        <ele>52.3</ele>
        <time>2013-10-13T09:02:27Z</time>
      </trkpt>
      <trkpt lat="47.25506" lon="-1.70062">
        <ele>52.6</ele>
        <time>2013-10-13T09:02:30Z</time>
      </trkpt>
      <trkpt lat="47.25517" lon="-1.70056">
        <ele>53</ele>
        <time>2013-10-13T09:02:34Z</time>
      </trkpt>
      <trkpt lat="47.25525" lon="-1.70054">
        <ele>53.5</ele>
        <time>2013-10-13T09:02:38Z</time>
      </trkpt>
      <trkpt lat="47.25535" lon="-1.70052">
        <ele>53.7</ele>
        <time>2013-10-13T09:02:42Z</time>
      </trkpt>
      <trkpt lat="47.25544" lon="-1.70049">
        <ele>54.1</ele>
        <time>2013-10-13T09:02:46Z</time>
      </trkpt>
      <trkpt lat="47.25556" lon="-1.70048">
        <ele>54.6</ele>
        <time>2013-10-13T09:02:50Z</time>
      </trkpt>
      <trkpt lat="47.25567" lon="-1.70047">
        <ele>54.8</ele>
        <time>2013-10-13T09:02:53Z</time>
      </trkpt>
      <trkpt lat="47.25577" lon="-1.70044">
        <ele>55.4</ele>
        <time>2013-10-13T09:02:57Z</time>
      </trkpt>
      <trkpt lat="47.25587" lon="-1.70038">
        <ele>55.7</ele>
        <time>2013-10-13T09:03:01Z</time>
      </trkpt>
      <trkpt lat="47.256" lon="-1.70033">
        <ele>55.9</ele>
        <time>2013-10-13T09:03:04Z</time>
      </trkpt>
      <trkpt lat="47.2561" lon="-1.70031">
        <ele>56.1</ele>
        <time>2013-10-13T09:03:07Z</time>
      </trkpt>
      <trkpt lat="47.25619" lon="-1.70027">
        <ele>56.7</ele>
        <time>2013-10-13T09:03:10Z</time>
      </trkpt>
      <trkpt lat="47.25629" lon="-1.70021">
        <ele>57.1</ele>
        <time>2013-10-13T09:03:13Z</time>
      </trkpt>
      <trkpt lat="47.25639" lon="-1.70015">
        <ele>57.5</ele>
        <time>2013-10-13T09:03:16Z</time>
      </trkpt>
      <trkpt lat="47.25651" lon="-1.7001">
        <ele>59.6</ele>
        <time>2013-10-13T09:03:19Z</time>
      </trkpt>
      <trkpt lat="47.25662" lon="-1.70005">
        <ele>59.6</ele>
        <time>2013-10-13T09:03:21Z</time>
      </trkpt>
      <trkpt lat="47.25674" lon="-1.69999">
        <ele>60</ele>
        <time>2013-10-13T09:03:23Z</time>
      </trkpt>
      <trkpt lat="47.25684" lon="-1.69993">
        <ele>60</ele>
        <time>2013-10-13T09:03:25Z</time>
      </trkpt>
      <trkpt lat="47.25693" lon="-1.69988">
        <ele>59.8</ele>
        <time>2013-10-13T09:03:27Z</time>
      </trkpt>
      <trkpt lat="47.25706" lon="-1.69983">
        <ele>59.7</ele>
        <time>2013-10-13T09:03:30Z</time>
      </trkpt>
      <trkpt lat="47.25715" lon="-1.69979">
        <ele>59.1</ele>
        <time>2013-10-13T09:04:41Z</time>
      </trkpt>
      <trkpt lat="47.25721" lon="-1.6999">
        <ele>61</ele>
        <time>2013-10-13T09:04:48Z</time>
      </trkpt>
      <trkpt lat="47.25725" lon="-1.70004">
        <ele>62.2</ele>
        <time>2013-10-13T09:04:53Z</time>
      </trkpt>
      <trkpt lat="47.25729" lon="-1.70016">
        <ele>62.6</ele>
        <time>2013-10-13T09:04:58Z</time>
      </trkpt>
      <trkpt lat="47.25735" lon="-1.70026">
        <ele>63.2</ele>
        <time>2013-10-13T09:05:03Z</time>
      </trkpt>
      <trkpt lat="47.25743" lon="-1.70035">
        <ele>63.2</ele>
        <time>2013-10-13T09:05:08Z</time>
      </trkpt>
      <trkpt lat="47.25749" lon="-1.70046">
        <ele>63.7</ele>
        <time>2013-10-13T09:05:12Z</time>
      </trkpt>
      <trkpt lat="47.25753" lon="-1.70059">
        <ele>63.3</ele>
        <time>2013-10-13T09:05:15Z</time>
      </trkpt>
      <trkpt lat="47.2576" lon="-1.70075">
        <ele>59.9</ele>
        <time>2013-10-13T09:05:18Z</time>
      </trkpt>
      <trkpt lat="47.25765" lon="-1.70089">
        <ele>55.1</ele>
        <time>2013-10-13T09:05:20Z</time>
      </trkpt>
      <trkpt lat="47.2577" lon="-1.70105">
        <ele>51</ele>
        <time>2013-10-13T09:05:22Z</time>
      </trkpt>
      <trkpt lat="47.25775" lon="-1.70124">
        <ele>47.5</ele>
        <time>2013-10-13T09:05:24Z</time>
      </trkpt>
      <trkpt lat="47.25781" lon="-1.70149">
        <ele>45.9</ele>
        <time>2013-10-13T09:05:26Z</time>
      </trkpt>
      <trkpt lat="47.25785" lon="-1.70169">
        <ele>46.8</ele>
        <time>2013-10-13T09:05:28Z</time>
      </trkpt>
      <trkpt lat="47.25788" lon="-1.70189">
        <ele>48.9</ele>
        <time>2013-10-13T09:05:30Z</time>
      </trkpt>
      <trkpt lat="47.25792" lon="-1.70208">
        <ele>50.8</ele>
        <time>2013-10-13T09:05:32Z</time>
      </trkpt>
      <trkpt lat="47.25797" lon="-1.70227">
        <ele>50.9</ele>
        <time>2013-10-13T09:05:34Z</time>
      </trkpt>
      <trkpt lat="47.25802" lon="-1.70248">
        <ele>49.5</ele>
        <time>2013-10-13T09:05:36Z</time>
      </trkpt>
      <trkpt lat="47.25806" lon="-1.7027">
        <ele>47.8</ele>
        <time>2013-10-13T09:05:38Z</time>
      </trkpt>
      <trkpt lat="47.25806" lon="-1.70286">
        <ele>46.8</ele>
        <time>2013-10-13T09:05:39Z</time>
      </trkpt>
      <trkpt lat="47.25802" lon="-1.70301">
        <ele>46.4</ele>
        <time>2013-10-13T09:05:40Z</time>
      </trkpt>
      <trkpt lat="47.25796" lon="-1.70315">
        <ele>46.8</ele>
        <time>2013-10-13T09:05:41Z</time>
      </trkpt>
      <trkpt lat="47.25789" lon="-1.70324">
        <ele>47.5</ele>
        <time>2013-10-13T09:05:42Z</time>
      </trkpt>
      <trkpt lat="47.25775" lon="-1.70339">
        <ele>49.8</ele>
        <time>2013-10-13T09:05:44Z</time>
      </trkpt>
      <trkpt lat="47.25762" lon="-1.70351">
        <ele>52</ele>
        <time>2013-10-13T09:05:46Z</time>
      </trkpt>
      <trkpt lat="47.25751" lon="-1.7036">
        <ele>54</ele>
        <time>2013-10-13T09:05:48Z</time>
      </trkpt>
      <trkpt lat="47.25739" lon="-1.70367">
        <ele>55.3</ele>
        <time>2013-10-13T09:05:50Z</time>
      </trkpt>
      <trkpt lat="47.25727" lon="-1.70375">
        <ele>56.3</ele>
        <time>2013-10-13T09:05:52Z</time>
      </trkpt>
      <trkpt lat="47.25718" lon="-1.7038">
        <ele>57.3</ele>
        <time>2013-10-13T09:05:54Z</time>
      </trkpt>
      <trkpt lat="47.25707" lon="-1.70388">
        <ele>59.5</ele>
        <time>2013-10-13T09:05:57Z</time>
      </trkpt>
      <trkpt lat="47.25695" lon="-1.70397">
        <ele>61.6</ele>
        <time>2013-10-13T09:06:00Z</time>
      </trkpt>
      <trkpt lat="47.25684" lon="-1.70406">
        <ele>63</ele>
        <time>2013-10-13T09:06:03Z</time>
      </trkpt>
      <trkpt lat="47.25673" lon="-1.70414">
        <ele>64</ele>
        <time>2013-10-13T09:06:06Z</time>
      </trkpt>
      <trkpt lat="47.25661" lon="-1.70424">
        <ele>64.5</ele>
        <time>2013-10-13T09:06:09Z</time>
      </trkpt>
      <trkpt lat="47.25652" lon="-1.70433">
        <ele>64.1</ele>
        <time>2013-10-13T09:06:12Z</time>
      </trkpt>
      <trkpt lat="47.25642" lon="-1.70441">
        <ele>63.7</ele>
        <time>2013-10-13T09:06:15Z</time>
      </trkpt>
      <trkpt lat="47.25632" lon="-1.70452">
        <ele>63.4</ele>
        <time>2013-10-13T09:06:18Z</time>
      </trkpt>
      <trkpt lat="47.25623" lon="-1.70461">
        <ele>63.4</ele>
        <time>2013-10-13T09:06:21Z</time>
      </trkpt>
      <trkpt lat="47.25616" lon="-1.70469">
        <ele>63.4</ele>
        <time>2013-10-13T09:06:23Z</time>
      </trkpt>
      <trkpt lat="47.25607" lon="-1.7048">
        <ele>63.8</ele>
        <time>2013-10-13T09:06:26Z</time>
      </trkpt>
      <trkpt lat="47.25599" lon="-1.70494">
        <ele>63.8</ele>
        <time>2013-10-13T09:06:29Z</time>
      </trkpt>
      <trkpt lat="47.25593" lon="-1.70507">
        <ele>63.6</ele>
        <time>2013-10-13T09:06:31Z</time>
      </trkpt>
      <trkpt lat="47.25587" lon="-1.7052">
        <ele>62.7</ele>
        <time>2013-10-13T09:06:33Z</time>
      </trkpt>
      <trkpt lat="47.25581" lon="-1.70533">
        <ele>62</ele>
        <time>2013-10-13T09:06:35Z</time>
      </trkpt>
      <trkpt lat="47.25575" lon="-1.70546">
        <ele>61.3</ele>
        <time>2013-10-13T09:06:37Z</time>
      </trkpt>
      <trkpt lat="47.25569" lon="-1.70559">
        <ele>60.7</ele>
        <time>2013-10-13T09:06:39Z</time>
      </trkpt>
      <trkpt lat="47.25564" lon="-1.70572">
        <ele>60.4</ele>
        <time>2013-10-13T09:06:41Z</time>
      </trkpt>
      <trkpt lat="47.25562" lon="-1.70586">
        <ele>60.3</ele>
        <time>2013-10-13T09:06:43Z</time>
      </trkpt>
      <trkpt lat="47.25563" lon="-1.70601">
        <ele>59.5</ele>
        <time>2013-10-13T09:06:45Z</time>
      </trkpt>
      <trkpt lat="47.25566" lon="-1.70618">
        <ele>59.3</ele>
        <time>2013-10-13T09:06:47Z</time>
      </trkpt>
      <trkpt lat="47.2557" lon="-1.70634">
        <ele>61.3</ele>
        <time>2013-10-13T09:06:49Z</time>
      </trkpt>
      <trkpt lat="47.25574" lon="-1.70649">
        <ele>63.2</ele>
        <time>2013-10-13T09:06:51Z</time>
      </trkpt>
      <trkpt lat="47.25579" lon="-1.70665">
        <ele>64.9</ele>
        <time>2013-10-13T09:06:53Z</time>
      </trkpt>
      <trkpt lat="47.25583" lon="-1.70681">
        <ele>66.2</ele>
        <time>2013-10-13T09:06:55Z</time>
      </trkpt>
      <trkpt lat="47.25587" lon="-1.70697">
        <ele>66.6</ele>
        <time>2013-10-13T09:06:57Z</time>
      </trkpt>
      <trkpt lat="47.2559" lon="-1.70712">
        <ele>67.2</ele>
        <time>2013-10-13T09:06:59Z</time>
      </trkpt>
      <trkpt lat="47.25594" lon="-1.70727">
        <ele>67.6</ele>
        <time>2013-10-13T09:07:01Z</time>
      </trkpt>
      <trkpt lat="47.256" lon="-1.70745">
        <ele>67.8</ele>
        <time>2013-10-13T09:07:04Z</time>
      </trkpt>
      <trkpt lat="47.2561" lon="-1.70751">
        <ele>67.9</ele>
        <time>2013-10-13T09:07:07Z</time>
      </trkpt>
      <trkpt lat="47.25619" lon="-1.7075">
        <ele>66</ele>
        <time>2013-10-13T09:07:09Z</time>
      </trkpt>
      <trkpt lat="47.25632" lon="-1.7075">
        <ele>63.9</ele>
        <time>2013-10-13T09:07:11Z</time>
      </trkpt>
      <trkpt lat="47.25645" lon="-1.7075">
        <ele>62.4</ele>
        <time>2013-10-13T09:07:13Z</time>
      </trkpt>
      <trkpt lat="47.25659" lon="-1.70751">
        <ele>62.5</ele>
        <time>2013-10-13T09:07:15Z</time>
      </trkpt>
      <trkpt lat="47.25671" lon="-1.70751">
        <ele>62</ele>
        <time>2013-10-13T09:07:17Z</time>
      </trkpt>
      <trkpt lat="47.25683" lon="-1.70751">
        <ele>62.3</ele>
        <time>2013-10-13T09:07:19Z</time>
      </trkpt>
      <trkpt lat="47.25696" lon="-1.70751">
        <ele>62.5</ele>
        <time>2013-10-13T09:07:21Z</time>
      </trkpt>
      <trkpt lat="47.25709" lon="-1.70752">
        <ele>64</ele>
        <time>2013-10-13T09:07:23Z</time>
      </trkpt>
      <trkpt lat="47.25723" lon="-1.70754">
        <ele>65.4</ele>
        <time>2013-10-13T09:07:25Z</time>
      </trkpt>
      <trkpt lat="47.25736" lon="-1.70754">
        <ele>65.1</ele>
        <time>2013-10-13T09:07:27Z</time>
      </trkpt>
      <trkpt lat="47.2575" lon="-1.70755">
        <ele>64.1</ele>
        <time>2013-10-13T09:07:29Z</time>
      </trkpt>
      <trkpt lat="47.25764" lon="-1.70755">
        <ele>64.1</ele>
        <time>2013-10-13T09:07:31Z</time>
      </trkpt>
      <trkpt lat="47.2578" lon="-1.70752">
        <ele>64.3</ele>
        <time>2013-10-13T09:07:33Z</time>
      </trkpt>
      <trkpt lat="47.25794" lon="-1.70747">
        <ele>64.2</ele>
        <time>2013-10-13T09:07:35Z</time>
      </trkpt>
      <trkpt lat="47.25807" lon="-1.70736">
        <ele>63.2</ele>
        <time>2013-10-13T09:07:37Z</time>
      </trkpt>
      <trkpt lat="47.2582" lon="-1.70725">
        <ele>62</ele>
        <time>2013-10-13T09:07:39Z</time>
      </trkpt>
      <trkpt lat="47.25832" lon="-1.70714">
        <ele>62.1</ele>
        <time>2013-10-13T09:07:41Z</time>
      </trkpt>
      <trkpt lat="47.25843" lon="-1.70704">
        <ele>63.4</ele>
        <time>2013-10-13T09:07:43Z</time>
      </trkpt>
      <trkpt lat="47.25854" lon="-1.70695">
        <ele>64.4</ele>
        <time>2013-10-13T09:07:45Z</time>
      </trkpt>
      <trkpt lat="47.25866" lon="-1.70685">
        <ele>63.5</ele>
        <time>2013-10-13T09:07:47Z</time>
      </trkpt>
      <trkpt lat="47.25877" lon="-1.70674">
        <ele>62</ele>
        <time>2013-10-13T09:07:49Z</time>
      </trkpt>
      <trkpt lat="47.25889" lon="-1.70663">
        <ele>59.7</ele>
        <time>2013-10-13T09:07:51Z</time>
      </trkpt>
      <trkpt lat="47.25901" lon="-1.70652">
        <ele>59.7</ele>
        <time>2013-10-13T09:07:53Z</time>
      </trkpt>
      <trkpt lat="47.25913" lon="-1.7064">
        <ele>60.1</ele>
        <time>2013-10-13T09:07:55Z</time>
      </trkpt>
      <trkpt lat="47.25925" lon="-1.70627">
        <ele>59.6</ele>
        <time>2013-10-13T09:07:57Z</time>
      </trkpt>
      <trkpt lat="47.25935" lon="-1.70613">
        <ele>58.8</ele>
        <time>2013-10-13T09:07:59Z</time>
      </trkpt>
      <trkpt lat="47.25948" lon="-1.70596">
        <ele>57.9</ele>
        <time>2013-10-13T09:08:01Z</time>
      </trkpt>
      <trkpt lat="47.25955" lon="-1.70587">
        <ele>57.5</ele>
        <time>2013-10-13T09:08:02Z</time>
      </trkpt>
      <trkpt lat="47.25963" lon="-1.70579">
        <ele>57.1</ele>
        <time>2013-10-13T09:08:03Z</time>
      </trkpt>
      <trkpt lat="47.25975" lon="-1.70564">
        <ele>55.6</ele>
        <time>2013-10-13T09:08:05Z</time>
      </trkpt>
      <trkpt lat="47.25988" lon="-1.70548">
        <ele>55.3</ele>
        <time>2013-10-13T09:08:07Z</time>
      </trkpt>
      <trkpt lat="47.26002" lon="-1.70533">
        <ele>55.2</ele>
        <time>2013-10-13T09:08:09Z</time>
      </trkpt>
      <trkpt lat="47.26016" lon="-1.7052">
        <ele>54.9</ele>
        <time>2013-10-13T09:08:11Z</time>
      </trkpt>
      <trkpt lat="47.26032" lon="-1.70507">
        <ele>54.3</ele>
        <time>2013-10-13T09:08:13Z</time>
      </trkpt>
      <trkpt lat="47.26046" lon="-1.70496">
        <ele>54</ele>
        <time>2013-10-13T09:08:15Z</time>
      </trkpt>
      <trkpt lat="47.2606" lon="-1.70486">
        <ele>53.5</ele>
        <time>2013-10-13T09:08:17Z</time>
      </trkpt>
      <trkpt lat="47.26074" lon="-1.70474">
        <ele>53.3</ele>
        <time>2013-10-13T09:08:19Z</time>
      </trkpt>
      <trkpt lat="47.26087" lon="-1.70464">
        <ele>53.4</ele>
        <time>2013-10-13T09:08:21Z</time>
      </trkpt>
      <trkpt lat="47.26099" lon="-1.70454">
        <ele>53.6</ele>
        <time>2013-10-13T09:08:23Z</time>
      </trkpt>
      <trkpt lat="47.26109" lon="-1.70444">
        <ele>53.3</ele>
        <time>2013-10-13T09:08:25Z</time>
      </trkpt>
      <trkpt lat="47.26119" lon="-1.70436">
        <ele>53.3</ele>
        <time>2013-10-13T09:08:27Z</time>
      </trkpt>
      <trkpt lat="47.26131" lon="-1.70426">
        <ele>54.1</ele>
        <time>2013-10-13T09:08:30Z</time>
      </trkpt>
      <trkpt lat="47.26139" lon="-1.70419">
        <ele>54.5</ele>
        <time>2013-10-13T09:08:32Z</time>
      </trkpt>
      <trkpt lat="47.26149" lon="-1.70408">
        <ele>55.7</ele>
        <time>2013-10-13T09:08:35Z</time>
      </trkpt>
      <trkpt lat="47.2616" lon="-1.70398">
        <ele>58.2</ele>
        <time>2013-10-13T09:08:38Z</time>
      </trkpt>
      <trkpt lat="47.26171" lon="-1.70388">
        <ele>58.8</ele>
        <time>2013-10-13T09:08:41Z</time>
      </trkpt>
      <trkpt lat="47.26181" lon="-1.70379">
        <ele>59.2</ele>
        <time>2013-10-13T09:08:44Z</time>
      </trkpt>
      <trkpt lat="47.26191" lon="-1.70372">
        <ele>60</ele>
        <time>2013-10-13T09:08:47Z</time>
      </trkpt>
      <trkpt lat="47.262" lon="-1.70368">
        <ele>60.1</ele>
        <time>2013-10-13T09:08:50Z</time>
      </trkpt>
      <trkpt lat="47.26209" lon="-1.70361">
        <ele>60.2</ele>
        <time>2013-10-13T09:08:53Z</time>
      </trkpt>
      <trkpt lat="47.26219" lon="-1.70355">
        <ele>60.5</ele>
        <time>2013-10-13T09:08:56Z</time>
      </trkpt>
      <trkpt lat="47.26228" lon="-1.70348">
        <ele>61</ele>
        <time>2013-10-13T09:08:59Z</time>
      </trkpt>
      <trkpt lat="47.26238" lon="-1.70341">
        <ele>61.4</ele>
        <time>2013-10-13T09:09:02Z</time>
      </trkpt>
      <trkpt lat="47.26247" lon="-1.70335">
        <ele>61.6</ele>
        <time>2013-10-13T09:09:05Z</time>
      </trkpt>
      <trkpt lat="47.26256" lon="-1.70328">
        <ele>61.8</ele>
        <time>2013-10-13T09:09:09Z</time>
      </trkpt>
      <trkpt lat="47.26264" lon="-1.70321">
        <ele>61.8</ele>
        <time>2013-10-13T09:09:38Z</time>
      </trkpt>
      <trkpt lat="47.26273" lon="-1.70314">
        <ele>61.9</ele>
        <time>2013-10-13T09:09:41Z</time>
      </trkpt>
      <trkpt lat="47.26283" lon="-1.70306">
        <ele>62</ele>
        <time>2013-10-13T09:09:44Z</time>
      </trkpt>
      <trkpt lat="47.26294" lon="-1.70297">
        <ele>61.6</ele>
        <time>2013-10-13T09:09:47Z</time>
      </trkpt>
      <trkpt lat="47.26306" lon="-1.70288">
        <ele>61.4</ele>
        <time>2013-10-13T09:09:50Z</time>
      </trkpt>
      <trkpt lat="47.26314" lon="-1.70282">
        <ele>61.3</ele>
        <time>2013-10-13T09:09:52Z</time>
      </trkpt>
      <trkpt lat="47.26324" lon="-1.70277">
        <ele>61.2</ele>
        <time>2013-10-13T09:09:55Z</time>
      </trkpt>
      <trkpt lat="47.26328" lon="-1.70289">
        <ele>61.2</ele>
        <time>2013-10-13T09:09:59Z</time>
      </trkpt>
      <trkpt lat="47.26319" lon="-1.703">
        <ele>62</ele>
        <time>2013-10-13T09:10:02Z</time>
      </trkpt>
      <trkpt lat="47.2631" lon="-1.70309">
        <ele>62.7</ele>
        <time>2013-10-13T09:10:04Z</time>
      </trkpt>
      <trkpt lat="47.26302" lon="-1.70318">
        <ele>63.9</ele>
        <time>2013-10-13T09:10:06Z</time>
      </trkpt>
      <trkpt lat="47.26294" lon="-1.70326">
        <ele>64.3</ele>
        <time>2013-10-13T09:10:08Z</time>
      </trkpt>
      <trkpt lat="47.26287" lon="-1.70336">
        <ele>62.6</ele>
        <time>2013-10-13T09:10:10Z</time>
      </trkpt>
      <trkpt lat="47.26287" lon="-1.70352">
        <ele>60.9</ele>
        <time>2013-10-13T09:10:13Z</time>
      </trkpt>
      <trkpt lat="47.26293" lon="-1.70366">
        <ele>60.8</ele>
        <time>2013-10-13T09:10:16Z</time>
      </trkpt>
      <trkpt lat="47.263" lon="-1.70379">
        <ele>60.9</ele>
        <time>2013-10-13T09:10:19Z</time>
      </trkpt>
      <trkpt lat="47.26306" lon="-1.70391">
        <ele>61</ele>
        <time>2013-10-13T09:10:22Z</time>
      </trkpt>
      <trkpt lat="47.26314" lon="-1.70404">
        <ele>61.4</ele>
        <time>2013-10-13T09:10:25Z</time>
      </trkpt>
      <trkpt lat="47.26322" lon="-1.70418">
        <ele>60.6</ele>
        <time>2013-10-13T09:10:28Z</time>
      </trkpt>
      <trkpt lat="47.2633" lon="-1.70432">
        <ele>59.9</ele>
        <time>2013-10-13T09:10:31Z</time>
      </trkpt>
      <trkpt lat="47.26339" lon="-1.70446">
        <ele>59.6</ele>
        <time>2013-10-13T09:10:34Z</time>
      </trkpt>
      <trkpt lat="47.26347" lon="-1.70461">
        <ele>59.7</ele>
        <time>2013-10-13T09:10:37Z</time>
      </trkpt>
      <trkpt lat="47.26354" lon="-1.70473">
        <ele>59.7</ele>
        <time>2013-10-13T09:10:40Z</time>
      </trkpt>
      <trkpt lat="47.26363" lon="-1.70482">
        <ele>59.9</ele>
        <time>2013-10-13T09:10:43Z</time>
      </trkpt>
      <trkpt lat="47.26377" lon="-1.70482">
        <ele>60.2</ele>
        <time>2013-10-13T09:10:46Z</time>
      </trkpt>
      <trkpt lat="47.2639" lon="-1.7048">
        <ele>60.7</ele>
        <time>2013-10-13T09:10:49Z</time>
      </trkpt>
      <trkpt lat="47.26401" lon="-1.70476">
        <ele>60.4</ele>
        <time>2013-10-13T09:10:52Z</time>
      </trkpt>
      <trkpt lat="47.26413" lon="-1.70473">
        <ele>60.2</ele>
        <time>2013-10-13T09:10:55Z</time>
      </trkpt>
      <trkpt lat="47.26425" lon="-1.70471">
        <ele>58.7</ele>
        <time>2013-10-13T09:10:58Z</time>
      </trkpt>
      <trkpt lat="47.26435" lon="-1.70469">
        <ele>58.3</ele>
        <time>2013-10-13T09:11:00Z</time>
      </trkpt>
      <trkpt lat="47.26445" lon="-1.70466">
        <ele>57.9</ele>
        <time>2013-10-13T09:11:02Z</time>
      </trkpt>
      <trkpt lat="47.26457" lon="-1.70456">
        <ele>57.8</ele>
        <time>2013-10-13T09:11:04Z</time>
      </trkpt>
      <trkpt lat="47.26467" lon="-1.70448">
        <ele>58.1</ele>
        <time>2013-10-13T09:11:06Z</time>
      </trkpt>
      <trkpt lat="47.26477" lon="-1.7044">
        <ele>58.7</ele>
        <time>2013-10-13T09:11:08Z</time>
      </trkpt>
      <trkpt lat="47.26486" lon="-1.70433">
        <ele>59.4</ele>
        <time>2013-10-13T09:11:10Z</time>
      </trkpt>
      <trkpt lat="47.26497" lon="-1.70426">
        <ele>60.8</ele>
        <time>2013-10-13T09:11:12Z</time>
      </trkpt>
      <trkpt lat="47.2651" lon="-1.70417">
        <ele>60.9</ele>
        <time>2013-10-13T09:11:14Z</time>
      </trkpt>
      <trkpt lat="47.26521" lon="-1.70409">
        <ele>61.2</ele>
        <time>2013-10-13T09:11:16Z</time>
      </trkpt>
      <trkpt lat="47.26533" lon="-1.70403">
        <ele>62.1</ele>
        <time>2013-10-13T09:11:18Z</time>
      </trkpt>
      <trkpt lat="47.26544" lon="-1.70397">
        <ele>63.5</ele>
        <time>2013-10-13T09:11:20Z</time>
      </trkpt>
      <trkpt lat="47.26554" lon="-1.70392">
        <ele>64.1</ele>
        <time>2013-10-13T09:11:22Z</time>
      </trkpt>
      <trkpt lat="47.26567" lon="-1.70388">
        <ele>63.7</ele>
        <time>2013-10-13T09:11:24Z</time>
      </trkpt>
      <trkpt lat="47.26578" lon="-1.70384">
        <ele>62.8</ele>
        <time>2013-10-13T09:11:26Z</time>
      </trkpt>
      <trkpt lat="47.26588" lon="-1.7038">
        <ele>61.9</ele>
        <time>2013-10-13T09:11:28Z</time>
      </trkpt>
      <trkpt lat="47.26599" lon="-1.70376">
        <ele>60.8</ele>
        <time>2013-10-13T09:11:30Z</time>
      </trkpt>
      <trkpt lat="47.26611" lon="-1.70372">
        <ele>59.3</ele>
        <time>2013-10-13T09:11:32Z</time>
      </trkpt>
      <trkpt lat="47.26622" lon="-1.70369">
        <ele>59.4</ele>
        <time>2013-10-13T09:11:34Z</time>
      </trkpt>
      <trkpt lat="47.26632" lon="-1.70365">
        <ele>59.9</ele>
        <time>2013-10-13T09:11:36Z</time>
      </trkpt>
      <trkpt lat="47.26641" lon="-1.70362">
        <ele>60.5</ele>
        <time>2013-10-13T09:11:38Z</time>
      </trkpt>
      <trkpt lat="47.26651" lon="-1.70358">
        <ele>61.2</ele>
        <time>2013-10-13T09:11:40Z</time>
      </trkpt>
      <trkpt lat="47.2666" lon="-1.70354">
        <ele>60</ele>
        <time>2013-10-13T09:11:42Z</time>
      </trkpt>
      <trkpt lat="47.2667" lon="-1.7035">
        <ele>58.6</ele>
        <time>2013-10-13T09:11:44Z</time>
      </trkpt>
      <trkpt lat="47.26681" lon="-1.70346">
        <ele>57</ele>
        <time>2013-10-13T09:11:46Z</time>
      </trkpt>
      <trkpt lat="47.26693" lon="-1.70343">
        <ele>54.9</ele>
        <time>2013-10-13T09:11:48Z</time>
      </trkpt>
      <trkpt lat="47.26704" lon="-1.70339">
        <ele>54.3</ele>
        <time>2013-10-13T09:11:50Z</time>
      </trkpt>
      <trkpt lat="47.26716" lon="-1.70337">
        <ele>53.8</ele>
        <time>2013-10-13T09:11:52Z</time>
      </trkpt>
      <trkpt lat="47.26726" lon="-1.70336">
        <ele>54</ele>
        <time>2013-10-13T09:11:54Z</time>
      </trkpt>
      <trkpt lat="47.26736" lon="-1.70336">
        <ele>54.5</ele>
        <time>2013-10-13T09:11:56Z</time>
      </trkpt>
      <trkpt lat="47.26747" lon="-1.70335">
        <ele>54.5</ele>
        <time>2013-10-13T09:11:58Z</time>
      </trkpt>
      <trkpt lat="47.26757" lon="-1.70334">
        <ele>55.2</ele>
        <time>2013-10-13T09:12:00Z</time>
      </trkpt>
      <trkpt lat="47.26768" lon="-1.70332">
        <ele>55.5</ele>
        <time>2013-10-13T09:12:02Z</time>
      </trkpt>
      <trkpt lat="47.26779" lon="-1.70331">
        <ele>58.1</ele>
        <time>2013-10-13T09:12:04Z</time>
      </trkpt>
      <trkpt lat="47.26791" lon="-1.7033">
        <ele>60.4</ele>
        <time>2013-10-13T09:12:06Z</time>
      </trkpt>
      <trkpt lat="47.26801" lon="-1.70328">
        <ele>61.9</ele>
        <time>2013-10-13T09:12:08Z</time>
      </trkpt>
      <trkpt lat="47.26812" lon="-1.70326">
        <ele>62.7</ele>
        <time>2013-10-13T09:12:10Z</time>
      </trkpt>
      <trkpt lat="47.26821" lon="-1.70325">
        <ele>62.6</ele>
        <time>2013-10-13T09:12:12Z</time>
      </trkpt>
      <trkpt lat="47.26834" lon="-1.70323">
        <ele>63.2</ele>
        <time>2013-10-13T09:12:15Z</time>
      </trkpt>
      <trkpt lat="47.26847" lon="-1.7032">
        <ele>63.2</ele>
        <time>2013-10-13T09:12:18Z</time>
      </trkpt>
      <trkpt lat="47.26859" lon="-1.70317">
        <ele>62.6</ele>
        <time>2013-10-13T09:12:21Z</time>
      </trkpt>
      <trkpt lat="47.26871" lon="-1.70314">
        <ele>62.3</ele>
        <time>2013-10-13T09:12:24Z</time>
      </trkpt>
      <trkpt lat="47.26883" lon="-1.7031">
        <ele>62.1</ele>
        <time>2013-10-13T09:12:27Z</time>
      </trkpt>
      <trkpt lat="47.26895" lon="-1.70307">
        <ele>62.2</ele>
        <time>2013-10-13T09:12:30Z</time>
      </trkpt>
      <trkpt lat="47.26905" lon="-1.70301">
        <ele>62</ele>
        <time>2013-10-13T09:12:34Z</time>
      </trkpt>
      <trkpt lat="47.26908" lon="-1.70286">
        <ele>61.9</ele>
        <time>2013-10-13T09:12:37Z</time>
      </trkpt>
      <trkpt lat="47.2691" lon="-1.70267">
        <ele>61.9</ele>
        <time>2013-10-13T09:12:40Z</time>
      </trkpt>
      <trkpt lat="47.26911" lon="-1.70253">
        <ele>61.8</ele>
        <time>2013-10-13T09:12:42Z</time>
      </trkpt>
      <trkpt lat="47.26912" lon="-1.70235">
        <ele>61.7</ele>
        <time>2013-10-13T09:12:44Z</time>
      </trkpt>
      <trkpt lat="47.26913" lon="-1.70219">
        <ele>61.5</ele>
        <time>2013-10-13T09:12:46Z</time>
      </trkpt>
      <trkpt lat="47.26914" lon="-1.70205">
        <ele>61.4</ele>
        <time>2013-10-13T09:12:48Z</time>
      </trkpt>
      <trkpt lat="47.26916" lon="-1.70188">
        <ele>61.2</ele>
        <time>2013-10-13T09:12:51Z</time>
      </trkpt>
      <trkpt lat="47.26919" lon="-1.70172">
        <ele>61.1</ele>
        <time>2013-10-13T09:12:54Z</time>
      </trkpt>
      <trkpt lat="47.26924" lon="-1.70159">
        <ele>60.5</ele>
        <time>2013-10-13T09:12:57Z</time>
      </trkpt>
      <trkpt lat="47.26928" lon="-1.70146">
        <ele>59.4</ele>
        <time>2013-10-13T09:13:00Z</time>
      </trkpt>
      <trkpt lat="47.26931" lon="-1.70128">
        <ele>58</ele>
        <time>2013-10-13T09:13:03Z</time>
      </trkpt>
      <trkpt lat="47.26935" lon="-1.70111">
        <ele>56.4</ele>
        <time>2013-10-13T09:13:06Z</time>
      </trkpt>
      <trkpt lat="47.26938" lon="-1.70092">
        <ele>46</ele>
        <time>2013-10-13T09:13:09Z</time>
      </trkpt>
      <trkpt lat="47.26941" lon="-1.70079">
        <ele>40.1</ele>
        <time>2013-10-13T09:13:11Z</time>
      </trkpt>
      <trkpt lat="47.26944" lon="-1.70065">
        <ele>35.9</ele>
        <time>2013-10-13T09:13:13Z</time>
      </trkpt>
      <trkpt lat="47.26947" lon="-1.70048">
        <ele>32.2</ele>
        <time>2013-10-13T09:13:15Z</time>
      </trkpt>
      <trkpt lat="47.26948" lon="-1.70031">
        <ele>32.8</ele>
        <time>2013-10-13T09:13:17Z</time>
      </trkpt>
      <trkpt lat="47.26947" lon="-1.70013">
        <ele>33.7</ele>
        <time>2013-10-13T09:13:19Z</time>
      </trkpt>
      <trkpt lat="47.26946" lon="-1.69993">
        <ele>36</ele>
        <time>2013-10-13T09:13:21Z</time>
      </trkpt>
      <trkpt lat="47.26945" lon="-1.69974">
        <ele>39.1</ele>
        <time>2013-10-13T09:13:23Z</time>
      </trkpt>
      <trkpt lat="47.26945" lon="-1.69956">
        <ele>42.9</ele>
        <time>2013-10-13T09:13:25Z</time>
      </trkpt>
      <trkpt lat="47.26946" lon="-1.69938">
        <ele>46.1</ele>
        <time>2013-10-13T09:13:27Z</time>
      </trkpt>
      <trkpt lat="47.26949" lon="-1.69919">
        <ele>49</ele>
        <time>2013-10-13T09:13:29Z</time>
      </trkpt>
      <trkpt lat="47.26951" lon="-1.69891">
        <ele>49.7</ele>
        <time>2013-10-13T09:13:31Z</time>
      </trkpt>
      <trkpt lat="47.26952" lon="-1.69874">
        <ele>50</ele>
        <time>2013-10-13T09:13:32Z</time>
      </trkpt>
      <trkpt lat="47.26952" lon="-1.6985">
        <ele>52.3</ele>
        <time>2013-10-13T09:13:34Z</time>
      </trkpt>
      <trkpt lat="47.26955" lon="-1.69833">
        <ele>54.1</ele>
        <time>2013-10-13T09:13:36Z</time>
      </trkpt>
      <trkpt lat="47.26958" lon="-1.69815">
        <ele>55</ele>
        <time>2013-10-13T09:13:38Z</time>
      </trkpt>
      <trkpt lat="47.26959" lon="-1.69799">
        <ele>56</ele>
        <time>2013-10-13T09:13:40Z</time>
      </trkpt>
      <trkpt lat="47.26962" lon="-1.69783">
        <ele>57.2</ele>
        <time>2013-10-13T09:13:42Z</time>
      </trkpt>
      <trkpt lat="47.26964" lon="-1.69768">
        <ele>57.7</ele>
        <time>2013-10-13T09:13:44Z</time>
      </trkpt>
      <trkpt lat="47.26967" lon="-1.69752">
        <ele>57.9</ele>
        <time>2013-10-13T09:13:47Z</time>
      </trkpt>
      <trkpt lat="47.2697" lon="-1.69739">
        <ele>58.4</ele>
        <time>2013-10-13T09:13:52Z</time>
      </trkpt>
      <trkpt lat="47.26978" lon="-1.69733">
        <ele>59.3</ele>
        <time>2013-10-13T09:13:57Z</time>
      </trkpt>
      <trkpt lat="47.26986" lon="-1.69742">
        <ele>60.1</ele>
        <time>2013-10-13T09:14:01Z</time>
      </trkpt>
      <trkpt lat="47.26991" lon="-1.69754">
        <ele>60.4</ele>
        <time>2013-10-13T09:14:03Z</time>
      </trkpt>
      <trkpt lat="47.26996" lon="-1.69771">
        <ele>60.6</ele>
        <time>2013-10-13T09:14:06Z</time>
      </trkpt>
      <trkpt lat="47.27" lon="-1.69785">
        <ele>61.1</ele>
        <time>2013-10-13T09:14:09Z</time>
      </trkpt>
      <trkpt lat="47.27004" lon="-1.69797">
        <ele>61.5</ele>
        <time>2013-10-13T09:14:12Z</time>
      </trkpt>
      <trkpt lat="47.2701" lon="-1.69807">
        <ele>61.8</ele>
        <time>2013-10-13T09:14:16Z</time>
      </trkpt>
      <trkpt lat="47.27019" lon="-1.69798">
        <ele>62.1</ele>
        <time>2013-10-13T09:14:21Z</time>
      </trkpt>
      <trkpt lat="47.2703" lon="-1.69791">
        <ele>61.9</ele>
        <time>2013-10-13T09:14:25Z</time>
      </trkpt>
      <trkpt lat="47.2704" lon="-1.69784">
        <ele>61.7</ele>
        <time>2013-10-13T09:14:29Z</time>
      </trkpt>
      <trkpt lat="47.2705" lon="-1.69778">
        <ele>61.7</ele>
        <time>2013-10-13T09:14:32Z</time>
      </trkpt>
      <trkpt lat="47.27059" lon="-1.69774">
        <ele>61.7</ele>
        <time>2013-10-13T09:14:35Z</time>
      </trkpt>
      <trkpt lat="47.27069" lon="-1.6977">
        <ele>61.7</ele>
        <time>2013-10-13T09:14:38Z</time>
      </trkpt>
      <trkpt lat="47.27078" lon="-1.69765">
        <ele>61.8</ele>
        <time>2013-10-13T09:14:41Z</time>
      </trkpt>
      <trkpt lat="47.27088" lon="-1.6976">
        <ele>61.8</ele>
        <time>2013-10-13T09:14:44Z</time>
      </trkpt>
      <trkpt lat="47.27097" lon="-1.69756">
        <ele>61.6</ele>
        <time>2013-10-13T09:14:47Z</time>
      </trkpt>
      <trkpt lat="47.27106" lon="-1.6975">
        <ele>61.5</ele>
        <time>2013-10-13T09:14:50Z</time>
      </trkpt>
      <trkpt lat="47.27115" lon="-1.69745">
        <ele>61.5</ele>
        <time>2013-10-13T09:14:53Z</time>
      </trkpt>
      <trkpt lat="47.27125" lon="-1.69741">
        <ele>61.7</ele>
        <time>2013-10-13T09:14:56Z</time>
      </trkpt>
      <trkpt lat="47.27135" lon="-1.69736">
        <ele>62</ele>
        <time>2013-10-13T09:14:59Z</time>
      </trkpt>
      <trkpt lat="47.27144" lon="-1.69731">
        <ele>62.1</ele>
        <time>2013-10-13T09:15:02Z</time>
      </trkpt>
      <trkpt lat="47.27153" lon="-1.69726">
        <ele>62</ele>
        <time>2013-10-13T09:15:05Z</time>
      </trkpt>
      <trkpt lat="47.27164" lon="-1.6972">
        <ele>61.9</ele>
        <time>2013-10-13T09:15:08Z</time>
      </trkpt>
      <trkpt lat="47.27174" lon="-1.69714">
        <ele>61.9</ele>
        <time>2013-10-13T09:15:11Z</time>
      </trkpt>
      <trkpt lat="47.27184" lon="-1.69709">
        <ele>61.9</ele>
        <time>2013-10-13T09:15:14Z</time>
      </trkpt>
      <trkpt lat="47.27194" lon="-1.69704">
        <ele>62.1</ele>
        <time>2013-10-13T09:15:17Z</time>
      </trkpt>
      <trkpt lat="47.27205" lon="-1.69698">
        <ele>62.3</ele>
        <time>2013-10-13T09:15:21Z</time>
      </trkpt>
      <trkpt lat="47.27215" lon="-1.69693">
        <ele>62.4</ele>
        <time>2013-10-13T09:15:24Z</time>
      </trkpt>
      <trkpt lat="47.27226" lon="-1.69688">
        <ele>62.5</ele>
        <time>2013-10-13T09:15:27Z</time>
      </trkpt>
      <trkpt lat="47.27239" lon="-1.69682">
        <ele>62.5</ele>
        <time>2013-10-13T09:15:30Z</time>
      </trkpt>
      <trkpt lat="47.2725" lon="-1.69676">
        <ele>62.8</ele>
        <time>2013-10-13T09:15:33Z</time>
      </trkpt>
      <trkpt lat="47.2726" lon="-1.69671">
        <ele>62.7</ele>
        <time>2013-10-13T09:15:36Z</time>
      </trkpt>
      <trkpt lat="47.27272" lon="-1.69665">
        <ele>61.6</ele>
        <time>2013-10-13T09:15:39Z</time>
      </trkpt>
      <trkpt lat="47.27285" lon="-1.69659">
        <ele>61.1</ele>
        <time>2013-10-13T09:15:42Z</time>
      </trkpt>
      <trkpt lat="47.27297" lon="-1.69652">
        <ele>61.9</ele>
        <time>2013-10-13T09:15:45Z</time>
      </trkpt>
      <trkpt lat="47.27309" lon="-1.69646">
        <ele>62.4</ele>
        <time>2013-10-13T09:15:48Z</time>
      </trkpt>
      <trkpt lat="47.27318" lon="-1.69641">
        <ele>62.2</ele>
        <time>2013-10-13T09:15:50Z</time>
      </trkpt>
      <trkpt lat="47.27327" lon="-1.69636">
        <ele>62</ele>
        <time>2013-10-13T09:15:53Z</time>
      </trkpt>
      <trkpt lat="47.27338" lon="-1.69633">
        <ele>61.3</ele>
        <time>2013-10-13T09:15:58Z</time>
      </trkpt>
      <trkpt lat="47.27348" lon="-1.69636">
        <ele>61.1</ele>
        <time>2013-10-13T09:16:01Z</time>
      </trkpt>
      <trkpt lat="47.27358" lon="-1.69644">
        <ele>61.3</ele>
        <time>2013-10-13T09:16:05Z</time>
      </trkpt>
      <trkpt lat="47.27367" lon="-1.69655">
        <ele>61.7</ele>
        <time>2013-10-13T09:16:09Z</time>
      </trkpt>
      <trkpt lat="47.27375" lon="-1.69669">
        <ele>62</ele>
        <time>2013-10-13T09:16:13Z</time>
      </trkpt>
      <trkpt lat="47.27381" lon="-1.69683">
        <ele>62</ele>
        <time>2013-10-13T09:16:16Z</time>
      </trkpt>
      <trkpt lat="47.27384" lon="-1.69697">
        <ele>62</ele>
        <time>2013-10-13T09:16:19Z</time>
      </trkpt>
      <trkpt lat="47.27387" lon="-1.69713">
        <ele>62.1</ele>
        <time>2013-10-13T09:16:22Z</time>
      </trkpt>
      <trkpt lat="47.27389" lon="-1.69727">
        <ele>62.1</ele>
        <time>2013-10-13T09:16:25Z</time>
      </trkpt>
      <trkpt lat="47.27391" lon="-1.69744">
        <ele>62.2</ele>
        <time>2013-10-13T09:16:29Z</time>
      </trkpt>
      <trkpt lat="47.27395" lon="-1.69758">
        <ele>62.4</ele>
        <time>2013-10-13T09:16:32Z</time>
      </trkpt>
      <trkpt lat="47.27398" lon="-1.69771">
        <ele>62.5</ele>
        <time>2013-10-13T09:16:35Z</time>
      </trkpt>
      <trkpt lat="47.27402" lon="-1.69788">
        <ele>62.4</ele>
        <time>2013-10-13T09:16:39Z</time>
      </trkpt>
      <trkpt lat="47.27407" lon="-1.69803">
        <ele>62.4</ele>
        <time>2013-10-13T09:16:42Z</time>
      </trkpt>
      <trkpt lat="47.27409" lon="-1.69816">
        <ele>62.7</ele>
        <time>2013-10-13T09:16:45Z</time>
      </trkpt>
      <trkpt lat="47.27413" lon="-1.69832">
        <ele>62.9</ele>
        <time>2013-10-13T09:16:48Z</time>
      </trkpt>
      <trkpt lat="47.27415" lon="-1.69848">
        <ele>62.9</ele>
        <time>2013-10-13T09:16:51Z</time>
      </trkpt>
      <trkpt lat="47.27418" lon="-1.69863">
        <ele>62.9</ele>
        <time>2013-10-13T09:16:54Z</time>
      </trkpt>
      <trkpt lat="47.27424" lon="-1.69878">
        <ele>63.7</ele>
        <time>2013-10-13T09:16:57Z</time>
      </trkpt>
      <trkpt lat="47.27433" lon="-1.69882">
        <ele>63.6</ele>
        <time>2013-10-13T09:17:00Z</time>
      </trkpt>
      <trkpt lat="47.27443" lon="-1.69878">
        <ele>63.5</ele>
        <time>2013-10-13T09:17:02Z</time>
      </trkpt>
      <trkpt lat="47.27455" lon="-1.6987">
        <ele>61.6</ele>
        <time>2013-10-13T09:17:04Z</time>
      </trkpt>
      <trkpt lat="47.27465" lon="-1.69863">
        <ele>58.3</ele>
        <time>2013-10-13T09:17:06Z</time>
      </trkpt>
      <trkpt lat="47.27476" lon="-1.69855">
        <ele>55.7</ele>
        <time>2013-10-13T09:17:08Z</time>
      </trkpt>
      <trkpt lat="47.27486" lon="-1.69848">
        <ele>53.6</ele>
        <time>2013-10-13T09:17:10Z</time>
      </trkpt>
      <trkpt lat="47.27496" lon="-1.6984">
        <ele>52.7</ele>
        <time>2013-10-13T09:17:12Z</time>
      </trkpt>
      <trkpt lat="47.27508" lon="-1.69832">
        <ele>51.6</ele>
        <time>2013-10-13T09:17:14Z</time>
      </trkpt>
      <trkpt lat="47.27521" lon="-1.69823">
        <ele>50.7</ele>
        <time>2013-10-13T09:17:16Z</time>
      </trkpt>
      <trkpt lat="47.27538" lon="-1.69817">
        <ele>50</ele>
        <time>2013-10-13T09:17:18Z</time>
      </trkpt>
      <trkpt lat="47.27549" lon="-1.69813">
        <ele>49.4</ele>
        <time>2013-10-13T09:17:19Z</time>
      </trkpt>
      <trkpt lat="47.27559" lon="-1.69809">
        <ele>49.4</ele>
        <time>2013-10-13T09:17:20Z</time>
      </trkpt>
      <trkpt lat="47.27569" lon="-1.69806">
        <ele>48.8</ele>
        <time>2013-10-13T09:17:21Z</time>
      </trkpt>
      <trkpt lat="47.27579" lon="-1.69803">
        <ele>48.5</ele>
        <time>2013-10-13T09:17:22Z</time>
      </trkpt>
      <trkpt lat="47.27589" lon="-1.69799">
        <ele>48.4</ele>
        <time>2013-10-13T09:17:23Z</time>
      </trkpt>
      <trkpt lat="47.27599" lon="-1.69796">
        <ele>48.9</ele>
        <time>2013-10-13T09:17:24Z</time>
      </trkpt>
      <trkpt lat="47.2761" lon="-1.69792">
        <ele>50.1</ele>
        <time>2013-10-13T09:17:25Z</time>
      </trkpt>
      <trkpt lat="47.2762" lon="-1.69788">
        <ele>51.1</ele>
        <time>2013-10-13T09:17:26Z</time>
      </trkpt>
      <trkpt lat="47.27638" lon="-1.69782">
        <ele>52.1</ele>
        <time>2013-10-13T09:17:28Z</time>
      </trkpt>
      <trkpt lat="47.27655" lon="-1.69777">
        <ele>52.2</ele>
        <time>2013-10-13T09:17:30Z</time>
      </trkpt>
      <trkpt lat="47.27671" lon="-1.69771">
        <ele>51.7</ele>
        <time>2013-10-13T09:17:32Z</time>
      </trkpt>
      <trkpt lat="47.27685" lon="-1.69765">
        <ele>52</ele>
        <time>2013-10-13T09:17:34Z</time>
      </trkpt>
      <trkpt lat="47.277" lon="-1.6976">
        <ele>52.8</ele>
        <time>2013-10-13T09:17:36Z</time>
      </trkpt>
      <trkpt lat="47.27713" lon="-1.69756">
        <ele>53.9</ele>
        <time>2013-10-13T09:17:38Z</time>
      </trkpt>
      <trkpt lat="47.27725" lon="-1.69753">
        <ele>54.6</ele>
        <time>2013-10-13T09:17:40Z</time>
      </trkpt>
      <trkpt lat="47.27735" lon="-1.69751">
        <ele>55.3</ele>
        <time>2013-10-13T09:17:42Z</time>
      </trkpt>
      <trkpt lat="47.27745" lon="-1.6975">
        <ele>56.2</ele>
        <time>2013-10-13T09:17:44Z</time>
      </trkpt>
      <trkpt lat="47.27756" lon="-1.6975">
        <ele>58.2</ele>
        <time>2013-10-13T09:17:46Z</time>
      </trkpt>
      <trkpt lat="47.27766" lon="-1.69752">
        <ele>60.2</ele>
        <time>2013-10-13T09:17:48Z</time>
      </trkpt>
      <trkpt lat="47.27777" lon="-1.69754">
        <ele>61.3</ele>
        <time>2013-10-13T09:17:50Z</time>
      </trkpt>
      <trkpt lat="47.27789" lon="-1.69755">
        <ele>60.8</ele>
        <time>2013-10-13T09:17:53Z</time>
      </trkpt>
      <trkpt lat="47.27803" lon="-1.69751">
        <ele>62.9</ele>
        <time>2013-10-13T09:17:56Z</time>
      </trkpt>
      <trkpt lat="47.27808" lon="-1.6974">
        <ele>63.9</ele>
        <time>2013-10-13T09:17:59Z</time>
      </trkpt>
      <trkpt lat="47.27809" lon="-1.69726">
        <ele>64.5</ele>
        <time>2013-10-13T09:18:01Z</time>
      </trkpt>
      <trkpt lat="47.27808" lon="-1.69711">
        <ele>64.7</ele>
        <time>2013-10-13T09:18:03Z</time>
      </trkpt>
      <trkpt lat="47.27809" lon="-1.69696">
        <ele>63.6</ele>
        <time>2013-10-13T09:18:05Z</time>
      </trkpt>
      <trkpt lat="47.27814" lon="-1.69684">
        <ele>61.7</ele>
        <time>2013-10-13T09:18:07Z</time>
      </trkpt>
      <trkpt lat="47.27824" lon="-1.69677">
        <ele>61.2</ele>
        <time>2013-10-13T09:18:11Z</time>
      </trkpt>
      <trkpt lat="47.27835" lon="-1.69673">
        <ele>60.9</ele>
        <time>2013-10-13T09:18:15Z</time>
      </trkpt>
      <trkpt lat="47.27842" lon="-1.6968">
        <ele>60.4</ele>
        <time>2013-10-13T09:24:07Z</time>
      </trkpt>
      <trkpt lat="47.2785" lon="-1.69673">
        <ele>60.5</ele>
        <time>2013-10-13T09:25:24Z</time>
      </trkpt>
      <trkpt lat="47.27841" lon="-1.69674">
        <ele>60.2</ele>
        <time>2013-10-13T09:25:42Z</time>
      </trkpt>
      <trkpt lat="47.27837" lon="-1.69662">
        <ele>58</ele>
        <time>2013-10-13T09:31:31Z</time>
      </trkpt>
      <trkpt lat="47.27831" lon="-1.6965">
        <ele>57.7</ele>
        <time>2013-10-13T09:31:37Z</time>
      </trkpt>
      <trkpt lat="47.27824" lon="-1.69639">
        <ele>57.4</ele>
        <time>2013-10-13T09:31:41Z</time>
      </trkpt>
      <trkpt lat="47.27813" lon="-1.69635">
        <ele>57.4</ele>
        <time>2013-10-13T09:31:44Z</time>
      </trkpt>
      <trkpt lat="47.27804" lon="-1.6964">
        <ele>57.5</ele>
        <time>2013-10-13T09:31:47Z</time>
      </trkpt>
      <trkpt lat="47.27793" lon="-1.69634">
        <ele>56.6</ele>
        <time>2013-10-13T09:31:50Z</time>
      </trkpt>
      <trkpt lat="47.27787" lon="-1.69618">
        <ele>55.9</ele>
        <time>2013-10-13T09:31:52Z</time>
      </trkpt>
      <trkpt lat="47.27783" lon="-1.69604">
        <ele>55.5</ele>
        <time>2013-10-13T09:31:54Z</time>
      </trkpt>
      <trkpt lat="47.2778" lon="-1.69591">
        <ele>55.2</ele>
        <time>2013-10-13T09:31:56Z</time>
      </trkpt>
      <trkpt lat="47.27779" lon="-1.69577">
        <ele>55.1</ele>
        <time>2013-10-13T09:31:58Z</time>
      </trkpt>
      <trkpt lat="47.27777" lon="-1.69563">
        <ele>55</ele>
        <time>2013-10-13T09:32:00Z</time>
      </trkpt>
      <trkpt lat="47.27775" lon="-1.69547">
        <ele>55.1</ele>
        <time>2013-10-13T09:32:03Z</time>
      </trkpt>
      <trkpt lat="47.27774" lon="-1.69527">
        <ele>54.7</ele>
        <time>2013-10-13T09:32:06Z</time>
      </trkpt>
      <trkpt lat="47.27773" lon="-1.69508">
        <ele>55.2</ele>
        <time>2013-10-13T09:32:09Z</time>
      </trkpt>
      <trkpt lat="47.27772" lon="-1.69495">
        <ele>55.5</ele>
        <time>2013-10-13T09:32:11Z</time>
      </trkpt>
      <trkpt lat="47.27771" lon="-1.69477">
        <ele>55.2</ele>
        <time>2013-10-13T09:32:14Z</time>
      </trkpt>
      <trkpt lat="47.27771" lon="-1.69458">
        <ele>54.4</ele>
        <time>2013-10-13T09:32:17Z</time>
      </trkpt>
      <trkpt lat="47.27771" lon="-1.69443">
        <ele>53.3</ele>
        <time>2013-10-13T09:32:19Z</time>
      </trkpt>
      <trkpt lat="47.27771" lon="-1.69428">
        <ele>51.8</ele>
        <time>2013-10-13T09:32:21Z</time>
      </trkpt>
      <trkpt lat="47.27773" lon="-1.69414">
        <ele>50.5</ele>
        <time>2013-10-13T09:32:23Z</time>
      </trkpt>
      <trkpt lat="47.27775" lon="-1.694">
        <ele>49.8</ele>
        <time>2013-10-13T09:32:25Z</time>
      </trkpt>
      <trkpt lat="47.27777" lon="-1.69386">
        <ele>49.3</ele>
        <time>2013-10-13T09:32:27Z</time>
      </trkpt>
      <trkpt lat="47.27777" lon="-1.6937">
        <ele>49</ele>
        <time>2013-10-13T09:32:29Z</time>
      </trkpt>
      <trkpt lat="47.27773" lon="-1.69356">
        <ele>48.5</ele>
        <time>2013-10-13T09:32:31Z</time>
      </trkpt>
      <trkpt lat="47.2777" lon="-1.69341">
        <ele>49.1</ele>
        <time>2013-10-13T09:32:33Z</time>
      </trkpt>
      <trkpt lat="47.27766" lon="-1.69326">
        <ele>48.9</ele>
        <time>2013-10-13T09:32:35Z</time>
      </trkpt>
      <trkpt lat="47.27761" lon="-1.69312">
        <ele>48.8</ele>
        <time>2013-10-13T09:32:37Z</time>
      </trkpt>
      <trkpt lat="47.27752" lon="-1.69294">
        <ele>47.7</ele>
        <time>2013-10-13T09:32:40Z</time>
      </trkpt>
      <trkpt lat="47.27746" lon="-1.69282">
        <ele>45.8</ele>
        <time>2013-10-13T09:32:42Z</time>
      </trkpt>
      <trkpt lat="47.27735" lon="-1.69272">
        <ele>45.3</ele>
        <time>2013-10-13T09:32:45Z</time>
      </trkpt>
      <trkpt lat="47.27724" lon="-1.6927">
        <ele>45.2</ele>
        <time>2013-10-13T09:32:47Z</time>
      </trkpt>
      <trkpt lat="47.27712" lon="-1.69272">
        <ele>45.3</ele>
        <time>2013-10-13T09:32:49Z</time>
      </trkpt>
      <trkpt lat="47.27703" lon="-1.69274">
        <ele>45.7</ele>
        <time>2013-10-13T09:32:51Z</time>
      </trkpt>
      <trkpt lat="47.27691" lon="-1.69275">
        <ele>45.9</ele>
        <time>2013-10-13T09:32:54Z</time>
      </trkpt>
      <trkpt lat="47.27679" lon="-1.69273">
        <ele>46</ele>
        <time>2013-10-13T09:32:57Z</time>
      </trkpt>
      <trkpt lat="47.27669" lon="-1.69269">
        <ele>46.2</ele>
        <time>2013-10-13T09:33:00Z</time>
      </trkpt>
      <trkpt lat="47.27659" lon="-1.69262">
        <ele>46.5</ele>
        <time>2013-10-13T09:33:03Z</time>
      </trkpt>
      <trkpt lat="47.2765" lon="-1.69254">
        <ele>46.6</ele>
        <time>2013-10-13T09:33:06Z</time>
      </trkpt>
      <trkpt lat="47.2764" lon="-1.69242">
        <ele>46.8</ele>
        <time>2013-10-13T09:33:09Z</time>
      </trkpt>
      <trkpt lat="47.27631" lon="-1.69231">
        <ele>47.1</ele>
        <time>2013-10-13T09:33:12Z</time>
      </trkpt>
      <trkpt lat="47.27622" lon="-1.6922">
        <ele>47.5</ele>
        <time>2013-10-13T09:33:15Z</time>
      </trkpt>
      <trkpt lat="47.27613" lon="-1.6921">
        <ele>47.8</ele>
        <time>2013-10-13T09:33:18Z</time>
      </trkpt>
      <trkpt lat="47.27605" lon="-1.69202">
        <ele>48</ele>
        <time>2013-10-13T09:33:21Z</time>
      </trkpt>
      <trkpt lat="47.27595" lon="-1.69194">
        <ele>48.2</ele>
        <time>2013-10-13T09:33:25Z</time>
      </trkpt>
      <trkpt lat="47.27585" lon="-1.69189">
        <ele>48.1</ele>
        <time>2013-10-13T09:33:28Z</time>
      </trkpt>
      <trkpt lat="47.27575" lon="-1.69184">
        <ele>48.1</ele>
        <time>2013-10-13T09:33:31Z</time>
      </trkpt>
      <trkpt lat="47.27564" lon="-1.69179">
        <ele>48.1</ele>
        <time>2013-10-13T09:33:34Z</time>
      </trkpt>
      <trkpt lat="47.27554" lon="-1.69174">
        <ele>48.1</ele>
        <time>2013-10-13T09:33:37Z</time>
      </trkpt>
      <trkpt lat="47.27546" lon="-1.69167">
        <ele>48.1</ele>
        <time>2013-10-13T09:33:40Z</time>
      </trkpt>
      <trkpt lat="47.27541" lon="-1.69153">
        <ele>48.1</ele>
        <time>2013-10-13T09:33:44Z</time>
      </trkpt>
      <trkpt lat="47.27541" lon="-1.69138">
        <ele>48.3</ele>
        <time>2013-10-13T09:33:48Z</time>
      </trkpt>
      <trkpt lat="47.27536" lon="-1.69126">
        <ele>48.6</ele>
        <time>2013-10-13T09:33:53Z</time>
      </trkpt>
      <trkpt lat="47.27527" lon="-1.69123">
        <ele>49.3</ele>
        <time>2013-10-13T09:33:58Z</time>
      </trkpt>
      <trkpt lat="47.27516" lon="-1.69118">
        <ele>49.9</ele>
        <time>2013-10-13T09:34:02Z</time>
      </trkpt>
      <trkpt lat="47.27507" lon="-1.69112">
        <ele>50.4</ele>
        <time>2013-10-13T09:34:05Z</time>
      </trkpt>
      <trkpt lat="47.27499" lon="-1.69104">
        <ele>51</ele>
        <time>2013-10-13T09:34:08Z</time>
      </trkpt>
      <trkpt lat="47.27491" lon="-1.69093">
        <ele>51.7</ele>
        <time>2013-10-13T09:34:12Z</time>
      </trkpt>
      <trkpt lat="47.27483" lon="-1.69083">
        <ele>52.7</ele>
        <time>2013-10-13T09:34:16Z</time>
      </trkpt>
      <trkpt lat="47.27475" lon="-1.69072">
        <ele>53.6</ele>
        <time>2013-10-13T09:34:20Z</time>
      </trkpt>
      <trkpt lat="47.27467" lon="-1.69063">
        <ele>54.2</ele>
        <time>2013-10-13T09:34:23Z</time>
      </trkpt>
      <trkpt lat="47.27457" lon="-1.69052">
        <ele>54.3</ele>
        <time>2013-10-13T09:34:26Z</time>
      </trkpt>
      <trkpt lat="47.27449" lon="-1.69044">
        <ele>54.3</ele>
        <time>2013-10-13T09:34:28Z</time>
      </trkpt>
      <trkpt lat="47.27441" lon="-1.69034">
        <ele>54.2</ele>
        <time>2013-10-13T09:34:30Z</time>
      </trkpt>
      <trkpt lat="47.27433" lon="-1.69025">
        <ele>54.3</ele>
        <time>2013-10-13T09:34:32Z</time>
      </trkpt>
      <trkpt lat="47.27424" lon="-1.69018">
        <ele>54.4</ele>
        <time>2013-10-13T09:34:35Z</time>
      </trkpt>
      <trkpt lat="47.27415" lon="-1.69013">
        <ele>54.6</ele>
        <time>2013-10-13T09:34:38Z</time>
      </trkpt>
      <trkpt lat="47.27403" lon="-1.69006">
        <ele>54.8</ele>
        <time>2013-10-13T09:34:41Z</time>
      </trkpt>
      <trkpt lat="47.27393" lon="-1.68999">
        <ele>55.7</ele>
        <time>2013-10-13T09:34:44Z</time>
      </trkpt>
      <trkpt lat="47.27382" lon="-1.68992">
        <ele>58</ele>
        <time>2013-10-13T09:34:47Z</time>
      </trkpt>
      <trkpt lat="47.27372" lon="-1.68986">
        <ele>58.6</ele>
        <time>2013-10-13T09:34:50Z</time>
      </trkpt>
      <trkpt lat="47.27362" lon="-1.6898">
        <ele>58.6</ele>
        <time>2013-10-13T09:34:53Z</time>
      </trkpt>
      <trkpt lat="47.27351" lon="-1.68974">
        <ele>58.3</ele>
        <time>2013-10-13T09:34:56Z</time>
      </trkpt>
      <trkpt lat="47.2734" lon="-1.68968">
        <ele>58.4</ele>
        <time>2013-10-13T09:34:59Z</time>
      </trkpt>
      <trkpt lat="47.27329" lon="-1.68962">
        <ele>58.6</ele>
        <time>2013-10-13T09:35:02Z</time>
      </trkpt>
      <trkpt lat="47.27317" lon="-1.68957">
        <ele>58.4</ele>
        <time>2013-10-13T09:35:05Z</time>
      </trkpt>
      <trkpt lat="47.27307" lon="-1.68949">
        <ele>58.2</ele>
        <time>2013-10-13T09:35:08Z</time>
      </trkpt>
      <trkpt lat="47.27297" lon="-1.68945">
        <ele>58.2</ele>
        <time>2013-10-13T09:35:11Z</time>
      </trkpt>
      <trkpt lat="47.27286" lon="-1.6894">
        <ele>58.4</ele>
        <time>2013-10-13T09:35:14Z</time>
      </trkpt>
      <trkpt lat="47.27277" lon="-1.68935">
        <ele>58.7</ele>
        <time>2013-10-13T09:35:17Z</time>
      </trkpt>
      <trkpt lat="47.27265" lon="-1.68928">
        <ele>61.1</ele>
        <time>2013-10-13T09:35:20Z</time>
      </trkpt>
      <trkpt lat="47.27256" lon="-1.68922">
        <ele>62</ele>
        <time>2013-10-13T09:35:22Z</time>
      </trkpt>
      <trkpt lat="47.27247" lon="-1.68917">
        <ele>63.1</ele>
        <time>2013-10-13T09:35:24Z</time>
      </trkpt>
      <trkpt lat="47.27238" lon="-1.68912">
        <ele>63.4</ele>
        <time>2013-10-13T09:35:26Z</time>
      </trkpt>
      <trkpt lat="47.27228" lon="-1.68906">
        <ele>63.8</ele>
        <time>2013-10-13T09:35:28Z</time>
      </trkpt>
      <trkpt lat="47.27218" lon="-1.689">
        <ele>64</ele>
        <time>2013-10-13T09:35:30Z</time>
      </trkpt>
      <trkpt lat="47.27209" lon="-1.68894">
        <ele>64.7</ele>
        <time>2013-10-13T09:35:32Z</time>
      </trkpt>
      <trkpt lat="47.272" lon="-1.68888">
        <ele>64.4</ele>
        <time>2013-10-13T09:35:34Z</time>
      </trkpt>
      <trkpt lat="47.2719" lon="-1.68882">
        <ele>63.8</ele>
        <time>2013-10-13T09:35:36Z</time>
      </trkpt>
      <trkpt lat="47.2718" lon="-1.68876">
        <ele>62.9</ele>
        <time>2013-10-13T09:35:38Z</time>
      </trkpt>
      <trkpt lat="47.27174" lon="-1.68866">
        <ele>62.5</ele>
        <time>2013-10-13T09:35:41Z</time>
      </trkpt>
      <trkpt lat="47.27179" lon="-1.68849">
        <ele>62.5</ele>
        <time>2013-10-13T09:35:44Z</time>
      </trkpt>
      <trkpt lat="47.27186" lon="-1.68832">
        <ele>62.7</ele>
        <time>2013-10-13T09:35:47Z</time>
      </trkpt>
      <trkpt lat="47.27193" lon="-1.68823">
        <ele>63.3</ele>
        <time>2013-10-13T09:35:49Z</time>
      </trkpt>
      <trkpt lat="47.27201" lon="-1.68814">
        <ele>64.2</ele>
        <time>2013-10-13T09:35:51Z</time>
      </trkpt>
      <trkpt lat="47.2721" lon="-1.68803">
        <ele>63.6</ele>
        <time>2013-10-13T09:35:53Z</time>
      </trkpt>
      <trkpt lat="47.27219" lon="-1.6879">
        <ele>63.1</ele>
        <time>2013-10-13T09:35:55Z</time>
      </trkpt>
      <trkpt lat="47.27228" lon="-1.68776">
        <ele>62.2</ele>
        <time>2013-10-13T09:35:57Z</time>
      </trkpt>
      <trkpt lat="47.27238" lon="-1.68762">
        <ele>61.8</ele>
        <time>2013-10-13T09:35:59Z</time>
      </trkpt>
      <trkpt lat="47.27248" lon="-1.68748">
        <ele>59.5</ele>
        <time>2013-10-13T09:36:01Z</time>
      </trkpt>
      <trkpt lat="47.27262" lon="-1.68734">
        <ele>58</ele>
        <time>2013-10-13T09:36:03Z</time>
      </trkpt>
      <trkpt lat="47.27276" lon="-1.6872">
        <ele>56.5</ele>
        <time>2013-10-13T09:36:05Z</time>
      </trkpt>
      <trkpt lat="47.27292" lon="-1.68708">
        <ele>54.8</ele>
        <time>2013-10-13T09:36:07Z</time>
      </trkpt>
      <trkpt lat="47.27308" lon="-1.68699">
        <ele>52.9</ele>
        <time>2013-10-13T09:36:09Z</time>
      </trkpt>
      <trkpt lat="47.27323" lon="-1.68691">
        <ele>51.2</ele>
        <time>2013-10-13T09:36:11Z</time>
      </trkpt>
      <trkpt lat="47.27337" lon="-1.68679">
        <ele>50.3</ele>
        <time>2013-10-13T09:36:13Z</time>
      </trkpt>
      <trkpt lat="47.27348" lon="-1.68664">
        <ele>48.9</ele>
        <time>2013-10-13T09:36:15Z</time>
      </trkpt>
      <trkpt lat="47.27359" lon="-1.68649">
        <ele>48.1</ele>
        <time>2013-10-13T09:36:17Z</time>
      </trkpt>
      <trkpt lat="47.2737" lon="-1.68633">
        <ele>47.5</ele>
        <time>2013-10-13T09:36:19Z</time>
      </trkpt>
      <trkpt lat="47.2738" lon="-1.68618">
        <ele>47</ele>
        <time>2013-10-13T09:36:21Z</time>
      </trkpt>
      <trkpt lat="47.27388" lon="-1.68606">
        <ele>45.7</ele>
        <time>2013-10-13T09:36:23Z</time>
      </trkpt>
      <trkpt lat="47.27398" lon="-1.68594">
        <ele>44.7</ele>
        <time>2013-10-13T09:36:26Z</time>
      </trkpt>
      <trkpt lat="47.27403" lon="-1.6858">
        <ele>44.5</ele>
        <time>2013-10-13T09:36:30Z</time>
      </trkpt>
      <trkpt lat="47.27414" lon="-1.68572">
        <ele>43.5</ele>
        <time>2013-10-13T09:36:37Z</time>
      </trkpt>
      <trkpt lat="47.27422" lon="-1.68568">
        <ele>42.9</ele>
        <time>2013-10-13T09:36:40Z</time>
      </trkpt>
      <trkpt lat="47.27428" lon="-1.68558">
        <ele>42.3</ele>
        <time>2013-10-13T09:36:43Z</time>
      </trkpt>
      <trkpt lat="47.27436" lon="-1.68549">
        <ele>41.6</ele>
        <time>2013-10-13T09:36:46Z</time>
      </trkpt>
      <trkpt lat="47.27446" lon="-1.68545">
        <ele>40.3</ele>
        <time>2013-10-13T09:36:52Z</time>
      </trkpt>
      <trkpt lat="47.27456" lon="-1.68551">
        <ele>39.7</ele>
        <time>2013-10-13T09:36:56Z</time>
      </trkpt>
      <trkpt lat="47.27464" lon="-1.68558">
        <ele>39.1</ele>
        <time>2013-10-13T09:36:59Z</time>
      </trkpt>
      <trkpt lat="47.27472" lon="-1.6857">
        <ele>38.5</ele>
        <time>2013-10-13T09:37:03Z</time>
      </trkpt>
      <trkpt lat="47.27479" lon="-1.68579">
        <ele>38.1</ele>
        <time>2013-10-13T09:37:06Z</time>
      </trkpt>
      <trkpt lat="47.27486" lon="-1.68587">
        <ele>37.9</ele>
        <time>2013-10-13T09:37:09Z</time>
      </trkpt>
      <trkpt lat="47.27495" lon="-1.68591">
        <ele>37.7</ele>
        <time>2013-10-13T09:37:13Z</time>
      </trkpt>
      <trkpt lat="47.27511" lon="-1.68599">
        <ele>36.5</ele>
        <time>2013-10-13T09:37:23Z</time>
      </trkpt>
      <trkpt lat="47.27521" lon="-1.68603">
        <ele>36</ele>
        <time>2013-10-13T09:37:26Z</time>
      </trkpt>
      <trkpt lat="47.2753" lon="-1.68608">
        <ele>35.7</ele>
        <time>2013-10-13T09:37:29Z</time>
      </trkpt>
      <trkpt lat="47.27541" lon="-1.68617">
        <ele>35.3</ele>
        <time>2013-10-13T09:37:33Z</time>
      </trkpt>
      <trkpt lat="47.27549" lon="-1.68629">
        <ele>35</ele>
        <time>2013-10-13T09:37:36Z</time>
      </trkpt>
      <trkpt lat="47.27553" lon="-1.68641">
        <ele>34.8</ele>
        <time>2013-10-13T09:37:40Z</time>
      </trkpt>
      <trkpt lat="47.27559" lon="-1.68653">
        <ele>34.4</ele>
        <time>2013-10-13T09:37:44Z</time>
      </trkpt>
      <trkpt lat="47.27565" lon="-1.68664">
        <ele>34</ele>
        <time>2013-10-13T09:37:49Z</time>
      </trkpt>
      <trkpt lat="47.27569" lon="-1.68679">
        <ele>33.3</ele>
        <time>2013-10-13T09:37:54Z</time>
      </trkpt>
      <trkpt lat="47.27574" lon="-1.68692">
        <ele>33</ele>
        <time>2013-10-13T09:37:59Z</time>
      </trkpt>
      <trkpt lat="47.27574" lon="-1.6871">
        <ele>33</ele>
        <time>2013-10-13T09:38:07Z</time>
      </trkpt>
      <trkpt lat="47.27581" lon="-1.68721">
        <ele>32.8</ele>
        <time>2013-10-13T09:38:16Z</time>
      </trkpt>
      <trkpt lat="47.2759" lon="-1.6873">
        <ele>32.8</ele>
        <time>2013-10-13T09:38:21Z</time>
      </trkpt>
      <trkpt lat="47.27601" lon="-1.68736">
        <ele>31.9</ele>
        <time>2013-10-13T09:38:26Z</time>
      </trkpt>
      <trkpt lat="47.27609" lon="-1.6874">
        <ele>31.5</ele>
        <time>2013-10-13T09:38:29Z</time>
      </trkpt>
      <trkpt lat="47.27619" lon="-1.68743">
        <ele>31.4</ele>
        <time>2013-10-13T09:38:33Z</time>
      </trkpt>
      <trkpt lat="47.27628" lon="-1.68737">
        <ele>30.6</ele>
        <time>2013-10-13T09:38:37Z</time>
      </trkpt>
      <trkpt lat="47.27638" lon="-1.68724">
        <ele>28.7</ele>
        <time>2013-10-13T09:38:45Z</time>
      </trkpt>
      <trkpt lat="47.2765" lon="-1.6872">
        <ele>26.2</ele>
        <time>2013-10-13T09:39:01Z</time>
      </trkpt>
      <trkpt lat="47.2766" lon="-1.6871">
        <ele>24.1</ele>
        <time>2013-10-13T09:39:11Z</time>
      </trkpt>
      <trkpt lat="47.27672" lon="-1.68704">
        <ele>24.4</ele>
        <time>2013-10-13T09:39:23Z</time>
      </trkpt>
      <trkpt lat="47.27682" lon="-1.68697">
        <ele>24.7</ele>
        <time>2013-10-13T09:39:26Z</time>
      </trkpt>
      <trkpt lat="47.27684" lon="-1.6868">
        <ele>25</ele>
        <time>2013-10-13T09:39:29Z</time>
      </trkpt>
      <trkpt lat="47.27675" lon="-1.68654">
        <ele>28</ele>
        <time>2013-10-13T09:39:41Z</time>
      </trkpt>
      <trkpt lat="47.27682" lon="-1.68643">
        <ele>30.1</ele>
        <time>2013-10-13T09:39:56Z</time>
      </trkpt>
      <trkpt lat="47.2769" lon="-1.68635">
        <ele>31.7</ele>
        <time>2013-10-13T09:39:59Z</time>
      </trkpt>
      <trkpt lat="47.277" lon="-1.68628">
        <ele>33.7</ele>
        <time>2013-10-13T09:40:03Z</time>
      </trkpt>
      <trkpt lat="47.27707" lon="-1.68618">
        <ele>35.7</ele>
        <time>2013-10-13T09:40:07Z</time>
      </trkpt>
      <trkpt lat="47.27715" lon="-1.68606">
        <ele>37.3</ele>
        <time>2013-10-13T09:40:11Z</time>
      </trkpt>
      <trkpt lat="47.27724" lon="-1.68599">
        <ele>38.3</ele>
        <time>2013-10-13T09:40:14Z</time>
      </trkpt>
      <trkpt lat="47.27734" lon="-1.68588">
        <ele>39.7</ele>
        <time>2013-10-13T09:40:18Z</time>
      </trkpt>
      <trkpt lat="47.27742" lon="-1.68578">
        <ele>40.1</ele>
        <time>2013-10-13T09:40:22Z</time>
      </trkpt>
      <trkpt lat="47.27749" lon="-1.68568">
        <ele>40.3</ele>
        <time>2013-10-13T09:40:26Z</time>
      </trkpt>
      <trkpt lat="47.27751" lon="-1.68552">
        <ele>41.4</ele>
        <time>2013-10-13T09:40:38Z</time>
      </trkpt>
      <trkpt lat="47.27746" lon="-1.68529">
        <ele>45.7</ele>
        <time>2013-10-13T09:40:54Z</time>
      </trkpt>
      <trkpt lat="47.27738" lon="-1.68518">
        <ele>48.8</ele>
        <time>2013-10-13T09:41:02Z</time>
      </trkpt>
      <trkpt lat="47.27727" lon="-1.68514">
        <ele>49.9</ele>
        <time>2013-10-13T09:41:07Z</time>
      </trkpt>
      <trkpt lat="47.27717" lon="-1.68498">
        <ele>52</ele>
        <time>2013-10-13T09:41:18Z</time>
      </trkpt>
      <trkpt lat="47.27711" lon="-1.68488">
        <ele>53.2</ele>
        <time>2013-10-13T09:41:23Z</time>
      </trkpt>
      <trkpt lat="47.27704" lon="-1.68473">
        <ele>53.7</ele>
        <time>2013-10-13T09:41:26Z</time>
      </trkpt>
      <trkpt lat="47.27698" lon="-1.68462">
        <ele>54</ele>
        <time>2013-10-13T09:41:29Z</time>
      </trkpt>
      <trkpt lat="47.27692" lon="-1.68447">
        <ele>54</ele>
        <time>2013-10-13T09:41:32Z</time>
      </trkpt>
      <trkpt lat="47.27688" lon="-1.68435">
        <ele>54.1</ele>
        <time>2013-10-13T09:41:36Z</time>
      </trkpt>
      <trkpt lat="47.27682" lon="-1.68423">
        <ele>54.3</ele>
        <time>2013-10-13T09:41:41Z</time>
      </trkpt>
      <trkpt lat="47.27678" lon="-1.68411">
        <ele>54.3</ele>
        <time>2013-10-13T09:41:45Z</time>
      </trkpt>
      <trkpt lat="47.27671" lon="-1.684">
        <ele>54.6</ele>
        <time>2013-10-13T09:41:50Z</time>
      </trkpt>
      <trkpt lat="47.27669" lon="-1.68386">
        <ele>54.6</ele>
        <time>2013-10-13T09:41:54Z</time>
      </trkpt>
      <trkpt lat="47.2767" lon="-1.68369">
        <ele>54.3</ele>
        <time>2013-10-13T09:41:57Z</time>
      </trkpt>
      <trkpt lat="47.27668" lon="-1.68353">
        <ele>53.6</ele>
        <time>2013-10-13T09:42:00Z</time>
      </trkpt>
      <trkpt lat="47.27667" lon="-1.68339">
        <ele>52.8</ele>
        <time>2013-10-13T09:42:03Z</time>
      </trkpt>
      <trkpt lat="47.27665" lon="-1.68321">
        <ele>51.9</ele>
        <time>2013-10-13T09:42:06Z</time>
      </trkpt>
      <trkpt lat="47.27665" lon="-1.68305">
        <ele>51</ele>
        <time>2013-10-13T09:42:09Z</time>
      </trkpt>
      <trkpt lat="47.27664" lon="-1.68291">
        <ele>50</ele>
        <time>2013-10-13T09:42:12Z</time>
      </trkpt>
      <trkpt lat="47.2766" lon="-1.68277">
        <ele>48.8</ele>
        <time>2013-10-13T09:42:15Z</time>
      </trkpt>
      <trkpt lat="47.27655" lon="-1.68264">
        <ele>47.5</ele>
        <time>2013-10-13T09:42:18Z</time>
      </trkpt>
      <trkpt lat="47.2765" lon="-1.68251">
        <ele>46.3</ele>
        <time>2013-10-13T09:42:21Z</time>
      </trkpt>
      <trkpt lat="47.27644" lon="-1.68237">
        <ele>44.9</ele>
        <time>2013-10-13T09:42:24Z</time>
      </trkpt>
      <trkpt lat="47.27641" lon="-1.68224">
        <ele>43.4</ele>
        <time>2013-10-13T09:42:27Z</time>
      </trkpt>
      <trkpt lat="47.27642" lon="-1.68209">
        <ele>41.9</ele>
        <time>2013-10-13T09:42:30Z</time>
      </trkpt>
      <trkpt lat="47.27641" lon="-1.68181">
        <ele>41.6</ele>
        <time>2013-10-13T09:42:32Z</time>
      </trkpt>
      <trkpt lat="47.2764" lon="-1.68166">
        <ele>41.7</ele>
        <time>2013-10-13T09:42:33Z</time>
      </trkpt>
      <trkpt lat="47.27639" lon="-1.68153">
        <ele>41.7</ele>
        <time>2013-10-13T09:42:34Z</time>
      </trkpt>
      <trkpt lat="47.27638" lon="-1.68131">
        <ele>41.8</ele>
        <time>2013-10-13T09:42:36Z</time>
      </trkpt>
      <trkpt lat="47.27637" lon="-1.68113">
        <ele>42.3</ele>
        <time>2013-10-13T09:42:38Z</time>
      </trkpt>
      <trkpt lat="47.27636" lon="-1.68094">
        <ele>42.9</ele>
        <time>2013-10-13T09:42:41Z</time>
      </trkpt>
      <trkpt lat="47.27634" lon="-1.68076">
        <ele>43.5</ele>
        <time>2013-10-13T09:42:44Z</time>
      </trkpt>
      <trkpt lat="47.27631" lon="-1.68058">
        <ele>44.2</ele>
        <time>2013-10-13T09:42:47Z</time>
      </trkpt>
      <trkpt lat="47.27629" lon="-1.68042">
        <ele>44.7</ele>
        <time>2013-10-13T09:42:50Z</time>
      </trkpt>
      <trkpt lat="47.27626" lon="-1.68027">
        <ele>45.2</ele>
        <time>2013-10-13T09:42:53Z</time>
      </trkpt>
      <trkpt lat="47.27619" lon="-1.68016">
        <ele>45.8</ele>
        <time>2013-10-13T09:42:56Z</time>
      </trkpt>
      <trkpt lat="47.27608" lon="-1.68019">
        <ele>46.6</ele>
        <time>2013-10-13T09:43:00Z</time>
      </trkpt>
      <trkpt lat="47.27598" lon="-1.68021">
        <ele>47.1</ele>
        <time>2013-10-13T09:43:03Z</time>
      </trkpt>
      <trkpt lat="47.27586" lon="-1.68021">
        <ele>47.8</ele>
        <time>2013-10-13T09:43:07Z</time>
      </trkpt>
      <trkpt lat="47.27576" lon="-1.68019">
        <ele>48.3</ele>
        <time>2013-10-13T09:43:10Z</time>
      </trkpt>
      <trkpt lat="47.27567" lon="-1.68015">
        <ele>48.8</ele>
        <time>2013-10-13T09:43:13Z</time>
      </trkpt>
      <trkpt lat="47.27558" lon="-1.6801">
        <ele>49.4</ele>
        <time>2013-10-13T09:43:17Z</time>
      </trkpt>
      <trkpt lat="47.27551" lon="-1.68001">
        <ele>50.5</ele>
        <time>2013-10-13T09:43:22Z</time>
      </trkpt>
      <trkpt lat="47.27545" lon="-1.67989">
        <ele>51.7</ele>
        <time>2013-10-13T09:43:29Z</time>
      </trkpt>
      <trkpt lat="47.27539" lon="-1.67975">
        <ele>52.6</ele>
        <time>2013-10-13T09:43:35Z</time>
      </trkpt>
      <trkpt lat="47.27534" lon="-1.67962">
        <ele>53.6</ele>
        <time>2013-10-13T09:43:40Z</time>
      </trkpt>
      <trkpt lat="47.27527" lon="-1.67951">
        <ele>54.5</ele>
        <time>2013-10-13T09:43:45Z</time>
      </trkpt>
      <trkpt lat="47.27522" lon="-1.67939">
        <ele>55</ele>
        <time>2013-10-13T09:43:49Z</time>
      </trkpt>
      <trkpt lat="47.27516" lon="-1.67929">
        <ele>55.5</ele>
        <time>2013-10-13T09:43:53Z</time>
      </trkpt>
      <trkpt lat="47.2751" lon="-1.67916">
        <ele>55.8</ele>
        <time>2013-10-13T09:43:57Z</time>
      </trkpt>
      <trkpt lat="47.27505" lon="-1.67902">
        <ele>56.1</ele>
        <time>2013-10-13T09:44:01Z</time>
      </trkpt>
      <trkpt lat="47.27503" lon="-1.67886">
        <ele>56.7</ele>
        <time>2013-10-13T09:44:06Z</time>
      </trkpt>
      <trkpt lat="47.275" lon="-1.67871">
        <ele>57.3</ele>
        <time>2013-10-13T09:44:11Z</time>
      </trkpt>
      <trkpt lat="47.27497" lon="-1.67857">
        <ele>57.3</ele>
        <time>2013-10-13T09:44:15Z</time>
      </trkpt>
      <trkpt lat="47.27494" lon="-1.67843">
        <ele>57.4</ele>
        <time>2013-10-13T09:44:19Z</time>
      </trkpt>
      <trkpt lat="47.27488" lon="-1.67831">
        <ele>57.2</ele>
        <time>2013-10-13T09:44:24Z</time>
      </trkpt>
      <trkpt lat="47.27486" lon="-1.67815">
        <ele>56.7</ele>
        <time>2013-10-13T09:44:28Z</time>
      </trkpt>
      <trkpt lat="47.27486" lon="-1.67798">
        <ele>56.3</ele>
        <time>2013-10-13T09:44:32Z</time>
      </trkpt>
      <trkpt lat="47.27484" lon="-1.67782">
        <ele>55.9</ele>
        <time>2013-10-13T09:44:36Z</time>
      </trkpt>
      <trkpt lat="47.27479" lon="-1.67766">
        <ele>55.6</ele>
        <time>2013-10-13T09:44:39Z</time>
      </trkpt>
      <trkpt lat="47.27473" lon="-1.67752">
        <ele>55.2</ele>
        <time>2013-10-13T09:44:42Z</time>
      </trkpt>
      <trkpt lat="47.27467" lon="-1.6774">
        <ele>55</ele>
        <time>2013-10-13T09:44:45Z</time>
      </trkpt>
      <trkpt lat="47.2746" lon="-1.67731">
        <ele>54.9</ele>
        <time>2013-10-13T09:44:48Z</time>
      </trkpt>
      <trkpt lat="47.27453" lon="-1.67722">
        <ele>55</ele>
        <time>2013-10-13T09:44:51Z</time>
      </trkpt>
      <trkpt lat="47.27445" lon="-1.6771">
        <ele>55.1</ele>
        <time>2013-10-13T09:44:54Z</time>
      </trkpt>
      <trkpt lat="47.27437" lon="-1.67696">
        <ele>55.2</ele>
        <time>2013-10-13T09:44:57Z</time>
      </trkpt>
      <trkpt lat="47.27437" lon="-1.67682">
        <ele>55.1</ele>
        <time>2013-10-13T09:44:59Z</time>
      </trkpt>
      <trkpt lat="47.27438" lon="-1.67667">
        <ele>55.7</ele>
        <time>2013-10-13T09:45:01Z</time>
      </trkpt>
      <trkpt lat="47.27438" lon="-1.67654">
        <ele>56.5</ele>
        <time>2013-10-13T09:45:03Z</time>
      </trkpt>
      <trkpt lat="47.27437" lon="-1.67638">
        <ele>57.4</ele>
        <time>2013-10-13T09:45:05Z</time>
      </trkpt>
      <trkpt lat="47.27434" lon="-1.67624">
        <ele>57.2</ele>
        <time>2013-10-13T09:45:07Z</time>
      </trkpt>
      <trkpt lat="47.27431" lon="-1.67611">
        <ele>56.6</ele>
        <time>2013-10-13T09:45:09Z</time>
      </trkpt>
      <trkpt lat="47.27427" lon="-1.67597">
        <ele>56.6</ele>
        <time>2013-10-13T09:45:11Z</time>
      </trkpt>
      <trkpt lat="47.27426" lon="-1.67582">
        <ele>57</ele>
        <time>2013-10-13T09:45:13Z</time>
      </trkpt>
      <trkpt lat="47.27429" lon="-1.67568">
        <ele>57.7</ele>
        <time>2013-10-13T09:45:15Z</time>
      </trkpt>
      <trkpt lat="47.27436" lon="-1.67557">
        <ele>57.9</ele>
        <time>2013-10-13T09:45:18Z</time>
      </trkpt>
      <trkpt lat="47.27447" lon="-1.67545">
        <ele>58</ele>
        <time>2013-10-13T09:45:21Z</time>
      </trkpt>
      <trkpt lat="47.27454" lon="-1.67536">
        <ele>59.1</ele>
        <time>2013-10-13T09:45:23Z</time>
      </trkpt>
      <trkpt lat="47.27462" lon="-1.67527">
        <ele>60.5</ele>
        <time>2013-10-13T09:45:25Z</time>
      </trkpt>
      <trkpt lat="47.27472" lon="-1.67516">
        <ele>59.5</ele>
        <time>2013-10-13T09:45:27Z</time>
      </trkpt>
      <trkpt lat="47.2748" lon="-1.67506">
        <ele>59.5</ele>
        <time>2013-10-13T09:45:29Z</time>
      </trkpt>
      <trkpt lat="47.27492" lon="-1.67494">
        <ele>61.6</ele>
        <time>2013-10-13T09:45:32Z</time>
      </trkpt>
      <trkpt lat="47.275" lon="-1.67485">
        <ele>62.1</ele>
        <time>2013-10-13T09:45:34Z</time>
      </trkpt>
      <trkpt lat="47.27509" lon="-1.67478">
        <ele>62.1</ele>
        <time>2013-10-13T09:45:36Z</time>
      </trkpt>
      <trkpt lat="47.27517" lon="-1.67472">
        <ele>62</ele>
        <time>2013-10-13T09:45:38Z</time>
      </trkpt>
      <trkpt lat="47.27526" lon="-1.67465">
        <ele>62.5</ele>
        <time>2013-10-13T09:45:40Z</time>
      </trkpt>
      <trkpt lat="47.27534" lon="-1.67458">
        <ele>62.6</ele>
        <time>2013-10-13T09:45:42Z</time>
      </trkpt>
      <trkpt lat="47.27543" lon="-1.6745">
        <ele>63</ele>
        <time>2013-10-13T09:45:44Z</time>
      </trkpt>
      <trkpt lat="47.27551" lon="-1.67442">
        <ele>64</ele>
        <time>2013-10-13T09:45:46Z</time>
      </trkpt>
      <trkpt lat="47.2756" lon="-1.67435">
        <ele>64.2</ele>
        <time>2013-10-13T09:45:48Z</time>
      </trkpt>
      <trkpt lat="47.27567" lon="-1.67427">
        <ele>64.8</ele>
        <time>2013-10-13T09:45:50Z</time>
      </trkpt>
      <trkpt lat="47.2758" lon="-1.6742">
        <ele>65.2</ele>
        <time>2013-10-13T09:45:53Z</time>
      </trkpt>
      <trkpt lat="47.27592" lon="-1.67413">
        <ele>65</ele>
        <time>2013-10-13T09:45:56Z</time>
      </trkpt>
      <trkpt lat="47.27601" lon="-1.67408">
        <ele>65</ele>
        <time>2013-10-13T09:45:58Z</time>
      </trkpt>
      <trkpt lat="47.2761" lon="-1.67403">
        <ele>64.8</ele>
        <time>2013-10-13T09:46:00Z</time>
      </trkpt>
      <trkpt lat="47.2762" lon="-1.67398">
        <ele>64.4</ele>
        <time>2013-10-13T09:46:02Z</time>
      </trkpt>
      <trkpt lat="47.27628" lon="-1.67391">
        <ele>64.4</ele>
        <time>2013-10-13T09:46:04Z</time>
      </trkpt>
      <trkpt lat="47.27627" lon="-1.67376">
        <ele>64.2</ele>
        <time>2013-10-13T09:46:12Z</time>
      </trkpt>
      <trkpt lat="47.2762" lon="-1.67366">
        <ele>64.1</ele>
        <time>2013-10-13T09:46:15Z</time>
      </trkpt>
      <trkpt lat="47.27611" lon="-1.67356">
        <ele>64.1</ele>
        <time>2013-10-13T09:46:18Z</time>
      </trkpt>
      <trkpt lat="47.27601" lon="-1.67343">
        <ele>64.2</ele>
        <time>2013-10-13T09:46:21Z</time>
      </trkpt>
      <trkpt lat="47.27595" lon="-1.67333">
        <ele>65.1</ele>
        <time>2013-10-13T09:46:23Z</time>
      </trkpt>
      <trkpt lat="47.27588" lon="-1.67323">
        <ele>64.9</ele>
        <time>2013-10-13T09:46:25Z</time>
      </trkpt>
      <trkpt lat="47.27581" lon="-1.67311">
        <ele>64.3</ele>
        <time>2013-10-13T09:46:27Z</time>
      </trkpt>
      <trkpt lat="47.27572" lon="-1.67298">
        <ele>64.3</ele>
        <time>2013-10-13T09:46:29Z</time>
      </trkpt>
      <trkpt lat="47.27565" lon="-1.67283">
        <ele>64.6</ele>
        <time>2013-10-13T09:46:31Z</time>
      </trkpt>
      <trkpt lat="47.27559" lon="-1.67266">
        <ele>64</ele>
        <time>2013-10-13T09:46:33Z</time>
      </trkpt>
      <trkpt lat="47.27553" lon="-1.67246">
        <ele>64.7</ele>
        <time>2013-10-13T09:46:35Z</time>
      </trkpt>
      <trkpt lat="47.27549" lon="-1.67226">
        <ele>65.1</ele>
        <time>2013-10-13T09:46:37Z</time>
      </trkpt>
      <trkpt lat="47.27546" lon="-1.67207">
        <ele>64.9</ele>
        <time>2013-10-13T09:46:39Z</time>
      </trkpt>
      <trkpt lat="47.27542" lon="-1.67187">
        <ele>65.4</ele>
        <time>2013-10-13T09:46:41Z</time>
      </trkpt>
      <trkpt lat="47.27539" lon="-1.67168">
        <ele>66</ele>
        <time>2013-10-13T09:46:43Z</time>
      </trkpt>
      <trkpt lat="47.27536" lon="-1.67149">
        <ele>65.8</ele>
        <time>2013-10-13T09:46:45Z</time>
      </trkpt>
      <trkpt lat="47.27533" lon="-1.67129">
        <ele>65.5</ele>
        <time>2013-10-13T09:46:47Z</time>
      </trkpt>
      <trkpt lat="47.2753" lon="-1.6711">
        <ele>64.8</ele>
        <time>2013-10-13T09:46:49Z</time>
      </trkpt>
      <trkpt lat="47.27528" lon="-1.67093">
        <ele>64</ele>
        <time>2013-10-13T09:46:51Z</time>
      </trkpt>
      <trkpt lat="47.27525" lon="-1.67078">
        <ele>63.9</ele>
        <time>2013-10-13T09:46:54Z</time>
      </trkpt>
      <trkpt lat="47.2752" lon="-1.67064">
        <ele>63.7</ele>
        <time>2013-10-13T09:47:08Z</time>
      </trkpt>
      <trkpt lat="47.27515" lon="-1.67046">
        <ele>63.2</ele>
        <time>2013-10-13T09:47:11Z</time>
      </trkpt>
      <trkpt lat="47.27511" lon="-1.67031">
        <ele>61.8</ele>
        <time>2013-10-13T09:47:13Z</time>
      </trkpt>
      <trkpt lat="47.27506" lon="-1.67012">
        <ele>59.5</ele>
        <time>2013-10-13T09:47:15Z</time>
      </trkpt>
      <trkpt lat="47.275" lon="-1.6699">
        <ele>57.7</ele>
        <time>2013-10-13T09:47:17Z</time>
      </trkpt>
      <trkpt lat="47.27493" lon="-1.6697">
        <ele>56.4</ele>
        <time>2013-10-13T09:47:19Z</time>
      </trkpt>
      <trkpt lat="47.27486" lon="-1.66949">
        <ele>54.6</ele>
        <time>2013-10-13T09:47:21Z</time>
      </trkpt>
      <trkpt lat="47.27479" lon="-1.66929">
        <ele>52.7</ele>
        <time>2013-10-13T09:47:23Z</time>
      </trkpt>
      <trkpt lat="47.27475" lon="-1.66916">
        <ele>51.4</ele>
        <time>2013-10-13T09:47:24Z</time>
      </trkpt>
      <trkpt lat="47.27471" lon="-1.66904">
        <ele>50.5</ele>
        <time>2013-10-13T09:47:25Z</time>
      </trkpt>
      <trkpt lat="47.27466" lon="-1.66891">
        <ele>50.4</ele>
        <time>2013-10-13T09:47:26Z</time>
      </trkpt>
      <trkpt lat="47.27456" lon="-1.66871">
        <ele>50</ele>
        <time>2013-10-13T09:47:28Z</time>
      </trkpt>
      <trkpt lat="47.27446" lon="-1.66852">
        <ele>50.9</ele>
        <time>2013-10-13T09:47:30Z</time>
      </trkpt>
      <trkpt lat="47.27437" lon="-1.66835">
        <ele>51.3</ele>
        <time>2013-10-13T09:47:32Z</time>
      </trkpt>
      <trkpt lat="47.27426" lon="-1.66817">
        <ele>52.4</ele>
        <time>2013-10-13T09:47:34Z</time>
      </trkpt>
      <trkpt lat="47.27416" lon="-1.668">
        <ele>52.8</ele>
        <time>2013-10-13T09:47:36Z</time>
      </trkpt>
      <trkpt lat="47.27405" lon="-1.66785">
        <ele>54.5</ele>
        <time>2013-10-13T09:47:38Z</time>
      </trkpt>
      <trkpt lat="47.27395" lon="-1.66769">
        <ele>58.1</ele>
        <time>2013-10-13T09:47:40Z</time>
      </trkpt>
      <trkpt lat="47.27385" lon="-1.66754">
        <ele>60.1</ele>
        <time>2013-10-13T09:47:42Z</time>
      </trkpt>
      <trkpt lat="47.27376" lon="-1.66742">
        <ele>61</ele>
        <time>2013-10-13T09:47:44Z</time>
      </trkpt>
      <trkpt lat="47.27368" lon="-1.66731">
        <ele>60</ele>
        <time>2013-10-13T09:47:46Z</time>
      </trkpt>
      <trkpt lat="47.27359" lon="-1.66719">
        <ele>59.2</ele>
        <time>2013-10-13T09:47:48Z</time>
      </trkpt>
      <trkpt lat="47.27349" lon="-1.66707">
        <ele>58.9</ele>
        <time>2013-10-13T09:47:50Z</time>
      </trkpt>
      <trkpt lat="47.27341" lon="-1.66697">
        <ele>58.9</ele>
        <time>2013-10-13T09:47:52Z</time>
      </trkpt>
      <trkpt lat="47.27334" lon="-1.66686">
        <ele>58</ele>
        <time>2013-10-13T09:47:54Z</time>
      </trkpt>
      <trkpt lat="47.27325" lon="-1.66673">
        <ele>56.7</ele>
        <time>2013-10-13T09:47:57Z</time>
      </trkpt>
      <trkpt lat="47.2732" lon="-1.66662">
        <ele>56.2</ele>
        <time>2013-10-13T09:47:59Z</time>
      </trkpt>
      <trkpt lat="47.27312" lon="-1.66648">
        <ele>56.1</ele>
        <time>2013-10-13T09:48:02Z</time>
      </trkpt>
      <trkpt lat="47.27301" lon="-1.66639">
        <ele>56.4</ele>
        <time>2013-10-13T09:48:05Z</time>
      </trkpt>
      <trkpt lat="47.27291" lon="-1.66635">
        <ele>56.1</ele>
        <time>2013-10-13T09:48:07Z</time>
      </trkpt>
      <trkpt lat="47.27282" lon="-1.66633">
        <ele>56.1</ele>
        <time>2013-10-13T09:48:09Z</time>
      </trkpt>
      <trkpt lat="47.27273" lon="-1.66632">
        <ele>57.1</ele>
        <time>2013-10-13T09:48:11Z</time>
      </trkpt>
      <trkpt lat="47.27262" lon="-1.66632">
        <ele>59.2</ele>
        <time>2013-10-13T09:48:13Z</time>
      </trkpt>
      <trkpt lat="47.2725" lon="-1.66631">
        <ele>60.4</ele>
        <time>2013-10-13T09:48:15Z</time>
      </trkpt>
      <trkpt lat="47.27237" lon="-1.6663">
        <ele>60.2</ele>
        <time>2013-10-13T09:48:17Z</time>
      </trkpt>
      <trkpt lat="47.27224" lon="-1.66629">
        <ele>59.4</ele>
        <time>2013-10-13T09:48:19Z</time>
      </trkpt>
      <trkpt lat="47.2721" lon="-1.66626">
        <ele>58.1</ele>
        <time>2013-10-13T09:48:21Z</time>
      </trkpt>
      <trkpt lat="47.27196" lon="-1.66622">
        <ele>56.9</ele>
        <time>2013-10-13T09:48:23Z</time>
      </trkpt>
      <trkpt lat="47.27181" lon="-1.66617">
        <ele>54.9</ele>
        <time>2013-10-13T09:48:25Z</time>
      </trkpt>
      <trkpt lat="47.27167" lon="-1.66609">
        <ele>54.9</ele>
        <time>2013-10-13T09:48:27Z</time>
      </trkpt>
      <trkpt lat="47.2715" lon="-1.66598">
        <ele>56.2</ele>
        <time>2013-10-13T09:48:29Z</time>
      </trkpt>
      <trkpt lat="47.27142" lon="-1.66592">
        <ele>56.5</ele>
        <time>2013-10-13T09:48:30Z</time>
      </trkpt>
      <trkpt lat="47.27134" lon="-1.66585">
        <ele>56.5</ele>
        <time>2013-10-13T09:48:31Z</time>
      </trkpt>
      <trkpt lat="47.27126" lon="-1.66578">
        <ele>56.7</ele>
        <time>2013-10-13T09:48:32Z</time>
      </trkpt>
      <trkpt lat="47.27112" lon="-1.66566">
        <ele>56.8</ele>
        <time>2013-10-13T09:48:34Z</time>
      </trkpt>
      <trkpt lat="47.27097" lon="-1.66553">
        <ele>56.4</ele>
        <time>2013-10-13T09:48:36Z</time>
      </trkpt>
      <trkpt lat="47.27084" lon="-1.66542">
        <ele>55.2</ele>
        <time>2013-10-13T09:48:38Z</time>
      </trkpt>
      <trkpt lat="47.2707" lon="-1.66533">
        <ele>53.8</ele>
        <time>2013-10-13T09:48:40Z</time>
      </trkpt>
      <trkpt lat="47.27058" lon="-1.66525">
        <ele>52.8</ele>
        <time>2013-10-13T09:48:42Z</time>
      </trkpt>
      <trkpt lat="47.27047" lon="-1.6652">
        <ele>51.4</ele>
        <time>2013-10-13T09:48:44Z</time>
      </trkpt>
      <trkpt lat="47.27035" lon="-1.66514">
        <ele>50.3</ele>
        <time>2013-10-13T09:48:46Z</time>
      </trkpt>
      <trkpt lat="47.27023" lon="-1.66508">
        <ele>50.2</ele>
        <time>2013-10-13T09:48:48Z</time>
      </trkpt>
      <trkpt lat="47.2701" lon="-1.66504">
        <ele>51.1</ele>
        <time>2013-10-13T09:48:50Z</time>
      </trkpt>
      <trkpt lat="47.26995" lon="-1.66503">
        <ele>51.5</ele>
        <time>2013-10-13T09:48:52Z</time>
      </trkpt>
      <trkpt lat="47.26981" lon="-1.66504">
        <ele>51.7</ele>
        <time>2013-10-13T09:48:54Z</time>
      </trkpt>
      <trkpt lat="47.26967" lon="-1.66506">
        <ele>51.2</ele>
        <time>2013-10-13T09:48:56Z</time>
      </trkpt>
      <trkpt lat="47.26952" lon="-1.66507">
        <ele>50.6</ele>
        <time>2013-10-13T09:48:58Z</time>
      </trkpt>
      <trkpt lat="47.26937" lon="-1.66509">
        <ele>49.3</ele>
        <time>2013-10-13T09:49:00Z</time>
      </trkpt>
      <trkpt lat="47.26923" lon="-1.6651">
        <ele>47.9</ele>
        <time>2013-10-13T09:49:02Z</time>
      </trkpt>
      <trkpt lat="47.26912" lon="-1.66507">
        <ele>47.5</ele>
        <time>2013-10-13T09:49:04Z</time>
      </trkpt>
      <trkpt lat="47.26904" lon="-1.66498">
        <ele>47.5</ele>
        <time>2013-10-13T09:49:06Z</time>
      </trkpt>
      <trkpt lat="47.26897" lon="-1.66486">
        <ele>48.4</ele>
        <time>2013-10-13T09:49:08Z</time>
      </trkpt>
      <trkpt lat="47.26891" lon="-1.66468">
        <ele>48.1</ele>
        <time>2013-10-13T09:49:10Z</time>
      </trkpt>
      <trkpt lat="47.26888" lon="-1.66449">
        <ele>47.7</ele>
        <time>2013-10-13T09:49:12Z</time>
      </trkpt>
      <trkpt lat="47.26884" lon="-1.6643">
        <ele>47.7</ele>
        <time>2013-10-13T09:49:14Z</time>
      </trkpt>
      <trkpt lat="47.2688" lon="-1.66413">
        <ele>47.6</ele>
        <time>2013-10-13T09:49:16Z</time>
      </trkpt>
      <trkpt lat="47.26875" lon="-1.66398">
        <ele>47.8</ele>
        <time>2013-10-13T09:49:18Z</time>
      </trkpt>
      <trkpt lat="47.2687" lon="-1.66384">
        <ele>49</ele>
        <time>2013-10-13T09:49:20Z</time>
      </trkpt>
      <trkpt lat="47.2686" lon="-1.66372">
        <ele>48.4</ele>
        <time>2013-10-13T09:49:23Z</time>
      </trkpt>
      <trkpt lat="47.2685" lon="-1.66367">
        <ele>49</ele>
        <time>2013-10-13T09:49:25Z</time>
      </trkpt>
      <trkpt lat="47.26837" lon="-1.66362">
        <ele>49.7</ele>
        <time>2013-10-13T09:49:27Z</time>
      </trkpt>
      <trkpt lat="47.26825" lon="-1.66358">
        <ele>50.2</ele>
        <time>2013-10-13T09:49:29Z</time>
      </trkpt>
      <trkpt lat="47.26813" lon="-1.66355">
        <ele>50.1</ele>
        <time>2013-10-13T09:49:31Z</time>
      </trkpt>
      <trkpt lat="47.26802" lon="-1.6635">
        <ele>49.7</ele>
        <time>2013-10-13T09:49:33Z</time>
      </trkpt>
      <trkpt lat="47.26791" lon="-1.66345">
        <ele>49.5</ele>
        <time>2013-10-13T09:49:35Z</time>
      </trkpt>
      <trkpt lat="47.26781" lon="-1.66341">
        <ele>49.3</ele>
        <time>2013-10-13T09:49:37Z</time>
      </trkpt>
      <trkpt lat="47.2677" lon="-1.66338">
        <ele>50.5</ele>
        <time>2013-10-13T09:49:39Z</time>
      </trkpt>
      <trkpt lat="47.2676" lon="-1.66335">
        <ele>51.4</ele>
        <time>2013-10-13T09:49:41Z</time>
      </trkpt>
      <trkpt lat="47.26751" lon="-1.66332">
        <ele>51.4</ele>
        <time>2013-10-13T09:49:43Z</time>
      </trkpt>
      <trkpt lat="47.26743" lon="-1.6632">
        <ele>51.4</ele>
        <time>2013-10-13T09:49:47Z</time>
      </trkpt>
      <trkpt lat="47.26735" lon="-1.66306">
        <ele>50.9</ele>
        <time>2013-10-13T09:49:50Z</time>
      </trkpt>
      <trkpt lat="47.26728" lon="-1.66298">
        <ele>50.4</ele>
        <time>2013-10-13T09:49:53Z</time>
      </trkpt>
      <trkpt lat="47.26718" lon="-1.66292">
        <ele>49.8</ele>
        <time>2013-10-13T09:49:56Z</time>
      </trkpt>
      <trkpt lat="47.26709" lon="-1.66286">
        <ele>48.7</ele>
        <time>2013-10-13T09:50:00Z</time>
      </trkpt>
      <trkpt lat="47.26701" lon="-1.66275">
        <ele>48</ele>
        <time>2013-10-13T09:50:04Z</time>
      </trkpt>
      <trkpt lat="47.26696" lon="-1.66261">
        <ele>47.3</ele>
        <time>2013-10-13T09:50:06Z</time>
      </trkpt>
      <trkpt lat="47.2669" lon="-1.66243">
        <ele>46.6</ele>
        <time>2013-10-13T09:50:08Z</time>
      </trkpt>
      <trkpt lat="47.26687" lon="-1.66219">
        <ele>45.9</ele>
        <time>2013-10-13T09:50:10Z</time>
      </trkpt>
      <trkpt lat="47.26683" lon="-1.66198">
        <ele>45.2</ele>
        <time>2013-10-13T09:50:12Z</time>
      </trkpt>
      <trkpt lat="47.26677" lon="-1.66185">
        <ele>44.5</ele>
        <time>2013-10-13T09:50:14Z</time>
      </trkpt>
      <trkpt lat="47.26667" lon="-1.66174">
        <ele>43.7</ele>
        <time>2013-10-13T09:50:17Z</time>
      </trkpt>
      <trkpt lat="47.26655" lon="-1.66168">
        <ele>42.4</ele>
        <time>2013-10-13T09:50:20Z</time>
      </trkpt>
      <trkpt lat="47.26645" lon="-1.66162">
        <ele>38.9</ele>
        <time>2013-10-13T09:50:23Z</time>
      </trkpt>
      <trkpt lat="47.26641" lon="-1.66146">
        <ele>38.1</ele>
        <time>2013-10-13T09:50:27Z</time>
      </trkpt>
      <trkpt lat="47.26642" lon="-1.66132">
        <ele>37.9</ele>
        <time>2013-10-13T09:50:29Z</time>
      </trkpt>
      <trkpt lat="47.26638" lon="-1.66115">
        <ele>37.6</ele>
        <time>2013-10-13T09:50:32Z</time>
      </trkpt>
      <trkpt lat="47.26631" lon="-1.661">
        <ele>37.3</ele>
        <time>2013-10-13T09:50:35Z</time>
      </trkpt>
      <trkpt lat="47.2662" lon="-1.6609">
        <ele>37.3</ele>
        <time>2013-10-13T09:50:38Z</time>
      </trkpt>
      <trkpt lat="47.26608" lon="-1.66082">
        <ele>37.2</ele>
        <time>2013-10-13T09:50:41Z</time>
      </trkpt>
      <trkpt lat="47.266" lon="-1.66075">
        <ele>37.1</ele>
        <time>2013-10-13T09:50:43Z</time>
      </trkpt>
      <trkpt lat="47.26588" lon="-1.66065">
        <ele>36.9</ele>
        <time>2013-10-13T09:50:45Z</time>
      </trkpt>
      <trkpt lat="47.26577" lon="-1.66057">
        <ele>36.7</ele>
        <time>2013-10-13T09:50:47Z</time>
      </trkpt>
      <trkpt lat="47.26567" lon="-1.66052">
        <ele>36.3</ele>
        <time>2013-10-13T09:50:50Z</time>
      </trkpt>
      <trkpt lat="47.26557" lon="-1.6605">
        <ele>35.8</ele>
        <time>2013-10-13T09:50:53Z</time>
      </trkpt>
      <trkpt lat="47.26548" lon="-1.66048">
        <ele>35</ele>
        <time>2013-10-13T09:50:57Z</time>
      </trkpt>
      <trkpt lat="47.26539" lon="-1.66043">
        <ele>34.3</ele>
        <time>2013-10-13T09:51:00Z</time>
      </trkpt>
      <trkpt lat="47.26531" lon="-1.66035">
        <ele>34</ele>
        <time>2013-10-13T09:51:03Z</time>
      </trkpt>
      <trkpt lat="47.26526" lon="-1.66019">
        <ele>33.7</ele>
        <time>2013-10-13T09:51:07Z</time>
      </trkpt>
      <trkpt lat="47.26526" lon="-1.66003">
        <ele>33.5</ele>
        <time>2013-10-13T09:51:11Z</time>
      </trkpt>
      <trkpt lat="47.26529" lon="-1.65984">
        <ele>33.3</ele>
        <time>2013-10-13T09:51:14Z</time>
      </trkpt>
      <trkpt lat="47.26533" lon="-1.65968">
        <ele>32.1</ele>
        <time>2013-10-13T09:51:16Z</time>
      </trkpt>
      <trkpt lat="47.26545" lon="-1.65953">
        <ele>31</ele>
        <time>2013-10-13T09:51:23Z</time>
      </trkpt>
      <trkpt lat="47.26555" lon="-1.65953">
        <ele>30.4</ele>
        <time>2013-10-13T09:51:29Z</time>
      </trkpt>
      <trkpt lat="47.26565" lon="-1.65951">
        <ele>29.1</ele>
        <time>2013-10-13T09:51:37Z</time>
      </trkpt>
      <trkpt lat="47.26585" lon="-1.65944">
        <ele>28</ele>
        <time>2013-10-13T09:51:50Z</time>
      </trkpt>
      <trkpt lat="47.26594" lon="-1.65941">
        <ele>29</ele>
        <time>2013-10-13T09:51:53Z</time>
      </trkpt>
      <trkpt lat="47.26605" lon="-1.65934">
        <ele>30.2</ele>
        <time>2013-10-13T09:51:58Z</time>
      </trkpt>
      <trkpt lat="47.26616" lon="-1.6593">
        <ele>31</ele>
        <time>2013-10-13T09:52:01Z</time>
      </trkpt>
      <trkpt lat="47.26626" lon="-1.65927">
        <ele>32.2</ele>
        <time>2013-10-13T09:52:04Z</time>
      </trkpt>
      <trkpt lat="47.26637" lon="-1.6592">
        <ele>35.7</ele>
        <time>2013-10-13T09:52:13Z</time>
      </trkpt>
      <trkpt lat="47.26646" lon="-1.65913">
        <ele>37.7</ele>
        <time>2013-10-13T09:52:22Z</time>
      </trkpt>
      <trkpt lat="47.26656" lon="-1.65908">
        <ele>38.3</ele>
        <time>2013-10-13T09:52:26Z</time>
      </trkpt>
      <trkpt lat="47.26665" lon="-1.65903">
        <ele>38.6</ele>
        <time>2013-10-13T09:52:30Z</time>
      </trkpt>
      <trkpt lat="47.26677" lon="-1.65898">
        <ele>39</ele>
        <time>2013-10-13T09:52:36Z</time>
      </trkpt>
      <trkpt lat="47.26686" lon="-1.65898">
        <ele>39</ele>
        <time>2013-10-13T09:52:41Z</time>
      </trkpt>
      <trkpt lat="47.26696" lon="-1.659">
        <ele>38.5</ele>
        <time>2013-10-13T09:52:44Z</time>
      </trkpt>
      <trkpt lat="47.26705" lon="-1.65902">
        <ele>37.8</ele>
        <time>2013-10-13T09:52:47Z</time>
      </trkpt>
      <trkpt lat="47.26714" lon="-1.65905">
        <ele>36.3</ele>
        <time>2013-10-13T09:52:51Z</time>
      </trkpt>
      <trkpt lat="47.26724" lon="-1.65908">
        <ele>35.6</ele>
        <time>2013-10-13T09:52:55Z</time>
      </trkpt>
      <trkpt lat="47.26742" lon="-1.65911">
        <ele>35.2</ele>
        <time>2013-10-13T09:53:36Z</time>
      </trkpt>
      <trkpt lat="47.26751" lon="-1.6591">
        <ele>35.6</ele>
        <time>2013-10-13T09:53:38Z</time>
      </trkpt>
      <trkpt lat="47.26762" lon="-1.65909">
        <ele>36.2</ele>
        <time>2013-10-13T09:53:41Z</time>
      </trkpt>
      <trkpt lat="47.26771" lon="-1.65907">
        <ele>36.9</ele>
        <time>2013-10-13T09:53:44Z</time>
      </trkpt>
      <trkpt lat="47.26781" lon="-1.65907">
        <ele>37.7</ele>
        <time>2013-10-13T09:53:48Z</time>
      </trkpt>
      <trkpt lat="47.26794" lon="-1.65904">
        <ele>38.6</ele>
        <time>2013-10-13T09:53:52Z</time>
      </trkpt>
      <trkpt lat="47.26804" lon="-1.65899">
        <ele>39.5</ele>
        <time>2013-10-13T09:53:55Z</time>
      </trkpt>
      <trkpt lat="47.26812" lon="-1.65891">
        <ele>40.1</ele>
        <time>2013-10-13T09:53:57Z</time>
      </trkpt>
      <trkpt lat="47.26821" lon="-1.65884">
        <ele>40.7</ele>
        <time>2013-10-13T09:53:59Z</time>
      </trkpt>
      <trkpt lat="47.26831" lon="-1.65876">
        <ele>41.3</ele>
        <time>2013-10-13T09:54:01Z</time>
      </trkpt>
      <trkpt lat="47.26844" lon="-1.65866">
        <ele>46.4</ele>
        <time>2013-10-13T09:54:03Z</time>
      </trkpt>
      <trkpt lat="47.26853" lon="-1.65858">
        <ele>47.5</ele>
        <time>2013-10-13T09:54:04Z</time>
      </trkpt>
      <trkpt lat="47.26866" lon="-1.65848">
        <ele>48</ele>
        <time>2013-10-13T09:54:06Z</time>
      </trkpt>
      <trkpt lat="47.26882" lon="-1.6584">
        <ele>44.2</ele>
        <time>2013-10-13T09:54:08Z</time>
      </trkpt>
      <trkpt lat="47.2689" lon="-1.65831">
        <ele>43.7</ele>
        <time>2013-10-13T09:54:11Z</time>
      </trkpt>
      <trkpt lat="47.26892" lon="-1.65817">
        <ele>43.2</ele>
        <time>2013-10-13T09:54:14Z</time>
      </trkpt>
      <trkpt lat="47.26893" lon="-1.65802">
        <ele>43.1</ele>
        <time>2013-10-13T09:54:16Z</time>
      </trkpt>
      <trkpt lat="47.26891" lon="-1.65782">
        <ele>42.8</ele>
        <time>2013-10-13T09:54:19Z</time>
      </trkpt>
      <trkpt lat="47.26887" lon="-1.65769">
        <ele>41.1</ele>
        <time>2013-10-13T09:54:21Z</time>
      </trkpt>
      <trkpt lat="47.26879" lon="-1.65753">
        <ele>40.6</ele>
        <time>2013-10-13T09:54:24Z</time>
      </trkpt>
      <trkpt lat="47.26874" lon="-1.65741">
        <ele>40.2</ele>
        <time>2013-10-13T09:54:26Z</time>
      </trkpt>
      <trkpt lat="47.26869" lon="-1.65729">
        <ele>39.8</ele>
        <time>2013-10-13T09:54:29Z</time>
      </trkpt>
      <trkpt lat="47.26868" lon="-1.65715">
        <ele>39.1</ele>
        <time>2013-10-13T09:54:32Z</time>
      </trkpt>
      <trkpt lat="47.26872" lon="-1.65702">
        <ele>38.6</ele>
        <time>2013-10-13T09:54:34Z</time>
      </trkpt>
      <trkpt lat="47.26875" lon="-1.65689">
        <ele>37.4</ele>
        <time>2013-10-13T09:54:37Z</time>
      </trkpt>
      <trkpt lat="47.26878" lon="-1.65676">
        <ele>35.9</ele>
        <time>2013-10-13T09:54:40Z</time>
      </trkpt>
      <trkpt lat="47.26884" lon="-1.65664">
        <ele>34.2</ele>
        <time>2013-10-13T09:54:43Z</time>
      </trkpt>
      <trkpt lat="47.26888" lon="-1.65653">
        <ele>32.5</ele>
        <time>2013-10-13T09:54:46Z</time>
      </trkpt>
      <trkpt lat="47.26885" lon="-1.65638">
        <ele>29.7</ele>
        <time>2013-10-13T09:54:52Z</time>
      </trkpt>
      <trkpt lat="47.26878" lon="-1.65628">
        <ele>27.6</ele>
        <time>2013-10-13T09:54:57Z</time>
      </trkpt>
      <trkpt lat="47.26869" lon="-1.65619">
        <ele>26.1</ele>
        <time>2013-10-13T09:55:02Z</time>
      </trkpt>
      <trkpt lat="47.26864" lon="-1.65607">
        <ele>24.8</ele>
        <time>2013-10-13T09:55:07Z</time>
      </trkpt>
      <trkpt lat="47.26858" lon="-1.65597">
        <ele>22.8</ele>
        <time>2013-10-13T09:55:12Z</time>
      </trkpt>
      <trkpt lat="47.26853" lon="-1.6558">
        <ele>23.4</ele>
        <time>2013-10-13T09:55:29Z</time>
      </trkpt>
      <trkpt lat="47.26849" lon="-1.65565">
        <ele>23.4</ele>
        <time>2013-10-13T09:55:31Z</time>
      </trkpt>
      <trkpt lat="47.26846" lon="-1.6555">
        <ele>23.4</ele>
        <time>2013-10-13T09:55:35Z</time>
      </trkpt>
      <trkpt lat="47.26842" lon="-1.65537">
        <ele>23.7</ele>
        <time>2013-10-13T09:55:47Z</time>
      </trkpt>
      <trkpt lat="47.26832" lon="-1.65539">
        <ele>24.1</ele>
        <time>2013-10-13T09:55:58Z</time>
      </trkpt>
      <trkpt lat="47.26824" lon="-1.65532">
        <ele>24.1</ele>
        <time>2013-10-13T09:56:04Z</time>
      </trkpt>
      <trkpt lat="47.26833" lon="-1.65533">
        <ele>25.9</ele>
        <time>2013-10-13T09:58:08Z</time>
      </trkpt>
      <trkpt lat="47.26824" lon="-1.65526">
        <ele>26</ele>
        <time>2013-10-13T09:58:24Z</time>
      </trkpt>
      <trkpt lat="47.26833" lon="-1.65523">
        <ele>25.3</ele>
        <time>2013-10-13T09:59:34Z</time>
      </trkpt>
      <trkpt lat="47.26824" lon="-1.65522">
        <ele>25.3</ele>
        <time>2013-10-13T10:00:13Z</time>
      </trkpt>
      <trkpt lat="47.26816" lon="-1.6553">
        <ele>25.6</ele>
        <time>2013-10-13T10:00:41Z</time>
      </trkpt>
      <trkpt lat="47.26807" lon="-1.65537">
        <ele>25.6</ele>
        <time>2013-10-13T10:00:46Z</time>
      </trkpt>
      <trkpt lat="47.26798" lon="-1.65541">
        <ele>26.2</ele>
        <time>2013-10-13T10:00:50Z</time>
      </trkpt>
      <trkpt lat="47.26787" lon="-1.65543">
        <ele>27</ele>
        <time>2013-10-13T10:00:55Z</time>
      </trkpt>
      <trkpt lat="47.26777" lon="-1.65543">
        <ele>27.7</ele>
        <time>2013-10-13T10:01:00Z</time>
      </trkpt>
      <trkpt lat="47.26772" lon="-1.6553">
        <ele>28.4</ele>
        <time>2013-10-13T10:01:06Z</time>
      </trkpt>
      <trkpt lat="47.26767" lon="-1.65515">
        <ele>28.1</ele>
        <time>2013-10-13T10:01:11Z</time>
      </trkpt>
      <trkpt lat="47.26761" lon="-1.65501">
        <ele>27.9</ele>
        <time>2013-10-13T10:01:15Z</time>
      </trkpt>
      <trkpt lat="47.26755" lon="-1.65488">
        <ele>27.6</ele>
        <time>2013-10-13T10:01:18Z</time>
      </trkpt>
      <trkpt lat="47.26748" lon="-1.65479">
        <ele>26.5</ele>
        <time>2013-10-13T10:01:22Z</time>
      </trkpt>
      <trkpt lat="47.26743" lon="-1.65466">
        <ele>25.8</ele>
        <time>2013-10-13T10:01:25Z</time>
      </trkpt>
      <trkpt lat="47.26738" lon="-1.65451">
        <ele>24.9</ele>
        <time>2013-10-13T10:01:28Z</time>
      </trkpt>
      <trkpt lat="47.26733" lon="-1.65437">
        <ele>23.8</ele>
        <time>2013-10-13T10:01:31Z</time>
      </trkpt>
      <trkpt lat="47.26729" lon="-1.65424">
        <ele>22.6</ele>
        <time>2013-10-13T10:01:34Z</time>
      </trkpt>
      <trkpt lat="47.26726" lon="-1.65409">
        <ele>21.3</ele>
        <time>2013-10-13T10:01:37Z</time>
      </trkpt>
      <trkpt lat="47.26725" lon="-1.65395">
        <ele>19.9</ele>
        <time>2013-10-13T10:01:41Z</time>
      </trkpt>
      <trkpt lat="47.2672" lon="-1.65382">
        <ele>18.4</ele>
        <time>2013-10-13T10:01:45Z</time>
      </trkpt>
      <trkpt lat="47.26717" lon="-1.65369">
        <ele>16.4</ele>
        <time>2013-10-13T10:01:53Z</time>
      </trkpt>
      <trkpt lat="47.26715" lon="-1.65355">
        <ele>17.8</ele>
        <time>2013-10-13T10:01:59Z</time>
      </trkpt>
      <trkpt lat="47.2671" lon="-1.65344">
        <ele>20.3</ele>
        <time>2013-10-13T10:02:05Z</time>
      </trkpt>
      <trkpt lat="47.26703" lon="-1.65333">
        <ele>23.6</ele>
        <time>2013-10-13T10:02:14Z</time>
      </trkpt>
      <trkpt lat="47.26697" lon="-1.65321">
        <ele>25.2</ele>
        <time>2013-10-13T10:02:20Z</time>
      </trkpt>
      <trkpt lat="47.26689" lon="-1.65314">
        <ele>26.8</ele>
        <time>2013-10-13T10:02:27Z</time>
      </trkpt>
      <trkpt lat="47.26679" lon="-1.65309">
        <ele>27.8</ele>
        <time>2013-10-13T10:02:34Z</time>
      </trkpt>
      <trkpt lat="47.2667" lon="-1.65305">
        <ele>28</ele>
        <time>2013-10-13T10:02:44Z</time>
      </trkpt>
      <trkpt lat="47.26663" lon="-1.65296">
        <ele>29.3</ele>
        <time>2013-10-13T10:02:54Z</time>
      </trkpt>
      <trkpt lat="47.26656" lon="-1.65286">
        <ele>31</ele>
        <time>2013-10-13T10:03:07Z</time>
      </trkpt>
      <trkpt lat="47.26647" lon="-1.65285">
        <ele>32.7</ele>
        <time>2013-10-13T10:03:16Z</time>
      </trkpt>
      <trkpt lat="47.26638" lon="-1.65284">
        <ele>33.8</ele>
        <time>2013-10-13T10:03:22Z</time>
      </trkpt>
      <trkpt lat="47.26629" lon="-1.6528">
        <ele>34.5</ele>
        <time>2013-10-13T10:03:29Z</time>
      </trkpt>
      <trkpt lat="47.26621" lon="-1.65275">
        <ele>36</ele>
        <time>2013-10-13T10:03:37Z</time>
      </trkpt>
      <trkpt lat="47.26612" lon="-1.6527">
        <ele>38.2</ele>
        <time>2013-10-13T10:03:58Z</time>
      </trkpt>
      <trkpt lat="47.26603" lon="-1.65268">
        <ele>41.1</ele>
        <time>2013-10-13T10:04:19Z</time>
      </trkpt>
      <trkpt lat="47.26594" lon="-1.65264">
        <ele>44.3</ele>
        <time>2013-10-13T10:04:36Z</time>
      </trkpt>
      <trkpt lat="47.26585" lon="-1.6526">
        <ele>47.5</ele>
        <time>2013-10-13T10:06:22Z</time>
      </trkpt>
      <trkpt lat="47.26575" lon="-1.65258">
        <ele>48.3</ele>
        <time>2013-10-13T10:06:29Z</time>
      </trkpt>
      <trkpt lat="47.26565" lon="-1.65255">
        <ele>49.4</ele>
        <time>2013-10-13T10:06:36Z</time>
      </trkpt>
      <trkpt lat="47.26553" lon="-1.65253">
        <ele>49.9</ele>
        <time>2013-10-13T10:06:40Z</time>
      </trkpt>
      <trkpt lat="47.26543" lon="-1.65253">
        <ele>50.2</ele>
        <time>2013-10-13T10:06:44Z</time>
      </trkpt>
      <trkpt lat="47.26533" lon="-1.65252">
        <ele>50.8</ele>
        <time>2013-10-13T10:06:50Z</time>
      </trkpt>
      <trkpt lat="47.26524" lon="-1.6525">
        <ele>51</ele>
        <time>2013-10-13T10:06:54Z</time>
      </trkpt>
      <trkpt lat="47.26512" lon="-1.65246">
        <ele>51.2</ele>
        <time>2013-10-13T10:06:58Z</time>
      </trkpt>
      <trkpt lat="47.26502" lon="-1.65243">
        <ele>51.4</ele>
        <time>2013-10-13T10:07:01Z</time>
      </trkpt>
      <trkpt lat="47.26489" lon="-1.65241">
        <ele>51.6</ele>
        <time>2013-10-13T10:07:04Z</time>
      </trkpt>
      <trkpt lat="47.26477" lon="-1.65239">
        <ele>51.9</ele>
        <time>2013-10-13T10:07:07Z</time>
      </trkpt>
      <trkpt lat="47.26466" lon="-1.65237">
        <ele>52</ele>
        <time>2013-10-13T10:07:10Z</time>
      </trkpt>
      <trkpt lat="47.26454" lon="-1.65236">
        <ele>52.1</ele>
        <time>2013-10-13T10:07:13Z</time>
      </trkpt>
      <trkpt lat="47.26443" lon="-1.65235">
        <ele>52.4</ele>
        <time>2013-10-13T10:07:16Z</time>
      </trkpt>
      <trkpt lat="47.26431" lon="-1.65234">
        <ele>52.7</ele>
        <time>2013-10-13T10:07:19Z</time>
      </trkpt>
      <trkpt lat="47.26422" lon="-1.65233">
        <ele>52.8</ele>
        <time>2013-10-13T10:07:22Z</time>
      </trkpt>
      <trkpt lat="47.26412" lon="-1.65229">
        <ele>53.3</ele>
        <time>2013-10-13T10:07:26Z</time>
      </trkpt>
      <trkpt lat="47.264" lon="-1.65226">
        <ele>53.7</ele>
        <time>2013-10-13T10:07:29Z</time>
      </trkpt>
      <trkpt lat="47.26388" lon="-1.65223">
        <ele>54.1</ele>
        <time>2013-10-13T10:07:32Z</time>
      </trkpt>
      <trkpt lat="47.26377" lon="-1.65221">
        <ele>54.4</ele>
        <time>2013-10-13T10:07:35Z</time>
      </trkpt>
      <trkpt lat="47.26368" lon="-1.6522">
        <ele>54.9</ele>
        <time>2013-10-13T10:07:38Z</time>
      </trkpt>
      <trkpt lat="47.26356" lon="-1.65217">
        <ele>55.2</ele>
        <time>2013-10-13T10:07:42Z</time>
      </trkpt>
      <trkpt lat="47.26346" lon="-1.65216">
        <ele>55.4</ele>
        <time>2013-10-13T10:07:45Z</time>
      </trkpt>
      <trkpt lat="47.26336" lon="-1.65216">
        <ele>55.6</ele>
        <time>2013-10-13T10:07:48Z</time>
      </trkpt>
      <trkpt lat="47.26324" lon="-1.65219">
        <ele>56</ele>
        <time>2013-10-13T10:07:52Z</time>
      </trkpt>
      <trkpt lat="47.26315" lon="-1.65221">
        <ele>56.2</ele>
        <time>2013-10-13T10:07:55Z</time>
      </trkpt>
      <trkpt lat="47.26305" lon="-1.65224">
        <ele>56.4</ele>
        <time>2013-10-13T10:07:57Z</time>
      </trkpt>
      <trkpt lat="47.26294" lon="-1.65224">
        <ele>56.6</ele>
        <time>2013-10-13T10:08:00Z</time>
      </trkpt>
      <trkpt lat="47.26285" lon="-1.65226">
        <ele>56.8</ele>
        <time>2013-10-13T10:08:03Z</time>
      </trkpt>
      <trkpt lat="47.26274" lon="-1.65229">
        <ele>56.8</ele>
        <time>2013-10-13T10:08:06Z</time>
      </trkpt>
      <trkpt lat="47.26265" lon="-1.65231">
        <ele>57</ele>
        <time>2013-10-13T10:08:09Z</time>
      </trkpt>
      <trkpt lat="47.26252" lon="-1.65235">
        <ele>57.5</ele>
        <time>2013-10-13T10:08:12Z</time>
      </trkpt>
      <trkpt lat="47.26243" lon="-1.65238">
        <ele>57.8</ele>
        <time>2013-10-13T10:08:14Z</time>
      </trkpt>
      <trkpt lat="47.26231" lon="-1.65241">
        <ele>58.4</ele>
        <time>2013-10-13T10:08:17Z</time>
      </trkpt>
      <trkpt lat="47.26221" lon="-1.6524">
        <ele>59</ele>
        <time>2013-10-13T10:08:20Z</time>
      </trkpt>
      <trkpt lat="47.2621" lon="-1.65239">
        <ele>59.6</ele>
        <time>2013-10-13T10:08:24Z</time>
      </trkpt>
      <trkpt lat="47.262" lon="-1.65241">
        <ele>59.9</ele>
        <time>2013-10-13T10:08:28Z</time>
      </trkpt>
      <trkpt lat="47.2619" lon="-1.65243">
        <ele>60.7</ele>
        <time>2013-10-13T10:08:36Z</time>
      </trkpt>
      <trkpt lat="47.2618" lon="-1.65244">
        <ele>61.1</ele>
        <time>2013-10-13T10:08:41Z</time>
      </trkpt>
      <trkpt lat="47.26169" lon="-1.65247">
        <ele>62</ele>
        <time>2013-10-13T10:08:46Z</time>
      </trkpt>
      <trkpt lat="47.26158" lon="-1.65253">
        <ele>62.6</ele>
        <time>2013-10-13T10:08:50Z</time>
      </trkpt>
      <trkpt lat="47.26147" lon="-1.65258">
        <ele>63.2</ele>
        <time>2013-10-13T10:08:54Z</time>
      </trkpt>
      <trkpt lat="47.26137" lon="-1.65262">
        <ele>63.5</ele>
        <time>2013-10-13T10:08:57Z</time>
      </trkpt>
      <trkpt lat="47.26127" lon="-1.65267">
        <ele>63.6</ele>
        <time>2013-10-13T10:09:01Z</time>
      </trkpt>
      <trkpt lat="47.26115" lon="-1.65272">
        <ele>63.7</ele>
        <time>2013-10-13T10:09:05Z</time>
      </trkpt>
      <trkpt lat="47.26104" lon="-1.65275">
        <ele>63.7</ele>
        <time>2013-10-13T10:09:08Z</time>
      </trkpt>
      <trkpt lat="47.26094" lon="-1.65278">
        <ele>63.8</ele>
        <time>2013-10-13T10:09:11Z</time>
      </trkpt>
      <trkpt lat="47.26085" lon="-1.65281">
        <ele>64</ele>
        <time>2013-10-13T10:09:14Z</time>
      </trkpt>
      <trkpt lat="47.26074" lon="-1.65284">
        <ele>64.4</ele>
        <time>2013-10-13T10:09:17Z</time>
      </trkpt>
      <trkpt lat="47.26065" lon="-1.65288">
        <ele>64.7</ele>
        <time>2013-10-13T10:09:21Z</time>
      </trkpt>
      <trkpt lat="47.26056" lon="-1.65295">
        <ele>65</ele>
        <time>2013-10-13T10:09:25Z</time>
      </trkpt>
      <trkpt lat="47.26043" lon="-1.65299">
        <ele>65.5</ele>
        <time>2013-10-13T10:09:29Z</time>
      </trkpt>
      <trkpt lat="47.26032" lon="-1.65306">
        <ele>65.8</ele>
        <time>2013-10-13T10:09:32Z</time>
      </trkpt>
      <trkpt lat="47.26023" lon="-1.6532">
        <ele>66</ele>
        <time>2013-10-13T10:09:35Z</time>
      </trkpt>
      <trkpt lat="47.26016" lon="-1.65332">
        <ele>66.2</ele>
        <time>2013-10-13T10:09:38Z</time>
      </trkpt>
      <trkpt lat="47.26008" lon="-1.65344">
        <ele>66.3</ele>
        <time>2013-10-13T10:09:42Z</time>
      </trkpt>
      <trkpt lat="47.26" lon="-1.65357">
        <ele>66.3</ele>
        <time>2013-10-13T10:09:46Z</time>
      </trkpt>
      <trkpt lat="47.25989" lon="-1.65363">
        <ele>66.2</ele>
        <time>2013-10-13T10:09:50Z</time>
      </trkpt>
      <trkpt lat="47.25979" lon="-1.65369">
        <ele>65.6</ele>
        <time>2013-10-13T10:09:53Z</time>
      </trkpt>
      <trkpt lat="47.25968" lon="-1.65378">
        <ele>64.9</ele>
        <time>2013-10-13T10:09:56Z</time>
      </trkpt>
      <trkpt lat="47.25959" lon="-1.65387">
        <ele>64.8</ele>
        <time>2013-10-13T10:09:59Z</time>
      </trkpt>
      <trkpt lat="47.25954" lon="-1.65402">
        <ele>64.9</ele>
        <time>2013-10-13T10:10:03Z</time>
      </trkpt>
      <trkpt lat="47.25952" lon="-1.65418">
        <ele>65</ele>
        <time>2013-10-13T10:10:06Z</time>
      </trkpt>
      <trkpt lat="47.25951" lon="-1.65437">
        <ele>65.4</ele>
        <time>2013-10-13T10:10:09Z</time>
      </trkpt>
      <trkpt lat="47.25953" lon="-1.65455">
        <ele>65.7</ele>
        <time>2013-10-13T10:10:12Z</time>
      </trkpt>
      <trkpt lat="47.25953" lon="-1.6547">
        <ele>65.9</ele>
        <time>2013-10-13T10:10:15Z</time>
      </trkpt>
      <trkpt lat="47.25947" lon="-1.65483">
        <ele>66</ele>
        <time>2013-10-13T10:10:18Z</time>
      </trkpt>
      <trkpt lat="47.25939" lon="-1.65496">
        <ele>65.4</ele>
        <time>2013-10-13T10:10:21Z</time>
      </trkpt>
      <trkpt lat="47.25931" lon="-1.65508">
        <ele>65.4</ele>
        <time>2013-10-13T10:10:24Z</time>
      </trkpt>
      <trkpt lat="47.25928" lon="-1.65523">
        <ele>64.5</ele>
        <time>2013-10-13T10:10:35Z</time>
      </trkpt>
      <trkpt lat="47.25922" lon="-1.65534">
        <ele>64.1</ele>
        <time>2013-10-13T10:10:39Z</time>
      </trkpt>
      <trkpt lat="47.25917" lon="-1.65546">
        <ele>64</ele>
        <time>2013-10-13T10:10:42Z</time>
      </trkpt>
      <trkpt lat="47.25909" lon="-1.65562">
        <ele>64.1</ele>
        <time>2013-10-13T10:10:45Z</time>
      </trkpt>
      <trkpt lat="47.25903" lon="-1.65573">
        <ele>63.3</ele>
        <time>2013-10-13T10:10:47Z</time>
      </trkpt>
      <trkpt lat="47.25895" lon="-1.6559">
        <ele>62.6</ele>
        <time>2013-10-13T10:10:49Z</time>
      </trkpt>
      <trkpt lat="47.25887" lon="-1.65606">
        <ele>62.2</ele>
        <time>2013-10-13T10:10:51Z</time>
      </trkpt>
      <trkpt lat="47.2588" lon="-1.65622">
        <ele>61.8</ele>
        <time>2013-10-13T10:10:53Z</time>
      </trkpt>
      <trkpt lat="47.25874" lon="-1.65638">
        <ele>60.9</ele>
        <time>2013-10-13T10:10:55Z</time>
      </trkpt>
      <trkpt lat="47.25867" lon="-1.65654">
        <ele>59</ele>
        <time>2013-10-13T10:10:57Z</time>
      </trkpt>
      <trkpt lat="47.25861" lon="-1.65667">
        <ele>59.5</ele>
        <time>2013-10-13T10:10:59Z</time>
      </trkpt>
      <trkpt lat="47.25854" lon="-1.6568">
        <ele>59.3</ele>
        <time>2013-10-13T10:11:01Z</time>
      </trkpt>
      <trkpt lat="47.25846" lon="-1.65694">
        <ele>58.7</ele>
        <time>2013-10-13T10:11:03Z</time>
      </trkpt>
      <trkpt lat="47.25839" lon="-1.65708">
        <ele>57.3</ele>
        <time>2013-10-13T10:11:05Z</time>
      </trkpt>
      <trkpt lat="47.2583" lon="-1.65724">
        <ele>56</ele>
        <time>2013-10-13T10:11:07Z</time>
      </trkpt>
      <trkpt lat="47.25822" lon="-1.6574">
        <ele>55.1</ele>
        <time>2013-10-13T10:11:09Z</time>
      </trkpt>
      <trkpt lat="47.25814" lon="-1.65758">
        <ele>52.4</ele>
        <time>2013-10-13T10:11:11Z</time>
      </trkpt>
      <trkpt lat="47.25805" lon="-1.6578">
        <ele>50.7</ele>
        <time>2013-10-13T10:11:13Z</time>
      </trkpt>
      <trkpt lat="47.25795" lon="-1.65801">
        <ele>50.4</ele>
        <time>2013-10-13T10:11:15Z</time>
      </trkpt>
      <trkpt lat="47.25789" lon="-1.65812">
        <ele>50.5</ele>
        <time>2013-10-13T10:11:16Z</time>
      </trkpt>
      <trkpt lat="47.25782" lon="-1.65824">
        <ele>50.9</ele>
        <time>2013-10-13T10:11:17Z</time>
      </trkpt>
      <trkpt lat="47.25776" lon="-1.65835">
        <ele>51.5</ele>
        <time>2013-10-13T10:11:18Z</time>
      </trkpt>
      <trkpt lat="47.25765" lon="-1.65853">
        <ele>52.8</ele>
        <time>2013-10-13T10:11:20Z</time>
      </trkpt>
      <trkpt lat="47.25759" lon="-1.65866">
        <ele>54.2</ele>
        <time>2013-10-13T10:11:22Z</time>
      </trkpt>
      <trkpt lat="47.25752" lon="-1.65879">
        <ele>54.9</ele>
        <time>2013-10-13T10:11:24Z</time>
      </trkpt>
      <trkpt lat="47.25745" lon="-1.65895">
        <ele>55.2</ele>
        <time>2013-10-13T10:11:26Z</time>
      </trkpt>
      <trkpt lat="47.25737" lon="-1.65909">
        <ele>56.1</ele>
        <time>2013-10-13T10:11:28Z</time>
      </trkpt>
      <trkpt lat="47.2573" lon="-1.65923">
        <ele>56.5</ele>
        <time>2013-10-13T10:11:30Z</time>
      </trkpt>
      <trkpt lat="47.25722" lon="-1.6594">
        <ele>55.6</ele>
        <time>2013-10-13T10:11:32Z</time>
      </trkpt>
      <trkpt lat="47.25715" lon="-1.65958">
        <ele>54.9</ele>
        <time>2013-10-13T10:11:34Z</time>
      </trkpt>
      <trkpt lat="47.25707" lon="-1.65973">
        <ele>54.5</ele>
        <time>2013-10-13T10:11:36Z</time>
      </trkpt>
      <trkpt lat="47.25697" lon="-1.6599">
        <ele>55.1</ele>
        <time>2013-10-13T10:11:38Z</time>
      </trkpt>
      <trkpt lat="47.25687" lon="-1.66009">
        <ele>55</ele>
        <time>2013-10-13T10:11:40Z</time>
      </trkpt>
      <trkpt lat="47.25682" lon="-1.66019">
        <ele>54.1</ele>
        <time>2013-10-13T10:11:41Z</time>
      </trkpt>
      <trkpt lat="47.25672" lon="-1.66039">
        <ele>53</ele>
        <time>2013-10-13T10:11:43Z</time>
      </trkpt>
      <trkpt lat="47.25663" lon="-1.66058">
        <ele>52.7</ele>
        <time>2013-10-13T10:11:45Z</time>
      </trkpt>
      <trkpt lat="47.25656" lon="-1.66076">
        <ele>52.3</ele>
        <time>2013-10-13T10:11:47Z</time>
      </trkpt>
      <trkpt lat="47.25648" lon="-1.66095">
        <ele>51.6</ele>
        <time>2013-10-13T10:11:49Z</time>
      </trkpt>
      <trkpt lat="47.25641" lon="-1.66113">
        <ele>50.2</ele>
        <time>2013-10-13T10:11:51Z</time>
      </trkpt>
      <trkpt lat="47.25634" lon="-1.6613">
        <ele>48.3</ele>
        <time>2013-10-13T10:11:53Z</time>
      </trkpt>
      <trkpt lat="47.25626" lon="-1.66148">
        <ele>46.4</ele>
        <time>2013-10-13T10:11:55Z</time>
      </trkpt>
      <trkpt lat="47.25618" lon="-1.66166">
        <ele>45.5</ele>
        <time>2013-10-13T10:11:57Z</time>
      </trkpt>
      <trkpt lat="47.25611" lon="-1.66184">
        <ele>43.8</ele>
        <time>2013-10-13T10:11:59Z</time>
      </trkpt>
      <trkpt lat="47.25602" lon="-1.66203">
        <ele>42.6</ele>
        <time>2013-10-13T10:12:01Z</time>
      </trkpt>
      <trkpt lat="47.25594" lon="-1.66221">
        <ele>42.3</ele>
        <time>2013-10-13T10:12:03Z</time>
      </trkpt>
      <trkpt lat="47.25585" lon="-1.6624">
        <ele>42.2</ele>
        <time>2013-10-13T10:12:05Z</time>
      </trkpt>
      <trkpt lat="47.25577" lon="-1.66256">
        <ele>42.5</ele>
        <time>2013-10-13T10:12:07Z</time>
      </trkpt>
      <trkpt lat="47.25567" lon="-1.66272">
        <ele>43.2</ele>
        <time>2013-10-13T10:12:09Z</time>
      </trkpt>
      <trkpt lat="47.25557" lon="-1.66288">
        <ele>43.5</ele>
        <time>2013-10-13T10:12:11Z</time>
      </trkpt>
      <trkpt lat="47.25548" lon="-1.66305">
        <ele>42.6</ele>
        <time>2013-10-13T10:12:13Z</time>
      </trkpt>
      <trkpt lat="47.25541" lon="-1.6632">
        <ele>41.8</ele>
        <time>2013-10-13T10:12:15Z</time>
      </trkpt>
      <trkpt lat="47.25534" lon="-1.66337">
        <ele>41.6</ele>
        <time>2013-10-13T10:12:17Z</time>
      </trkpt>
      <trkpt lat="47.25528" lon="-1.6635">
        <ele>41.7</ele>
        <time>2013-10-13T10:12:19Z</time>
      </trkpt>
      <trkpt lat="47.25521" lon="-1.66362">
        <ele>41.5</ele>
        <time>2013-10-13T10:12:22Z</time>
      </trkpt>
      <trkpt lat="47.25512" lon="-1.66369">
        <ele>41.3</ele>
        <time>2013-10-13T10:12:25Z</time>
      </trkpt>
      <trkpt lat="47.25501" lon="-1.66377">
        <ele>41.3</ele>
        <time>2013-10-13T10:12:28Z</time>
      </trkpt>
      <trkpt lat="47.25491" lon="-1.6639">
        <ele>41.3</ele>
        <time>2013-10-13T10:12:31Z</time>
      </trkpt>
      <trkpt lat="47.25484" lon="-1.66404">
        <ele>41.2</ele>
        <time>2013-10-13T10:12:34Z</time>
      </trkpt>
      <trkpt lat="47.25477" lon="-1.66421">
        <ele>39.7</ele>
        <time>2013-10-13T10:12:37Z</time>
      </trkpt>
      <trkpt lat="47.2547" lon="-1.66433">
        <ele>39.4</ele>
        <time>2013-10-13T10:12:39Z</time>
      </trkpt>
      <trkpt lat="47.25464" lon="-1.66444">
        <ele>39.8</ele>
        <time>2013-10-13T10:12:41Z</time>
      </trkpt>
      <trkpt lat="47.25455" lon="-1.66459">
        <ele>39.8</ele>
        <time>2013-10-13T10:12:44Z</time>
      </trkpt>
      <trkpt lat="47.25445" lon="-1.66472">
        <ele>37.9</ele>
        <time>2013-10-13T10:12:46Z</time>
      </trkpt>
      <trkpt lat="47.25433" lon="-1.66483">
        <ele>35.4</ele>
        <time>2013-10-13T10:12:48Z</time>
      </trkpt>
      <trkpt lat="47.2542" lon="-1.66493">
        <ele>34.7</ele>
        <time>2013-10-13T10:12:50Z</time>
      </trkpt>
      <trkpt lat="47.25406" lon="-1.66501">
        <ele>36</ele>
        <time>2013-10-13T10:12:52Z</time>
      </trkpt>
      <trkpt lat="47.25391" lon="-1.66508">
        <ele>37.9</ele>
        <time>2013-10-13T10:12:54Z</time>
      </trkpt>
      <trkpt lat="47.25376" lon="-1.66512">
        <ele>39.1</ele>
        <time>2013-10-13T10:12:56Z</time>
      </trkpt>
      <trkpt lat="47.25364" lon="-1.66514">
        <ele>38.2</ele>
        <time>2013-10-13T10:12:58Z</time>
      </trkpt>
      <trkpt lat="47.25346" lon="-1.66518">
        <ele>38.7</ele>
        <time>2013-10-13T10:13:01Z</time>
      </trkpt>
      <trkpt lat="47.25334" lon="-1.66511">
        <ele>38.1</ele>
        <time>2013-10-13T10:13:04Z</time>
      </trkpt>
      <trkpt lat="47.25329" lon="-1.66495">
        <ele>37.8</ele>
        <time>2013-10-13T10:13:07Z</time>
      </trkpt>
      <trkpt lat="47.25327" lon="-1.66476">
        <ele>35.8</ele>
        <time>2013-10-13T10:13:10Z</time>
      </trkpt>
      <trkpt lat="47.25327" lon="-1.66456">
        <ele>35</ele>
        <time>2013-10-13T10:13:13Z</time>
      </trkpt>
      <trkpt lat="47.25326" lon="-1.66439">
        <ele>35</ele>
        <time>2013-10-13T10:13:16Z</time>
      </trkpt>
      <trkpt lat="47.25325" lon="-1.66426">
        <ele>35</ele>
        <time>2013-10-13T10:13:18Z</time>
      </trkpt>
      <trkpt lat="47.25325" lon="-1.66409">
        <ele>35.4</ele>
        <time>2013-10-13T10:13:21Z</time>
      </trkpt>
      <trkpt lat="47.25325" lon="-1.66393">
        <ele>35.5</ele>
        <time>2013-10-13T10:13:24Z</time>
      </trkpt>
      <trkpt lat="47.25325" lon="-1.66375">
        <ele>35.6</ele>
        <time>2013-10-13T10:13:27Z</time>
      </trkpt>
      <trkpt lat="47.25325" lon="-1.66362">
        <ele>37.4</ele>
        <time>2013-10-13T10:13:29Z</time>
      </trkpt>
      <trkpt lat="47.25326" lon="-1.66344">
        <ele>39</ele>
        <time>2013-10-13T10:13:32Z</time>
      </trkpt>
      <trkpt lat="47.25325" lon="-1.66325">
        <ele>38.5</ele>
        <time>2013-10-13T10:13:35Z</time>
      </trkpt>
      <trkpt lat="47.25325" lon="-1.66311">
        <ele>38.6</ele>
        <time>2013-10-13T10:13:37Z</time>
      </trkpt>
      <trkpt lat="47.25323" lon="-1.66296">
        <ele>39.1</ele>
        <time>2013-10-13T10:13:39Z</time>
      </trkpt>
      <trkpt lat="47.25322" lon="-1.66283">
        <ele>39.2</ele>
        <time>2013-10-13T10:13:41Z</time>
      </trkpt>
      <trkpt lat="47.25322" lon="-1.66269">
        <ele>38.8</ele>
        <time>2013-10-13T10:13:43Z</time>
      </trkpt>
      <trkpt lat="47.25322" lon="-1.66255">
        <ele>38</ele>
        <time>2013-10-13T10:13:45Z</time>
      </trkpt>
      <trkpt lat="47.25322" lon="-1.66241">
        <ele>37.8</ele>
        <time>2013-10-13T10:13:47Z</time>
      </trkpt>
      <trkpt lat="47.25322" lon="-1.66227">
        <ele>38.6</ele>
        <time>2013-10-13T10:13:49Z</time>
      </trkpt>
      <trkpt lat="47.25321" lon="-1.66207">
        <ele>37.7</ele>
        <time>2013-10-13T10:13:52Z</time>
      </trkpt>
      <trkpt lat="47.25321" lon="-1.66194">
        <ele>37.5</ele>
        <time>2013-10-13T10:13:54Z</time>
      </trkpt>
      <trkpt lat="47.25321" lon="-1.66176">
        <ele>38.7</ele>
        <time>2013-10-13T10:13:57Z</time>
      </trkpt>
      <trkpt lat="47.25321" lon="-1.66158">
        <ele>39.2</ele>
        <time>2013-10-13T10:14:00Z</time>
      </trkpt>
      <trkpt lat="47.25322" lon="-1.6614">
        <ele>39.3</ele>
        <time>2013-10-13T10:14:03Z</time>
      </trkpt>
      <trkpt lat="47.25323" lon="-1.66123">
        <ele>39.3</ele>
        <time>2013-10-13T10:14:06Z</time>
      </trkpt>
      <trkpt lat="47.25324" lon="-1.66107">
        <ele>39.3</ele>
        <time>2013-10-13T10:14:09Z</time>
      </trkpt>
      <trkpt lat="47.25323" lon="-1.66094">
        <ele>39.1</ele>
        <time>2013-10-13T10:14:12Z</time>
      </trkpt>
      <trkpt lat="47.2532" lon="-1.66079">
        <ele>39.1</ele>
        <time>2013-10-13T10:14:15Z</time>
      </trkpt>
      <trkpt lat="47.25314" lon="-1.66066">
        <ele>39.2</ele>
        <time>2013-10-13T10:14:18Z</time>
      </trkpt>
      <trkpt lat="47.25307" lon="-1.66054">
        <ele>39.2</ele>
        <time>2013-10-13T10:14:21Z</time>
      </trkpt>
      <trkpt lat="47.253" lon="-1.66041">
        <ele>39.4</ele>
        <time>2013-10-13T10:14:24Z</time>
      </trkpt>
      <trkpt lat="47.25292" lon="-1.6603">
        <ele>39.5</ele>
        <time>2013-10-13T10:14:27Z</time>
      </trkpt>
      <trkpt lat="47.25285" lon="-1.66021">
        <ele>39.6</ele>
        <time>2013-10-13T10:14:30Z</time>
      </trkpt>
      <trkpt lat="47.25277" lon="-1.6601">
        <ele>39.6</ele>
        <time>2013-10-13T10:14:34Z</time>
      </trkpt>
      <trkpt lat="47.25272" lon="-1.65999">
        <ele>39.6</ele>
        <time>2013-10-13T10:14:38Z</time>
      </trkpt>
      <trkpt lat="47.25265" lon="-1.65988">
        <ele>39.9</ele>
        <time>2013-10-13T10:14:42Z</time>
      </trkpt>
      <trkpt lat="47.25258" lon="-1.65975">
        <ele>40</ele>
        <time>2013-10-13T10:14:47Z</time>
      </trkpt>
      <trkpt lat="47.25251" lon="-1.65961">
        <ele>40.1</ele>
        <time>2013-10-13T10:14:51Z</time>
      </trkpt>
      <trkpt lat="47.25247" lon="-1.65949">
        <ele>40.4</ele>
        <time>2013-10-13T10:14:54Z</time>
      </trkpt>
      <trkpt lat="47.25242" lon="-1.65933">
        <ele>40.7</ele>
        <time>2013-10-13T10:14:57Z</time>
      </trkpt>
      <trkpt lat="47.25237" lon="-1.65918">
        <ele>40.8</ele>
        <time>2013-10-13T10:15:00Z</time>
      </trkpt>
      <trkpt lat="47.25233" lon="-1.65899">
        <ele>40.3</ele>
        <time>2013-10-13T10:15:03Z</time>
      </trkpt>
      <trkpt lat="47.2523" lon="-1.65881">
        <ele>40.3</ele>
        <time>2013-10-13T10:15:06Z</time>
      </trkpt>
      <trkpt lat="47.25225" lon="-1.65862">
        <ele>39.3</ele>
        <time>2013-10-13T10:15:09Z</time>
      </trkpt>
      <trkpt lat="47.25221" lon="-1.65848">
        <ele>39.8</ele>
        <time>2013-10-13T10:15:11Z</time>
      </trkpt>
      <trkpt lat="47.25217" lon="-1.65836">
        <ele>40.4</ele>
        <time>2013-10-13T10:15:13Z</time>
      </trkpt>
      <trkpt lat="47.25212" lon="-1.65823">
        <ele>40.3</ele>
        <time>2013-10-13T10:15:15Z</time>
      </trkpt>
      <trkpt lat="47.25207" lon="-1.6581">
        <ele>39.8</ele>
        <time>2013-10-13T10:15:17Z</time>
      </trkpt>
      <trkpt lat="47.25202" lon="-1.65796">
        <ele>39.7</ele>
        <time>2013-10-13T10:15:19Z</time>
      </trkpt>
      <trkpt lat="47.25197" lon="-1.65784">
        <ele>38.9</ele>
        <time>2013-10-13T10:15:21Z</time>
      </trkpt>
      <trkpt lat="47.25193" lon="-1.65772">
        <ele>38</ele>
        <time>2013-10-13T10:15:23Z</time>
      </trkpt>
      <trkpt lat="47.25189" lon="-1.65759">
        <ele>37.3</ele>
        <time>2013-10-13T10:15:25Z</time>
      </trkpt>
      <trkpt lat="47.25185" lon="-1.65745">
        <ele>35</ele>
        <time>2013-10-13T10:15:27Z</time>
      </trkpt>
      <trkpt lat="47.2518" lon="-1.65728">
        <ele>33.3</ele>
        <time>2013-10-13T10:15:29Z</time>
      </trkpt>
      <trkpt lat="47.25177" lon="-1.65712">
        <ele>33.3</ele>
        <time>2013-10-13T10:15:31Z</time>
      </trkpt>
      <trkpt lat="47.25169" lon="-1.65696">
        <ele>33.4</ele>
        <time>2013-10-13T10:15:34Z</time>
      </trkpt>
      <trkpt lat="47.2516" lon="-1.6569">
        <ele>34.1</ele>
        <time>2013-10-13T10:15:36Z</time>
      </trkpt>
      <trkpt lat="47.25148" lon="-1.65687">
        <ele>33.3</ele>
        <time>2013-10-13T10:15:38Z</time>
      </trkpt>
      <trkpt lat="47.25138" lon="-1.65685">
        <ele>32.4</ele>
        <time>2013-10-13T10:15:39Z</time>
      </trkpt>
      <trkpt lat="47.25129" lon="-1.65683">
        <ele>32.3</ele>
        <time>2013-10-13T10:15:40Z</time>
      </trkpt>
      <trkpt lat="47.2512" lon="-1.65681">
        <ele>32</ele>
        <time>2013-10-13T10:15:41Z</time>
      </trkpt>
      <trkpt lat="47.25103" lon="-1.65678">
        <ele>31.7</ele>
        <time>2013-10-13T10:15:43Z</time>
      </trkpt>
      <trkpt lat="47.25094" lon="-1.65674">
        <ele>31.6</ele>
        <time>2013-10-13T10:15:44Z</time>
      </trkpt>
      <trkpt lat="47.2508" lon="-1.6567">
        <ele>30</ele>
        <time>2013-10-13T10:15:46Z</time>
      </trkpt>
      <trkpt lat="47.2507" lon="-1.65664">
        <ele>28.9</ele>
        <time>2013-10-13T10:15:48Z</time>
      </trkpt>
      <trkpt lat="47.2506" lon="-1.65655">
        <ele>28.2</ele>
        <time>2013-10-13T10:15:51Z</time>
      </trkpt>
      <trkpt lat="47.25058" lon="-1.65639">
        <ele>26.7</ele>
        <time>2013-10-13T10:15:53Z</time>
      </trkpt>
      <trkpt lat="47.25059" lon="-1.65616">
        <ele>25</ele>
        <time>2013-10-13T10:15:55Z</time>
      </trkpt>
      <trkpt lat="47.25062" lon="-1.65604">
        <ele>25.1</ele>
        <time>2013-10-13T10:15:56Z</time>
      </trkpt>
      <trkpt lat="47.2507" lon="-1.65585">
        <ele>25.9</ele>
        <time>2013-10-13T10:15:58Z</time>
      </trkpt>
      <trkpt lat="47.25075" lon="-1.65569">
        <ele>27.5</ele>
        <time>2013-10-13T10:16:00Z</time>
      </trkpt>
      <trkpt lat="47.25081" lon="-1.65555">
        <ele>28.3</ele>
        <time>2013-10-13T10:16:02Z</time>
      </trkpt>
      <trkpt lat="47.25088" lon="-1.65541">
        <ele>28.3</ele>
        <time>2013-10-13T10:16:04Z</time>
      </trkpt>
      <trkpt lat="47.25094" lon="-1.65524">
        <ele>28.5</ele>
        <time>2013-10-13T10:16:06Z</time>
      </trkpt>
      <trkpt lat="47.25098" lon="-1.65511">
        <ele>29.2</ele>
        <time>2013-10-13T10:16:08Z</time>
      </trkpt>
      <trkpt lat="47.25101" lon="-1.65499">
        <ele>28.9</ele>
        <time>2013-10-13T10:16:10Z</time>
      </trkpt>
      <trkpt lat="47.25106" lon="-1.6548">
        <ele>28.5</ele>
        <time>2013-10-13T10:16:13Z</time>
      </trkpt>
      <trkpt lat="47.25107" lon="-1.65467">
        <ele>29.1</ele>
        <time>2013-10-13T10:16:15Z</time>
      </trkpt>
      <trkpt lat="47.25108" lon="-1.65451">
        <ele>29.3</ele>
        <time>2013-10-13T10:16:18Z</time>
      </trkpt>
      <trkpt lat="47.25109" lon="-1.65437">
        <ele>29.7</ele>
        <time>2013-10-13T10:16:21Z</time>
      </trkpt>
      <trkpt lat="47.25112" lon="-1.65422">
        <ele>30.3</ele>
        <time>2013-10-13T10:16:25Z</time>
      </trkpt>
      <trkpt lat="47.25117" lon="-1.65409">
        <ele>30.8</ele>
        <time>2013-10-13T10:16:29Z</time>
      </trkpt>
      <trkpt lat="47.25125" lon="-1.65396">
        <ele>31.3</ele>
        <time>2013-10-13T10:16:33Z</time>
      </trkpt>
      <trkpt lat="47.25132" lon="-1.65381">
        <ele>31.7</ele>
        <time>2013-10-13T10:16:37Z</time>
      </trkpt>
      <trkpt lat="47.25137" lon="-1.65368">
        <ele>32</ele>
        <time>2013-10-13T10:16:40Z</time>
      </trkpt>
      <trkpt lat="47.25141" lon="-1.65354">
        <ele>32.2</ele>
        <time>2013-10-13T10:16:44Z</time>
      </trkpt>
      <trkpt lat="47.25145" lon="-1.65338">
        <ele>32.6</ele>
        <time>2013-10-13T10:16:48Z</time>
      </trkpt>
      <trkpt lat="47.25148" lon="-1.65325">
        <ele>33.1</ele>
        <time>2013-10-13T10:16:52Z</time>
      </trkpt>
      <trkpt lat="47.25152" lon="-1.65312">
        <ele>33.6</ele>
        <time>2013-10-13T10:16:56Z</time>
      </trkpt>
      <trkpt lat="47.25157" lon="-1.65297">
        <ele>34.1</ele>
        <time>2013-10-13T10:17:00Z</time>
      </trkpt>
      <trkpt lat="47.2516" lon="-1.65285">
        <ele>34.6</ele>
        <time>2013-10-13T10:17:04Z</time>
      </trkpt>
      <trkpt lat="47.25163" lon="-1.65271">
        <ele>34.9</ele>
        <time>2013-10-13T10:17:08Z</time>
      </trkpt>
      <trkpt lat="47.25158" lon="-1.65257">
        <ele>35.5</ele>
        <time>2013-10-13T10:17:13Z</time>
      </trkpt>
      <trkpt lat="47.25156" lon="-1.6524">
        <ele>36.3</ele>
        <time>2013-10-13T10:17:17Z</time>
      </trkpt>
      <trkpt lat="47.25154" lon="-1.65227">
        <ele>36.7</ele>
        <time>2013-10-13T10:17:20Z</time>
      </trkpt>
      <trkpt lat="47.2515" lon="-1.65215">
        <ele>37.1</ele>
        <time>2013-10-13T10:17:24Z</time>
      </trkpt>
      <trkpt lat="47.25148" lon="-1.65201">
        <ele>37.8</ele>
        <time>2013-10-13T10:17:28Z</time>
      </trkpt>
      <trkpt lat="47.25153" lon="-1.65185">
        <ele>38.8</ele>
        <time>2013-10-13T10:17:32Z</time>
      </trkpt>
      <trkpt lat="47.25158" lon="-1.65169">
        <ele>39.6</ele>
        <time>2013-10-13T10:17:36Z</time>
      </trkpt>
      <trkpt lat="47.2516" lon="-1.65156">
        <ele>40.2</ele>
        <time>2013-10-13T10:17:39Z</time>
      </trkpt>
      <trkpt lat="47.25164" lon="-1.65141">
        <ele>41.1</ele>
        <time>2013-10-13T10:17:44Z</time>
      </trkpt>
      <trkpt lat="47.25169" lon="-1.65128">
        <ele>41.7</ele>
        <time>2013-10-13T10:17:49Z</time>
      </trkpt>
      <trkpt lat="47.25173" lon="-1.65113">
        <ele>41.7</ele>
        <time>2013-10-13T10:17:54Z</time>
      </trkpt>
      <trkpt lat="47.25176" lon="-1.651">
        <ele>41.9</ele>
        <time>2013-10-13T10:17:59Z</time>
      </trkpt>
      <trkpt lat="47.25178" lon="-1.65085">
        <ele>41.9</ele>
        <time>2013-10-13T10:18:03Z</time>
      </trkpt>
      <trkpt lat="47.25178" lon="-1.65071">
        <ele>41.9</ele>
        <time>2013-10-13T10:18:07Z</time>
      </trkpt>
      <trkpt lat="47.25178" lon="-1.65055">
        <ele>41.5</ele>
        <time>2013-10-13T10:18:12Z</time>
      </trkpt>
      <trkpt lat="47.25178" lon="-1.65041">
        <ele>40.9</ele>
        <time>2013-10-13T10:18:16Z</time>
      </trkpt>
      <trkpt lat="47.25176" lon="-1.65025">
        <ele>40.6</ele>
        <time>2013-10-13T10:18:20Z</time>
      </trkpt>
      <trkpt lat="47.25174" lon="-1.65008">
        <ele>40.4</ele>
        <time>2013-10-13T10:18:24Z</time>
      </trkpt>
      <trkpt lat="47.25173" lon="-1.64995">
        <ele>40.4</ele>
        <time>2013-10-13T10:18:27Z</time>
      </trkpt>
      <trkpt lat="47.25173" lon="-1.64977">
        <ele>40.7</ele>
        <time>2013-10-13T10:18:31Z</time>
      </trkpt>
      <trkpt lat="47.25174" lon="-1.64963">
        <ele>41.2</ele>
        <time>2013-10-13T10:18:35Z</time>
      </trkpt>
      <trkpt lat="47.25173" lon="-1.64948">
        <ele>41.9</ele>
        <time>2013-10-13T10:18:39Z</time>
      </trkpt>
      <trkpt lat="47.2517" lon="-1.64931">
        <ele>42.4</ele>
        <time>2013-10-13T10:18:42Z</time>
      </trkpt>
      <trkpt lat="47.25167" lon="-1.64917">
        <ele>42.5</ele>
        <time>2013-10-13T10:18:45Z</time>
      </trkpt>
      <trkpt lat="47.25164" lon="-1.64903">
        <ele>42.4</ele>
        <time>2013-10-13T10:18:48Z</time>
      </trkpt>
      <trkpt lat="47.2516" lon="-1.64888">
        <ele>41.9</ele>
        <time>2013-10-13T10:18:51Z</time>
      </trkpt>
      <trkpt lat="47.25155" lon="-1.64874">
        <ele>41.7</ele>
        <time>2013-10-13T10:18:54Z</time>
      </trkpt>
      <trkpt lat="47.25148" lon="-1.64864">
        <ele>41.2</ele>
        <time>2013-10-13T10:18:57Z</time>
      </trkpt>
      <trkpt lat="47.25143" lon="-1.64852">
        <ele>40.8</ele>
        <time>2013-10-13T10:19:00Z</time>
      </trkpt>
      <trkpt lat="47.25134" lon="-1.64837">
        <ele>40.3</ele>
        <time>2013-10-13T10:19:03Z</time>
      </trkpt>
      <trkpt lat="47.25125" lon="-1.64827">
        <ele>39.8</ele>
        <time>2013-10-13T10:19:06Z</time>
      </trkpt>
      <trkpt lat="47.25114" lon="-1.64822">
        <ele>39.4</ele>
        <time>2013-10-13T10:19:09Z</time>
      </trkpt>
      <trkpt lat="47.25104" lon="-1.64817">
        <ele>38.8</ele>
        <time>2013-10-13T10:19:12Z</time>
      </trkpt>
      <trkpt lat="47.25095" lon="-1.64813">
        <ele>38.3</ele>
        <time>2013-10-13T10:19:14Z</time>
      </trkpt>
      <trkpt lat="47.25087" lon="-1.64809">
        <ele>35.9</ele>
        <time>2013-10-13T10:19:16Z</time>
      </trkpt>
      <trkpt lat="47.25085" lon="-1.64793">
        <ele>35.9</ele>
        <time>2013-10-13T10:19:20Z</time>
      </trkpt>
      <trkpt lat="47.25087" lon="-1.64777">
        <ele>36</ele>
        <time>2013-10-13T10:19:23Z</time>
      </trkpt>
      <trkpt lat="47.25089" lon="-1.6476">
        <ele>36.1</ele>
        <time>2013-10-13T10:19:26Z</time>
      </trkpt>
      <trkpt lat="47.25092" lon="-1.64741">
        <ele>37.8</ele>
        <time>2013-10-13T10:19:29Z</time>
      </trkpt>
      <trkpt lat="47.25093" lon="-1.64722">
        <ele>39.7</ele>
        <time>2013-10-13T10:19:32Z</time>
      </trkpt>
      <trkpt lat="47.25095" lon="-1.64703">
        <ele>40.6</ele>
        <time>2013-10-13T10:19:35Z</time>
      </trkpt>
      <trkpt lat="47.25098" lon="-1.64684">
        <ele>40.4</ele>
        <time>2013-10-13T10:19:38Z</time>
      </trkpt>
      <trkpt lat="47.251" lon="-1.64669">
        <ele>41.4</ele>
        <time>2013-10-13T10:19:40Z</time>
      </trkpt>
      <trkpt lat="47.25102" lon="-1.64654">
        <ele>42</ele>
        <time>2013-10-13T10:19:42Z</time>
      </trkpt>
      <trkpt lat="47.25105" lon="-1.64635">
        <ele>41.4</ele>
        <time>2013-10-13T10:19:45Z</time>
      </trkpt>
      <trkpt lat="47.25108" lon="-1.64616">
        <ele>41.1</ele>
        <time>2013-10-13T10:19:48Z</time>
      </trkpt>
      <trkpt lat="47.25109" lon="-1.64597">
        <ele>41.5</ele>
        <time>2013-10-13T10:19:51Z</time>
      </trkpt>
      <trkpt lat="47.25109" lon="-1.64582">
        <ele>41.7</ele>
        <time>2013-10-13T10:19:53Z</time>
      </trkpt>
      <trkpt lat="47.25108" lon="-1.64566">
        <ele>41.6</ele>
        <time>2013-10-13T10:19:56Z</time>
      </trkpt>
      <trkpt lat="47.25106" lon="-1.64548">
        <ele>41.5</ele>
        <time>2013-10-13T10:19:59Z</time>
      </trkpt>
      <trkpt lat="47.25102" lon="-1.64535">
        <ele>41.1</ele>
        <time>2013-10-13T10:20:03Z</time>
      </trkpt>
      <trkpt lat="47.25099" lon="-1.64519">
        <ele>41</ele>
        <time>2013-10-13T10:20:07Z</time>
      </trkpt>
      <trkpt lat="47.25102" lon="-1.64505">
        <ele>41.3</ele>
        <time>2013-10-13T10:20:10Z</time>
      </trkpt>
      <trkpt lat="47.25101" lon="-1.64491">
        <ele>41.5</ele>
        <time>2013-10-13T10:20:13Z</time>
      </trkpt>
      <trkpt lat="47.25094" lon="-1.64475">
        <ele>41.6</ele>
        <time>2013-10-13T10:20:17Z</time>
      </trkpt>
      <trkpt lat="47.25088" lon="-1.64464">
        <ele>41.9</ele>
        <time>2013-10-13T10:20:20Z</time>
      </trkpt>
      <trkpt lat="47.25086" lon="-1.64451">
        <ele>42.8</ele>
        <time>2013-10-13T10:20:24Z</time>
      </trkpt>
      <trkpt lat="47.25094" lon="-1.64441">
        <ele>43.2</ele>
        <time>2013-10-13T10:20:28Z</time>
      </trkpt>
      <trkpt lat="47.25102" lon="-1.64432">
        <ele>43.4</ele>
        <time>2013-10-13T10:20:31Z</time>
      </trkpt>
      <trkpt lat="47.25109" lon="-1.64421">
        <ele>43.6</ele>
        <time>2013-10-13T10:20:34Z</time>
      </trkpt>
      <trkpt lat="47.25117" lon="-1.6441">
        <ele>44</ele>
        <time>2013-10-13T10:20:38Z</time>
      </trkpt>
      <trkpt lat="47.25124" lon="-1.64401">
        <ele>44.3</ele>
        <time>2013-10-13T10:20:42Z</time>
      </trkpt>
      <trkpt lat="47.25131" lon="-1.64393">
        <ele>44.9</ele>
        <time>2013-10-13T10:20:47Z</time>
      </trkpt>
      <trkpt lat="47.25134" lon="-1.64379">
        <ele>45.5</ele>
        <time>2013-10-13T10:20:54Z</time>
      </trkpt>
      <trkpt lat="47.25137" lon="-1.64366">
        <ele>45.7</ele>
        <time>2013-10-13T10:20:59Z</time>
      </trkpt>
      <trkpt lat="47.25132" lon="-1.64352">
        <ele>46</ele>
        <time>2013-10-13T10:21:04Z</time>
      </trkpt>
      <trkpt lat="47.25126" lon="-1.64342">
        <ele>46.2</ele>
        <time>2013-10-13T10:21:10Z</time>
      </trkpt>
      <trkpt lat="47.25118" lon="-1.64331">
        <ele>46.5</ele>
        <time>2013-10-13T10:21:15Z</time>
      </trkpt>
      <trkpt lat="47.2511" lon="-1.64319">
        <ele>46.4</ele>
        <time>2013-10-13T10:21:19Z</time>
      </trkpt>
      <trkpt lat="47.25103" lon="-1.64309">
        <ele>46.4</ele>
        <time>2013-10-13T10:21:22Z</time>
      </trkpt>
      <trkpt lat="47.25095" lon="-1.64297">
        <ele>46.3</ele>
        <time>2013-10-13T10:21:25Z</time>
      </trkpt>
      <trkpt lat="47.25088" lon="-1.64285">
        <ele>46.3</ele>
        <time>2013-10-13T10:21:28Z</time>
      </trkpt>
      <trkpt lat="47.25079" lon="-1.64273">
        <ele>46.1</ele>
        <time>2013-10-13T10:21:31Z</time>
      </trkpt>
      <trkpt lat="47.25072" lon="-1.64261">
        <ele>45.8</ele>
        <time>2013-10-13T10:21:34Z</time>
      </trkpt>
      <trkpt lat="47.25066" lon="-1.64247">
        <ele>45.9</ele>
        <time>2013-10-13T10:21:37Z</time>
      </trkpt>
      <trkpt lat="47.25061" lon="-1.64231">
        <ele>46</ele>
        <time>2013-10-13T10:21:40Z</time>
      </trkpt>
      <trkpt lat="47.25057" lon="-1.64212">
        <ele>46.2</ele>
        <time>2013-10-13T10:21:43Z</time>
      </trkpt>
      <trkpt lat="47.25055" lon="-1.64195">
        <ele>46.4</ele>
        <time>2013-10-13T10:21:46Z</time>
      </trkpt>
      <trkpt lat="47.25054" lon="-1.64181">
        <ele>46.4</ele>
        <time>2013-10-13T10:21:49Z</time>
      </trkpt>
      <trkpt lat="47.25048" lon="-1.64168">
        <ele>45.9</ele>
        <time>2013-10-13T10:21:54Z</time>
      </trkpt>
      <trkpt lat="47.25043" lon="-1.64158">
        <ele>45.8</ele>
        <time>2013-10-13T10:21:58Z</time>
      </trkpt>
      <trkpt lat="47.25039" lon="-1.64145">
        <ele>45.7</ele>
        <time>2013-10-13T10:22:01Z</time>
      </trkpt>
      <trkpt lat="47.25038" lon="-1.64131">
        <ele>45.4</ele>
        <time>2013-10-13T10:22:04Z</time>
      </trkpt>
      <trkpt lat="47.25035" lon="-1.64115">
        <ele>44.9</ele>
        <time>2013-10-13T10:22:07Z</time>
      </trkpt>
      <trkpt lat="47.25031" lon="-1.641">
        <ele>44.7</ele>
        <time>2013-10-13T10:22:09Z</time>
      </trkpt>
      <trkpt lat="47.25027" lon="-1.64086">
        <ele>44.5</ele>
        <time>2013-10-13T10:22:12Z</time>
      </trkpt>
      <trkpt lat="47.25024" lon="-1.64072">
        <ele>44.3</ele>
        <time>2013-10-13T10:22:15Z</time>
      </trkpt>
      <trkpt lat="47.2502" lon="-1.64059">
        <ele>44</ele>
        <time>2013-10-13T10:22:18Z</time>
      </trkpt>
      <trkpt lat="47.25017" lon="-1.64046">
        <ele>43.9</ele>
        <time>2013-10-13T10:22:21Z</time>
      </trkpt>
      <trkpt lat="47.25013" lon="-1.6403">
        <ele>43.5</ele>
        <time>2013-10-13T10:22:25Z</time>
      </trkpt>
      <trkpt lat="47.25011" lon="-1.64015">
        <ele>43.1</ele>
        <time>2013-10-13T10:22:28Z</time>
      </trkpt>
      <trkpt lat="47.25008" lon="-1.63997">
        <ele>43.1</ele>
        <time>2013-10-13T10:22:31Z</time>
      </trkpt>
      <trkpt lat="47.25005" lon="-1.63981">
        <ele>43.1</ele>
        <time>2013-10-13T10:22:34Z</time>
      </trkpt>
      <trkpt lat="47.25001" lon="-1.63966">
        <ele>43.2</ele>
        <time>2013-10-13T10:22:37Z</time>
      </trkpt>
      <trkpt lat="47.24996" lon="-1.6395">
        <ele>43.7</ele>
        <time>2013-10-13T10:22:40Z</time>
      </trkpt>
      <trkpt lat="47.24988" lon="-1.63946">
        <ele>44</ele>
        <time>2013-10-13T10:22:44Z</time>
      </trkpt>
      <trkpt lat="47.24978" lon="-1.63949">
        <ele>43.9</ele>
        <time>2013-10-13T10:22:46Z</time>
      </trkpt>
      <trkpt lat="47.24968" lon="-1.63956">
        <ele>43.3</ele>
        <time>2013-10-13T10:22:48Z</time>
      </trkpt>
      <trkpt lat="47.24958" lon="-1.63964">
        <ele>42.8</ele>
        <time>2013-10-13T10:22:50Z</time>
      </trkpt>
      <trkpt lat="47.24947" lon="-1.63973">
        <ele>42.6</ele>
        <time>2013-10-13T10:22:52Z</time>
      </trkpt>
      <trkpt lat="47.24937" lon="-1.63982">
        <ele>40.8</ele>
        <time>2013-10-13T10:22:54Z</time>
      </trkpt>
      <trkpt lat="47.24928" lon="-1.63992">
        <ele>38.1</ele>
        <time>2013-10-13T10:22:56Z</time>
      </trkpt>
      <trkpt lat="47.24915" lon="-1.64003">
        <ele>36.3</ele>
        <time>2013-10-13T10:22:58Z</time>
      </trkpt>
      <trkpt lat="47.24905" lon="-1.64011">
        <ele>35.8</ele>
        <time>2013-10-13T10:23:00Z</time>
      </trkpt>
      <trkpt lat="47.24893" lon="-1.6402">
        <ele>35.7</ele>
        <time>2013-10-13T10:23:02Z</time>
      </trkpt>
      <trkpt lat="47.24883" lon="-1.64025">
        <ele>35.8</ele>
        <time>2013-10-13T10:23:06Z</time>
      </trkpt>
      <trkpt lat="47.24874" lon="-1.64027">
        <ele>36.2</ele>
        <time>2013-10-13T10:23:10Z</time>
      </trkpt>
      <trkpt lat="47.24868" lon="-1.64038">
        <ele>36.9</ele>
        <time>2013-10-13T10:23:15Z</time>
      </trkpt>
      <trkpt lat="47.24877" lon="-1.64038">
        <ele>39.3</ele>
        <time>2013-10-13T10:23:53Z</time>
      </trkpt>
      <trkpt lat="47.24868" lon="-1.6404">
        <ele>38.9</ele>
        <time>2013-10-13T10:24:14Z</time>
      </trkpt>
      <trkpt lat="47.24862" lon="-1.64029">
        <ele>45.2</ele>
        <time>2013-10-13T10:26:57Z</time>
      </trkpt>
      <trkpt lat="47.24858" lon="-1.64017">
        <ele>44.3</ele>
        <time>2013-10-13T10:28:02Z</time>
      </trkpt>
      <trkpt lat="47.24844" lon="-1.64009">
        <ele>44.5</ele>
        <time>2013-10-13T10:29:27Z</time>
      </trkpt>
      <trkpt lat="47.24853" lon="-1.64007">
        <ele>44.6</ele>
        <time>2013-10-13T10:29:51Z</time>
      </trkpt>
      <trkpt lat="47.24843" lon="-1.6401">
        <ele>44.7</ele>
        <time>2013-10-13T10:30:04Z</time>
      </trkpt>
      <trkpt lat="47.24851" lon="-1.64017">
        <ele>45.1</ele>
        <time>2013-10-13T10:30:35Z</time>
      </trkpt>
      <trkpt lat="47.24859" lon="-1.64023">
        <ele>45.8</ele>
        <time>2013-10-13T10:32:21Z</time>
      </trkpt>
      <trkpt lat="47.24867" lon="-1.64002">
        <ele>27.1</ele>
        <time>2013-10-13T10:33:10Z</time>
      </trkpt>
      <trkpt lat="47.24859" lon="-1.64021">
        <ele>27.3</ele>
        <time>2013-10-13T10:33:43Z</time>
      </trkpt>
      <trkpt lat="47.24851" lon="-1.64027">
        <ele>27.8</ele>
        <time>2013-10-13T10:33:56Z</time>
      </trkpt>
      <trkpt lat="47.24849" lon="-1.64014">
        <ele>41.1</ele>
        <time>2013-10-13T10:35:58Z</time>
      </trkpt>
      <trkpt lat="47.24854" lon="-1.64002">
        <ele>46.1</ele>
        <time>2013-10-13T10:46:12Z</time>
      </trkpt>
      <trkpt lat="47.24859" lon="-1.63992">
        <ele>45.8</ele>
        <time>2013-10-13T10:46:22Z</time>
      </trkpt>
      <trkpt lat="47.24861" lon="-1.64005">
        <ele>43.8</ele>
        <time>2013-10-13T10:46:46Z</time>
      </trkpt>
      <trkpt lat="47.24862" lon="-1.64018">
        <ele>45.6</ele>
        <time>2013-10-13T10:47:10Z</time>
      </trkpt>
      <trkpt lat="47.24852" lon="-1.64019">
        <ele>46.8</ele>
        <time>2013-10-13T10:48:15Z</time>
      </trkpt>
      <trkpt lat="47.2486" lon="-1.64027">
        <ele>47.7</ele>
        <time>2013-10-13T10:51:03Z</time>
      </trkpt>
      <trkpt lat="47.24865" lon="-1.64039">
        <ele>46.3</ele>
        <time>2013-10-13T10:51:15Z</time>
      </trkpt>
      <trkpt lat="47.24874" lon="-1.6404">
        <ele>45.5</ele>
        <time>2013-10-13T10:51:26Z</time>
      </trkpt>
      <trkpt lat="47.24869" lon="-1.64052">
        <ele>44.9</ele>
        <time>2013-10-13T10:54:02Z</time>
      </trkpt>
      <trkpt lat="47.24879" lon="-1.64055">
        <ele>44.6</ele>
        <time>2013-10-13T10:54:08Z</time>
      </trkpt>
      <trkpt lat="47.24888" lon="-1.64049">
        <ele>44.7</ele>
        <time>2013-10-13T10:54:12Z</time>
      </trkpt>
      <trkpt lat="47.2489" lon="-1.64035">
        <ele>44.7</ele>
        <time>2013-10-13T10:54:16Z</time>
      </trkpt>
      <trkpt lat="47.24888" lon="-1.64022">
        <ele>44.5</ele>
        <time>2013-10-13T10:54:21Z</time>
      </trkpt>
      <trkpt lat="47.24882" lon="-1.6401">
        <ele>43.8</ele>
        <time>2013-10-13T10:54:28Z</time>
      </trkpt>
      <trkpt lat="47.24875" lon="-1.64">
        <ele>43</ele>
        <time>2013-10-13T10:54:33Z</time>
      </trkpt>
      <trkpt lat="47.24869" lon="-1.63988">
        <ele>42.2</ele>
        <time>2013-10-13T10:54:39Z</time>
      </trkpt>
      <trkpt lat="47.24863" lon="-1.63976">
        <ele>41.4</ele>
        <time>2013-10-13T10:54:43Z</time>
      </trkpt>
      <trkpt lat="47.24859" lon="-1.63963">
        <ele>40.5</ele>
        <time>2013-10-13T10:54:48Z</time>
      </trkpt>
      <trkpt lat="47.24853" lon="-1.6395">
        <ele>40</ele>
        <time>2013-10-13T10:54:52Z</time>
      </trkpt>
      <trkpt lat="47.24847" lon="-1.63939">
        <ele>39.8</ele>
        <time>2013-10-13T10:54:55Z</time>
      </trkpt>
      <trkpt lat="47.24839" lon="-1.63929">
        <ele>39.4</ele>
        <time>2013-10-13T10:54:58Z</time>
      </trkpt>
      <trkpt lat="47.2483" lon="-1.6392">
        <ele>39.1</ele>
        <time>2013-10-13T10:55:01Z</time>
      </trkpt>
      <trkpt lat="47.2482" lon="-1.63912">
        <ele>38.5</ele>
        <time>2013-10-13T10:55:05Z</time>
      </trkpt>
      <trkpt lat="47.2481" lon="-1.63905">
        <ele>36.6</ele>
        <time>2013-10-13T10:55:08Z</time>
      </trkpt>
      <trkpt lat="47.24798" lon="-1.63897">
        <ele>34.6</ele>
        <time>2013-10-13T10:55:11Z</time>
      </trkpt>
      <trkpt lat="47.24791" lon="-1.63885">
        <ele>34.4</ele>
        <time>2013-10-13T10:55:14Z</time>
      </trkpt>
      <trkpt lat="47.24785" lon="-1.63873">
        <ele>34.2</ele>
        <time>2013-10-13T10:55:17Z</time>
      </trkpt>
      <trkpt lat="47.24778" lon="-1.63861">
        <ele>34.3</ele>
        <time>2013-10-13T10:55:20Z</time>
      </trkpt>
      <trkpt lat="47.2477" lon="-1.63847">
        <ele>34.6</ele>
        <time>2013-10-13T10:55:23Z</time>
      </trkpt>
      <trkpt lat="47.24763" lon="-1.63831">
        <ele>35.1</ele>
        <time>2013-10-13T10:55:26Z</time>
      </trkpt>
      <trkpt lat="47.24757" lon="-1.63814">
        <ele>35.6</ele>
        <time>2013-10-13T10:55:29Z</time>
      </trkpt>
      <trkpt lat="47.24753" lon="-1.63801">
        <ele>35.7</ele>
        <time>2013-10-13T10:55:31Z</time>
      </trkpt>
      <trkpt lat="47.24748" lon="-1.63787">
        <ele>35.7</ele>
        <time>2013-10-13T10:55:33Z</time>
      </trkpt>
      <trkpt lat="47.24744" lon="-1.63774">
        <ele>35.7</ele>
        <time>2013-10-13T10:55:35Z</time>
      </trkpt>
      <trkpt lat="47.24739" lon="-1.63761">
        <ele>35.6</ele>
        <time>2013-10-13T10:55:37Z</time>
      </trkpt>
      <trkpt lat="47.24735" lon="-1.63747">
        <ele>35.6</ele>
        <time>2013-10-13T10:55:40Z</time>
      </trkpt>
      <trkpt lat="47.24733" lon="-1.63732">
        <ele>35.9</ele>
        <time>2013-10-13T10:55:44Z</time>
      </trkpt>
      <trkpt lat="47.2473" lon="-1.63745">
        <ele>36.3</ele>
        <time>2013-10-13T10:55:48Z</time>
      </trkpt>
      <trkpt lat="47.2472" lon="-1.63763">
        <ele>36.4</ele>
        <time>2013-10-13T10:55:51Z</time>
      </trkpt>
      <trkpt lat="47.24712" lon="-1.63769">
        <ele>36.2</ele>
        <time>2013-10-13T10:55:53Z</time>
      </trkpt>
      <trkpt lat="47.24703" lon="-1.63777">
        <ele>36</ele>
        <time>2013-10-13T10:55:55Z</time>
      </trkpt>
      <trkpt lat="47.24695" lon="-1.63785">
        <ele>34</ele>
        <time>2013-10-13T10:55:57Z</time>
      </trkpt>
      <trkpt lat="47.24682" lon="-1.63791">
        <ele>32.7</ele>
        <time>2013-10-13T10:55:59Z</time>
      </trkpt>
      <trkpt lat="47.24668" lon="-1.63791">
        <ele>31.9</ele>
        <time>2013-10-13T10:56:01Z</time>
      </trkpt>
      <trkpt lat="47.24655" lon="-1.63787">
        <ele>31.3</ele>
        <time>2013-10-13T10:56:03Z</time>
      </trkpt>
      <trkpt lat="47.24644" lon="-1.63779">
        <ele>31.2</ele>
        <time>2013-10-13T10:56:05Z</time>
      </trkpt>
      <trkpt lat="47.24634" lon="-1.63769">
        <ele>31.3</ele>
        <time>2013-10-13T10:56:07Z</time>
      </trkpt>
      <trkpt lat="47.24625" lon="-1.63762">
        <ele>31.1</ele>
        <time>2013-10-13T10:56:09Z</time>
      </trkpt>
      <trkpt lat="47.24614" lon="-1.63762">
        <ele>30.3</ele>
        <time>2013-10-13T10:56:12Z</time>
      </trkpt>
      <trkpt lat="47.246" lon="-1.63767">
        <ele>32.9</ele>
        <time>2013-10-13T10:56:15Z</time>
      </trkpt>
      <trkpt lat="47.24589" lon="-1.63776">
        <ele>32.7</ele>
        <time>2013-10-13T10:56:17Z</time>
      </trkpt>
      <trkpt lat="47.24578" lon="-1.63787">
        <ele>31.5</ele>
        <time>2013-10-13T10:56:19Z</time>
      </trkpt>
      <trkpt lat="47.24565" lon="-1.63795">
        <ele>29.5</ele>
        <time>2013-10-13T10:56:21Z</time>
      </trkpt>
      <trkpt lat="47.24551" lon="-1.63802">
        <ele>28.2</ele>
        <time>2013-10-13T10:56:23Z</time>
      </trkpt>
      <trkpt lat="47.24537" lon="-1.63807">
        <ele>27.5</ele>
        <time>2013-10-13T10:56:25Z</time>
      </trkpt>
      <trkpt lat="47.24522" lon="-1.63809">
        <ele>27.7</ele>
        <time>2013-10-13T10:56:27Z</time>
      </trkpt>
      <trkpt lat="47.24508" lon="-1.63805">
        <ele>27.8</ele>
        <time>2013-10-13T10:56:29Z</time>
      </trkpt>
      <trkpt lat="47.24499" lon="-1.638">
        <ele>27.5</ele>
        <time>2013-10-13T10:56:30Z</time>
      </trkpt>
      <trkpt lat="47.2449" lon="-1.63795">
        <ele>27.5</ele>
        <time>2013-10-13T10:56:31Z</time>
      </trkpt>
      <trkpt lat="47.24477" lon="-1.63786">
        <ele>26.5</ele>
        <time>2013-10-13T10:56:33Z</time>
      </trkpt>
      <trkpt lat="47.24464" lon="-1.63777">
        <ele>25.6</ele>
        <time>2013-10-13T10:56:35Z</time>
      </trkpt>
      <trkpt lat="47.24452" lon="-1.63768">
        <ele>26.2</ele>
        <time>2013-10-13T10:56:37Z</time>
      </trkpt>
      <trkpt lat="47.2444" lon="-1.6376">
        <ele>26.8</ele>
        <time>2013-10-13T10:56:39Z</time>
      </trkpt>
      <trkpt lat="47.2443" lon="-1.63753">
        <ele>27.6</ele>
        <time>2013-10-13T10:56:41Z</time>
      </trkpt>
      <trkpt lat="47.24421" lon="-1.63748">
        <ele>26.2</ele>
        <time>2013-10-13T10:56:43Z</time>
      </trkpt>
      <trkpt lat="47.24411" lon="-1.63742">
        <ele>25.8</ele>
        <time>2013-10-13T10:56:45Z</time>
      </trkpt>
      <trkpt lat="47.24402" lon="-1.63744">
        <ele>25.9</ele>
        <time>2013-10-13T10:56:53Z</time>
      </trkpt>
      <trkpt lat="47.24392" lon="-1.6375">
        <ele>25.2</ele>
        <time>2013-10-13T10:57:01Z</time>
      </trkpt>
      <trkpt lat="47.24385" lon="-1.63741">
        <ele>24.6</ele>
        <time>2013-10-13T10:57:05Z</time>
      </trkpt>
      <trkpt lat="47.24386" lon="-1.63726">
        <ele>24.4</ele>
        <time>2013-10-13T10:57:08Z</time>
      </trkpt>
      <trkpt lat="47.24392" lon="-1.6371">
        <ele>24.3</ele>
        <time>2013-10-13T10:57:12Z</time>
      </trkpt>
      <trkpt lat="47.24394" lon="-1.63697">
        <ele>24.3</ele>
        <time>2013-10-13T10:57:14Z</time>
      </trkpt>
      <trkpt lat="47.24397" lon="-1.63678">
        <ele>24.2</ele>
        <time>2013-10-13T10:57:17Z</time>
      </trkpt>
      <trkpt lat="47.24398" lon="-1.63664">
        <ele>24.2</ele>
        <time>2013-10-13T10:57:19Z</time>
      </trkpt>
      <trkpt lat="47.24399" lon="-1.63645">
        <ele>24</ele>
        <time>2013-10-13T10:57:22Z</time>
      </trkpt>
      <trkpt lat="47.24397" lon="-1.63625">
        <ele>23.2</ele>
        <time>2013-10-13T10:57:25Z</time>
      </trkpt>
      <trkpt lat="47.24393" lon="-1.63609">
        <ele>22.7</ele>
        <time>2013-10-13T10:57:27Z</time>
      </trkpt>
      <trkpt lat="47.2439" lon="-1.63595">
        <ele>21.3</ele>
        <time>2013-10-13T10:57:29Z</time>
      </trkpt>
      <trkpt lat="47.24384" lon="-1.63576">
        <ele>19.7</ele>
        <time>2013-10-13T10:57:31Z</time>
      </trkpt>
      <trkpt lat="47.24381" lon="-1.63557">
        <ele>18.7</ele>
        <time>2013-10-13T10:57:33Z</time>
      </trkpt>
      <trkpt lat="47.2438" lon="-1.63542">
        <ele>18</ele>
        <time>2013-10-13T10:57:35Z</time>
      </trkpt>
      <trkpt lat="47.24385" lon="-1.63528">
        <ele>17.6</ele>
        <time>2013-10-13T10:57:38Z</time>
      </trkpt>
      <trkpt lat="47.24392" lon="-1.63514">
        <ele>17.8</ele>
        <time>2013-10-13T10:57:41Z</time>
      </trkpt>
      <trkpt lat="47.24398" lon="-1.63499">
        <ele>18.2</ele>
        <time>2013-10-13T10:57:44Z</time>
      </trkpt>
      <trkpt lat="47.24398" lon="-1.6348">
        <ele>18.6</ele>
        <time>2013-10-13T10:57:47Z</time>
      </trkpt>
      <trkpt lat="47.24396" lon="-1.63461">
        <ele>19.9</ele>
        <time>2013-10-13T10:57:50Z</time>
      </trkpt>
      <trkpt lat="47.24392" lon="-1.63449">
        <ele>21.9</ele>
        <time>2013-10-13T10:57:52Z</time>
      </trkpt>
      <trkpt lat="47.24388" lon="-1.63437">
        <ele>23.4</ele>
        <time>2013-10-13T10:57:54Z</time>
      </trkpt>
      <trkpt lat="47.24384" lon="-1.63424">
        <ele>22.5</ele>
        <time>2013-10-13T10:57:56Z</time>
      </trkpt>
      <trkpt lat="47.24377" lon="-1.63414">
        <ele>22.2</ele>
        <time>2013-10-13T10:58:00Z</time>
      </trkpt>
      <trkpt lat="47.24366" lon="-1.63408">
        <ele>21.6</ele>
        <time>2013-10-13T10:58:04Z</time>
      </trkpt>
      <trkpt lat="47.2436" lon="-1.63397">
        <ele>21.1</ele>
        <time>2013-10-13T10:58:07Z</time>
      </trkpt>
      <trkpt lat="47.24364" lon="-1.63384">
        <ele>20.6</ele>
        <time>2013-10-13T10:58:10Z</time>
      </trkpt>
      <trkpt lat="47.24367" lon="-1.6337">
        <ele>20.1</ele>
        <time>2013-10-13T10:58:13Z</time>
      </trkpt>
      <trkpt lat="47.2437" lon="-1.63356">
        <ele>19.9</ele>
        <time>2013-10-13T10:58:16Z</time>
      </trkpt>
      <trkpt lat="47.2437" lon="-1.63343">
        <ele>19.9</ele>
        <time>2013-10-13T10:58:19Z</time>
      </trkpt>
      <trkpt lat="47.24365" lon="-1.63332">
        <ele>19.7</ele>
        <time>2013-10-13T10:58:22Z</time>
      </trkpt>
      <trkpt lat="47.24358" lon="-1.63317">
        <ele>19.2</ele>
        <time>2013-10-13T10:58:26Z</time>
      </trkpt>
      <trkpt lat="47.24351" lon="-1.63309">
        <ele>18.7</ele>
        <time>2013-10-13T10:58:29Z</time>
      </trkpt>
      <trkpt lat="47.24341" lon="-1.63299">
        <ele>18</ele>
        <time>2013-10-13T10:58:33Z</time>
      </trkpt>
      <trkpt lat="47.24333" lon="-1.63289">
        <ele>17.6</ele>
        <time>2013-10-13T10:58:36Z</time>
      </trkpt>
      <trkpt lat="47.24325" lon="-1.63275">
        <ele>17.4</ele>
        <time>2013-10-13T10:58:39Z</time>
      </trkpt>
      <trkpt lat="47.24314" lon="-1.63261">
        <ele>17.1</ele>
        <time>2013-10-13T10:58:42Z</time>
      </trkpt>
      <trkpt lat="47.24303" lon="-1.63253">
        <ele>14.6</ele>
        <time>2013-10-13T10:58:44Z</time>
      </trkpt>
      <trkpt lat="47.24294" lon="-1.63246">
        <ele>12.6</ele>
        <time>2013-10-13T10:58:46Z</time>
      </trkpt>
      <trkpt lat="47.24283" lon="-1.63238">
        <ele>11.5</ele>
        <time>2013-10-13T10:58:48Z</time>
      </trkpt>
      <trkpt lat="47.24275" lon="-1.6323">
        <ele>11.4</ele>
        <time>2013-10-13T10:58:50Z</time>
      </trkpt>
      <trkpt lat="47.24266" lon="-1.63223">
        <ele>11.3</ele>
        <time>2013-10-13T10:58:52Z</time>
      </trkpt>
      <trkpt lat="47.24258" lon="-1.63216">
        <ele>11.2</ele>
        <time>2013-10-13T10:58:54Z</time>
      </trkpt>
      <trkpt lat="47.24246" lon="-1.63202">
        <ele>11.4</ele>
        <time>2013-10-13T10:58:56Z</time>
      </trkpt>
      <trkpt lat="47.24237" lon="-1.6319">
        <ele>11.3</ele>
        <time>2013-10-13T10:58:58Z</time>
      </trkpt>
      <trkpt lat="47.24227" lon="-1.63177">
        <ele>10.8</ele>
        <time>2013-10-13T10:59:00Z</time>
      </trkpt>
      <trkpt lat="47.24218" lon="-1.6316">
        <ele>11.2</ele>
        <time>2013-10-13T10:59:02Z</time>
      </trkpt>
      <trkpt lat="47.24211" lon="-1.63146">
        <ele>12.2</ele>
        <time>2013-10-13T10:59:04Z</time>
      </trkpt>
      <trkpt lat="47.24206" lon="-1.63128">
        <ele>13.3</ele>
        <time>2013-10-13T10:59:06Z</time>
      </trkpt>
      <trkpt lat="47.24202" lon="-1.63114">
        <ele>13.7</ele>
        <time>2013-10-13T10:59:08Z</time>
      </trkpt>
      <trkpt lat="47.24199" lon="-1.63101">
        <ele>13.7</ele>
        <time>2013-10-13T10:59:10Z</time>
      </trkpt>
      <trkpt lat="47.24196" lon="-1.63088">
        <ele>13.7</ele>
        <time>2013-10-13T10:59:12Z</time>
      </trkpt>
      <trkpt lat="47.24192" lon="-1.63074">
        <ele>13.6</ele>
        <time>2013-10-13T10:59:14Z</time>
      </trkpt>
      <trkpt lat="47.24194" lon="-1.63057">
        <ele>13.5</ele>
        <time>2013-10-13T10:59:17Z</time>
      </trkpt>
      <trkpt lat="47.24195" lon="-1.63044">
        <ele>13.7</ele>
        <time>2013-10-13T10:59:20Z</time>
      </trkpt>
      <trkpt lat="47.24196" lon="-1.63026">
        <ele>13.9</ele>
        <time>2013-10-13T10:59:24Z</time>
      </trkpt>
      <trkpt lat="47.24198" lon="-1.63012">
        <ele>14.3</ele>
        <time>2013-10-13T10:59:27Z</time>
      </trkpt>
      <trkpt lat="47.24198" lon="-1.62996">
        <ele>14.7</ele>
        <time>2013-10-13T10:59:31Z</time>
      </trkpt>
      <trkpt lat="47.24194" lon="-1.62983">
        <ele>14.7</ele>
        <time>2013-10-13T10:59:34Z</time>
      </trkpt>
      <trkpt lat="47.24188" lon="-1.62966">
        <ele>14.3</ele>
        <time>2013-10-13T10:59:37Z</time>
      </trkpt>
      <trkpt lat="47.24187" lon="-1.62951">
        <ele>13.9</ele>
        <time>2013-10-13T10:59:40Z</time>
      </trkpt>
      <trkpt lat="47.24184" lon="-1.62933">
        <ele>13.6</ele>
        <time>2013-10-13T10:59:42Z</time>
      </trkpt>
      <trkpt lat="47.24178" lon="-1.62923">
        <ele>13.3</ele>
        <time>2013-10-13T10:59:44Z</time>
      </trkpt>
      <trkpt lat="47.2417" lon="-1.62913">
        <ele>12.9</ele>
        <time>2013-10-13T10:59:47Z</time>
      </trkpt>
      <trkpt lat="47.24163" lon="-1.629">
        <ele>11.8</ele>
        <time>2013-10-13T10:59:51Z</time>
      </trkpt>
      <trkpt lat="47.24159" lon="-1.62886">
        <ele>11.1</ele>
        <time>2013-10-13T10:59:54Z</time>
      </trkpt>
      <trkpt lat="47.24156" lon="-1.62868">
        <ele>10.5</ele>
        <time>2013-10-13T10:59:57Z</time>
      </trkpt>
      <trkpt lat="47.24155" lon="-1.62853">
        <ele>10.2</ele>
        <time>2013-10-13T11:00:00Z</time>
      </trkpt>
      <trkpt lat="47.24153" lon="-1.6284">
        <ele>9.9</ele>
        <time>2013-10-13T11:00:02Z</time>
      </trkpt>
      <trkpt lat="47.24147" lon="-1.62828">
        <ele>9.5</ele>
        <time>2013-10-13T11:00:04Z</time>
      </trkpt>
      <trkpt lat="47.2414" lon="-1.62814">
        <ele>9</ele>
        <time>2013-10-13T11:00:07Z</time>
      </trkpt>
      <trkpt lat="47.24134" lon="-1.62801">
        <ele>8.8</ele>
        <time>2013-10-13T11:00:09Z</time>
      </trkpt>
      <trkpt lat="47.24127" lon="-1.62789">
        <ele>7.2</ele>
        <time>2013-10-13T11:00:11Z</time>
      </trkpt>
      <trkpt lat="47.24119" lon="-1.62776">
        <ele>6</ele>
        <time>2013-10-13T11:00:13Z</time>
      </trkpt>
      <trkpt lat="47.2411" lon="-1.62764">
        <ele>5.9</ele>
        <time>2013-10-13T11:00:15Z</time>
      </trkpt>
      <trkpt lat="47.24104" lon="-1.62754">
        <ele>5.9</ele>
        <time>2013-10-13T11:00:17Z</time>
      </trkpt>
      <trkpt lat="47.24096" lon="-1.62739">
        <ele>5.9</ele>
        <time>2013-10-13T11:00:20Z</time>
      </trkpt>
      <trkpt lat="47.24092" lon="-1.62726">
        <ele>6.9</ele>
        <time>2013-10-13T11:00:25Z</time>
      </trkpt>
      <trkpt lat="47.24084" lon="-1.62715">
        <ele>7.9</ele>
        <time>2013-10-13T11:00:30Z</time>
      </trkpt>
      <trkpt lat="47.24072" lon="-1.62704">
        <ele>8.6</ele>
        <time>2013-10-13T11:00:38Z</time>
      </trkpt>
      <trkpt lat="47.24063" lon="-1.62688">
        <ele>8.9</ele>
        <time>2013-10-13T11:00:44Z</time>
      </trkpt>
      <trkpt lat="47.24059" lon="-1.62671">
        <ele>9</ele>
        <time>2013-10-13T11:00:46Z</time>
      </trkpt>
      <trkpt lat="47.24064" lon="-1.62654">
        <ele>9.7</ele>
        <time>2013-10-13T11:00:50Z</time>
      </trkpt>
      <trkpt lat="47.24074" lon="-1.62642">
        <ele>10.1</ele>
        <time>2013-10-13T11:00:53Z</time>
      </trkpt>
      <trkpt lat="47.24081" lon="-1.62629">
        <ele>10.5</ele>
        <time>2013-10-13T11:00:56Z</time>
      </trkpt>
      <trkpt lat="47.2409" lon="-1.62614">
        <ele>11.3</ele>
        <time>2013-10-13T11:00:59Z</time>
      </trkpt>
      <trkpt lat="47.24096" lon="-1.62599">
        <ele>12</ele>
        <time>2013-10-13T11:01:02Z</time>
      </trkpt>
      <trkpt lat="47.24102" lon="-1.62584">
        <ele>12.2</ele>
        <time>2013-10-13T11:01:05Z</time>
      </trkpt>
      <trkpt lat="47.24107" lon="-1.62571">
        <ele>12.5</ele>
        <time>2013-10-13T11:01:08Z</time>
      </trkpt>
      <trkpt lat="47.24108" lon="-1.62557">
        <ele>12.8</ele>
        <time>2013-10-13T11:01:11Z</time>
      </trkpt>
      <trkpt lat="47.24101" lon="-1.62548">
        <ele>12.9</ele>
        <time>2013-10-13T11:01:15Z</time>
      </trkpt>
      <trkpt lat="47.2409" lon="-1.62545">
        <ele>12.9</ele>
        <time>2013-10-13T11:01:18Z</time>
      </trkpt>
      <trkpt lat="47.24079" lon="-1.6254">
        <ele>13</ele>
        <time>2013-10-13T11:01:21Z</time>
      </trkpt>
      <trkpt lat="47.24069" lon="-1.62528">
        <ele>12.8</ele>
        <time>2013-10-13T11:01:24Z</time>
      </trkpt>
      <trkpt lat="47.24059" lon="-1.62517">
        <ele>12.4</ele>
        <time>2013-10-13T11:01:27Z</time>
      </trkpt>
      <trkpt lat="47.2405" lon="-1.62504">
        <ele>11.7</ele>
        <time>2013-10-13T11:01:30Z</time>
      </trkpt>
      <trkpt lat="47.24042" lon="-1.62491">
        <ele>11.2</ele>
        <time>2013-10-13T11:01:32Z</time>
      </trkpt>
      <trkpt lat="47.24035" lon="-1.6248">
        <ele>10.6</ele>
        <time>2013-10-13T11:01:34Z</time>
      </trkpt>
      <trkpt lat="47.24025" lon="-1.62467">
        <ele>7.9</ele>
        <time>2013-10-13T11:01:37Z</time>
      </trkpt>
      <trkpt lat="47.24018" lon="-1.62458">
        <ele>7.1</ele>
        <time>2013-10-13T11:01:39Z</time>
      </trkpt>
      <trkpt lat="47.24009" lon="-1.62446">
        <ele>6.8</ele>
        <time>2013-10-13T11:01:42Z</time>
      </trkpt>
      <trkpt lat="47.2401" lon="-1.6243">
        <ele>6.9</ele>
        <time>2013-10-13T11:01:45Z</time>
      </trkpt>
      <trkpt lat="47.24014" lon="-1.62414">
        <ele>7.3</ele>
        <time>2013-10-13T11:01:48Z</time>
      </trkpt>
      <trkpt lat="47.24016" lon="-1.624">
        <ele>7.4</ele>
        <time>2013-10-13T11:01:51Z</time>
      </trkpt>
      <trkpt lat="47.24017" lon="-1.62382">
        <ele>7.6</ele>
        <time>2013-10-13T11:01:54Z</time>
      </trkpt>
      <trkpt lat="47.2402" lon="-1.62367">
        <ele>7.7</ele>
        <time>2013-10-13T11:01:57Z</time>
      </trkpt>
      <trkpt lat="47.24019" lon="-1.62347">
        <ele>7.9</ele>
        <time>2013-10-13T11:02:00Z</time>
      </trkpt>
      <trkpt lat="47.24018" lon="-1.62334">
        <ele>8</ele>
        <time>2013-10-13T11:02:02Z</time>
      </trkpt>
      <trkpt lat="47.24019" lon="-1.62319">
        <ele>8.1</ele>
        <time>2013-10-13T11:02:04Z</time>
      </trkpt>
      <trkpt lat="47.2402" lon="-1.62305">
        <ele>8.3</ele>
        <time>2013-10-13T11:02:06Z</time>
      </trkpt>
      <trkpt lat="47.2402" lon="-1.62287">
        <ele>8.7</ele>
        <time>2013-10-13T11:02:10Z</time>
      </trkpt>
      <trkpt lat="47.24018" lon="-1.62273">
        <ele>8.9</ele>
        <time>2013-10-13T11:02:13Z</time>
      </trkpt>
      <trkpt lat="47.24015" lon="-1.62257">
        <ele>9.1</ele>
        <time>2013-10-13T11:02:17Z</time>
      </trkpt>
      <trkpt lat="47.24012" lon="-1.62243">
        <ele>9.5</ele>
        <time>2013-10-13T11:02:21Z</time>
      </trkpt>
      <trkpt lat="47.24011" lon="-1.62226">
        <ele>10.1</ele>
        <time>2013-10-13T11:02:25Z</time>
      </trkpt>
      <trkpt lat="47.24011" lon="-1.62212">
        <ele>10.5</ele>
        <time>2013-10-13T11:02:28Z</time>
      </trkpt>
      <trkpt lat="47.24011" lon="-1.62197">
        <ele>10.9</ele>
        <time>2013-10-13T11:02:30Z</time>
      </trkpt>
      <trkpt lat="47.2401" lon="-1.62183">
        <ele>11.2</ele>
        <time>2013-10-13T11:02:32Z</time>
      </trkpt>
      <trkpt lat="47.2401" lon="-1.62165">
        <ele>11.5</ele>
        <time>2013-10-13T11:02:35Z</time>
      </trkpt>
      <trkpt lat="47.2401" lon="-1.62147">
        <ele>11.7</ele>
        <time>2013-10-13T11:02:38Z</time>
      </trkpt>
      <trkpt lat="47.2401" lon="-1.62131">
        <ele>11.7</ele>
        <time>2013-10-13T11:02:40Z</time>
      </trkpt>
      <trkpt lat="47.24011" lon="-1.62117">
        <ele>11.6</ele>
        <time>2013-10-13T11:02:42Z</time>
      </trkpt>
      <trkpt lat="47.24013" lon="-1.62098">
        <ele>11.4</ele>
        <time>2013-10-13T11:02:45Z</time>
      </trkpt>
      <trkpt lat="47.24013" lon="-1.62084">
        <ele>11.1</ele>
        <time>2013-10-13T11:02:48Z</time>
      </trkpt>
      <trkpt lat="47.24013" lon="-1.62068">
        <ele>11.1</ele>
        <time>2013-10-13T11:02:51Z</time>
      </trkpt>
      <trkpt lat="47.24012" lon="-1.62051">
        <ele>10.9</ele>
        <time>2013-10-13T11:02:54Z</time>
      </trkpt>
      <trkpt lat="47.24008" lon="-1.62035">
        <ele>10.7</ele>
        <time>2013-10-13T11:02:57Z</time>
      </trkpt>
      <trkpt lat="47.24" lon="-1.62022">
        <ele>10.2</ele>
        <time>2013-10-13T11:03:01Z</time>
      </trkpt>
      <trkpt lat="47.23992" lon="-1.62014">
        <ele>9.7</ele>
        <time>2013-10-13T11:03:04Z</time>
      </trkpt>
      <trkpt lat="47.23984" lon="-1.62007">
        <ele>9.1</ele>
        <time>2013-10-13T11:03:08Z</time>
      </trkpt>
      <trkpt lat="47.23974" lon="-1.62004">
        <ele>6.5</ele>
        <time>2013-10-13T11:03:11Z</time>
      </trkpt>
      <trkpt lat="47.23963" lon="-1.62">
        <ele>4.4</ele>
        <time>2013-10-13T11:03:15Z</time>
      </trkpt>
      <trkpt lat="47.23953" lon="-1.61997">
        <ele>3.2</ele>
        <time>2013-10-13T11:03:18Z</time>
      </trkpt>
      <trkpt lat="47.23942" lon="-1.61993">
        <ele>1.6</ele>
        <time>2013-10-13T11:03:21Z</time>
      </trkpt>
      <trkpt lat="47.23931" lon="-1.61991">
        <ele>19.5</ele>
        <time>2013-10-13T11:03:24Z</time>
      </trkpt>
      <trkpt lat="47.23923" lon="-1.61988">
        <ele>-1.3</ele>
        <time>2013-10-13T11:03:27Z</time>
      </trkpt>
      <trkpt lat="47.2391" lon="-1.61986">
        <ele>-3.2</ele>
        <time>2013-10-13T11:03:31Z</time>
      </trkpt>
      <trkpt lat="47.23898" lon="-1.61983">
        <ele>-9.2</ele>
        <time>2013-10-13T11:03:34Z</time>
      </trkpt>
      <trkpt lat="47.23887" lon="-1.61981">
        <ele>-13.9</ele>
        <time>2013-10-13T11:03:36Z</time>
      </trkpt>
      <trkpt lat="47.23878" lon="-1.61976">
        <ele>-14.8</ele>
        <time>2013-10-13T11:03:38Z</time>
      </trkpt>
      <trkpt lat="47.2387" lon="-1.6197">
        <ele>-15.8</ele>
        <time>2013-10-13T11:03:41Z</time>
      </trkpt>
      <trkpt lat="47.23864" lon="-1.6196">
        <ele>-16.7</ele>
        <time>2013-10-13T11:03:44Z</time>
      </trkpt>
      <trkpt lat="47.23856" lon="-1.61951">
        <ele>-17.8</ele>
        <time>2013-10-13T11:03:47Z</time>
      </trkpt>
      <trkpt lat="47.23848" lon="-1.61943">
        <ele>-18.6</ele>
        <time>2013-10-13T11:03:50Z</time>
      </trkpt>
      <trkpt lat="47.2384" lon="-1.61934">
        <ele>-19.5</ele>
        <time>2013-10-13T11:03:53Z</time>
      </trkpt>
      <trkpt lat="47.23833" lon="-1.61922">
        <ele>-20.5</ele>
        <time>2013-10-13T11:03:56Z</time>
      </trkpt>
      <trkpt lat="47.23826" lon="-1.61908">
        <ele>-21.6</ele>
        <time>2013-10-13T11:03:59Z</time>
      </trkpt>
      <trkpt lat="47.23816" lon="-1.61889">
        <ele>-21.8</ele>
        <time>2013-10-13T11:04:01Z</time>
      </trkpt>
      <trkpt lat="47.23809" lon="-1.61875">
        <ele>-21.4</ele>
        <time>2013-10-13T11:04:03Z</time>
      </trkpt>
      <trkpt lat="47.23803" lon="-1.61861">
        <ele>-20.6</ele>
        <time>2013-10-13T11:04:05Z</time>
      </trkpt>
      <trkpt lat="47.23797" lon="-1.61851">
        <ele>-19.8</ele>
        <time>2013-10-13T11:04:07Z</time>
      </trkpt>
      <trkpt lat="47.23787" lon="-1.61838">
        <ele>-18.6</ele>
        <time>2013-10-13T11:04:10Z</time>
      </trkpt>
      <trkpt lat="47.23781" lon="-1.61828">
        <ele>-17.7</ele>
        <time>2013-10-13T11:04:12Z</time>
      </trkpt>
      <trkpt lat="47.23772" lon="-1.61814">
        <ele>-16.9</ele>
        <time>2013-10-13T11:04:14Z</time>
      </trkpt>
      <trkpt lat="47.23767" lon="-1.61803">
        <ele>-15.9</ele>
        <time>2013-10-13T11:04:17Z</time>
      </trkpt>
      <trkpt lat="47.23762" lon="-1.61791">
        <ele>-15.3</ele>
        <time>2013-10-13T11:04:20Z</time>
      </trkpt>
      <trkpt lat="47.23758" lon="-1.61777">
        <ele>-14.7</ele>
        <time>2013-10-13T11:04:23Z</time>
      </trkpt>
      <trkpt lat="47.23755" lon="-1.61762">
        <ele>-14</ele>
        <time>2013-10-13T11:04:26Z</time>
      </trkpt>
      <trkpt lat="47.23754" lon="-1.61747">
        <ele>-13.4</ele>
        <time>2013-10-13T11:04:29Z</time>
      </trkpt>
      <trkpt lat="47.23753" lon="-1.61732">
        <ele>-12.8</ele>
        <time>2013-10-13T11:04:32Z</time>
      </trkpt>
      <trkpt lat="47.23754" lon="-1.61716">
        <ele>-12.3</ele>
        <time>2013-10-13T11:04:35Z</time>
      </trkpt>
      <trkpt lat="47.23757" lon="-1.61699">
        <ele>-11.9</ele>
        <time>2013-10-13T11:04:38Z</time>
      </trkpt>
      <trkpt lat="47.2376" lon="-1.6168">
        <ele>-11.7</ele>
        <time>2013-10-13T11:04:40Z</time>
      </trkpt>
      <trkpt lat="47.23763" lon="-1.61657">
        <ele>-11.4</ele>
        <time>2013-10-13T11:04:42Z</time>
      </trkpt>
      <trkpt lat="47.23765" lon="-1.61643">
        <ele>-10.8</ele>
        <time>2013-10-13T11:04:44Z</time>
      </trkpt>
      <trkpt lat="47.23767" lon="-1.61627">
        <ele>-10</ele>
        <time>2013-10-13T11:04:47Z</time>
      </trkpt>
      <trkpt lat="47.2377" lon="-1.6161">
        <ele>-8.7</ele>
        <time>2013-10-13T11:04:50Z</time>
      </trkpt>
      <trkpt lat="47.23761" lon="-1.61599">
        <ele>-1.2</ele>
        <time>2013-10-13T11:04:52Z</time>
      </trkpt>
      <trkpt lat="47.23759" lon="-1.61585">
        <ele>-0.7</ele>
        <time>2013-10-13T11:04:54Z</time>
      </trkpt>
      <trkpt lat="47.23756" lon="-1.61569">
        <ele>-0.4</ele>
        <time>2013-10-13T11:04:56Z</time>
      </trkpt>
      <trkpt lat="47.23754" lon="-1.61555">
        <ele>-0.1</ele>
        <time>2013-10-13T11:04:58Z</time>
      </trkpt>
      <trkpt lat="47.2375" lon="-1.61542">
        <ele>1.3</ele>
        <time>2013-10-13T11:05:01Z</time>
      </trkpt>
      <trkpt lat="47.2374" lon="-1.61529">
        <ele>1.7</ele>
        <time>2013-10-13T11:05:06Z</time>
      </trkpt>
      <trkpt lat="47.23734" lon="-1.61519">
        <ele>2</ele>
        <time>2013-10-13T11:05:08Z</time>
      </trkpt>
      <trkpt lat="47.23728" lon="-1.61506">
        <ele>2.2</ele>
        <time>2013-10-13T11:05:11Z</time>
      </trkpt>
      <trkpt lat="47.23718" lon="-1.61502">
        <ele>2.8</ele>
        <time>2013-10-13T11:05:15Z</time>
      </trkpt>
      <trkpt lat="47.23708" lon="-1.61503">
        <ele>3.3</ele>
        <time>2013-10-13T11:05:19Z</time>
      </trkpt>
      <trkpt lat="47.23698" lon="-1.6151">
        <ele>4</ele>
        <time>2013-10-13T11:05:23Z</time>
      </trkpt>
      <trkpt lat="47.23689" lon="-1.61516">
        <ele>4.8</ele>
        <time>2013-10-13T11:05:26Z</time>
      </trkpt>
      <trkpt lat="47.2368" lon="-1.61521">
        <ele>5.8</ele>
        <time>2013-10-13T11:05:30Z</time>
      </trkpt>
      <trkpt lat="47.23671" lon="-1.61528">
        <ele>6.8</ele>
        <time>2013-10-13T11:05:35Z</time>
      </trkpt>
      <trkpt lat="47.23662" lon="-1.61532">
        <ele>7.6</ele>
        <time>2013-10-13T11:05:39Z</time>
      </trkpt>
      <trkpt lat="47.23652" lon="-1.61534">
        <ele>8.5</ele>
        <time>2013-10-13T11:05:44Z</time>
      </trkpt>
      <trkpt lat="47.23643" lon="-1.6153">
        <ele>10.5</ele>
        <time>2013-10-13T11:05:52Z</time>
      </trkpt>
      <trkpt lat="47.23633" lon="-1.61528">
        <ele>12</ele>
        <time>2013-10-13T11:06:00Z</time>
      </trkpt>
      <trkpt lat="47.23632" lon="-1.61515">
        <ele>13.3</ele>
        <time>2013-10-13T11:06:07Z</time>
      </trkpt>
      <trkpt lat="47.23635" lon="-1.61502">
        <ele>14.9</ele>
        <time>2013-10-13T11:06:13Z</time>
      </trkpt>
      <trkpt lat="47.23635" lon="-1.61487">
        <ele>16.1</ele>
        <time>2013-10-13T11:06:19Z</time>
      </trkpt>
      <trkpt lat="47.23633" lon="-1.61473">
        <ele>16.9</ele>
        <time>2013-10-13T11:06:24Z</time>
      </trkpt>
      <trkpt lat="47.23638" lon="-1.61462">
        <ele>18.2</ele>
        <time>2013-10-13T11:06:41Z</time>
      </trkpt>
      <trkpt lat="47.23645" lon="-1.61453">
        <ele>22.3</ele>
        <time>2013-10-13T11:07:05Z</time>
      </trkpt>
      <trkpt lat="47.23641" lon="-1.6144">
        <ele>22.9</ele>
        <time>2013-10-13T11:07:12Z</time>
      </trkpt>
      <trkpt lat="47.23635" lon="-1.6143">
        <ele>23.3</ele>
        <time>2013-10-13T11:07:17Z</time>
      </trkpt>
      <trkpt lat="47.23626" lon="-1.6142">
        <ele>23.2</ele>
        <time>2013-10-13T11:07:21Z</time>
      </trkpt>
      <trkpt lat="47.23618" lon="-1.6141">
        <ele>22.8</ele>
        <time>2013-10-13T11:07:26Z</time>
      </trkpt>
      <trkpt lat="47.23609" lon="-1.61399">
        <ele>22.5</ele>
        <time>2013-10-13T11:07:31Z</time>
      </trkpt>
      <trkpt lat="47.23602" lon="-1.61388">
        <ele>22.3</ele>
        <time>2013-10-13T11:07:35Z</time>
      </trkpt>
      <trkpt lat="47.23597" lon="-1.61374">
        <ele>22.2</ele>
        <time>2013-10-13T11:07:38Z</time>
      </trkpt>
      <trkpt lat="47.23594" lon="-1.61358">
        <ele>22</ele>
        <time>2013-10-13T11:07:41Z</time>
      </trkpt>
      <trkpt lat="47.23586" lon="-1.61346">
        <ele>22</ele>
        <time>2013-10-13T11:07:45Z</time>
      </trkpt>
      <trkpt lat="47.23577" lon="-1.61336">
        <ele>21.8</ele>
        <time>2013-10-13T11:07:49Z</time>
      </trkpt>
      <trkpt lat="47.23571" lon="-1.61321">
        <ele>21.4</ele>
        <time>2013-10-13T11:07:55Z</time>
      </trkpt>
      <trkpt lat="47.23567" lon="-1.61303">
        <ele>21.3</ele>
        <time>2013-10-13T11:07:57Z</time>
      </trkpt>
      <trkpt lat="47.23562" lon="-1.61283">
        <ele>21.2</ele>
        <time>2013-10-13T11:07:59Z</time>
      </trkpt>
      <trkpt lat="47.23556" lon="-1.61269">
        <ele>21.3</ele>
        <time>2013-10-13T11:08:01Z</time>
      </trkpt>
      <trkpt lat="47.23549" lon="-1.61259">
        <ele>24.8</ele>
        <time>2013-10-13T11:08:03Z</time>
      </trkpt>
      <trkpt lat="47.23542" lon="-1.61246">
        <ele>26.5</ele>
        <time>2013-10-13T11:08:05Z</time>
      </trkpt>
      <trkpt lat="47.23536" lon="-1.61234">
        <ele>26.9</ele>
        <time>2013-10-13T11:08:07Z</time>
      </trkpt>
      <trkpt lat="47.23525" lon="-1.61225">
        <ele>26.2</ele>
        <time>2013-10-13T11:08:10Z</time>
      </trkpt>
      <trkpt lat="47.23515" lon="-1.61224">
        <ele>25.9</ele>
        <time>2013-10-13T11:08:13Z</time>
      </trkpt>
      <trkpt lat="47.23506" lon="-1.61225">
        <ele>25.3</ele>
        <time>2013-10-13T11:08:17Z</time>
      </trkpt>
      <trkpt lat="47.23498" lon="-1.61217">
        <ele>22.3</ele>
        <time>2013-10-13T11:08:41Z</time>
      </trkpt>
      <trkpt lat="47.2349" lon="-1.61209">
        <ele>19</ele>
        <time>2013-10-13T11:08:56Z</time>
      </trkpt>
      <trkpt lat="47.23481" lon="-1.61201">
        <ele>16.7</ele>
        <time>2013-10-13T11:09:02Z</time>
      </trkpt>
      <trkpt lat="47.23474" lon="-1.61192">
        <ele>15</ele>
        <time>2013-10-13T11:09:09Z</time>
      </trkpt>
      <trkpt lat="47.23465" lon="-1.61187">
        <ele>14.7</ele>
        <time>2013-10-13T11:09:16Z</time>
      </trkpt>
      <trkpt lat="47.23455" lon="-1.61185">
        <ele>15.1</ele>
        <time>2013-10-13T11:09:23Z</time>
      </trkpt>
      <trkpt lat="47.23445" lon="-1.61189">
        <ele>15.9</ele>
        <time>2013-10-13T11:09:28Z</time>
      </trkpt>
      <trkpt lat="47.23434" lon="-1.61193">
        <ele>16.4</ele>
        <time>2013-10-13T11:09:34Z</time>
      </trkpt>
      <trkpt lat="47.23425" lon="-1.6119">
        <ele>16.7</ele>
        <time>2013-10-13T11:09:42Z</time>
      </trkpt>
      <trkpt lat="47.23415" lon="-1.61194">
        <ele>17.2</ele>
        <time>2013-10-13T11:09:47Z</time>
      </trkpt>
      <trkpt lat="47.2341" lon="-1.61206">
        <ele>17.1</ele>
        <time>2013-10-13T11:09:54Z</time>
      </trkpt>
      <trkpt lat="47.234" lon="-1.61214">
        <ele>16.3</ele>
        <time>2013-10-13T11:09:59Z</time>
      </trkpt>
      <trkpt lat="47.2339" lon="-1.61214">
        <ele>15.4</ele>
        <time>2013-10-13T11:10:03Z</time>
      </trkpt>
      <trkpt lat="47.23381" lon="-1.61219">
        <ele>13.9</ele>
        <time>2013-10-13T11:10:15Z</time>
      </trkpt>
      <trkpt lat="47.23375" lon="-1.61229">
        <ele>14</ele>
        <time>2013-10-13T11:10:25Z</time>
      </trkpt>
      <trkpt lat="47.23368" lon="-1.61238">
        <ele>15.8</ele>
        <time>2013-10-13T11:10:36Z</time>
      </trkpt>
      <trkpt lat="47.23359" lon="-1.61244">
        <ele>18.2</ele>
        <time>2013-10-13T11:10:43Z</time>
      </trkpt>
      <trkpt lat="47.23348" lon="-1.61245">
        <ele>20.1</ele>
        <time>2013-10-13T11:10:50Z</time>
      </trkpt>
      <trkpt lat="47.23339" lon="-1.61241">
        <ele>20.9</ele>
        <time>2013-10-13T11:10:56Z</time>
      </trkpt>
      <trkpt lat="47.23329" lon="-1.6124">
        <ele>21</ele>
        <time>2013-10-13T11:11:00Z</time>
      </trkpt>
      <trkpt lat="47.2332" lon="-1.61238">
        <ele>20.9</ele>
        <time>2013-10-13T11:11:04Z</time>
      </trkpt>
      <trkpt lat="47.2331" lon="-1.61236">
        <ele>20.6</ele>
        <time>2013-10-13T11:11:11Z</time>
      </trkpt>
      <trkpt lat="47.233" lon="-1.61236">
        <ele>20.7</ele>
        <time>2013-10-13T11:11:15Z</time>
      </trkpt>
      <trkpt lat="47.2329" lon="-1.61236">
        <ele>20.7</ele>
        <time>2013-10-13T11:11:18Z</time>
      </trkpt>
      <trkpt lat="47.2328" lon="-1.61235">
        <ele>20.5</ele>
        <time>2013-10-13T11:11:21Z</time>
      </trkpt>
      <trkpt lat="47.2327" lon="-1.61236">
        <ele>20.3</ele>
        <time>2013-10-13T11:11:23Z</time>
      </trkpt>
      <trkpt lat="47.23258" lon="-1.61238">
        <ele>20</ele>
        <time>2013-10-13T11:11:26Z</time>
      </trkpt>
      <trkpt lat="47.23247" lon="-1.61237">
        <ele>19.8</ele>
        <time>2013-10-13T11:11:28Z</time>
      </trkpt>
      <trkpt lat="47.23237" lon="-1.61232">
        <ele>19.3</ele>
        <time>2013-10-13T11:11:32Z</time>
      </trkpt>
      <trkpt lat="47.23229" lon="-1.61223">
        <ele>18.9</ele>
        <time>2013-10-13T11:11:37Z</time>
      </trkpt>
      <trkpt lat="47.23221" lon="-1.61219">
        <ele>18.5</ele>
        <time>2013-10-13T11:11:41Z</time>
      </trkpt>
      <trkpt lat="47.23209" lon="-1.6122">
        <ele>18.3</ele>
        <time>2013-10-13T11:11:43Z</time>
      </trkpt>
      <trkpt lat="47.23197" lon="-1.61221">
        <ele>17.3</ele>
        <time>2013-10-13T11:11:45Z</time>
      </trkpt>
      <trkpt lat="47.23184" lon="-1.61217">
        <ele>16.5</ele>
        <time>2013-10-13T11:11:47Z</time>
      </trkpt>
      <trkpt lat="47.23173" lon="-1.61214">
        <ele>15.7</ele>
        <time>2013-10-13T11:11:49Z</time>
      </trkpt>
      <trkpt lat="47.23164" lon="-1.61213">
        <ele>15.1</ele>
        <time>2013-10-13T11:11:51Z</time>
      </trkpt>
      <trkpt lat="47.23153" lon="-1.61211">
        <ele>15.4</ele>
        <time>2013-10-13T11:11:55Z</time>
      </trkpt>
      <trkpt lat="47.23143" lon="-1.61206">
        <ele>15.9</ele>
        <time>2013-10-13T11:11:59Z</time>
      </trkpt>
      <trkpt lat="47.23134" lon="-1.61195">
        <ele>16.6</ele>
        <time>2013-10-13T11:12:04Z</time>
      </trkpt>
      <trkpt lat="47.23129" lon="-1.61182">
        <ele>16.9</ele>
        <time>2013-10-13T11:12:07Z</time>
      </trkpt>
      <trkpt lat="47.23125" lon="-1.61168">
        <ele>17.7</ele>
        <time>2013-10-13T11:12:10Z</time>
      </trkpt>
      <trkpt lat="47.23121" lon="-1.61152">
        <ele>19.1</ele>
        <time>2013-10-13T11:12:14Z</time>
      </trkpt>
      <trkpt lat="47.23118" lon="-1.61138">
        <ele>20.3</ele>
        <time>2013-10-13T11:12:18Z</time>
      </trkpt>
      <trkpt lat="47.23124" lon="-1.61127">
        <ele>22.3</ele>
        <time>2013-10-13T11:12:24Z</time>
      </trkpt>
      <trkpt lat="47.23135" lon="-1.61122">
        <ele>23.5</ele>
        <time>2013-10-13T11:12:28Z</time>
      </trkpt>
      <trkpt lat="47.23144" lon="-1.61117">
        <ele>24.4</ele>
        <time>2013-10-13T11:12:31Z</time>
      </trkpt>
      <trkpt lat="47.23153" lon="-1.61112">
        <ele>25.2</ele>
        <time>2013-10-13T11:12:34Z</time>
      </trkpt>
      <trkpt lat="47.23164" lon="-1.61106">
        <ele>26.1</ele>
        <time>2013-10-13T11:12:37Z</time>
      </trkpt>
      <trkpt lat="47.23172" lon="-1.611">
        <ele>27</ele>
        <time>2013-10-13T11:12:40Z</time>
      </trkpt>
      <trkpt lat="47.23181" lon="-1.61095">
        <ele>27.6</ele>
        <time>2013-10-13T11:12:43Z</time>
      </trkpt>
      <trkpt lat="47.23189" lon="-1.61089">
        <ele>29.7</ele>
        <time>2013-10-13T11:12:46Z</time>
      </trkpt>
      <trkpt lat="47.23198" lon="-1.6108">
        <ele>30.2</ele>
        <time>2013-10-13T11:12:50Z</time>
      </trkpt>
      <trkpt lat="47.23206" lon="-1.61068">
        <ele>30.6</ele>
        <time>2013-10-13T11:12:55Z</time>
      </trkpt>
      <trkpt lat="47.23211" lon="-1.61056">
        <ele>30.9</ele>
        <time>2013-10-13T11:12:58Z</time>
      </trkpt>
      <trkpt lat="47.23216" lon="-1.61042">
        <ele>31.2</ele>
        <time>2013-10-13T11:13:01Z</time>
      </trkpt>
      <trkpt lat="47.23219" lon="-1.61029">
        <ele>31.6</ele>
        <time>2013-10-13T11:13:04Z</time>
      </trkpt>
      <trkpt lat="47.23221" lon="-1.61013">
        <ele>32.1</ele>
        <time>2013-10-13T11:13:08Z</time>
      </trkpt>
      <trkpt lat="47.2322" lon="-1.60999">
        <ele>32.4</ele>
        <time>2013-10-13T11:13:11Z</time>
      </trkpt>
      <trkpt lat="47.23216" lon="-1.60986">
        <ele>32.7</ele>
        <time>2013-10-13T11:13:14Z</time>
      </trkpt>
      <trkpt lat="47.23211" lon="-1.60973">
        <ele>33.1</ele>
        <time>2013-10-13T11:13:17Z</time>
      </trkpt>
      <trkpt lat="47.23204" lon="-1.60959">
        <ele>33.6</ele>
        <time>2013-10-13T11:13:21Z</time>
      </trkpt>
      <trkpt lat="47.23198" lon="-1.60948">
        <ele>34</ele>
        <time>2013-10-13T11:13:24Z</time>
      </trkpt>
      <trkpt lat="47.23193" lon="-1.60937">
        <ele>34.3</ele>
        <time>2013-10-13T11:13:27Z</time>
      </trkpt>
      <trkpt lat="47.23188" lon="-1.60924">
        <ele>34.5</ele>
        <time>2013-10-13T11:13:30Z</time>
      </trkpt>
      <trkpt lat="47.23183" lon="-1.60911">
        <ele>34.7</ele>
        <time>2013-10-13T11:13:33Z</time>
      </trkpt>
      <trkpt lat="47.23178" lon="-1.609">
        <ele>34.8</ele>
        <time>2013-10-13T11:13:36Z</time>
      </trkpt>
      <trkpt lat="47.23172" lon="-1.60887">
        <ele>34.8</ele>
        <time>2013-10-13T11:13:39Z</time>
      </trkpt>
      <trkpt lat="47.23167" lon="-1.60874">
        <ele>35.1</ele>
        <time>2013-10-13T11:13:42Z</time>
      </trkpt>
      <trkpt lat="47.23161" lon="-1.60863">
        <ele>35.7</ele>
        <time>2013-10-13T11:13:45Z</time>
      </trkpt>
      <trkpt lat="47.23154" lon="-1.6085">
        <ele>36.3</ele>
        <time>2013-10-13T11:13:48Z</time>
      </trkpt>
      <trkpt lat="47.23149" lon="-1.60837">
        <ele>36.9</ele>
        <time>2013-10-13T11:13:51Z</time>
      </trkpt>
      <trkpt lat="47.23143" lon="-1.60822">
        <ele>37.4</ele>
        <time>2013-10-13T11:13:55Z</time>
      </trkpt>
      <trkpt lat="47.23138" lon="-1.60806">
        <ele>37.6</ele>
        <time>2013-10-13T11:13:59Z</time>
      </trkpt>
      <trkpt lat="47.23132" lon="-1.6079">
        <ele>37.5</ele>
        <time>2013-10-13T11:14:03Z</time>
      </trkpt>
      <trkpt lat="47.23128" lon="-1.60776">
        <ele>37.3</ele>
        <time>2013-10-13T11:14:06Z</time>
      </trkpt>
      <trkpt lat="47.23123" lon="-1.60762">
        <ele>37.1</ele>
        <time>2013-10-13T11:14:09Z</time>
      </trkpt>
      <trkpt lat="47.23119" lon="-1.6075">
        <ele>37</ele>
        <time>2013-10-13T11:14:12Z</time>
      </trkpt>
      <trkpt lat="47.23113" lon="-1.60734">
        <ele>36.6</ele>
        <time>2013-10-13T11:14:16Z</time>
      </trkpt>
      <trkpt lat="47.23103" lon="-1.6073">
        <ele>36.4</ele>
        <time>2013-10-13T11:14:20Z</time>
      </trkpt>
      <trkpt lat="47.23094" lon="-1.60734">
        <ele>36.7</ele>
        <time>2013-10-13T11:14:23Z</time>
      </trkpt>
      <trkpt lat="47.23084" lon="-1.6074">
        <ele>37</ele>
        <time>2013-10-13T11:14:26Z</time>
      </trkpt>
      <trkpt lat="47.23076" lon="-1.6073">
        <ele>36.9</ele>
        <time>2013-10-13T11:14:30Z</time>
      </trkpt>
      <trkpt lat="47.23075" lon="-1.60716">
        <ele>36.5</ele>
        <time>2013-10-13T11:14:34Z</time>
      </trkpt>
      <trkpt lat="47.23073" lon="-1.60701">
        <ele>36.4</ele>
        <time>2013-10-13T11:14:37Z</time>
      </trkpt>
      <trkpt lat="47.23071" lon="-1.60685">
        <ele>36.4</ele>
        <time>2013-10-13T11:14:40Z</time>
      </trkpt>
      <trkpt lat="47.23073" lon="-1.6067">
        <ele>36.5</ele>
        <time>2013-10-13T11:14:44Z</time>
      </trkpt>
      <trkpt lat="47.23069" lon="-1.60656">
        <ele>37</ele>
        <time>2013-10-13T11:14:51Z</time>
      </trkpt>
      <trkpt lat="47.23078" lon="-1.60654">
        <ele>37.2</ele>
        <time>2013-10-13T11:14:59Z</time>
      </trkpt>
      <trkpt lat="47.23078" lon="-1.60667">
        <ele>37.5</ele>
        <time>2013-10-13T12:05:05Z</time>
      </trkpt>
      <trkpt lat="47.23075" lon="-1.60681">
        <ele>36.5</ele>
        <time>2013-10-13T12:05:12Z</time>
      </trkpt>
      <trkpt lat="47.23078" lon="-1.60667">
        <ele>30.5</ele>
        <time>2013-10-13T12:05:44Z</time>
      </trkpt>
      <trkpt lat="47.23081" lon="-1.60662">
        <ele>30.7</ele>
        <time>2013-10-13T12:05:48Z</time>
      </trkpt>
      <trkpt lat="47.23081" lon="-1.60662">
        <ele>30.7</ele>
        <time>2013-10-13T12:05:48Z</time>
      </trkpt>
    </trkseg>
  </trk>
</gpx>